<?xml version="1.0" encoding="UTF-8" standalone="no" ?>
<gpx xmlns="http://www.topografix.com/GPX/1/1" xmlns:xsi="http://www.w3.org/2001/XMLSchema-instance" xsi:schemaLocation="http://www.topografix.com/GPX/1/1 http://www.topografix.com/GPX/1/1/gpx.xsd" version="1.1" creator="VisuGPX - https://www.visugpx.com">
  <metadata>
    <name>Lamoura Cyclisme</name>
    <desc><![CDATA[Julbo enduro Jour1
]]></desc>
  </metadata>
  <trk>
    <name><![CDATA[Lamoura Cyclisme]]></name>
    <trkseg>
      <trkpt lat="46.41942" lon="5.96976">
        <ele>1131.8000488281</ele>
        <time>2018-06-09T07:19:49.000Z</time>
      </trkpt>
      <trkpt lat="46.41968" lon="5.96968">
        <ele>1131.8000488281</ele>
        <time>2018-06-09T07:19:54.000Z</time>
      </trkpt>
      <trkpt lat="46.41977" lon="5.96965">
        <ele>1131.8000488281</ele>
        <time>2018-06-09T07:19:56.000Z</time>
      </trkpt>
      <trkpt lat="46.41986" lon="5.96963">
        <ele>1132.1999511719</ele>
        <time>2018-06-09T07:19:58.000Z</time>
      </trkpt>
      <trkpt lat="46.41995" lon="5.96963">
        <ele>1132.8000488281</ele>
        <time>2018-06-09T07:20:00.000Z</time>
      </trkpt>
      <trkpt lat="46.42" lon="5.96962">
        <ele>1133</ele>
        <time>2018-06-09T07:20:01.000Z</time>
      </trkpt>
      <trkpt lat="46.42023" lon="5.9696">
        <ele>1133.5999755859</ele>
        <time>2018-06-09T07:20:06.000Z</time>
      </trkpt>
      <trkpt lat="46.42031" lon="5.9696">
        <ele>1133.5999755859</ele>
        <time>2018-06-09T07:20:08.000Z</time>
      </trkpt>
      <trkpt lat="46.42059" lon="5.96958">
        <ele>1134.1999511719</ele>
        <time>2018-06-09T07:20:14.000Z</time>
      </trkpt>
      <trkpt lat="46.42074" lon="5.96959">
        <ele>1135.4000244141</ele>
        <time>2018-06-09T07:20:18.000Z</time>
      </trkpt>
      <trkpt lat="46.42099" lon="5.96954">
        <ele>1136.4000244141</ele>
        <time>2018-06-09T07:20:26.000Z</time>
      </trkpt>
      <trkpt lat="46.42116" lon="5.96936">
        <ele>1137.4000244141</ele>
        <time>2018-06-09T07:20:33.000Z</time>
      </trkpt>
      <trkpt lat="46.42125" lon="5.96921">
        <ele>1138.5999755859</ele>
        <time>2018-06-09T07:20:37.000Z</time>
      </trkpt>
      <trkpt lat="46.42133" lon="5.96905">
        <ele>1139.5999755859</ele>
        <time>2018-06-09T07:20:42.000Z</time>
      </trkpt>
      <trkpt lat="46.42138" lon="5.96885">
        <ele>1140.5999755859</ele>
        <time>2018-06-09T07:20:47.000Z</time>
      </trkpt>
      <trkpt lat="46.4214" lon="5.96853">
        <ele>1141.8000488281</ele>
        <time>2018-06-09T07:20:54.000Z</time>
      </trkpt>
      <trkpt lat="46.42139" lon="5.96835">
        <ele>1142</ele>
        <time>2018-06-09T07:20:57.000Z</time>
      </trkpt>
      <trkpt lat="46.42139" lon="5.96813">
        <ele>1140.5999755859</ele>
        <time>2018-06-09T07:21:00.000Z</time>
      </trkpt>
      <trkpt lat="46.42138" lon="5.96805">
        <ele>1140.1999511719</ele>
        <time>2018-06-09T07:21:01.000Z</time>
      </trkpt>
      <trkpt lat="46.4214" lon="5.96781">
        <ele>1139.4000244141</ele>
        <time>2018-06-09T07:21:04.000Z</time>
      </trkpt>
      <trkpt lat="46.42142" lon="5.96759">
        <ele>1139.1999511719</ele>
        <time>2018-06-09T07:21:07.000Z</time>
      </trkpt>
      <trkpt lat="46.42145" lon="5.96736">
        <ele>1139</ele>
        <time>2018-06-09T07:21:10.000Z</time>
      </trkpt>
      <trkpt lat="46.42146" lon="5.96714">
        <ele>1139</ele>
        <time>2018-06-09T07:21:13.000Z</time>
      </trkpt>
      <trkpt lat="46.42149" lon="5.96673">
        <ele>1140</ele>
        <time>2018-06-09T07:21:21.000Z</time>
      </trkpt>
      <trkpt lat="46.42137" lon="5.96641">
        <ele>1139</ele>
        <time>2018-06-09T07:21:26.000Z</time>
      </trkpt>
      <trkpt lat="46.42129" lon="5.96626">
        <ele>1137.8000488281</ele>
        <time>2018-06-09T07:21:28.000Z</time>
      </trkpt>
      <trkpt lat="46.42118" lon="5.96605">
        <ele>1136.4000244141</ele>
        <time>2018-06-09T07:21:30.000Z</time>
      </trkpt>
      <trkpt lat="46.42108" lon="5.96588">
        <ele>1135.1999511719</ele>
        <time>2018-06-09T07:21:32.000Z</time>
      </trkpt>
      <trkpt lat="46.42105" lon="5.96578">
        <ele>1134.8000488281</ele>
        <time>2018-06-09T07:21:33.000Z</time>
      </trkpt>
      <trkpt lat="46.421" lon="5.96559">
        <ele>1134</ele>
        <time>2018-06-09T07:21:35.000Z</time>
      </trkpt>
      <trkpt lat="46.42097" lon="5.96547">
        <ele>1133.8000488281</ele>
        <time>2018-06-09T07:21:36.000Z</time>
      </trkpt>
      <trkpt lat="46.42096" lon="5.96521">
        <ele>1132.4000244141</ele>
        <time>2018-06-09T07:21:38.000Z</time>
      </trkpt>
      <trkpt lat="46.42101" lon="5.96495">
        <ele>1130.8000488281</ele>
        <time>2018-06-09T07:21:40.000Z</time>
      </trkpt>
      <trkpt lat="46.42112" lon="5.96471">
        <ele>1129.1999511719</ele>
        <time>2018-06-09T07:21:42.000Z</time>
      </trkpt>
      <trkpt lat="46.42126" lon="5.96449">
        <ele>1127.8000488281</ele>
        <time>2018-06-09T07:21:44.000Z</time>
      </trkpt>
      <trkpt lat="46.4214" lon="5.9643">
        <ele>1126.5999755859</ele>
        <time>2018-06-09T07:21:46.000Z</time>
      </trkpt>
      <trkpt lat="46.42156" lon="5.96408">
        <ele>1125.1999511719</ele>
        <time>2018-06-09T07:21:48.000Z</time>
      </trkpt>
      <trkpt lat="46.4217" lon="5.96389">
        <ele>1124.8000488281</ele>
        <time>2018-06-09T07:21:50.000Z</time>
      </trkpt>
      <trkpt lat="46.4218" lon="5.96375">
        <ele>1124.8000488281</ele>
        <time>2018-06-09T07:21:52.000Z</time>
      </trkpt>
      <trkpt lat="46.42193" lon="5.96368">
        <ele>1125</ele>
        <time>2018-06-09T07:21:54.000Z</time>
      </trkpt>
      <trkpt lat="46.42206" lon="5.96361">
        <ele>1125.4000244141</ele>
        <time>2018-06-09T07:21:56.000Z</time>
      </trkpt>
      <trkpt lat="46.42228" lon="5.96347">
        <ele>1126.4000244141</ele>
        <time>2018-06-09T07:22:00.000Z</time>
      </trkpt>
      <trkpt lat="46.42259" lon="5.96324">
        <ele>1127.4000244141</ele>
        <time>2018-06-09T07:22:07.000Z</time>
      </trkpt>
      <trkpt lat="46.42271" lon="5.96315">
        <ele>1128.8000488281</ele>
        <time>2018-06-09T07:22:10.000Z</time>
      </trkpt>
      <trkpt lat="46.42279" lon="5.9631">
        <ele>1129.8000488281</ele>
        <time>2018-06-09T07:22:12.000Z</time>
      </trkpt>
      <trkpt lat="46.42283" lon="5.96308">
        <ele>1129.8000488281</ele>
        <time>2018-06-09T07:22:13.000Z</time>
      </trkpt>
      <trkpt lat="46.42287" lon="5.96307">
        <ele>1130</ele>
        <time>2018-06-09T07:22:14.000Z</time>
      </trkpt>
      <trkpt lat="46.42296" lon="5.96308">
        <ele>1129.8000488281</ele>
        <time>2018-06-09T07:22:16.000Z</time>
      </trkpt>
      <trkpt lat="46.42317" lon="5.96315">
        <ele>1129.4000244141</ele>
        <time>2018-06-09T07:22:20.000Z</time>
      </trkpt>
      <trkpt lat="46.4233" lon="5.96311">
        <ele>1129</ele>
        <time>2018-06-09T07:22:22.000Z</time>
      </trkpt>
      <trkpt lat="46.42334" lon="5.96306">
        <ele>1128.5999755859</ele>
        <time>2018-06-09T07:22:23.000Z</time>
      </trkpt>
      <trkpt lat="46.42337" lon="5.96298">
        <ele>1128.4000244141</ele>
        <time>2018-06-09T07:22:24.000Z</time>
      </trkpt>
      <trkpt lat="46.42337" lon="5.96269">
        <ele>1127.5999755859</ele>
        <time>2018-06-09T07:22:27.000Z</time>
      </trkpt>
      <trkpt lat="46.42334" lon="5.96218">
        <ele>1126.4000244141</ele>
        <time>2018-06-09T07:22:32.000Z</time>
      </trkpt>
      <trkpt lat="46.4234" lon="5.96198">
        <ele>1124.5999755859</ele>
        <time>2018-06-09T07:22:34.000Z</time>
      </trkpt>
      <trkpt lat="46.42351" lon="5.96181">
        <ele>1123.1999511719</ele>
        <time>2018-06-09T07:22:36.000Z</time>
      </trkpt>
      <trkpt lat="46.42363" lon="5.96167">
        <ele>1121.8000488281</ele>
        <time>2018-06-09T07:22:38.000Z</time>
      </trkpt>
      <trkpt lat="46.42377" lon="5.96153">
        <ele>1120.1999511719</ele>
        <time>2018-06-09T07:22:40.000Z</time>
      </trkpt>
      <trkpt lat="46.42398" lon="5.96148">
        <ele>1119</ele>
        <time>2018-06-09T07:22:42.000Z</time>
      </trkpt>
      <trkpt lat="46.42407" lon="5.96144">
        <ele>1118.1999511719</ele>
        <time>2018-06-09T07:22:43.000Z</time>
      </trkpt>
      <trkpt lat="46.42417" lon="5.96141">
        <ele>1117.4000244141</ele>
        <time>2018-06-09T07:22:44.000Z</time>
      </trkpt>
      <trkpt lat="46.42426" lon="5.96141">
        <ele>1116.8000488281</ele>
        <time>2018-06-09T07:22:45.000Z</time>
      </trkpt>
      <trkpt lat="46.42436" lon="5.96144">
        <ele>1116</ele>
        <time>2018-06-09T07:22:46.000Z</time>
      </trkpt>
      <trkpt lat="46.42445" lon="5.96149">
        <ele>1115.4000244141</ele>
        <time>2018-06-09T07:22:47.000Z</time>
      </trkpt>
      <trkpt lat="46.42453" lon="5.96158">
        <ele>1114.5999755859</ele>
        <time>2018-06-09T07:22:48.000Z</time>
      </trkpt>
      <trkpt lat="46.42458" lon="5.96171">
        <ele>1113.8000488281</ele>
        <time>2018-06-09T07:22:49.000Z</time>
      </trkpt>
      <trkpt lat="46.42461" lon="5.96184">
        <ele>1112.8000488281</ele>
        <time>2018-06-09T07:22:50.000Z</time>
      </trkpt>
      <trkpt lat="46.42463" lon="5.96211">
        <ele>1111.4000244141</ele>
        <time>2018-06-09T07:22:52.000Z</time>
      </trkpt>
      <trkpt lat="46.42473" lon="5.96232">
        <ele>1110.8000488281</ele>
        <time>2018-06-09T07:22:54.000Z</time>
      </trkpt>
      <trkpt lat="46.42491" lon="5.9624">
        <ele>1110.1999511719</ele>
        <time>2018-06-09T07:22:56.000Z</time>
      </trkpt>
      <trkpt lat="46.42511" lon="5.96231">
        <ele>1109</ele>
        <time>2018-06-09T07:22:58.000Z</time>
      </trkpt>
      <trkpt lat="46.42528" lon="5.96216">
        <ele>1108.4000244141</ele>
        <time>2018-06-09T07:23:00.000Z</time>
      </trkpt>
      <trkpt lat="46.42544" lon="5.962">
        <ele>1107.8000488281</ele>
        <time>2018-06-09T07:23:02.000Z</time>
      </trkpt>
      <trkpt lat="46.42569" lon="5.96175">
        <ele>1106.4000244141</ele>
        <time>2018-06-09T07:23:05.000Z</time>
      </trkpt>
      <trkpt lat="46.42578" lon="5.96166">
        <ele>1105.4000244141</ele>
        <time>2018-06-09T07:23:06.000Z</time>
      </trkpt>
      <trkpt lat="46.42585" lon="5.96155">
        <ele>1104.4000244141</ele>
        <time>2018-06-09T07:23:07.000Z</time>
      </trkpt>
      <trkpt lat="46.42591" lon="5.96142">
        <ele>1103.1999511719</ele>
        <time>2018-06-09T07:23:08.000Z</time>
      </trkpt>
      <trkpt lat="46.42596" lon="5.96129">
        <ele>1102.1999511719</ele>
        <time>2018-06-09T07:23:09.000Z</time>
      </trkpt>
      <trkpt lat="46.42601" lon="5.96116">
        <ele>1101.4000244141</ele>
        <time>2018-06-09T07:23:10.000Z</time>
      </trkpt>
      <trkpt lat="46.42609" lon="5.96086">
        <ele>1099.4000244141</ele>
        <time>2018-06-09T07:23:12.000Z</time>
      </trkpt>
      <trkpt lat="46.42615" lon="5.96057">
        <ele>1098.1999511719</ele>
        <time>2018-06-09T07:23:14.000Z</time>
      </trkpt>
      <trkpt lat="46.42633" lon="5.95983">
        <ele>1097.8000488281</ele>
        <time>2018-06-09T07:23:20.000Z</time>
      </trkpt>
      <trkpt lat="46.42636" lon="5.95956">
        <ele>1097.4000244141</ele>
        <time>2018-06-09T07:23:22.000Z</time>
      </trkpt>
      <trkpt lat="46.42636" lon="5.95942">
        <ele>1097</ele>
        <time>2018-06-09T07:23:23.000Z</time>
      </trkpt>
      <trkpt lat="46.42634" lon="5.95928">
        <ele>1096.4000244141</ele>
        <time>2018-06-09T07:23:24.000Z</time>
      </trkpt>
      <trkpt lat="46.42631" lon="5.95916">
        <ele>1095.5999755859</ele>
        <time>2018-06-09T07:23:25.000Z</time>
      </trkpt>
      <trkpt lat="46.42624" lon="5.95892">
        <ele>1094.1999511719</ele>
        <time>2018-06-09T07:23:27.000Z</time>
      </trkpt>
      <trkpt lat="46.42621" lon="5.95881">
        <ele>1093.8000488281</ele>
        <time>2018-06-09T07:23:28.000Z</time>
      </trkpt>
      <trkpt lat="46.42614" lon="5.95802">
        <ele>1093</ele>
        <time>2018-06-09T07:23:35.000Z</time>
      </trkpt>
      <trkpt lat="46.42615" lon="5.95771">
        <ele>1092.8000488281</ele>
        <time>2018-06-09T07:23:38.000Z</time>
      </trkpt>
      <trkpt lat="46.42622" lon="5.95719">
        <ele>1092</ele>
        <time>2018-06-09T07:23:43.000Z</time>
      </trkpt>
      <trkpt lat="46.42622" lon="5.95677">
        <ele>1091.1999511719</ele>
        <time>2018-06-09T07:23:47.000Z</time>
      </trkpt>
      <trkpt lat="46.4262" lon="5.95634">
        <ele>1091.8000488281</ele>
        <time>2018-06-09T07:23:52.000Z</time>
      </trkpt>
      <trkpt lat="46.42617" lon="5.95615">
        <ele>1093</ele>
        <time>2018-06-09T07:23:55.000Z</time>
      </trkpt>
      <trkpt lat="46.42616" lon="5.95609">
        <ele>1093.5999755859</ele>
        <time>2018-06-09T07:23:56.000Z</time>
      </trkpt>
      <trkpt lat="46.42612" lon="5.95599">
        <ele>1094.4000244141</ele>
        <time>2018-06-09T07:23:58.000Z</time>
      </trkpt>
      <trkpt lat="46.42607" lon="5.95585">
        <ele>1095.4000244141</ele>
        <time>2018-06-09T07:24:01.000Z</time>
      </trkpt>
      <trkpt lat="46.426" lon="5.95563">
        <ele>1096.5999755859</ele>
        <time>2018-06-09T07:24:06.000Z</time>
      </trkpt>
      <trkpt lat="46.42593" lon="5.9554">
        <ele>1097.8000488281</ele>
        <time>2018-06-09T07:24:11.000Z</time>
      </trkpt>
      <trkpt lat="46.42579" lon="5.95483">
        <ele>1098.4000244141</ele>
        <time>2018-06-09T07:24:22.000Z</time>
      </trkpt>
      <trkpt lat="46.42551" lon="5.95411">
        <ele>1098.8000488281</ele>
        <time>2018-06-09T07:24:35.000Z</time>
      </trkpt>
      <trkpt lat="46.42548" lon="5.95405">
        <ele>1098.8000488281</ele>
        <time>2018-06-09T07:24:36.000Z</time>
      </trkpt>
      <trkpt lat="46.42531" lon="5.95373">
        <ele>1099</ele>
        <time>2018-06-09T07:24:42.000Z</time>
      </trkpt>
      <trkpt lat="46.42528" lon="5.95368">
        <ele>1099</ele>
        <time>2018-06-09T07:24:43.000Z</time>
      </trkpt>
      <trkpt lat="46.42508" lon="5.95331">
        <ele>1100</ele>
        <time>2018-06-09T07:24:50.000Z</time>
      </trkpt>
      <trkpt lat="46.42479" lon="5.95259">
        <ele>1100.8000488281</ele>
        <time>2018-06-09T07:25:02.000Z</time>
      </trkpt>
      <trkpt lat="46.42459" lon="5.95204">
        <ele>1101.1999511719</ele>
        <time>2018-06-09T07:25:11.000Z</time>
      </trkpt>
      <trkpt lat="46.42425" lon="5.95137">
        <ele>1100.5999755859</ele>
        <time>2018-06-09T07:25:21.000Z</time>
      </trkpt>
      <trkpt lat="46.42404" lon="5.95097">
        <ele>1100</ele>
        <time>2018-06-09T07:25:27.000Z</time>
      </trkpt>
      <trkpt lat="46.424" lon="5.9509">
        <ele>1100</ele>
        <time>2018-06-09T07:25:28.000Z</time>
      </trkpt>
      <trkpt lat="46.42369" lon="5.95033">
        <ele>1098.8000488281</ele>
        <time>2018-06-09T07:25:36.000Z</time>
      </trkpt>
      <trkpt lat="46.42323" lon="5.94986">
        <ele>1097.8000488281</ele>
        <time>2018-06-09T07:25:44.000Z</time>
      </trkpt>
      <trkpt lat="46.42292" lon="5.94959">
        <ele>1096.5999755859</ele>
        <time>2018-06-09T07:25:49.000Z</time>
      </trkpt>
      <trkpt lat="46.42252" lon="5.94929">
        <ele>1095.4000244141</ele>
        <time>2018-06-09T07:25:55.000Z</time>
      </trkpt>
      <trkpt lat="46.4224" lon="5.94917">
        <ele>1093.5999755859</ele>
        <time>2018-06-09T07:25:57.000Z</time>
      </trkpt>
      <trkpt lat="46.42234" lon="5.94911">
        <ele>1092.5999755859</ele>
        <time>2018-06-09T07:25:58.000Z</time>
      </trkpt>
      <trkpt lat="46.42222" lon="5.94898">
        <ele>1091.4000244141</ele>
        <time>2018-06-09T07:26:00.000Z</time>
      </trkpt>
      <trkpt lat="46.422" lon="5.94871">
        <ele>1090.1999511719</ele>
        <time>2018-06-09T07:26:04.000Z</time>
      </trkpt>
      <trkpt lat="46.42163" lon="5.94803">
        <ele>1089.4000244141</ele>
        <time>2018-06-09T07:26:13.000Z</time>
      </trkpt>
      <trkpt lat="46.42136" lon="5.94749">
        <ele>1089.1999511719</ele>
        <time>2018-06-09T07:26:20.000Z</time>
      </trkpt>
      <trkpt lat="46.42132" lon="5.94743">
        <ele>1089.1999511719</ele>
        <time>2018-06-09T07:26:21.000Z</time>
      </trkpt>
      <trkpt lat="46.42127" lon="5.94737">
        <ele>1089</ele>
        <time>2018-06-09T07:26:22.000Z</time>
      </trkpt>
      <trkpt lat="46.42113" lon="5.94721">
        <ele>1088.5999755859</ele>
        <time>2018-06-09T07:26:25.000Z</time>
      </trkpt>
      <trkpt lat="46.42102" lon="5.94711">
        <ele>1088.1999511719</ele>
        <time>2018-06-09T07:26:27.000Z</time>
      </trkpt>
      <trkpt lat="46.42075" lon="5.94681">
        <ele>1086.8000488281</ele>
        <time>2018-06-09T07:26:32.000Z</time>
      </trkpt>
      <trkpt lat="46.42059" lon="5.94656">
        <ele>1085.4000244141</ele>
        <time>2018-06-09T07:26:35.000Z</time>
      </trkpt>
      <trkpt lat="46.42038" lon="5.94625">
        <ele>1084.1999511719</ele>
        <time>2018-06-09T07:26:39.000Z</time>
      </trkpt>
      <trkpt lat="46.4201" lon="5.94589">
        <ele>1083</ele>
        <time>2018-06-09T07:26:44.000Z</time>
      </trkpt>
      <trkpt lat="46.41971" lon="5.94531">
        <ele>1083</ele>
        <time>2018-06-09T07:26:52.000Z</time>
      </trkpt>
      <trkpt lat="46.41929" lon="5.9447">
        <ele>1083.1999511719</ele>
        <time>2018-06-09T07:27:00.000Z</time>
      </trkpt>
      <trkpt lat="46.41909" lon="5.9444">
        <ele>1082.4000244141</ele>
        <time>2018-06-09T07:27:04.000Z</time>
      </trkpt>
      <trkpt lat="46.4189" lon="5.94411">
        <ele>1081.8000488281</ele>
        <time>2018-06-09T07:27:08.000Z</time>
      </trkpt>
      <trkpt lat="46.41849" lon="5.94349">
        <ele>1081</ele>
        <time>2018-06-09T07:27:17.000Z</time>
      </trkpt>
      <trkpt lat="46.41819" lon="5.94305">
        <ele>1080.8000488281</ele>
        <time>2018-06-09T07:27:24.000Z</time>
      </trkpt>
      <trkpt lat="46.41779" lon="5.94244">
        <ele>1080</ele>
        <time>2018-06-09T07:27:34.000Z</time>
      </trkpt>
      <trkpt lat="46.41775" lon="5.94238">
        <ele>1079.8000488281</ele>
        <time>2018-06-09T07:27:35.000Z</time>
      </trkpt>
      <trkpt lat="46.41734" lon="5.94177">
        <ele>1079</ele>
        <time>2018-06-09T07:27:45.000Z</time>
      </trkpt>
      <trkpt lat="46.41725" lon="5.94164">
        <ele>1078.8000488281</ele>
        <time>2018-06-09T07:27:47.000Z</time>
      </trkpt>
      <trkpt lat="46.41692" lon="5.94112">
        <ele>1077.4000244141</ele>
        <time>2018-06-09T07:27:54.000Z</time>
      </trkpt>
      <trkpt lat="46.41669" lon="5.9408">
        <ele>1076.1999511719</ele>
        <time>2018-06-09T07:27:58.000Z</time>
      </trkpt>
      <trkpt lat="46.41636" lon="5.94033">
        <ele>1075</ele>
        <time>2018-06-09T07:28:04.000Z</time>
      </trkpt>
      <trkpt lat="46.41613" lon="5.93998">
        <ele>1074</ele>
        <time>2018-06-09T07:28:08.000Z</time>
      </trkpt>
      <trkpt lat="46.41596" lon="5.93973">
        <ele>1072.8000488281</ele>
        <time>2018-06-09T07:28:11.000Z</time>
      </trkpt>
      <trkpt lat="46.41585" lon="5.93956">
        <ele>1071.5999755859</ele>
        <time>2018-06-09T07:28:13.000Z</time>
      </trkpt>
      <trkpt lat="46.41574" lon="5.93938">
        <ele>1070</ele>
        <time>2018-06-09T07:28:15.000Z</time>
      </trkpt>
      <trkpt lat="46.41563" lon="5.93919">
        <ele>1068.8000488281</ele>
        <time>2018-06-09T07:28:17.000Z</time>
      </trkpt>
      <trkpt lat="46.41546" lon="5.93889">
        <ele>1067.4000244141</ele>
        <time>2018-06-09T07:28:20.000Z</time>
      </trkpt>
      <trkpt lat="46.41534" lon="5.93867">
        <ele>1066</ele>
        <time>2018-06-09T07:28:22.000Z</time>
      </trkpt>
      <trkpt lat="46.41522" lon="5.93847">
        <ele>1064.1999511719</ele>
        <time>2018-06-09T07:28:24.000Z</time>
      </trkpt>
      <trkpt lat="46.4151" lon="5.93826">
        <ele>1062.8000488281</ele>
        <time>2018-06-09T07:28:26.000Z</time>
      </trkpt>
      <trkpt lat="46.41493" lon="5.93794">
        <ele>1061.4000244141</ele>
        <time>2018-06-09T07:28:29.000Z</time>
      </trkpt>
      <trkpt lat="46.41474" lon="5.93764">
        <ele>1060.4000244141</ele>
        <time>2018-06-09T07:28:32.000Z</time>
      </trkpt>
      <trkpt lat="46.41456" lon="5.93734">
        <ele>1059.1999511719</ele>
        <time>2018-06-09T07:28:35.000Z</time>
      </trkpt>
      <trkpt lat="46.41429" lon="5.93692">
        <ele>1057.4000244141</ele>
        <time>2018-06-09T07:28:39.000Z</time>
      </trkpt>
      <trkpt lat="46.41418" lon="5.93668">
        <ele>1055.5999755859</ele>
        <time>2018-06-09T07:28:41.000Z</time>
      </trkpt>
      <trkpt lat="46.41407" lon="5.93643">
        <ele>1054.5999755859</ele>
        <time>2018-06-09T07:28:43.000Z</time>
      </trkpt>
      <trkpt lat="46.41383" lon="5.93589">
        <ele>1053.4000244141</ele>
        <time>2018-06-09T07:28:48.000Z</time>
      </trkpt>
      <trkpt lat="46.41374" lon="5.93567">
        <ele>1052.1999511719</ele>
        <time>2018-06-09T07:28:50.000Z</time>
      </trkpt>
      <trkpt lat="46.41358" lon="5.93534">
        <ele>1051</ele>
        <time>2018-06-09T07:28:53.000Z</time>
      </trkpt>
      <trkpt lat="46.41348" lon="5.93511">
        <ele>1049.8000488281</ele>
        <time>2018-06-09T07:28:55.000Z</time>
      </trkpt>
      <trkpt lat="46.41339" lon="5.93487">
        <ele>1048.5999755859</ele>
        <time>2018-06-09T07:28:57.000Z</time>
      </trkpt>
      <trkpt lat="46.41331" lon="5.93463">
        <ele>1047.5999755859</ele>
        <time>2018-06-09T07:28:59.000Z</time>
      </trkpt>
      <trkpt lat="46.41326" lon="5.93451">
        <ele>1047</ele>
        <time>2018-06-09T07:29:00.000Z</time>
      </trkpt>
      <trkpt lat="46.41317" lon="5.93428">
        <ele>1045.4000244141</ele>
        <time>2018-06-09T07:29:02.000Z</time>
      </trkpt>
      <trkpt lat="46.41309" lon="5.93406">
        <ele>1044.4000244141</ele>
        <time>2018-06-09T07:29:04.000Z</time>
      </trkpt>
      <trkpt lat="46.41304" lon="5.93395">
        <ele>1044.1999511719</ele>
        <time>2018-06-09T07:29:05.000Z</time>
      </trkpt>
      <trkpt lat="46.41285" lon="5.93349">
        <ele>1043.8000488281</ele>
        <time>2018-06-09T07:29:09.000Z</time>
      </trkpt>
      <trkpt lat="46.41281" lon="5.93325">
        <ele>1043.8000488281</ele>
        <time>2018-06-09T07:29:11.000Z</time>
      </trkpt>
      <trkpt lat="46.41282" lon="5.93285">
        <ele>1043.5999755859</ele>
        <time>2018-06-09T07:29:15.000Z</time>
      </trkpt>
      <trkpt lat="46.41276" lon="5.93266">
        <ele>1043.4000244141</ele>
        <time>2018-06-09T07:29:17.000Z</time>
      </trkpt>
      <trkpt lat="46.41257" lon="5.93245">
        <ele>1042.5999755859</ele>
        <time>2018-06-09T07:29:20.000Z</time>
      </trkpt>
      <trkpt lat="46.41251" lon="5.93236">
        <ele>1042.4000244141</ele>
        <time>2018-06-09T07:29:21.000Z</time>
      </trkpt>
      <trkpt lat="46.41247" lon="5.93226">
        <ele>1042.1999511719</ele>
        <time>2018-06-09T07:29:22.000Z</time>
      </trkpt>
      <trkpt lat="46.4124" lon="5.93179">
        <ele>1041</ele>
        <time>2018-06-09T07:29:26.000Z</time>
      </trkpt>
      <trkpt lat="46.41231" lon="5.93161">
        <ele>1040.4000244141</ele>
        <time>2018-06-09T07:29:28.000Z</time>
      </trkpt>
      <trkpt lat="46.41223" lon="5.93155">
        <ele>1039.8000488281</ele>
        <time>2018-06-09T07:29:29.000Z</time>
      </trkpt>
      <trkpt lat="46.41205" lon="5.93143">
        <ele>1038</ele>
        <time>2018-06-09T07:29:31.000Z</time>
      </trkpt>
      <trkpt lat="46.4119" lon="5.93125">
        <ele>1036.5999755859</ele>
        <time>2018-06-09T07:29:33.000Z</time>
      </trkpt>
      <trkpt lat="46.41176" lon="5.93103">
        <ele>1035</ele>
        <time>2018-06-09T07:29:35.000Z</time>
      </trkpt>
      <trkpt lat="46.41166" lon="5.93077">
        <ele>1034</ele>
        <time>2018-06-09T07:29:37.000Z</time>
      </trkpt>
      <trkpt lat="46.41163" lon="5.93063">
        <ele>1033.5999755859</ele>
        <time>2018-06-09T07:29:38.000Z</time>
      </trkpt>
      <trkpt lat="46.4116" lon="5.9305">
        <ele>1032.8000488281</ele>
        <time>2018-06-09T07:29:39.000Z</time>
      </trkpt>
      <trkpt lat="46.41154" lon="5.93039">
        <ele>1031.8000488281</ele>
        <time>2018-06-09T07:29:40.000Z</time>
      </trkpt>
      <trkpt lat="46.41141" lon="5.9302">
        <ele>1030.4000244141</ele>
        <time>2018-06-09T07:29:42.000Z</time>
      </trkpt>
      <trkpt lat="46.4111" lon="5.92953">
        <ele>1029.1999511719</ele>
        <time>2018-06-09T07:29:48.000Z</time>
      </trkpt>
      <trkpt lat="46.41102" lon="5.9293">
        <ele>1028.1999511719</ele>
        <time>2018-06-09T07:29:50.000Z</time>
      </trkpt>
      <trkpt lat="46.41095" lon="5.92907">
        <ele>1027</ele>
        <time>2018-06-09T07:29:52.000Z</time>
      </trkpt>
      <trkpt lat="46.41071" lon="5.92826">
        <ele>1025.8000488281</ele>
        <time>2018-06-09T07:29:59.000Z</time>
      </trkpt>
      <trkpt lat="46.41056" lon="5.92784">
        <ele>1024.5999755859</ele>
        <time>2018-06-09T07:30:03.000Z</time>
      </trkpt>
      <trkpt lat="46.41039" lon="5.92744">
        <ele>1023.5999755859</ele>
        <time>2018-06-09T07:30:07.000Z</time>
      </trkpt>
      <trkpt lat="46.4102" lon="5.92692">
        <ele>1022.4000244141</ele>
        <time>2018-06-09T07:30:12.000Z</time>
      </trkpt>
      <trkpt lat="46.41013" lon="5.92665">
        <ele>1021.200012207</ele>
        <time>2018-06-09T07:30:14.000Z</time>
      </trkpt>
      <trkpt lat="46.41009" lon="5.92637">
        <ele>1019.5999755859</ele>
        <time>2018-06-09T07:30:16.000Z</time>
      </trkpt>
      <trkpt lat="46.41009" lon="5.92623">
        <ele>1018.4000244141</ele>
        <time>2018-06-09T07:30:17.000Z</time>
      </trkpt>
      <trkpt lat="46.41008" lon="5.92609">
        <ele>1017.200012207</ele>
        <time>2018-06-09T07:30:18.000Z</time>
      </trkpt>
      <trkpt lat="46.41008" lon="5.92594">
        <ele>1016</ele>
        <time>2018-06-09T07:30:19.000Z</time>
      </trkpt>
      <trkpt lat="46.41007" lon="5.92581">
        <ele>1015.200012207</ele>
        <time>2018-06-09T07:30:20.000Z</time>
      </trkpt>
      <trkpt lat="46.41003" lon="5.92567">
        <ele>1014.5999755859</ele>
        <time>2018-06-09T07:30:21.000Z</time>
      </trkpt>
      <trkpt lat="46.40999" lon="5.92553">
        <ele>1013.799987793</ele>
        <time>2018-06-09T07:30:22.000Z</time>
      </trkpt>
      <trkpt lat="46.40993" lon="5.92539">
        <ele>1012.799987793</ele>
        <time>2018-06-09T07:30:23.000Z</time>
      </trkpt>
      <trkpt lat="46.40987" lon="5.92525">
        <ele>1011.799987793</ele>
        <time>2018-06-09T07:30:24.000Z</time>
      </trkpt>
      <trkpt lat="46.40982" lon="5.92513">
        <ele>1010.5999755859</ele>
        <time>2018-06-09T07:30:25.000Z</time>
      </trkpt>
      <trkpt lat="46.40977" lon="5.92503">
        <ele>1009.4000244141</ele>
        <time>2018-06-09T07:30:26.000Z</time>
      </trkpt>
      <trkpt lat="46.40973" lon="5.92494">
        <ele>1008.5999755859</ele>
        <time>2018-06-09T07:30:27.000Z</time>
      </trkpt>
      <trkpt lat="46.40971" lon="5.92486">
        <ele>1008</ele>
        <time>2018-06-09T07:30:28.000Z</time>
      </trkpt>
      <trkpt lat="46.40962" lon="5.92461">
        <ele>1006.799987793</ele>
        <time>2018-06-09T07:30:33.000Z</time>
      </trkpt>
      <trkpt lat="46.40961" lon="5.92455">
        <ele>1005.799987793</ele>
        <time>2018-06-09T07:30:39.000Z</time>
      </trkpt>
      <trkpt lat="46.40976" lon="5.92449">
        <ele>1007</ele>
        <time>2018-06-09T07:31:01.000Z</time>
      </trkpt>
      <trkpt lat="46.4098" lon="5.92442">
        <ele>1008</ele>
        <time>2018-06-09T07:31:08.000Z</time>
      </trkpt>
      <trkpt lat="46.40981" lon="5.92438">
        <ele>1009</ele>
        <time>2018-06-09T07:31:15.000Z</time>
      </trkpt>
      <trkpt lat="46.40984" lon="5.92426">
        <ele>1010.200012207</ele>
        <time>2018-06-09T07:31:26.000Z</time>
      </trkpt>
      <trkpt lat="46.40985" lon="5.92423">
        <ele>1011.200012207</ele>
        <time>2018-06-09T07:31:33.000Z</time>
      </trkpt>
      <trkpt lat="46.40985" lon="5.9242">
        <ele>1012.200012207</ele>
        <time>2018-06-09T07:31:37.000Z</time>
      </trkpt>
      <trkpt lat="46.40988" lon="5.92417">
        <ele>1013.4000244141</ele>
        <time>2018-06-09T07:31:43.000Z</time>
      </trkpt>
      <trkpt lat="46.4099" lon="5.92415">
        <ele>1014.4000244141</ele>
        <time>2018-06-09T07:31:49.000Z</time>
      </trkpt>
      <trkpt lat="46.40992" lon="5.92411">
        <ele>1015.5999755859</ele>
        <time>2018-06-09T07:31:56.000Z</time>
      </trkpt>
      <trkpt lat="46.40993" lon="5.92407">
        <ele>1016.5999755859</ele>
        <time>2018-06-09T07:32:01.000Z</time>
      </trkpt>
      <trkpt lat="46.40994" lon="5.92404">
        <ele>1017.5999755859</ele>
        <time>2018-06-09T07:32:05.000Z</time>
      </trkpt>
      <trkpt lat="46.40996" lon="5.924">
        <ele>1018.799987793</ele>
        <time>2018-06-09T07:32:10.000Z</time>
      </trkpt>
      <trkpt lat="46.40998" lon="5.92396">
        <ele>1019.799987793</ele>
        <time>2018-06-09T07:32:15.000Z</time>
      </trkpt>
      <trkpt lat="46.41" lon="5.92391">
        <ele>1020.799987793</ele>
        <time>2018-06-09T07:32:21.000Z</time>
      </trkpt>
      <trkpt lat="46.41002" lon="5.92387">
        <ele>1022</ele>
        <time>2018-06-09T07:32:26.000Z</time>
      </trkpt>
      <trkpt lat="46.41005" lon="5.9238">
        <ele>1023.200012207</ele>
        <time>2018-06-09T07:32:33.000Z</time>
      </trkpt>
      <trkpt lat="46.41007" lon="5.92376">
        <ele>1024.4000244141</ele>
        <time>2018-06-09T07:32:41.000Z</time>
      </trkpt>
      <trkpt lat="46.41008" lon="5.92374">
        <ele>1025.4000244141</ele>
        <time>2018-06-09T07:32:47.000Z</time>
      </trkpt>
      <trkpt lat="46.4101" lon="5.92369">
        <ele>1026.4000244141</ele>
        <time>2018-06-09T07:32:53.000Z</time>
      </trkpt>
      <trkpt lat="46.41011" lon="5.92365">
        <ele>1027.4000244141</ele>
        <time>2018-06-09T07:32:58.000Z</time>
      </trkpt>
      <trkpt lat="46.41012" lon="5.92362">
        <ele>1028.5999755859</ele>
        <time>2018-06-09T07:33:04.000Z</time>
      </trkpt>
      <trkpt lat="46.41014" lon="5.92358">
        <ele>1029.5999755859</ele>
        <time>2018-06-09T07:33:10.000Z</time>
      </trkpt>
      <trkpt lat="46.41017" lon="5.92353">
        <ele>1030.5999755859</ele>
        <time>2018-06-09T07:33:15.000Z</time>
      </trkpt>
      <trkpt lat="46.41017" lon="5.92353">
        <ele>1030.8000488281</ele>
        <time>2018-06-09T07:33:16.000Z</time>
      </trkpt>
      <trkpt lat="46.41018" lon="5.92346">
        <ele>1032</ele>
        <time>2018-06-09T07:33:23.000Z</time>
      </trkpt>
      <trkpt lat="46.41019" lon="5.9234">
        <ele>1033.1999511719</ele>
        <time>2018-06-09T07:33:29.000Z</time>
      </trkpt>
      <trkpt lat="46.41019" lon="5.92339">
        <ele>1033.1999511719</ele>
        <time>2018-06-09T07:33:30.000Z</time>
      </trkpt>
      <trkpt lat="46.41019" lon="5.92338">
        <ele>1034.1999511719</ele>
        <time>2018-06-09T07:33:35.000Z</time>
      </trkpt>
      <trkpt lat="46.41021" lon="5.92332">
        <ele>1035.4000244141</ele>
        <time>2018-06-09T07:33:42.000Z</time>
      </trkpt>
      <trkpt lat="46.41021" lon="5.92333">
        <ele>1036.4000244141</ele>
        <time>2018-06-09T07:33:48.000Z</time>
      </trkpt>
      <trkpt lat="46.41023" lon="5.92326">
        <ele>1037.5999755859</ele>
        <time>2018-06-09T07:33:54.000Z</time>
      </trkpt>
      <trkpt lat="46.41025" lon="5.92322">
        <ele>1038.5999755859</ele>
        <time>2018-06-09T07:34:00.000Z</time>
      </trkpt>
      <trkpt lat="46.41026" lon="5.92314">
        <ele>1039.8000488281</ele>
        <time>2018-06-09T07:34:07.000Z</time>
      </trkpt>
      <trkpt lat="46.41029" lon="5.92306">
        <ele>1041</ele>
        <time>2018-06-09T07:34:14.000Z</time>
      </trkpt>
      <trkpt lat="46.41031" lon="5.92297">
        <ele>1042</ele>
        <time>2018-06-09T07:34:21.000Z</time>
      </trkpt>
      <trkpt lat="46.4103" lon="5.92294">
        <ele>1043</ele>
        <time>2018-06-09T07:34:26.000Z</time>
      </trkpt>
      <trkpt lat="46.4103" lon="5.9229">
        <ele>1044</ele>
        <time>2018-06-09T07:34:34.000Z</time>
      </trkpt>
      <trkpt lat="46.4103" lon="5.92285">
        <ele>1045.1999511719</ele>
        <time>2018-06-09T07:34:40.000Z</time>
      </trkpt>
      <trkpt lat="46.41033" lon="5.92282">
        <ele>1046.4000244141</ele>
        <time>2018-06-09T07:34:46.000Z</time>
      </trkpt>
      <trkpt lat="46.41035" lon="5.92278">
        <ele>1047.4000244141</ele>
        <time>2018-06-09T07:34:50.000Z</time>
      </trkpt>
      <trkpt lat="46.41037" lon="5.92271">
        <ele>1048.4000244141</ele>
        <time>2018-06-09T07:34:58.000Z</time>
      </trkpt>
      <trkpt lat="46.41038" lon="5.92272">
        <ele>1049.4000244141</ele>
        <time>2018-06-09T07:35:05.000Z</time>
      </trkpt>
      <trkpt lat="46.41039" lon="5.9227">
        <ele>1050.5999755859</ele>
        <time>2018-06-09T07:35:11.000Z</time>
      </trkpt>
      <trkpt lat="46.4104" lon="5.92269">
        <ele>1051.8000488281</ele>
        <time>2018-06-09T07:35:17.000Z</time>
      </trkpt>
      <trkpt lat="46.4104" lon="5.92268">
        <ele>1052.8000488281</ele>
        <time>2018-06-09T07:35:22.000Z</time>
      </trkpt>
      <trkpt lat="46.41039" lon="5.92266">
        <ele>1053.8000488281</ele>
        <time>2018-06-09T07:35:29.000Z</time>
      </trkpt>
      <trkpt lat="46.41037" lon="5.92263">
        <ele>1055</ele>
        <time>2018-06-09T07:35:34.000Z</time>
      </trkpt>
      <trkpt lat="46.41036" lon="5.92252">
        <ele>1056.1999511719</ele>
        <time>2018-06-09T07:35:40.000Z</time>
      </trkpt>
      <trkpt lat="46.41036" lon="5.92248">
        <ele>1057.1999511719</ele>
        <time>2018-06-09T07:35:46.000Z</time>
      </trkpt>
      <trkpt lat="46.41035" lon="5.92246">
        <ele>1058.4000244141</ele>
        <time>2018-06-09T07:35:53.000Z</time>
      </trkpt>
      <trkpt lat="46.41035" lon="5.92242">
        <ele>1059.4000244141</ele>
        <time>2018-06-09T07:36:01.000Z</time>
      </trkpt>
      <trkpt lat="46.41036" lon="5.92238">
        <ele>1060.5999755859</ele>
        <time>2018-06-09T07:36:06.000Z</time>
      </trkpt>
      <trkpt lat="46.41037" lon="5.9223">
        <ele>1061.5999755859</ele>
        <time>2018-06-09T07:36:12.000Z</time>
      </trkpt>
      <trkpt lat="46.41036" lon="5.92224">
        <ele>1062.8000488281</ele>
        <time>2018-06-09T07:36:17.000Z</time>
      </trkpt>
      <trkpt lat="46.41034" lon="5.92218">
        <ele>1063.8000488281</ele>
        <time>2018-06-09T07:36:23.000Z</time>
      </trkpt>
      <trkpt lat="46.41035" lon="5.92214">
        <ele>1065</ele>
        <time>2018-06-09T07:36:31.000Z</time>
      </trkpt>
      <trkpt lat="46.41035" lon="5.92211">
        <ele>1066.1999511719</ele>
        <time>2018-06-09T07:36:38.000Z</time>
      </trkpt>
      <trkpt lat="46.4104" lon="5.92212">
        <ele>1067.4000244141</ele>
        <time>2018-06-09T07:36:44.000Z</time>
      </trkpt>
      <trkpt lat="46.41044" lon="5.92219">
        <ele>1068.4000244141</ele>
        <time>2018-06-09T07:36:50.000Z</time>
      </trkpt>
      <trkpt lat="46.41052" lon="5.92223">
        <ele>1069.4000244141</ele>
        <time>2018-06-09T07:36:59.000Z</time>
      </trkpt>
      <trkpt lat="46.41054" lon="5.92225">
        <ele>1070.5999755859</ele>
        <time>2018-06-09T07:37:06.000Z</time>
      </trkpt>
      <trkpt lat="46.41053" lon="5.92229">
        <ele>1071.5999755859</ele>
        <time>2018-06-09T07:37:15.000Z</time>
      </trkpt>
      <trkpt lat="46.41056" lon="5.9223">
        <ele>1072.5999755859</ele>
        <time>2018-06-09T07:37:20.000Z</time>
      </trkpt>
      <trkpt lat="46.41058" lon="5.92233">
        <ele>1073.5999755859</ele>
        <time>2018-06-09T07:37:25.000Z</time>
      </trkpt>
      <trkpt lat="46.4106" lon="5.92234">
        <ele>1074.5999755859</ele>
        <time>2018-06-09T07:37:29.000Z</time>
      </trkpt>
      <trkpt lat="46.41063" lon="5.92235">
        <ele>1075.8000488281</ele>
        <time>2018-06-09T07:37:35.000Z</time>
      </trkpt>
      <trkpt lat="46.41066" lon="5.92237">
        <ele>1076.8000488281</ele>
        <time>2018-06-09T07:37:41.000Z</time>
      </trkpt>
      <trkpt lat="46.41068" lon="5.92239">
        <ele>1077.8000488281</ele>
        <time>2018-06-09T07:37:47.000Z</time>
      </trkpt>
      <trkpt lat="46.41071" lon="5.92238">
        <ele>1079</ele>
        <time>2018-06-09T07:37:54.000Z</time>
      </trkpt>
      <trkpt lat="46.41074" lon="5.92238">
        <ele>1080.1999511719</ele>
        <time>2018-06-09T07:38:00.000Z</time>
      </trkpt>
      <trkpt lat="46.41076" lon="5.92241">
        <ele>1081.1999511719</ele>
        <time>2018-06-09T07:38:07.000Z</time>
      </trkpt>
      <trkpt lat="46.4108" lon="5.9224">
        <ele>1082.1999511719</ele>
        <time>2018-06-09T07:38:12.000Z</time>
      </trkpt>
      <trkpt lat="46.4108" lon="5.92241">
        <ele>1083.4000244141</ele>
        <time>2018-06-09T07:38:16.000Z</time>
      </trkpt>
      <trkpt lat="46.41081" lon="5.92243">
        <ele>1084.4000244141</ele>
        <time>2018-06-09T07:38:23.000Z</time>
      </trkpt>
      <trkpt lat="46.41083" lon="5.92243">
        <ele>1085</ele>
        <time>2018-06-09T07:38:29.000Z</time>
      </trkpt>
      <trkpt lat="46.41084" lon="5.92246">
        <ele>1085.5999755859</ele>
        <time>2018-06-09T07:38:32.000Z</time>
      </trkpt>
      <trkpt lat="46.41085" lon="5.92249">
        <ele>1086.5999755859</ele>
        <time>2018-06-09T07:38:38.000Z</time>
      </trkpt>
      <trkpt lat="46.41087" lon="5.92253">
        <ele>1087.8000488281</ele>
        <time>2018-06-09T07:38:44.000Z</time>
      </trkpt>
      <trkpt lat="46.41089" lon="5.92257">
        <ele>1088.8000488281</ele>
        <time>2018-06-09T07:38:50.000Z</time>
      </trkpt>
      <trkpt lat="46.4109" lon="5.9226">
        <ele>1089.8000488281</ele>
        <time>2018-06-09T07:38:54.000Z</time>
      </trkpt>
      <trkpt lat="46.41092" lon="5.92261">
        <ele>1091</ele>
        <time>2018-06-09T07:38:59.000Z</time>
      </trkpt>
      <trkpt lat="46.41092" lon="5.92265">
        <ele>1092.1999511719</ele>
        <time>2018-06-09T07:39:07.000Z</time>
      </trkpt>
      <trkpt lat="46.41088" lon="5.92256">
        <ele>1093.1999511719</ele>
        <time>2018-06-09T07:39:17.000Z</time>
      </trkpt>
      <trkpt lat="46.41083" lon="5.92251">
        <ele>1094.1999511719</ele>
        <time>2018-06-09T07:39:26.000Z</time>
      </trkpt>
      <trkpt lat="46.41084" lon="5.92241">
        <ele>1095.1999511719</ele>
        <time>2018-06-09T07:39:33.000Z</time>
      </trkpt>
      <trkpt lat="46.41077" lon="5.92238">
        <ele>1096</ele>
        <time>2018-06-09T07:39:44.000Z</time>
      </trkpt>
      <trkpt lat="46.41076" lon="5.92236">
        <ele>1096.1999511719</ele>
        <time>2018-06-09T07:39:46.000Z</time>
      </trkpt>
      <trkpt lat="46.41073" lon="5.9223">
        <ele>1096</ele>
        <time>2018-06-09T07:39:49.000Z</time>
      </trkpt>
      <trkpt lat="46.41067" lon="5.92211">
        <ele>1096.4000244141</ele>
        <time>2018-06-09T07:40:11.000Z</time>
      </trkpt>
      <trkpt lat="46.4107" lon="5.92208">
        <ele>1097.5999755859</ele>
        <time>2018-06-09T07:40:19.000Z</time>
      </trkpt>
      <trkpt lat="46.41067" lon="5.92215">
        <ele>1097</ele>
        <time>2018-06-09T07:42:12.000Z</time>
      </trkpt>
      <trkpt lat="46.41068" lon="5.92208">
        <ele>1097.5999755859</ele>
        <time>2018-06-09T07:44:25.000Z</time>
      </trkpt>
      <trkpt lat="46.41061" lon="5.92185">
        <ele>1097.4000244141</ele>
        <time>2018-06-09T07:47:54.000Z</time>
      </trkpt>
      <trkpt lat="46.41058" lon="5.92178">
        <ele>1096</ele>
        <time>2018-06-09T07:47:56.000Z</time>
      </trkpt>
      <trkpt lat="46.41055" lon="5.92174">
        <ele>1094.8000488281</ele>
        <time>2018-06-09T07:47:57.000Z</time>
      </trkpt>
      <trkpt lat="46.4105" lon="5.92163">
        <ele>1092.8000488281</ele>
        <time>2018-06-09T07:47:59.000Z</time>
      </trkpt>
      <trkpt lat="46.41047" lon="5.92158">
        <ele>1094</ele>
        <time>2018-06-09T07:48:01.000Z</time>
      </trkpt>
      <trkpt lat="46.41032" lon="5.92122">
        <ele>1092.5999755859</ele>
        <time>2018-06-09T07:48:11.000Z</time>
      </trkpt>
      <trkpt lat="46.41026" lon="5.92109">
        <ele>1091.4000244141</ele>
        <time>2018-06-09T07:48:13.000Z</time>
      </trkpt>
      <trkpt lat="46.41018" lon="5.92095">
        <ele>1090.1999511719</ele>
        <time>2018-06-09T07:48:15.000Z</time>
      </trkpt>
      <trkpt lat="46.41012" lon="5.92085">
        <ele>1088.8000488281</ele>
        <time>2018-06-09T07:48:17.000Z</time>
      </trkpt>
      <trkpt lat="46.41004" lon="5.92072">
        <ele>1087.8000488281</ele>
        <time>2018-06-09T07:48:20.000Z</time>
      </trkpt>
      <trkpt lat="46.40996" lon="5.92051">
        <ele>1089</ele>
        <time>2018-06-09T07:48:27.000Z</time>
      </trkpt>
      <trkpt lat="46.40996" lon="5.92047">
        <ele>1090.1999511719</ele>
        <time>2018-06-09T07:48:32.000Z</time>
      </trkpt>
      <trkpt lat="46.40996" lon="5.92046">
        <ele>1091.1999511719</ele>
        <time>2018-06-09T07:48:36.000Z</time>
      </trkpt>
      <trkpt lat="46.40995" lon="5.92043">
        <ele>1092.1999511719</ele>
        <time>2018-06-09T07:48:41.000Z</time>
      </trkpt>
      <trkpt lat="46.40994" lon="5.9204">
        <ele>1092.8000488281</ele>
        <time>2018-06-09T07:48:43.000Z</time>
      </trkpt>
      <trkpt lat="46.40991" lon="5.92026">
        <ele>1093.1999511719</ele>
        <time>2018-06-09T07:48:46.000Z</time>
      </trkpt>
      <trkpt lat="46.40978" lon="5.9199">
        <ele>1093</ele>
        <time>2018-06-09T07:48:54.000Z</time>
      </trkpt>
      <trkpt lat="46.40964" lon="5.91964">
        <ele>1092.1999511719</ele>
        <time>2018-06-09T07:49:00.000Z</time>
      </trkpt>
      <trkpt lat="46.40958" lon="5.91945">
        <ele>1090.5999755859</ele>
        <time>2018-06-09T07:49:05.000Z</time>
      </trkpt>
      <trkpt lat="46.40953" lon="5.91933">
        <ele>1089.1999511719</ele>
        <time>2018-06-09T07:49:08.000Z</time>
      </trkpt>
      <trkpt lat="46.40948" lon="5.91919">
        <ele>1088</ele>
        <time>2018-06-09T07:49:11.000Z</time>
      </trkpt>
      <trkpt lat="46.40942" lon="5.91906">
        <ele>1086.5999755859</ele>
        <time>2018-06-09T07:49:14.000Z</time>
      </trkpt>
      <trkpt lat="46.40935" lon="5.91883">
        <ele>1085.8000488281</ele>
        <time>2018-06-09T07:49:20.000Z</time>
      </trkpt>
      <trkpt lat="46.40934" lon="5.9188">
        <ele>1085.1999511719</ele>
        <time>2018-06-09T07:49:21.000Z</time>
      </trkpt>
      <trkpt lat="46.40927" lon="5.91873">
        <ele>1083.5999755859</ele>
        <time>2018-06-09T07:49:23.000Z</time>
      </trkpt>
      <trkpt lat="46.40918" lon="5.91868">
        <ele>1082</ele>
        <time>2018-06-09T07:49:25.000Z</time>
      </trkpt>
      <trkpt lat="46.40916" lon="5.91865">
        <ele>1081</ele>
        <time>2018-06-09T07:49:26.000Z</time>
      </trkpt>
      <trkpt lat="46.40915" lon="5.91861">
        <ele>1079.5999755859</ele>
        <time>2018-06-09T07:49:27.000Z</time>
      </trkpt>
      <trkpt lat="46.40909" lon="5.91852">
        <ele>1078.5999755859</ele>
        <time>2018-06-09T07:49:29.000Z</time>
      </trkpt>
      <trkpt lat="46.40904" lon="5.91843">
        <ele>1078.5999755859</ele>
        <time>2018-06-09T07:49:31.000Z</time>
      </trkpt>
      <trkpt lat="46.40902" lon="5.91824">
        <ele>1079.5999755859</ele>
        <time>2018-06-09T07:49:36.000Z</time>
      </trkpt>
      <trkpt lat="46.40899" lon="5.91817">
        <ele>1079.8000488281</ele>
        <time>2018-06-09T07:49:38.000Z</time>
      </trkpt>
      <trkpt lat="46.40888" lon="5.9179">
        <ele>1078.4000244141</ele>
        <time>2018-06-09T07:49:46.000Z</time>
      </trkpt>
      <trkpt lat="46.40888" lon="5.91785">
        <ele>1077.4000244141</ele>
        <time>2018-06-09T07:49:48.000Z</time>
      </trkpt>
      <trkpt lat="46.40887" lon="5.91773">
        <ele>1076.5999755859</ele>
        <time>2018-06-09T07:49:52.000Z</time>
      </trkpt>
      <trkpt lat="46.40882" lon="5.91754">
        <ele>1076</ele>
        <time>2018-06-09T07:49:57.000Z</time>
      </trkpt>
      <trkpt lat="46.40879" lon="5.91742">
        <ele>1074.5999755859</ele>
        <time>2018-06-09T07:49:59.000Z</time>
      </trkpt>
      <trkpt lat="46.40876" lon="5.91734">
        <ele>1073.5999755859</ele>
        <time>2018-06-09T07:50:01.000Z</time>
      </trkpt>
      <trkpt lat="46.40865" lon="5.91719">
        <ele>1072</ele>
        <time>2018-06-09T07:50:06.000Z</time>
      </trkpt>
      <trkpt lat="46.40864" lon="5.9171">
        <ele>1070.4000244141</ele>
        <time>2018-06-09T07:50:08.000Z</time>
      </trkpt>
      <trkpt lat="46.40863" lon="5.91705">
        <ele>1069.4000244141</ele>
        <time>2018-06-09T07:50:09.000Z</time>
      </trkpt>
      <trkpt lat="46.40861" lon="5.917">
        <ele>1068.5999755859</ele>
        <time>2018-06-09T07:50:10.000Z</time>
      </trkpt>
      <trkpt lat="46.40858" lon="5.91698">
        <ele>1067.8000488281</ele>
        <time>2018-06-09T07:50:11.000Z</time>
      </trkpt>
      <trkpt lat="46.40854" lon="5.91698">
        <ele>1067.1999511719</ele>
        <time>2018-06-09T07:50:12.000Z</time>
      </trkpt>
      <trkpt lat="46.40851" lon="5.91697">
        <ele>1066.4000244141</ele>
        <time>2018-06-09T07:50:13.000Z</time>
      </trkpt>
      <trkpt lat="46.40847" lon="5.91694">
        <ele>1065.5999755859</ele>
        <time>2018-06-09T07:50:14.000Z</time>
      </trkpt>
      <trkpt lat="46.40843" lon="5.9169">
        <ele>1064.8000488281</ele>
        <time>2018-06-09T07:50:15.000Z</time>
      </trkpt>
      <trkpt lat="46.40841" lon="5.91686">
        <ele>1064.1999511719</ele>
        <time>2018-06-09T07:50:16.000Z</time>
      </trkpt>
      <trkpt lat="46.40836" lon="5.91671">
        <ele>1063.1999511719</ele>
        <time>2018-06-09T07:50:19.000Z</time>
      </trkpt>
      <trkpt lat="46.40805" lon="5.91602">
        <ele>1064</ele>
        <time>2018-06-09T07:50:33.000Z</time>
      </trkpt>
      <trkpt lat="46.40801" lon="5.91591">
        <ele>1064.1999511719</ele>
        <time>2018-06-09T07:50:36.000Z</time>
      </trkpt>
      <trkpt lat="46.40801" lon="5.91579">
        <ele>1065.4000244141</ele>
        <time>2018-06-09T07:50:42.000Z</time>
      </trkpt>
      <trkpt lat="46.40801" lon="5.91577">
        <ele>1065.4000244141</ele>
        <time>2018-06-09T07:50:43.000Z</time>
      </trkpt>
      <trkpt lat="46.40799" lon="5.91572">
        <ele>1065.4000244141</ele>
        <time>2018-06-09T07:50:46.000Z</time>
      </trkpt>
      <trkpt lat="46.40769" lon="5.91507">
        <ele>1065.4000244141</ele>
        <time>2018-06-09T07:51:10.000Z</time>
      </trkpt>
      <trkpt lat="46.40767" lon="5.91503">
        <ele>1065.4000244141</ele>
        <time>2018-06-09T07:51:13.000Z</time>
      </trkpt>
      <trkpt lat="46.40763" lon="5.91494">
        <ele>1065.1999511719</ele>
        <time>2018-06-09T07:51:15.000Z</time>
      </trkpt>
      <trkpt lat="46.40756" lon="5.91478">
        <ele>1063.5999755859</ele>
        <time>2018-06-09T07:51:17.000Z</time>
      </trkpt>
      <trkpt lat="46.40752" lon="5.9147">
        <ele>1062.5999755859</ele>
        <time>2018-06-09T07:51:18.000Z</time>
      </trkpt>
      <trkpt lat="46.40748" lon="5.91462">
        <ele>1061.4000244141</ele>
        <time>2018-06-09T07:51:19.000Z</time>
      </trkpt>
      <trkpt lat="46.40744" lon="5.91454">
        <ele>1059.8000488281</ele>
        <time>2018-06-09T07:51:20.000Z</time>
      </trkpt>
      <trkpt lat="46.4074" lon="5.91447">
        <ele>1058</ele>
        <time>2018-06-09T07:51:21.000Z</time>
      </trkpt>
      <trkpt lat="46.40733" lon="5.91434">
        <ele>1056.8000488281</ele>
        <time>2018-06-09T07:51:24.000Z</time>
      </trkpt>
      <trkpt lat="46.40732" lon="5.91432">
        <ele>1057.4000244141</ele>
        <time>2018-06-09T07:51:25.000Z</time>
      </trkpt>
      <trkpt lat="46.40728" lon="5.91427">
        <ele>1058.1999511719</ele>
        <time>2018-06-09T07:51:27.000Z</time>
      </trkpt>
      <trkpt lat="46.40714" lon="5.91391">
        <ele>1058.4000244141</ele>
        <time>2018-06-09T07:51:33.000Z</time>
      </trkpt>
      <trkpt lat="46.40699" lon="5.91368">
        <ele>1057</ele>
        <time>2018-06-09T07:51:37.000Z</time>
      </trkpt>
      <trkpt lat="46.40695" lon="5.91362">
        <ele>1056.1999511719</ele>
        <time>2018-06-09T07:51:38.000Z</time>
      </trkpt>
      <trkpt lat="46.40692" lon="5.91357">
        <ele>1055.8000488281</ele>
        <time>2018-06-09T07:51:39.000Z</time>
      </trkpt>
      <trkpt lat="46.40689" lon="5.91348">
        <ele>1054.8000488281</ele>
        <time>2018-06-09T07:51:41.000Z</time>
      </trkpt>
      <trkpt lat="46.40688" lon="5.91343">
        <ele>1054.1999511719</ele>
        <time>2018-06-09T07:51:42.000Z</time>
      </trkpt>
      <trkpt lat="46.40686" lon="5.91333">
        <ele>1052.8000488281</ele>
        <time>2018-06-09T07:51:44.000Z</time>
      </trkpt>
      <trkpt lat="46.40684" lon="5.91327">
        <ele>1051.1999511719</ele>
        <time>2018-06-09T07:51:45.000Z</time>
      </trkpt>
      <trkpt lat="46.40682" lon="5.91319">
        <ele>1049.1999511719</ele>
        <time>2018-06-09T07:51:46.000Z</time>
      </trkpt>
      <trkpt lat="46.40679" lon="5.9131">
        <ele>1047</ele>
        <time>2018-06-09T07:51:47.000Z</time>
      </trkpt>
      <trkpt lat="46.40677" lon="5.91302">
        <ele>1045.1999511719</ele>
        <time>2018-06-09T07:51:48.000Z</time>
      </trkpt>
      <trkpt lat="46.40676" lon="5.91295">
        <ele>1043.8000488281</ele>
        <time>2018-06-09T07:51:49.000Z</time>
      </trkpt>
      <trkpt lat="46.40674" lon="5.91289">
        <ele>1042.8000488281</ele>
        <time>2018-06-09T07:51:50.000Z</time>
      </trkpt>
      <trkpt lat="46.40669" lon="5.91276">
        <ele>1041.5999755859</ele>
        <time>2018-06-09T07:51:52.000Z</time>
      </trkpt>
      <trkpt lat="46.4064" lon="5.91209">
        <ele>1041.4000244141</ele>
        <time>2018-06-09T07:52:10.000Z</time>
      </trkpt>
      <trkpt lat="46.40632" lon="5.91193">
        <ele>1042</ele>
        <time>2018-06-09T07:52:16.000Z</time>
      </trkpt>
      <trkpt lat="46.40631" lon="5.91186">
        <ele>1042</ele>
        <time>2018-06-09T07:52:18.000Z</time>
      </trkpt>
      <trkpt lat="46.40625" lon="5.91178">
        <ele>1041.5999755859</ele>
        <time>2018-06-09T07:52:20.000Z</time>
      </trkpt>
      <trkpt lat="46.40598" lon="5.91139">
        <ele>1040.5999755859</ele>
        <time>2018-06-09T07:52:28.000Z</time>
      </trkpt>
      <trkpt lat="46.40594" lon="5.91136">
        <ele>1040.4000244141</ele>
        <time>2018-06-09T07:52:29.000Z</time>
      </trkpt>
      <trkpt lat="46.40591" lon="5.91131">
        <ele>1040.1999511719</ele>
        <time>2018-06-09T07:52:30.000Z</time>
      </trkpt>
      <trkpt lat="46.40586" lon="5.91117">
        <ele>1040.4000244141</ele>
        <time>2018-06-09T07:52:34.000Z</time>
      </trkpt>
      <trkpt lat="46.40581" lon="5.91109">
        <ele>1041.5999755859</ele>
        <time>2018-06-09T07:52:38.000Z</time>
      </trkpt>
      <trkpt lat="46.40573" lon="5.911">
        <ele>1042.5999755859</ele>
        <time>2018-06-09T07:52:43.000Z</time>
      </trkpt>
      <trkpt lat="46.40568" lon="5.91101">
        <ele>1043.8000488281</ele>
        <time>2018-06-09T07:52:50.000Z</time>
      </trkpt>
      <trkpt lat="46.40566" lon="5.911">
        <ele>1044</ele>
        <time>2018-06-09T07:52:51.000Z</time>
      </trkpt>
      <trkpt lat="46.40561" lon="5.91095">
        <ele>1044.4000244141</ele>
        <time>2018-06-09T07:52:54.000Z</time>
      </trkpt>
      <trkpt lat="46.40553" lon="5.91085">
        <ele>1044.8000488281</ele>
        <time>2018-06-09T07:52:59.000Z</time>
      </trkpt>
      <trkpt lat="46.40544" lon="5.91066">
        <ele>1045.8000488281</ele>
        <time>2018-06-09T07:53:07.000Z</time>
      </trkpt>
      <trkpt lat="46.40543" lon="5.91063">
        <ele>1046.1999511719</ele>
        <time>2018-06-09T07:53:08.000Z</time>
      </trkpt>
      <trkpt lat="46.40512" lon="5.91008">
        <ele>1045.4000244141</ele>
        <time>2018-06-09T07:53:23.000Z</time>
      </trkpt>
      <trkpt lat="46.40508" lon="5.91002">
        <ele>1044.8000488281</ele>
        <time>2018-06-09T07:53:24.000Z</time>
      </trkpt>
      <trkpt lat="46.40504" lon="5.90995">
        <ele>1043.8000488281</ele>
        <time>2018-06-09T07:53:25.000Z</time>
      </trkpt>
      <trkpt lat="46.40501" lon="5.90988">
        <ele>1043.1999511719</ele>
        <time>2018-06-09T07:53:26.000Z</time>
      </trkpt>
      <trkpt lat="46.40495" lon="5.90973">
        <ele>1041.8000488281</ele>
        <time>2018-06-09T07:53:28.000Z</time>
      </trkpt>
      <trkpt lat="46.40471" lon="5.90912">
        <ele>1040.8000488281</ele>
        <time>2018-06-09T07:53:42.000Z</time>
      </trkpt>
      <trkpt lat="46.40469" lon="5.90906">
        <ele>1040.4000244141</ele>
        <time>2018-06-09T07:53:43.000Z</time>
      </trkpt>
      <trkpt lat="46.40462" lon="5.90894">
        <ele>1039.4000244141</ele>
        <time>2018-06-09T07:53:45.000Z</time>
      </trkpt>
      <trkpt lat="46.40455" lon="5.90882">
        <ele>1037.5999755859</ele>
        <time>2018-06-09T07:53:47.000Z</time>
      </trkpt>
      <trkpt lat="46.40453" lon="5.90876">
        <ele>1036.5999755859</ele>
        <time>2018-06-09T07:53:48.000Z</time>
      </trkpt>
      <trkpt lat="46.40452" lon="5.90872">
        <ele>1035.5999755859</ele>
        <time>2018-06-09T07:53:49.000Z</time>
      </trkpt>
      <trkpt lat="46.40452" lon="5.90867">
        <ele>1034.5999755859</ele>
        <time>2018-06-09T07:53:50.000Z</time>
      </trkpt>
      <trkpt lat="46.40452" lon="5.90864">
        <ele>1033.5999755859</ele>
        <time>2018-06-09T07:53:51.000Z</time>
      </trkpt>
      <trkpt lat="46.40452" lon="5.90857">
        <ele>1031.8000488281</ele>
        <time>2018-06-09T07:53:53.000Z</time>
      </trkpt>
      <trkpt lat="46.40449" lon="5.90849">
        <ele>1030.8000488281</ele>
        <time>2018-06-09T07:53:55.000Z</time>
      </trkpt>
      <trkpt lat="46.40445" lon="5.9084">
        <ele>1028.8000488281</ele>
        <time>2018-06-09T07:53:57.000Z</time>
      </trkpt>
      <trkpt lat="46.40441" lon="5.90838">
        <ele>1027.5999755859</ele>
        <time>2018-06-09T07:53:58.000Z</time>
      </trkpt>
      <trkpt lat="46.40435" lon="5.90835">
        <ele>1026.4000244141</ele>
        <time>2018-06-09T07:53:59.000Z</time>
      </trkpt>
      <trkpt lat="46.4043" lon="5.90832">
        <ele>1025</ele>
        <time>2018-06-09T07:54:00.000Z</time>
      </trkpt>
      <trkpt lat="46.40427" lon="5.9083">
        <ele>1023.5999755859</ele>
        <time>2018-06-09T07:54:01.000Z</time>
      </trkpt>
      <trkpt lat="46.40426" lon="5.90828">
        <ele>1022.200012207</ele>
        <time>2018-06-09T07:54:02.000Z</time>
      </trkpt>
      <trkpt lat="46.40424" lon="5.90825">
        <ele>1021.4000244141</ele>
        <time>2018-06-09T07:54:03.000Z</time>
      </trkpt>
      <trkpt lat="46.40424" lon="5.90822">
        <ele>1020.799987793</ele>
        <time>2018-06-09T07:54:04.000Z</time>
      </trkpt>
      <trkpt lat="46.40413" lon="5.9078">
        <ele>1020.4000244141</ele>
        <time>2018-06-09T07:54:13.000Z</time>
      </trkpt>
      <trkpt lat="46.40408" lon="5.90771">
        <ele>1019.5999755859</ele>
        <time>2018-06-09T07:54:15.000Z</time>
      </trkpt>
      <trkpt lat="46.40407" lon="5.90767">
        <ele>1019</ele>
        <time>2018-06-09T07:54:16.000Z</time>
      </trkpt>
      <trkpt lat="46.40407" lon="5.90764">
        <ele>1018.4000244141</ele>
        <time>2018-06-09T07:54:17.000Z</time>
      </trkpt>
      <trkpt lat="46.40407" lon="5.90743">
        <ele>1017.4000244141</ele>
        <time>2018-06-09T07:54:22.000Z</time>
      </trkpt>
      <trkpt lat="46.40408" lon="5.90738">
        <ele>1016.799987793</ele>
        <time>2018-06-09T07:54:23.000Z</time>
      </trkpt>
      <trkpt lat="46.40409" lon="5.90732">
        <ele>1016</ele>
        <time>2018-06-09T07:54:24.000Z</time>
      </trkpt>
      <trkpt lat="46.4041" lon="5.90728">
        <ele>1014.799987793</ele>
        <time>2018-06-09T07:54:25.000Z</time>
      </trkpt>
      <trkpt lat="46.4041" lon="5.90723">
        <ele>1013.5999755859</ele>
        <time>2018-06-09T07:54:26.000Z</time>
      </trkpt>
      <trkpt lat="46.40409" lon="5.90715">
        <ele>1012</ele>
        <time>2018-06-09T07:54:28.000Z</time>
      </trkpt>
      <trkpt lat="46.40407" lon="5.90709">
        <ele>1010.5999755859</ele>
        <time>2018-06-09T07:54:30.000Z</time>
      </trkpt>
      <trkpt lat="46.40403" lon="5.90699">
        <ele>1008.200012207</ele>
        <time>2018-06-09T07:54:32.000Z</time>
      </trkpt>
      <trkpt lat="46.40401" lon="5.90695">
        <ele>1006.5999755859</ele>
        <time>2018-06-09T07:54:33.000Z</time>
      </trkpt>
      <trkpt lat="46.40399" lon="5.90693">
        <ele>1005.200012207</ele>
        <time>2018-06-09T07:54:34.000Z</time>
      </trkpt>
      <trkpt lat="46.40397" lon="5.90691">
        <ele>1004.200012207</ele>
        <time>2018-06-09T07:54:35.000Z</time>
      </trkpt>
      <trkpt lat="46.40393" lon="5.90688">
        <ele>1003</ele>
        <time>2018-06-09T07:54:36.000Z</time>
      </trkpt>
      <trkpt lat="46.40391" lon="5.90685">
        <ele>1002</ele>
        <time>2018-06-09T07:54:37.000Z</time>
      </trkpt>
      <trkpt lat="46.4039" lon="5.90681">
        <ele>1000.799987793</ele>
        <time>2018-06-09T07:54:38.000Z</time>
      </trkpt>
      <trkpt lat="46.40389" lon="5.90678">
        <ele>999.59997558594</ele>
        <time>2018-06-09T07:54:39.000Z</time>
      </trkpt>
      <trkpt lat="46.40388" lon="5.90677">
        <ele>998.59997558594</ele>
        <time>2018-06-09T07:54:40.000Z</time>
      </trkpt>
      <trkpt lat="46.40386" lon="5.90677">
        <ele>997.40002441406</ele>
        <time>2018-06-09T07:54:41.000Z</time>
      </trkpt>
      <trkpt lat="46.40385" lon="5.90678">
        <ele>996.40002441406</ele>
        <time>2018-06-09T07:54:42.000Z</time>
      </trkpt>
      <trkpt lat="46.40384" lon="5.90679">
        <ele>995.40002441406</ele>
        <time>2018-06-09T07:54:43.000Z</time>
      </trkpt>
      <trkpt lat="46.40383" lon="5.9068">
        <ele>994.40002441406</ele>
        <time>2018-06-09T07:54:44.000Z</time>
      </trkpt>
      <trkpt lat="46.4038" lon="5.90682">
        <ele>993.59997558594</ele>
        <time>2018-06-09T07:54:45.000Z</time>
      </trkpt>
      <trkpt lat="46.40377" lon="5.90681">
        <ele>992.79998779297</ele>
        <time>2018-06-09T07:54:46.000Z</time>
      </trkpt>
      <trkpt lat="46.40375" lon="5.90679">
        <ele>992</ele>
        <time>2018-06-09T07:54:47.000Z</time>
      </trkpt>
      <trkpt lat="46.40373" lon="5.90676">
        <ele>991.40002441406</ele>
        <time>2018-06-09T07:54:48.000Z</time>
      </trkpt>
      <trkpt lat="46.40369" lon="5.90671">
        <ele>990</ele>
        <time>2018-06-09T07:54:50.000Z</time>
      </trkpt>
      <trkpt lat="46.40367" lon="5.9067">
        <ele>988.40002441406</ele>
        <time>2018-06-09T07:54:52.000Z</time>
      </trkpt>
      <trkpt lat="46.40367" lon="5.90668">
        <ele>986.79998779297</ele>
        <time>2018-06-09T07:54:54.000Z</time>
      </trkpt>
      <trkpt lat="46.40361" lon="5.90665">
        <ele>985.40002441406</ele>
        <time>2018-06-09T07:54:57.000Z</time>
      </trkpt>
      <trkpt lat="46.40358" lon="5.90669">
        <ele>984.59997558594</ele>
        <time>2018-06-09T07:54:59.000Z</time>
      </trkpt>
      <trkpt lat="46.40357" lon="5.90672">
        <ele>984</ele>
        <time>2018-06-09T07:55:00.000Z</time>
      </trkpt>
      <trkpt lat="46.40352" lon="5.90676">
        <ele>982.59997558594</ele>
        <time>2018-06-09T07:55:02.000Z</time>
      </trkpt>
      <trkpt lat="46.40348" lon="5.90676">
        <ele>981.79998779297</ele>
        <time>2018-06-09T07:55:03.000Z</time>
      </trkpt>
      <trkpt lat="46.40345" lon="5.90677">
        <ele>981.40002441406</ele>
        <time>2018-06-09T07:55:04.000Z</time>
      </trkpt>
      <trkpt lat="46.40336" lon="5.90687">
        <ele>980.79998779297</ele>
        <time>2018-06-09T07:55:06.000Z</time>
      </trkpt>
      <trkpt lat="46.4033" lon="5.9069">
        <ele>980.40002441406</ele>
        <time>2018-06-09T07:55:09.000Z</time>
      </trkpt>
      <trkpt lat="46.40325" lon="5.9069">
        <ele>981.40002441406</ele>
        <time>2018-06-09T07:55:45.000Z</time>
      </trkpt>
      <trkpt lat="46.40323" lon="5.9069">
        <ele>982.40002441406</ele>
        <time>2018-06-09T07:55:52.000Z</time>
      </trkpt>
      <trkpt lat="46.40323" lon="5.90688">
        <ele>983.40002441406</ele>
        <time>2018-06-09T07:55:58.000Z</time>
      </trkpt>
      <trkpt lat="46.40322" lon="5.90687">
        <ele>984.59997558594</ele>
        <time>2018-06-09T07:56:03.000Z</time>
      </trkpt>
      <trkpt lat="46.40322" lon="5.90687">
        <ele>985.59997558594</ele>
        <time>2018-06-09T07:56:08.000Z</time>
      </trkpt>
      <trkpt lat="46.40322" lon="5.90687">
        <ele>986.20001220703</ele>
        <time>2018-06-09T07:56:10.000Z</time>
      </trkpt>
      <trkpt lat="46.40321" lon="5.90687">
        <ele>986.79998779297</ele>
        <time>2018-06-09T07:56:14.000Z</time>
      </trkpt>
      <trkpt lat="46.4032" lon="5.90686">
        <ele>987.79998779297</ele>
        <time>2018-06-09T07:56:20.000Z</time>
      </trkpt>
      <trkpt lat="46.40319" lon="5.90687">
        <ele>989.20001220703</ele>
        <time>2018-06-09T07:56:27.000Z</time>
      </trkpt>
      <trkpt lat="46.40318" lon="5.90686">
        <ele>990.20001220703</ele>
        <time>2018-06-09T07:56:34.000Z</time>
      </trkpt>
      <trkpt lat="46.40318" lon="5.90685">
        <ele>991.40002441406</ele>
        <time>2018-06-09T07:56:40.000Z</time>
      </trkpt>
      <trkpt lat="46.40318" lon="5.90684">
        <ele>992.40002441406</ele>
        <time>2018-06-09T07:56:46.000Z</time>
      </trkpt>
      <trkpt lat="46.40318" lon="5.90682">
        <ele>993.40002441406</ele>
        <time>2018-06-09T07:56:53.000Z</time>
      </trkpt>
      <trkpt lat="46.40318" lon="5.90682">
        <ele>994.59997558594</ele>
        <time>2018-06-09T07:57:00.000Z</time>
      </trkpt>
      <trkpt lat="46.40315" lon="5.90671">
        <ele>995.59997558594</ele>
        <time>2018-06-09T07:57:07.000Z</time>
      </trkpt>
      <trkpt lat="46.4031" lon="5.90661">
        <ele>996.79998779297</ele>
        <time>2018-06-09T07:57:12.000Z</time>
      </trkpt>
      <trkpt lat="46.40302" lon="5.9065">
        <ele>997.79998779297</ele>
        <time>2018-06-09T07:57:16.000Z</time>
      </trkpt>
      <trkpt lat="46.40293" lon="5.90641">
        <ele>999</ele>
        <time>2018-06-09T07:57:24.000Z</time>
      </trkpt>
      <trkpt lat="46.40287" lon="5.90636">
        <ele>999.59997558594</ele>
        <time>2018-06-09T07:57:28.000Z</time>
      </trkpt>
      <trkpt lat="46.40284" lon="5.90632">
        <ele>1000</ele>
        <time>2018-06-09T07:57:31.000Z</time>
      </trkpt>
      <trkpt lat="46.40272" lon="5.90622">
        <ele>1001.200012207</ele>
        <time>2018-06-09T07:57:42.000Z</time>
      </trkpt>
      <trkpt lat="46.40269" lon="5.90616">
        <ele>1002.200012207</ele>
        <time>2018-06-09T07:57:48.000Z</time>
      </trkpt>
      <trkpt lat="46.40264" lon="5.90605">
        <ele>1003.200012207</ele>
        <time>2018-06-09T07:57:57.000Z</time>
      </trkpt>
      <trkpt lat="46.40261" lon="5.90597">
        <ele>1004.4000244141</ele>
        <time>2018-06-09T07:58:03.000Z</time>
      </trkpt>
      <trkpt lat="46.40259" lon="5.90585">
        <ele>1005.4000244141</ele>
        <time>2018-06-09T07:58:10.000Z</time>
      </trkpt>
      <trkpt lat="46.40256" lon="5.90577">
        <ele>1006.5999755859</ele>
        <time>2018-06-09T07:58:18.000Z</time>
      </trkpt>
      <trkpt lat="46.40258" lon="5.90572">
        <ele>1007.799987793</ele>
        <time>2018-06-09T07:58:24.000Z</time>
      </trkpt>
      <trkpt lat="46.40259" lon="5.90564">
        <ele>1008.799987793</ele>
        <time>2018-06-09T07:58:30.000Z</time>
      </trkpt>
      <trkpt lat="46.40259" lon="5.9056">
        <ele>1009.799987793</ele>
        <time>2018-06-09T07:58:35.000Z</time>
      </trkpt>
      <trkpt lat="46.40261" lon="5.90555">
        <ele>1010.799987793</ele>
        <time>2018-06-09T07:58:45.000Z</time>
      </trkpt>
      <trkpt lat="46.4026" lon="5.90549">
        <ele>1012</ele>
        <time>2018-06-09T07:58:56.000Z</time>
      </trkpt>
      <trkpt lat="46.40262" lon="5.9054">
        <ele>1013.200012207</ele>
        <time>2018-06-09T07:59:07.000Z</time>
      </trkpt>
      <trkpt lat="46.40263" lon="5.90537">
        <ele>1013.4000244141</ele>
        <time>2018-06-09T07:59:10.000Z</time>
      </trkpt>
      <trkpt lat="46.40263" lon="5.90531">
        <ele>1014.200012207</ele>
        <time>2018-06-09T07:59:14.000Z</time>
      </trkpt>
      <trkpt lat="46.40262" lon="5.90527">
        <ele>1015.4000244141</ele>
        <time>2018-06-09T07:59:20.000Z</time>
      </trkpt>
      <trkpt lat="46.40263" lon="5.90521">
        <ele>1016.4000244141</ele>
        <time>2018-06-09T07:59:27.000Z</time>
      </trkpt>
      <trkpt lat="46.40263" lon="5.90513">
        <ele>1017.4000244141</ele>
        <time>2018-06-09T07:59:34.000Z</time>
      </trkpt>
      <trkpt lat="46.40259" lon="5.90507">
        <ele>1018.5999755859</ele>
        <time>2018-06-09T07:59:41.000Z</time>
      </trkpt>
      <trkpt lat="46.40248" lon="5.90496">
        <ele>1019.5999755859</ele>
        <time>2018-06-09T07:59:55.000Z</time>
      </trkpt>
      <trkpt lat="46.40247" lon="5.90496">
        <ele>1020.5999755859</ele>
        <time>2018-06-09T08:00:01.000Z</time>
      </trkpt>
      <trkpt lat="46.40241" lon="5.90493">
        <ele>1021.5999755859</ele>
        <time>2018-06-09T08:00:09.000Z</time>
      </trkpt>
      <trkpt lat="46.40237" lon="5.90493">
        <ele>1022.799987793</ele>
        <time>2018-06-09T08:00:17.000Z</time>
      </trkpt>
      <trkpt lat="46.40236" lon="5.90493">
        <ele>1023.799987793</ele>
        <time>2018-06-09T08:00:23.000Z</time>
      </trkpt>
      <trkpt lat="46.40232" lon="5.90496">
        <ele>1025</ele>
        <time>2018-06-09T08:00:27.000Z</time>
      </trkpt>
      <trkpt lat="46.40229" lon="5.90496">
        <ele>1026</ele>
        <time>2018-06-09T08:00:33.000Z</time>
      </trkpt>
      <trkpt lat="46.40225" lon="5.90493">
        <ele>1027</ele>
        <time>2018-06-09T08:00:39.000Z</time>
      </trkpt>
      <trkpt lat="46.40219" lon="5.9049">
        <ele>1027.8000488281</ele>
        <time>2018-06-09T08:00:46.000Z</time>
      </trkpt>
      <trkpt lat="46.40217" lon="5.90489">
        <ele>1028</ele>
        <time>2018-06-09T08:00:48.000Z</time>
      </trkpt>
      <trkpt lat="46.40215" lon="5.90489">
        <ele>1028.1999511719</ele>
        <time>2018-06-09T08:00:50.000Z</time>
      </trkpt>
      <trkpt lat="46.40212" lon="5.90486">
        <ele>1029</ele>
        <time>2018-06-09T08:01:07.000Z</time>
      </trkpt>
      <trkpt lat="46.4021" lon="5.90484">
        <ele>1028.8000488281</ele>
        <time>2018-06-09T08:01:22.000Z</time>
      </trkpt>
      <trkpt lat="46.40208" lon="5.90482">
        <ele>1028.8000488281</ele>
        <time>2018-06-09T08:01:26.000Z</time>
      </trkpt>
      <trkpt lat="46.40203" lon="5.90482">
        <ele>1029</ele>
        <time>2018-06-09T08:01:30.000Z</time>
      </trkpt>
      <trkpt lat="46.40194" lon="5.90476">
        <ele>1028.5999755859</ele>
        <time>2018-06-09T08:01:34.000Z</time>
      </trkpt>
      <trkpt lat="46.40193" lon="5.9047">
        <ele>1027.8000488281</ele>
        <time>2018-06-09T08:01:36.000Z</time>
      </trkpt>
      <trkpt lat="46.40193" lon="5.90462">
        <ele>1027</ele>
        <time>2018-06-09T08:01:39.000Z</time>
      </trkpt>
      <trkpt lat="46.40192" lon="5.90455">
        <ele>1026.1999511719</ele>
        <time>2018-06-09T08:01:44.000Z</time>
      </trkpt>
      <trkpt lat="46.40193" lon="5.9045">
        <ele>1026</ele>
        <time>2018-06-09T08:01:49.000Z</time>
      </trkpt>
      <trkpt lat="46.40196" lon="5.90444">
        <ele>1025.5999755859</ele>
        <time>2018-06-09T08:01:51.000Z</time>
      </trkpt>
      <trkpt lat="46.40197" lon="5.90436">
        <ele>1025.1999511719</ele>
        <time>2018-06-09T08:01:53.000Z</time>
      </trkpt>
      <trkpt lat="46.40194" lon="5.90423">
        <ele>1024.5999755859</ele>
        <time>2018-06-09T08:01:55.000Z</time>
      </trkpt>
      <trkpt lat="46.40193" lon="5.90413">
        <ele>1023.5999755859</ele>
        <time>2018-06-09T08:01:57.000Z</time>
      </trkpt>
      <trkpt lat="46.40194" lon="5.90409">
        <ele>1023</ele>
        <time>2018-06-09T08:01:58.000Z</time>
      </trkpt>
      <trkpt lat="46.40195" lon="5.90406">
        <ele>1022.4000244141</ele>
        <time>2018-06-09T08:01:59.000Z</time>
      </trkpt>
      <trkpt lat="46.40196" lon="5.90398">
        <ele>1021.200012207</ele>
        <time>2018-06-09T08:02:02.000Z</time>
      </trkpt>
      <trkpt lat="46.40195" lon="5.90392">
        <ele>1020.799987793</ele>
        <time>2018-06-09T08:02:04.000Z</time>
      </trkpt>
      <trkpt lat="46.40198" lon="5.90371">
        <ele>1020.4000244141</ele>
        <time>2018-06-09T08:02:11.000Z</time>
      </trkpt>
      <trkpt lat="46.40198" lon="5.90358">
        <ele>1020</ele>
        <time>2018-06-09T08:02:14.000Z</time>
      </trkpt>
      <trkpt lat="46.40197" lon="5.90354">
        <ele>1020</ele>
        <time>2018-06-09T08:02:15.000Z</time>
      </trkpt>
      <trkpt lat="46.40192" lon="5.90342">
        <ele>1018.5999755859</ele>
        <time>2018-06-09T08:02:18.000Z</time>
      </trkpt>
      <trkpt lat="46.40191" lon="5.90331">
        <ele>1017.200012207</ele>
        <time>2018-06-09T08:02:20.000Z</time>
      </trkpt>
      <trkpt lat="46.40192" lon="5.90322">
        <ele>1015.5999755859</ele>
        <time>2018-06-09T08:02:22.000Z</time>
      </trkpt>
      <trkpt lat="46.4019" lon="5.90317">
        <ele>1013.799987793</ele>
        <time>2018-06-09T08:02:24.000Z</time>
      </trkpt>
      <trkpt lat="46.4019" lon="5.90316">
        <ele>1012.799987793</ele>
        <time>2018-06-09T08:02:25.000Z</time>
      </trkpt>
      <trkpt lat="46.40189" lon="5.90315">
        <ele>1012.200012207</ele>
        <time>2018-06-09T08:02:26.000Z</time>
      </trkpt>
      <trkpt lat="46.40188" lon="5.90313">
        <ele>1011.799987793</ele>
        <time>2018-06-09T08:02:27.000Z</time>
      </trkpt>
      <trkpt lat="46.40188" lon="5.9031">
        <ele>1011</ele>
        <time>2018-06-09T08:02:28.000Z</time>
      </trkpt>
      <trkpt lat="46.40187" lon="5.90306">
        <ele>1010.4000244141</ele>
        <time>2018-06-09T08:02:29.000Z</time>
      </trkpt>
      <trkpt lat="46.40179" lon="5.90294">
        <ele>1009</ele>
        <time>2018-06-09T08:02:32.000Z</time>
      </trkpt>
      <trkpt lat="46.40176" lon="5.90283">
        <ele>1008</ele>
        <time>2018-06-09T08:02:36.000Z</time>
      </trkpt>
      <trkpt lat="46.40168" lon="5.90282">
        <ele>1008.4000244141</ele>
        <time>2018-06-09T08:02:45.000Z</time>
      </trkpt>
      <trkpt lat="46.40158" lon="5.90276">
        <ele>1008.799987793</ele>
        <time>2018-06-09T08:02:49.000Z</time>
      </trkpt>
      <trkpt lat="46.40145" lon="5.90258">
        <ele>1009</ele>
        <time>2018-06-09T08:02:59.000Z</time>
      </trkpt>
      <trkpt lat="46.40144" lon="5.90254">
        <ele>1009.4000244141</ele>
        <time>2018-06-09T08:03:01.000Z</time>
      </trkpt>
      <trkpt lat="46.40143" lon="5.9025">
        <ele>1010</ele>
        <time>2018-06-09T08:03:04.000Z</time>
      </trkpt>
      <trkpt lat="46.40137" lon="5.90242">
        <ele>1010.799987793</ele>
        <time>2018-06-09T08:03:11.000Z</time>
      </trkpt>
      <trkpt lat="46.40135" lon="5.90238">
        <ele>1011</ele>
        <time>2018-06-09T08:03:13.000Z</time>
      </trkpt>
      <trkpt lat="46.40133" lon="5.9023">
        <ele>1011</ele>
        <time>2018-06-09T08:03:15.000Z</time>
      </trkpt>
      <trkpt lat="46.4014" lon="5.90204">
        <ele>1011.200012207</ele>
        <time>2018-06-09T08:03:24.000Z</time>
      </trkpt>
      <trkpt lat="46.40144" lon="5.90193">
        <ele>1011.4000244141</ele>
        <time>2018-06-09T08:03:33.000Z</time>
      </trkpt>
      <trkpt lat="46.40146" lon="5.90177">
        <ele>1011.200012207</ele>
        <time>2018-06-09T08:03:53.000Z</time>
      </trkpt>
      <trkpt lat="46.4015" lon="5.9014">
        <ele>1011.200012207</ele>
        <time>2018-06-09T08:06:31.000Z</time>
      </trkpt>
      <trkpt lat="46.40149" lon="5.9014">
        <ele>1011.200012207</ele>
        <time>2018-06-09T08:07:13.000Z</time>
      </trkpt>
      <trkpt lat="46.40154" lon="5.90113">
        <ele>1011.4000244141</ele>
        <time>2018-06-09T08:10:52.000Z</time>
      </trkpt>
      <trkpt lat="46.40155" lon="5.90107">
        <ele>1011.4000244141</ele>
        <time>2018-06-09T08:10:54.000Z</time>
      </trkpt>
      <trkpt lat="46.40156" lon="5.90102">
        <ele>1012.200012207</ele>
        <time>2018-06-09T08:10:55.000Z</time>
      </trkpt>
      <trkpt lat="46.40156" lon="5.90096">
        <ele>1011.200012207</ele>
        <time>2018-06-09T08:10:56.000Z</time>
      </trkpt>
      <trkpt lat="46.40158" lon="5.90091">
        <ele>1011.5999755859</ele>
        <time>2018-06-09T08:10:57.000Z</time>
      </trkpt>
      <trkpt lat="46.40161" lon="5.90088">
        <ele>1008</ele>
        <time>2018-06-09T08:10:58.000Z</time>
      </trkpt>
      <trkpt lat="46.40165" lon="5.90085">
        <ele>1009.5999755859</ele>
        <time>2018-06-09T08:10:59.000Z</time>
      </trkpt>
      <trkpt lat="46.40175" lon="5.90073">
        <ele>1008.200012207</ele>
        <time>2018-06-09T08:11:03.000Z</time>
      </trkpt>
      <trkpt lat="46.40179" lon="5.9004">
        <ele>1007.200012207</ele>
        <time>2018-06-09T08:11:11.000Z</time>
      </trkpt>
      <trkpt lat="46.40182" lon="5.90026">
        <ele>1006.200012207</ele>
        <time>2018-06-09T08:11:14.000Z</time>
      </trkpt>
      <trkpt lat="46.40182" lon="5.9002">
        <ele>1006</ele>
        <time>2018-06-09T08:11:15.000Z</time>
      </trkpt>
      <trkpt lat="46.40184" lon="5.90011">
        <ele>1004.799987793</ele>
        <time>2018-06-09T08:11:18.000Z</time>
      </trkpt>
      <trkpt lat="46.40187" lon="5.90004">
        <ele>1003.799987793</ele>
        <time>2018-06-09T08:11:20.000Z</time>
      </trkpt>
      <trkpt lat="46.40187" lon="5.89998">
        <ele>1003.5999755859</ele>
        <time>2018-06-09T08:11:21.000Z</time>
      </trkpt>
      <trkpt lat="46.40188" lon="5.89991">
        <ele>1003.5999755859</ele>
        <time>2018-06-09T08:11:22.000Z</time>
      </trkpt>
      <trkpt lat="46.40192" lon="5.89978">
        <ele>1002.200012207</ele>
        <time>2018-06-09T08:11:24.000Z</time>
      </trkpt>
      <trkpt lat="46.40194" lon="5.89973">
        <ele>1001</ele>
        <time>2018-06-09T08:11:25.000Z</time>
      </trkpt>
      <trkpt lat="46.40197" lon="5.89968">
        <ele>999.40002441406</ele>
        <time>2018-06-09T08:11:26.000Z</time>
      </trkpt>
      <trkpt lat="46.40198" lon="5.89963">
        <ele>998.20001220703</ele>
        <time>2018-06-09T08:11:27.000Z</time>
      </trkpt>
      <trkpt lat="46.40198" lon="5.89953">
        <ele>996.79998779297</ele>
        <time>2018-06-09T08:11:29.000Z</time>
      </trkpt>
      <trkpt lat="46.402" lon="5.89942">
        <ele>995</ele>
        <time>2018-06-09T08:11:31.000Z</time>
      </trkpt>
      <trkpt lat="46.40198" lon="5.89934">
        <ele>993.79998779297</ele>
        <time>2018-06-09T08:11:32.000Z</time>
      </trkpt>
      <trkpt lat="46.40197" lon="5.89926">
        <ele>993</ele>
        <time>2018-06-09T08:11:33.000Z</time>
      </trkpt>
      <trkpt lat="46.40195" lon="5.89918">
        <ele>992</ele>
        <time>2018-06-09T08:11:34.000Z</time>
      </trkpt>
      <trkpt lat="46.40193" lon="5.89911">
        <ele>991.40002441406</ele>
        <time>2018-06-09T08:11:35.000Z</time>
      </trkpt>
      <trkpt lat="46.40194" lon="5.89903">
        <ele>990.79998779297</ele>
        <time>2018-06-09T08:11:36.000Z</time>
      </trkpt>
      <trkpt lat="46.40195" lon="5.8989">
        <ele>989.20001220703</ele>
        <time>2018-06-09T08:11:38.000Z</time>
      </trkpt>
      <trkpt lat="46.40194" lon="5.89883">
        <ele>987.59997558594</ele>
        <time>2018-06-09T08:11:39.000Z</time>
      </trkpt>
      <trkpt lat="46.40193" lon="5.89876">
        <ele>985.79998779297</ele>
        <time>2018-06-09T08:11:40.000Z</time>
      </trkpt>
      <trkpt lat="46.40192" lon="5.89869">
        <ele>984.40002441406</ele>
        <time>2018-06-09T08:11:41.000Z</time>
      </trkpt>
      <trkpt lat="46.40192" lon="5.89861">
        <ele>983.40002441406</ele>
        <time>2018-06-09T08:11:42.000Z</time>
      </trkpt>
      <trkpt lat="46.40193" lon="5.89836">
        <ele>982.20001220703</ele>
        <time>2018-06-09T08:11:46.000Z</time>
      </trkpt>
      <trkpt lat="46.40193" lon="5.89823">
        <ele>981.20001220703</ele>
        <time>2018-06-09T08:11:48.000Z</time>
      </trkpt>
      <trkpt lat="46.40191" lon="5.89817">
        <ele>980.40002441406</ele>
        <time>2018-06-09T08:11:49.000Z</time>
      </trkpt>
      <trkpt lat="46.40189" lon="5.89811">
        <ele>979.40002441406</ele>
        <time>2018-06-09T08:11:50.000Z</time>
      </trkpt>
      <trkpt lat="46.40185" lon="5.898">
        <ele>977.79998779297</ele>
        <time>2018-06-09T08:11:52.000Z</time>
      </trkpt>
      <trkpt lat="46.40182" lon="5.89785">
        <ele>976.59997558594</ele>
        <time>2018-06-09T08:11:55.000Z</time>
      </trkpt>
      <trkpt lat="46.40184" lon="5.8977">
        <ele>976.59997558594</ele>
        <time>2018-06-09T08:12:00.000Z</time>
      </trkpt>
      <trkpt lat="46.40183" lon="5.89747">
        <ele>975.20001220703</ele>
        <time>2018-06-09T08:12:05.000Z</time>
      </trkpt>
      <trkpt lat="46.40183" lon="5.89729">
        <ele>973.59997558594</ele>
        <time>2018-06-09T08:12:08.000Z</time>
      </trkpt>
      <trkpt lat="46.40183" lon="5.89718">
        <ele>972</ele>
        <time>2018-06-09T08:12:10.000Z</time>
      </trkpt>
      <trkpt lat="46.40183" lon="5.8971">
        <ele>970.79998779297</ele>
        <time>2018-06-09T08:12:12.000Z</time>
      </trkpt>
      <trkpt lat="46.40182" lon="5.89703">
        <ele>969.40002441406</ele>
        <time>2018-06-09T08:12:14.000Z</time>
      </trkpt>
      <trkpt lat="46.40179" lon="5.89689">
        <ele>968</ele>
        <time>2018-06-09T08:12:16.000Z</time>
      </trkpt>
      <trkpt lat="46.40179" lon="5.89683">
        <ele>966.79998779297</ele>
        <time>2018-06-09T08:12:17.000Z</time>
      </trkpt>
      <trkpt lat="46.40177" lon="5.89679">
        <ele>965.79998779297</ele>
        <time>2018-06-09T08:12:18.000Z</time>
      </trkpt>
      <trkpt lat="46.40176" lon="5.89673">
        <ele>964.79998779297</ele>
        <time>2018-06-09T08:12:19.000Z</time>
      </trkpt>
      <trkpt lat="46.40176" lon="5.89669">
        <ele>963.79998779297</ele>
        <time>2018-06-09T08:12:20.000Z</time>
      </trkpt>
      <trkpt lat="46.40176" lon="5.89663">
        <ele>962</ele>
        <time>2018-06-09T08:12:22.000Z</time>
      </trkpt>
      <trkpt lat="46.40174" lon="5.89643">
        <ele>960.59997558594</ele>
        <time>2018-06-09T08:12:25.000Z</time>
      </trkpt>
      <trkpt lat="46.40173" lon="5.89633">
        <ele>958.59997558594</ele>
        <time>2018-06-09T08:12:27.000Z</time>
      </trkpt>
      <trkpt lat="46.40173" lon="5.89631">
        <ele>957.40002441406</ele>
        <time>2018-06-09T08:12:28.000Z</time>
      </trkpt>
      <trkpt lat="46.40174" lon="5.89627">
        <ele>956.20001220703</ele>
        <time>2018-06-09T08:12:30.000Z</time>
      </trkpt>
      <trkpt lat="46.40175" lon="5.89622">
        <ele>955</ele>
        <time>2018-06-09T08:12:32.000Z</time>
      </trkpt>
      <trkpt lat="46.40174" lon="5.89614">
        <ele>953.79998779297</ele>
        <time>2018-06-09T08:12:34.000Z</time>
      </trkpt>
      <trkpt lat="46.40173" lon="5.89598">
        <ele>952.40002441406</ele>
        <time>2018-06-09T08:12:37.000Z</time>
      </trkpt>
      <trkpt lat="46.40172" lon="5.8959">
        <ele>951</ele>
        <time>2018-06-09T08:12:38.000Z</time>
      </trkpt>
      <trkpt lat="46.40171" lon="5.89582">
        <ele>949.59997558594</ele>
        <time>2018-06-09T08:12:39.000Z</time>
      </trkpt>
      <trkpt lat="46.4017" lon="5.89575">
        <ele>948.20001220703</ele>
        <time>2018-06-09T08:12:40.000Z</time>
      </trkpt>
      <trkpt lat="46.4017" lon="5.89566">
        <ele>947.20001220703</ele>
        <time>2018-06-09T08:12:41.000Z</time>
      </trkpt>
      <trkpt lat="46.4017" lon="5.89558">
        <ele>945.79998779297</ele>
        <time>2018-06-09T08:12:42.000Z</time>
      </trkpt>
      <trkpt lat="46.40171" lon="5.89552">
        <ele>944.20001220703</ele>
        <time>2018-06-09T08:12:43.000Z</time>
      </trkpt>
      <trkpt lat="46.40171" lon="5.89547">
        <ele>942.40002441406</ele>
        <time>2018-06-09T08:12:44.000Z</time>
      </trkpt>
      <trkpt lat="46.40172" lon="5.89542">
        <ele>941</ele>
        <time>2018-06-09T08:12:45.000Z</time>
      </trkpt>
      <trkpt lat="46.40172" lon="5.89532">
        <ele>939.79998779297</ele>
        <time>2018-06-09T08:12:46.000Z</time>
      </trkpt>
      <trkpt lat="46.40171" lon="5.89521">
        <ele>938</ele>
        <time>2018-06-09T08:12:48.000Z</time>
      </trkpt>
      <trkpt lat="46.40172" lon="5.8951">
        <ele>936.20001220703</ele>
        <time>2018-06-09T08:12:50.000Z</time>
      </trkpt>
      <trkpt lat="46.40175" lon="5.89503">
        <ele>934.79998779297</ele>
        <time>2018-06-09T08:12:52.000Z</time>
      </trkpt>
      <trkpt lat="46.40173" lon="5.89486">
        <ele>934</ele>
        <time>2018-06-09T08:12:54.000Z</time>
      </trkpt>
      <trkpt lat="46.40173" lon="5.89481">
        <ele>933.40002441406</ele>
        <time>2018-06-09T08:12:55.000Z</time>
      </trkpt>
      <trkpt lat="46.40176" lon="5.89479">
        <ele>932.59997558594</ele>
        <time>2018-06-09T08:12:56.000Z</time>
      </trkpt>
      <trkpt lat="46.40181" lon="5.89478">
        <ele>931.79998779297</ele>
        <time>2018-06-09T08:12:57.000Z</time>
      </trkpt>
      <trkpt lat="46.40191" lon="5.89475">
        <ele>929.79998779297</ele>
        <time>2018-06-09T08:12:59.000Z</time>
      </trkpt>
      <trkpt lat="46.40197" lon="5.89474">
        <ele>928.40002441406</ele>
        <time>2018-06-09T08:13:00.000Z</time>
      </trkpt>
      <trkpt lat="46.40204" lon="5.89473">
        <ele>927</ele>
        <time>2018-06-09T08:13:01.000Z</time>
      </trkpt>
      <trkpt lat="46.4021" lon="5.89472">
        <ele>925.79998779297</ele>
        <time>2018-06-09T08:13:02.000Z</time>
      </trkpt>
      <trkpt lat="46.40214" lon="5.89471">
        <ele>924.40002441406</ele>
        <time>2018-06-09T08:13:03.000Z</time>
      </trkpt>
      <trkpt lat="46.40218" lon="5.8947">
        <ele>923</ele>
        <time>2018-06-09T08:13:04.000Z</time>
      </trkpt>
      <trkpt lat="46.40221" lon="5.89466">
        <ele>921.79998779297</ele>
        <time>2018-06-09T08:13:05.000Z</time>
      </trkpt>
      <trkpt lat="46.40223" lon="5.89457">
        <ele>920.20001220703</ele>
        <time>2018-06-09T08:13:07.000Z</time>
      </trkpt>
      <trkpt lat="46.40223" lon="5.89448">
        <ele>918.40002441406</ele>
        <time>2018-06-09T08:13:09.000Z</time>
      </trkpt>
      <trkpt lat="46.40224" lon="5.89443">
        <ele>917.20001220703</ele>
        <time>2018-06-09T08:13:10.000Z</time>
      </trkpt>
      <trkpt lat="46.40225" lon="5.89434">
        <ele>916.40002441406</ele>
        <time>2018-06-09T08:13:11.000Z</time>
      </trkpt>
      <trkpt lat="46.40226" lon="5.89425">
        <ele>915.40002441406</ele>
        <time>2018-06-09T08:13:12.000Z</time>
      </trkpt>
      <trkpt lat="46.40228" lon="5.89416">
        <ele>914.20001220703</ele>
        <time>2018-06-09T08:13:13.000Z</time>
      </trkpt>
      <trkpt lat="46.4023" lon="5.89408">
        <ele>912.79998779297</ele>
        <time>2018-06-09T08:13:14.000Z</time>
      </trkpt>
      <trkpt lat="46.40232" lon="5.89401">
        <ele>911.59997558594</ele>
        <time>2018-06-09T08:13:15.000Z</time>
      </trkpt>
      <trkpt lat="46.40233" lon="5.89394">
        <ele>910.59997558594</ele>
        <time>2018-06-09T08:13:16.000Z</time>
      </trkpt>
      <trkpt lat="46.40234" lon="5.89388">
        <ele>909.59997558594</ele>
        <time>2018-06-09T08:13:17.000Z</time>
      </trkpt>
      <trkpt lat="46.40234" lon="5.89383">
        <ele>908.59997558594</ele>
        <time>2018-06-09T08:13:18.000Z</time>
      </trkpt>
      <trkpt lat="46.40234" lon="5.89378">
        <ele>907.20001220703</ele>
        <time>2018-06-09T08:13:19.000Z</time>
      </trkpt>
      <trkpt lat="46.40234" lon="5.89375">
        <ele>905.59997558594</ele>
        <time>2018-06-09T08:13:20.000Z</time>
      </trkpt>
      <trkpt lat="46.40235" lon="5.89375">
        <ele>904</ele>
        <time>2018-06-09T08:13:21.000Z</time>
      </trkpt>
      <trkpt lat="46.40235" lon="5.89376">
        <ele>902.40002441406</ele>
        <time>2018-06-09T08:13:23.000Z</time>
      </trkpt>
      <trkpt lat="46.40235" lon="5.89371">
        <ele>902</ele>
        <time>2018-06-09T08:14:11.000Z</time>
      </trkpt>
      <trkpt lat="46.40237" lon="5.89344">
        <ele>902</ele>
        <time>2018-06-09T08:14:16.000Z</time>
      </trkpt>
      <trkpt lat="46.40238" lon="5.89336">
        <ele>901</ele>
        <time>2018-06-09T08:14:17.000Z</time>
      </trkpt>
      <trkpt lat="46.40239" lon="5.89327">
        <ele>899.59997558594</ele>
        <time>2018-06-09T08:14:18.000Z</time>
      </trkpt>
      <trkpt lat="46.40239" lon="5.89316">
        <ele>898.20001220703</ele>
        <time>2018-06-09T08:14:19.000Z</time>
      </trkpt>
      <trkpt lat="46.4024" lon="5.89306">
        <ele>896.59997558594</ele>
        <time>2018-06-09T08:14:20.000Z</time>
      </trkpt>
      <trkpt lat="46.4024" lon="5.893">
        <ele>894.79998779297</ele>
        <time>2018-06-09T08:14:21.000Z</time>
      </trkpt>
      <trkpt lat="46.40239" lon="5.89295">
        <ele>892.79998779297</ele>
        <time>2018-06-09T08:14:22.000Z</time>
      </trkpt>
      <trkpt lat="46.40239" lon="5.89291">
        <ele>891.20001220703</ele>
        <time>2018-06-09T08:14:23.000Z</time>
      </trkpt>
      <trkpt lat="46.40238" lon="5.89286">
        <ele>889.40002441406</ele>
        <time>2018-06-09T08:14:24.000Z</time>
      </trkpt>
      <trkpt lat="46.40237" lon="5.89281">
        <ele>888</ele>
        <time>2018-06-09T08:14:25.000Z</time>
      </trkpt>
      <trkpt lat="46.40235" lon="5.89264">
        <ele>886</ele>
        <time>2018-06-09T08:14:28.000Z</time>
      </trkpt>
      <trkpt lat="46.40235" lon="5.89258">
        <ele>884.59997558594</ele>
        <time>2018-06-09T08:14:29.000Z</time>
      </trkpt>
      <trkpt lat="46.40235" lon="5.89251">
        <ele>883</ele>
        <time>2018-06-09T08:14:30.000Z</time>
      </trkpt>
      <trkpt lat="46.40236" lon="5.89244">
        <ele>881.79998779297</ele>
        <time>2018-06-09T08:14:31.000Z</time>
      </trkpt>
      <trkpt lat="46.40235" lon="5.89236">
        <ele>880.79998779297</ele>
        <time>2018-06-09T08:14:32.000Z</time>
      </trkpt>
      <trkpt lat="46.40235" lon="5.8923">
        <ele>880</ele>
        <time>2018-06-09T08:14:33.000Z</time>
      </trkpt>
      <trkpt lat="46.40237" lon="5.89223">
        <ele>879</ele>
        <time>2018-06-09T08:14:34.000Z</time>
      </trkpt>
      <trkpt lat="46.40239" lon="5.89217">
        <ele>878</ele>
        <time>2018-06-09T08:14:35.000Z</time>
      </trkpt>
      <trkpt lat="46.40242" lon="5.89213">
        <ele>876.59997558594</ele>
        <time>2018-06-09T08:14:36.000Z</time>
      </trkpt>
      <trkpt lat="46.40244" lon="5.89211">
        <ele>876</ele>
        <time>2018-06-09T08:14:37.000Z</time>
      </trkpt>
      <trkpt lat="46.40246" lon="5.89209">
        <ele>874.79998779297</ele>
        <time>2018-06-09T08:14:38.000Z</time>
      </trkpt>
      <trkpt lat="46.40247" lon="5.89208">
        <ele>873.59997558594</ele>
        <time>2018-06-09T08:14:39.000Z</time>
      </trkpt>
      <trkpt lat="46.40248" lon="5.89206">
        <ele>871.79998779297</ele>
        <time>2018-06-09T08:14:41.000Z</time>
      </trkpt>
      <trkpt lat="46.40249" lon="5.89201">
        <ele>870.40002441406</ele>
        <time>2018-06-09T08:14:43.000Z</time>
      </trkpt>
      <trkpt lat="46.4025" lon="5.89197">
        <ele>869.20001220703</ele>
        <time>2018-06-09T08:14:44.000Z</time>
      </trkpt>
      <trkpt lat="46.40253" lon="5.89189">
        <ele>867.59997558594</ele>
        <time>2018-06-09T08:14:45.000Z</time>
      </trkpt>
      <trkpt lat="46.40254" lon="5.89183">
        <ele>866</ele>
        <time>2018-06-09T08:14:46.000Z</time>
      </trkpt>
      <trkpt lat="46.40257" lon="5.89178">
        <ele>864.59997558594</ele>
        <time>2018-06-09T08:14:47.000Z</time>
      </trkpt>
      <trkpt lat="46.40258" lon="5.89174">
        <ele>863.59997558594</ele>
        <time>2018-06-09T08:14:48.000Z</time>
      </trkpt>
      <trkpt lat="46.40258" lon="5.8917">
        <ele>862.59997558594</ele>
        <time>2018-06-09T08:14:49.000Z</time>
      </trkpt>
      <trkpt lat="46.40257" lon="5.89168">
        <ele>861.59997558594</ele>
        <time>2018-06-09T08:14:50.000Z</time>
      </trkpt>
      <trkpt lat="46.40256" lon="5.89164">
        <ele>860.40002441406</ele>
        <time>2018-06-09T08:14:51.000Z</time>
      </trkpt>
      <trkpt lat="46.40255" lon="5.89157">
        <ele>859.20001220703</ele>
        <time>2018-06-09T08:14:52.000Z</time>
      </trkpt>
      <trkpt lat="46.40255" lon="5.89151">
        <ele>857.40002441406</ele>
        <time>2018-06-09T08:14:53.000Z</time>
      </trkpt>
      <trkpt lat="46.40255" lon="5.89144">
        <ele>855.40002441406</ele>
        <time>2018-06-09T08:14:54.000Z</time>
      </trkpt>
      <trkpt lat="46.40255" lon="5.89137">
        <ele>852.79998779297</ele>
        <time>2018-06-09T08:14:55.000Z</time>
      </trkpt>
      <trkpt lat="46.40254" lon="5.89129">
        <ele>850.79998779297</ele>
        <time>2018-06-09T08:14:56.000Z</time>
      </trkpt>
      <trkpt lat="46.40254" lon="5.89122">
        <ele>848.79998779297</ele>
        <time>2018-06-09T08:14:57.000Z</time>
      </trkpt>
      <trkpt lat="46.40252" lon="5.89113">
        <ele>847.20001220703</ele>
        <time>2018-06-09T08:14:58.000Z</time>
      </trkpt>
      <trkpt lat="46.4025" lon="5.89105">
        <ele>845.20001220703</ele>
        <time>2018-06-09T08:14:59.000Z</time>
      </trkpt>
      <trkpt lat="46.40249" lon="5.89095">
        <ele>842.59997558594</ele>
        <time>2018-06-09T08:15:00.000Z</time>
      </trkpt>
      <trkpt lat="46.40249" lon="5.89087">
        <ele>839.79998779297</ele>
        <time>2018-06-09T08:15:01.000Z</time>
      </trkpt>
      <trkpt lat="46.40248" lon="5.89081">
        <ele>837.79998779297</ele>
        <time>2018-06-09T08:15:02.000Z</time>
      </trkpt>
      <trkpt lat="46.40247" lon="5.89076">
        <ele>836</ele>
        <time>2018-06-09T08:15:03.000Z</time>
      </trkpt>
      <trkpt lat="46.40246" lon="5.89071">
        <ele>834.59997558594</ele>
        <time>2018-06-09T08:15:04.000Z</time>
      </trkpt>
      <trkpt lat="46.40245" lon="5.89067">
        <ele>833</ele>
        <time>2018-06-09T08:15:05.000Z</time>
      </trkpt>
      <trkpt lat="46.40243" lon="5.89064">
        <ele>831.79998779297</ele>
        <time>2018-06-09T08:15:06.000Z</time>
      </trkpt>
      <trkpt lat="46.40241" lon="5.89064">
        <ele>830.20001220703</ele>
        <time>2018-06-09T08:15:08.000Z</time>
      </trkpt>
      <trkpt lat="46.40239" lon="5.89057">
        <ele>829</ele>
        <time>2018-06-09T08:15:11.000Z</time>
      </trkpt>
      <trkpt lat="46.40238" lon="5.89054">
        <ele>828.40002441406</ele>
        <time>2018-06-09T08:15:12.000Z</time>
      </trkpt>
      <trkpt lat="46.40237" lon="5.8905">
        <ele>827.79998779297</ele>
        <time>2018-06-09T08:15:13.000Z</time>
      </trkpt>
      <trkpt lat="46.40236" lon="5.89047">
        <ele>826.59997558594</ele>
        <time>2018-06-09T08:15:14.000Z</time>
      </trkpt>
      <trkpt lat="46.40235" lon="5.89045">
        <ele>825.40002441406</ele>
        <time>2018-06-09T08:15:15.000Z</time>
      </trkpt>
      <trkpt lat="46.40235" lon="5.89041">
        <ele>824.20001220703</ele>
        <time>2018-06-09T08:15:16.000Z</time>
      </trkpt>
      <trkpt lat="46.40232" lon="5.89033">
        <ele>822.59997558594</ele>
        <time>2018-06-09T08:15:18.000Z</time>
      </trkpt>
      <trkpt lat="46.40231" lon="5.89031">
        <ele>821.59997558594</ele>
        <time>2018-06-09T08:15:19.000Z</time>
      </trkpt>
      <trkpt lat="46.4023" lon="5.89028">
        <ele>820.40002441406</ele>
        <time>2018-06-09T08:15:20.000Z</time>
      </trkpt>
      <trkpt lat="46.40228" lon="5.89025">
        <ele>819.20001220703</ele>
        <time>2018-06-09T08:15:21.000Z</time>
      </trkpt>
      <trkpt lat="46.40223" lon="5.89017">
        <ele>817.40002441406</ele>
        <time>2018-06-09T08:15:23.000Z</time>
      </trkpt>
      <trkpt lat="46.40219" lon="5.89012">
        <ele>816.40002441406</ele>
        <time>2018-06-09T08:15:24.000Z</time>
      </trkpt>
      <trkpt lat="46.40216" lon="5.89007">
        <ele>815.20001220703</ele>
        <time>2018-06-09T08:15:25.000Z</time>
      </trkpt>
      <trkpt lat="46.40212" lon="5.89002">
        <ele>813.20001220703</ele>
        <time>2018-06-09T08:15:26.000Z</time>
      </trkpt>
      <trkpt lat="46.4021" lon="5.88997">
        <ele>811.40002441406</ele>
        <time>2018-06-09T08:15:27.000Z</time>
      </trkpt>
      <trkpt lat="46.40208" lon="5.88994">
        <ele>809.59997558594</ele>
        <time>2018-06-09T08:15:28.000Z</time>
      </trkpt>
      <trkpt lat="46.40207" lon="5.8899">
        <ele>808.20001220703</ele>
        <time>2018-06-09T08:15:29.000Z</time>
      </trkpt>
      <trkpt lat="46.40208" lon="5.88989">
        <ele>807.20001220703</ele>
        <time>2018-06-09T08:15:30.000Z</time>
      </trkpt>
      <trkpt lat="46.40209" lon="5.88988">
        <ele>806</ele>
        <time>2018-06-09T08:15:31.000Z</time>
      </trkpt>
      <trkpt lat="46.40209" lon="5.88986">
        <ele>804.59997558594</ele>
        <time>2018-06-09T08:15:33.000Z</time>
      </trkpt>
      <trkpt lat="46.40208" lon="5.88979">
        <ele>803.20001220703</ele>
        <time>2018-06-09T08:15:35.000Z</time>
      </trkpt>
      <trkpt lat="46.40207" lon="5.88972">
        <ele>801.59997558594</ele>
        <time>2018-06-09T08:15:37.000Z</time>
      </trkpt>
      <trkpt lat="46.40207" lon="5.88968">
        <ele>800.20001220703</ele>
        <time>2018-06-09T08:15:39.000Z</time>
      </trkpt>
      <trkpt lat="46.40206" lon="5.88965">
        <ele>798.79998779297</ele>
        <time>2018-06-09T08:15:41.000Z</time>
      </trkpt>
      <trkpt lat="46.40204" lon="5.88961">
        <ele>798.20001220703</ele>
        <time>2018-06-09T08:15:42.000Z</time>
      </trkpt>
      <trkpt lat="46.40202" lon="5.88958">
        <ele>797.59997558594</ele>
        <time>2018-06-09T08:15:43.000Z</time>
      </trkpt>
      <trkpt lat="46.40201" lon="5.88954">
        <ele>797.20001220703</ele>
        <time>2018-06-09T08:15:44.000Z</time>
      </trkpt>
      <trkpt lat="46.40201" lon="5.88951">
        <ele>796.59997558594</ele>
        <time>2018-06-09T08:15:45.000Z</time>
      </trkpt>
      <trkpt lat="46.40201" lon="5.88948">
        <ele>795.20001220703</ele>
        <time>2018-06-09T08:15:47.000Z</time>
      </trkpt>
      <trkpt lat="46.40202" lon="5.88943">
        <ele>794</ele>
        <time>2018-06-09T08:15:49.000Z</time>
      </trkpt>
      <trkpt lat="46.40201" lon="5.88937">
        <ele>791.79998779297</ele>
        <time>2018-06-09T08:15:51.000Z</time>
      </trkpt>
      <trkpt lat="46.40202" lon="5.88934">
        <ele>790.59997558594</ele>
        <time>2018-06-09T08:15:52.000Z</time>
      </trkpt>
      <trkpt lat="46.40202" lon="5.88932">
        <ele>789.40002441406</ele>
        <time>2018-06-09T08:15:53.000Z</time>
      </trkpt>
      <trkpt lat="46.40204" lon="5.8893">
        <ele>788</ele>
        <time>2018-06-09T08:15:54.000Z</time>
      </trkpt>
      <trkpt lat="46.40205" lon="5.8893">
        <ele>786.79998779297</ele>
        <time>2018-06-09T08:15:55.000Z</time>
      </trkpt>
      <trkpt lat="46.40206" lon="5.88929">
        <ele>785.59997558594</ele>
        <time>2018-06-09T08:15:56.000Z</time>
      </trkpt>
      <trkpt lat="46.40207" lon="5.88928">
        <ele>784.40002441406</ele>
        <time>2018-06-09T08:15:57.000Z</time>
      </trkpt>
      <trkpt lat="46.40209" lon="5.88922">
        <ele>782.59997558594</ele>
        <time>2018-06-09T08:15:59.000Z</time>
      </trkpt>
      <trkpt lat="46.4021" lon="5.88909">
        <ele>781.59997558594</ele>
        <time>2018-06-09T08:16:01.000Z</time>
      </trkpt>
      <trkpt lat="46.4021" lon="5.88902">
        <ele>780.59997558594</ele>
        <time>2018-06-09T08:16:02.000Z</time>
      </trkpt>
      <trkpt lat="46.40208" lon="5.88896">
        <ele>779.20001220703</ele>
        <time>2018-06-09T08:16:03.000Z</time>
      </trkpt>
      <trkpt lat="46.40208" lon="5.88891">
        <ele>777.40002441406</ele>
        <time>2018-06-09T08:16:04.000Z</time>
      </trkpt>
      <trkpt lat="46.40208" lon="5.88888">
        <ele>776</ele>
        <time>2018-06-09T08:16:05.000Z</time>
      </trkpt>
      <trkpt lat="46.4021" lon="5.88886">
        <ele>774.59997558594</ele>
        <time>2018-06-09T08:16:06.000Z</time>
      </trkpt>
      <trkpt lat="46.40211" lon="5.88883">
        <ele>773.40002441406</ele>
        <time>2018-06-09T08:16:07.000Z</time>
      </trkpt>
      <trkpt lat="46.40212" lon="5.88878">
        <ele>772.40002441406</ele>
        <time>2018-06-09T08:16:08.000Z</time>
      </trkpt>
      <trkpt lat="46.40213" lon="5.88875">
        <ele>771.20001220703</ele>
        <time>2018-06-09T08:16:10.000Z</time>
      </trkpt>
      <trkpt lat="46.40213" lon="5.8887">
        <ele>769.79998779297</ele>
        <time>2018-06-09T08:16:12.000Z</time>
      </trkpt>
      <trkpt lat="46.40213" lon="5.88864">
        <ele>768.59997558594</ele>
        <time>2018-06-09T08:16:14.000Z</time>
      </trkpt>
      <trkpt lat="46.40215" lon="5.88862">
        <ele>767.79998779297</ele>
        <time>2018-06-09T08:16:20.000Z</time>
      </trkpt>
      <trkpt lat="46.40215" lon="5.88859">
        <ele>767.59997558594</ele>
        <time>2018-06-09T08:16:21.000Z</time>
      </trkpt>
      <trkpt lat="46.40215" lon="5.88854">
        <ele>766.40002441406</ele>
        <time>2018-06-09T08:16:23.000Z</time>
      </trkpt>
      <trkpt lat="46.40213" lon="5.8885">
        <ele>765.20001220703</ele>
        <time>2018-06-09T08:16:26.000Z</time>
      </trkpt>
      <trkpt lat="46.40207" lon="5.88841">
        <ele>764.20001220703</ele>
        <time>2018-06-09T08:16:33.000Z</time>
      </trkpt>
      <trkpt lat="46.40207" lon="5.8884">
        <ele>764</ele>
        <time>2018-06-09T08:16:34.000Z</time>
      </trkpt>
      <trkpt lat="46.40205" lon="5.88837">
        <ele>762.79998779297</ele>
        <time>2018-06-09T08:16:37.000Z</time>
      </trkpt>
      <trkpt lat="46.40204" lon="5.88834">
        <ele>761.59997558594</ele>
        <time>2018-06-09T08:16:40.000Z</time>
      </trkpt>
      <trkpt lat="46.40205" lon="5.88833">
        <ele>761.40002441406</ele>
        <time>2018-06-09T08:16:41.000Z</time>
      </trkpt>
      <trkpt lat="46.40202" lon="5.88829">
        <ele>760.59997558594</ele>
        <time>2018-06-09T08:16:50.000Z</time>
      </trkpt>
      <trkpt lat="46.40205" lon="5.88828">
        <ele>760.59997558594</ele>
        <time>2018-06-09T08:17:00.000Z</time>
      </trkpt>
      <trkpt lat="46.40205" lon="5.88824">
        <ele>760.20001220703</ele>
        <time>2018-06-09T08:17:02.000Z</time>
      </trkpt>
      <trkpt lat="46.40206" lon="5.88822">
        <ele>759.40002441406</ele>
        <time>2018-06-09T08:17:04.000Z</time>
      </trkpt>
      <trkpt lat="46.40207" lon="5.88817">
        <ele>758.20001220703</ele>
        <time>2018-06-09T08:17:07.000Z</time>
      </trkpt>
      <trkpt lat="46.40207" lon="5.88815">
        <ele>757</ele>
        <time>2018-06-09T08:17:09.000Z</time>
      </trkpt>
      <trkpt lat="46.40214" lon="5.8881">
        <ele>755.59997558594</ele>
        <time>2018-06-09T08:17:13.000Z</time>
      </trkpt>
      <trkpt lat="46.40215" lon="5.88807">
        <ele>754</ele>
        <time>2018-06-09T08:17:15.000Z</time>
      </trkpt>
      <trkpt lat="46.4022" lon="5.88806">
        <ele>753</ele>
        <time>2018-06-09T08:17:18.000Z</time>
      </trkpt>
      <trkpt lat="46.40226" lon="5.88797">
        <ele>752</ele>
        <time>2018-06-09T08:17:32.000Z</time>
      </trkpt>
      <trkpt lat="46.40229" lon="5.88797">
        <ele>751.59997558594</ele>
        <time>2018-06-09T08:17:33.000Z</time>
      </trkpt>
      <trkpt lat="46.40233" lon="5.88797">
        <ele>750.20001220703</ele>
        <time>2018-06-09T08:17:35.000Z</time>
      </trkpt>
      <trkpt lat="46.40236" lon="5.88794">
        <ele>749</ele>
        <time>2018-06-09T08:17:37.000Z</time>
      </trkpt>
      <trkpt lat="46.40238" lon="5.88795">
        <ele>747.79998779297</ele>
        <time>2018-06-09T08:17:39.000Z</time>
      </trkpt>
      <trkpt lat="46.40239" lon="5.88797">
        <ele>746.59997558594</ele>
        <time>2018-06-09T08:17:43.000Z</time>
      </trkpt>
      <trkpt lat="46.40248" lon="5.88798">
        <ele>746</ele>
        <time>2018-06-09T08:17:47.000Z</time>
      </trkpt>
      <trkpt lat="46.40254" lon="5.88799">
        <ele>745.20001220703</ele>
        <time>2018-06-09T08:17:49.000Z</time>
      </trkpt>
      <trkpt lat="46.40258" lon="5.888">
        <ele>743.79998779297</ele>
        <time>2018-06-09T08:17:51.000Z</time>
      </trkpt>
      <trkpt lat="46.40261" lon="5.88802">
        <ele>742.59997558594</ele>
        <time>2018-06-09T08:17:54.000Z</time>
      </trkpt>
      <trkpt lat="46.40264" lon="5.88803">
        <ele>742.20001220703</ele>
        <time>2018-06-09T08:17:56.000Z</time>
      </trkpt>
      <trkpt lat="46.4027" lon="5.88805">
        <ele>742</ele>
        <time>2018-06-09T08:17:58.000Z</time>
      </trkpt>
      <trkpt lat="46.40274" lon="5.88805">
        <ele>741</ele>
        <time>2018-06-09T08:18:00.000Z</time>
      </trkpt>
      <trkpt lat="46.40276" lon="5.88806">
        <ele>740</ele>
        <time>2018-06-09T08:18:02.000Z</time>
      </trkpt>
      <trkpt lat="46.40278" lon="5.88807">
        <ele>738.79998779297</ele>
        <time>2018-06-09T08:18:05.000Z</time>
      </trkpt>
      <trkpt lat="46.40281" lon="5.88807">
        <ele>737.59997558594</ele>
        <time>2018-06-09T08:18:12.000Z</time>
      </trkpt>
      <trkpt lat="46.4028" lon="5.88801">
        <ele>736.79998779297</ele>
        <time>2018-06-09T08:18:18.000Z</time>
      </trkpt>
      <trkpt lat="46.40279" lon="5.88799">
        <ele>736.59997558594</ele>
        <time>2018-06-09T08:18:19.000Z</time>
      </trkpt>
      <trkpt lat="46.40279" lon="5.88797">
        <ele>736.40002441406</ele>
        <time>2018-06-09T08:18:20.000Z</time>
      </trkpt>
      <trkpt lat="46.40278" lon="5.88789">
        <ele>735.40002441406</ele>
        <time>2018-06-09T08:18:23.000Z</time>
      </trkpt>
      <trkpt lat="46.40275" lon="5.88783">
        <ele>734.20001220703</ele>
        <time>2018-06-09T08:18:26.000Z</time>
      </trkpt>
      <trkpt lat="46.40273" lon="5.8878">
        <ele>733</ele>
        <time>2018-06-09T08:18:29.000Z</time>
      </trkpt>
      <trkpt lat="46.40274" lon="5.88775">
        <ele>731.79998779297</ele>
        <time>2018-06-09T08:18:35.000Z</time>
      </trkpt>
      <trkpt lat="46.40275" lon="5.88775">
        <ele>730.79998779297</ele>
        <time>2018-06-09T08:18:37.000Z</time>
      </trkpt>
      <trkpt lat="46.40281" lon="5.88778">
        <ele>729.59997558594</ele>
        <time>2018-06-09T08:18:42.000Z</time>
      </trkpt>
      <trkpt lat="46.40285" lon="5.88781">
        <ele>728.59997558594</ele>
        <time>2018-06-09T08:18:47.000Z</time>
      </trkpt>
      <trkpt lat="46.40293" lon="5.88781">
        <ele>727.40002441406</ele>
        <time>2018-06-09T08:18:50.000Z</time>
      </trkpt>
      <trkpt lat="46.40297" lon="5.88781">
        <ele>726</ele>
        <time>2018-06-09T08:18:52.000Z</time>
      </trkpt>
      <trkpt lat="46.40299" lon="5.88782">
        <ele>724.20001220703</ele>
        <time>2018-06-09T08:18:54.000Z</time>
      </trkpt>
      <trkpt lat="46.403" lon="5.88783">
        <ele>723.20001220703</ele>
        <time>2018-06-09T08:18:55.000Z</time>
      </trkpt>
      <trkpt lat="46.40301" lon="5.88783">
        <ele>722.20001220703</ele>
        <time>2018-06-09T08:18:56.000Z</time>
      </trkpt>
      <trkpt lat="46.40305" lon="5.88784">
        <ele>720.79998779297</ele>
        <time>2018-06-09T08:18:58.000Z</time>
      </trkpt>
      <trkpt lat="46.40307" lon="5.88783">
        <ele>719.59997558594</ele>
        <time>2018-06-09T08:19:02.000Z</time>
      </trkpt>
      <trkpt lat="46.40311" lon="5.88778">
        <ele>719</ele>
        <time>2018-06-09T08:19:07.000Z</time>
      </trkpt>
      <trkpt lat="46.40313" lon="5.88774">
        <ele>718.59997558594</ele>
        <time>2018-06-09T08:19:10.000Z</time>
      </trkpt>
      <trkpt lat="46.40314" lon="5.88768">
        <ele>717.59997558594</ele>
        <time>2018-06-09T08:19:12.000Z</time>
      </trkpt>
      <trkpt lat="46.40316" lon="5.88763">
        <ele>716.20001220703</ele>
        <time>2018-06-09T08:19:14.000Z</time>
      </trkpt>
      <trkpt lat="46.40317" lon="5.88759">
        <ele>714.40002441406</ele>
        <time>2018-06-09T08:19:16.000Z</time>
      </trkpt>
      <trkpt lat="46.4032" lon="5.88758">
        <ele>713</ele>
        <time>2018-06-09T08:19:18.000Z</time>
      </trkpt>
      <trkpt lat="46.40322" lon="5.88756">
        <ele>711.20001220703</ele>
        <time>2018-06-09T08:19:20.000Z</time>
      </trkpt>
      <trkpt lat="46.40325" lon="5.88756">
        <ele>710.20001220703</ele>
        <time>2018-06-09T08:19:21.000Z</time>
      </trkpt>
      <trkpt lat="46.4033" lon="5.88753">
        <ele>708.59997558594</ele>
        <time>2018-06-09T08:19:23.000Z</time>
      </trkpt>
      <trkpt lat="46.40334" lon="5.8875">
        <ele>706.79998779297</ele>
        <time>2018-06-09T08:19:25.000Z</time>
      </trkpt>
      <trkpt lat="46.40336" lon="5.88748">
        <ele>705.40002441406</ele>
        <time>2018-06-09T08:19:27.000Z</time>
      </trkpt>
      <trkpt lat="46.40337" lon="5.88746">
        <ele>704.20001220703</ele>
        <time>2018-06-09T08:19:30.000Z</time>
      </trkpt>
      <trkpt lat="46.40347" lon="5.88751">
        <ele>703.79998779297</ele>
        <time>2018-06-09T08:19:35.000Z</time>
      </trkpt>
      <trkpt lat="46.40351" lon="5.88749">
        <ele>702.59997558594</ele>
        <time>2018-06-09T08:19:43.000Z</time>
      </trkpt>
      <trkpt lat="46.40348" lon="5.88747">
        <ele>701.59997558594</ele>
        <time>2018-06-09T08:19:46.000Z</time>
      </trkpt>
      <trkpt lat="46.40349" lon="5.88735">
        <ele>700.59997558594</ele>
        <time>2018-06-09T08:19:50.000Z</time>
      </trkpt>
      <trkpt lat="46.40349" lon="5.88731">
        <ele>700</ele>
        <time>2018-06-09T08:19:51.000Z</time>
      </trkpt>
      <trkpt lat="46.40349" lon="5.88725">
        <ele>698.40002441406</ele>
        <time>2018-06-09T08:19:53.000Z</time>
      </trkpt>
      <trkpt lat="46.40347" lon="5.88719">
        <ele>696.40002441406</ele>
        <time>2018-06-09T08:19:55.000Z</time>
      </trkpt>
      <trkpt lat="46.40345" lon="5.88717">
        <ele>694.59997558594</ele>
        <time>2018-06-09T08:19:57.000Z</time>
      </trkpt>
      <trkpt lat="46.40344" lon="5.88713">
        <ele>693.20001220703</ele>
        <time>2018-06-09T08:19:59.000Z</time>
      </trkpt>
      <trkpt lat="46.40341" lon="5.88709">
        <ele>691.40002441406</ele>
        <time>2018-06-09T08:20:01.000Z</time>
      </trkpt>
      <trkpt lat="46.4034" lon="5.88706">
        <ele>690.20001220703</ele>
        <time>2018-06-09T08:20:02.000Z</time>
      </trkpt>
      <trkpt lat="46.40338" lon="5.88705">
        <ele>689</ele>
        <time>2018-06-09T08:20:03.000Z</time>
      </trkpt>
      <trkpt lat="46.40336" lon="5.88703">
        <ele>687.79998779297</ele>
        <time>2018-06-09T08:20:04.000Z</time>
      </trkpt>
      <trkpt lat="46.40333" lon="5.88697">
        <ele>686.20001220703</ele>
        <time>2018-06-09T08:20:06.000Z</time>
      </trkpt>
      <trkpt lat="46.40331" lon="5.88694">
        <ele>685.59997558594</ele>
        <time>2018-06-09T08:20:07.000Z</time>
      </trkpt>
      <trkpt lat="46.40328" lon="5.88692">
        <ele>684.79998779297</ele>
        <time>2018-06-09T08:20:09.000Z</time>
      </trkpt>
      <trkpt lat="46.40326" lon="5.88686">
        <ele>684.20001220703</ele>
        <time>2018-06-09T08:20:11.000Z</time>
      </trkpt>
      <trkpt lat="46.40324" lon="5.88684">
        <ele>683.59997558594</ele>
        <time>2018-06-09T08:20:12.000Z</time>
      </trkpt>
      <trkpt lat="46.40324" lon="5.88679">
        <ele>682.40002441406</ele>
        <time>2018-06-09T08:20:14.000Z</time>
      </trkpt>
      <trkpt lat="46.40324" lon="5.88675">
        <ele>681</ele>
        <time>2018-06-09T08:20:16.000Z</time>
      </trkpt>
      <trkpt lat="46.40324" lon="5.88673">
        <ele>680.59997558594</ele>
        <time>2018-06-09T08:20:17.000Z</time>
      </trkpt>
      <trkpt lat="46.40322" lon="5.88669">
        <ele>679.59997558594</ele>
        <time>2018-06-09T08:20:19.000Z</time>
      </trkpt>
      <trkpt lat="46.40321" lon="5.88668">
        <ele>677.79998779297</ele>
        <time>2018-06-09T08:20:21.000Z</time>
      </trkpt>
      <trkpt lat="46.40322" lon="5.88666">
        <ele>676.59997558594</ele>
        <time>2018-06-09T08:20:23.000Z</time>
      </trkpt>
      <trkpt lat="46.40323" lon="5.8866">
        <ele>675.40002441406</ele>
        <time>2018-06-09T08:20:26.000Z</time>
      </trkpt>
      <trkpt lat="46.40324" lon="5.88657">
        <ele>675.20001220703</ele>
        <time>2018-06-09T08:20:28.000Z</time>
      </trkpt>
      <trkpt lat="46.40329" lon="5.88654">
        <ele>674.40002441406</ele>
        <time>2018-06-09T08:20:32.000Z</time>
      </trkpt>
      <trkpt lat="46.40329" lon="5.88651">
        <ele>673.59997558594</ele>
        <time>2018-06-09T08:20:35.000Z</time>
      </trkpt>
      <trkpt lat="46.40327" lon="5.8865">
        <ele>673.20001220703</ele>
        <time>2018-06-09T08:20:36.000Z</time>
      </trkpt>
      <trkpt lat="46.40323" lon="5.88647">
        <ele>671.79998779297</ele>
        <time>2018-06-09T08:20:39.000Z</time>
      </trkpt>
      <trkpt lat="46.40319" lon="5.88641">
        <ele>670.59997558594</ele>
        <time>2018-06-09T08:20:42.000Z</time>
      </trkpt>
      <trkpt lat="46.40315" lon="5.88633">
        <ele>669.20001220703</ele>
        <time>2018-06-09T08:20:45.000Z</time>
      </trkpt>
      <trkpt lat="46.40312" lon="5.88625">
        <ele>667.59997558594</ele>
        <time>2018-06-09T08:20:47.000Z</time>
      </trkpt>
      <trkpt lat="46.40308" lon="5.88619">
        <ele>665.79998779297</ele>
        <time>2018-06-09T08:20:49.000Z</time>
      </trkpt>
      <trkpt lat="46.40307" lon="5.88616">
        <ele>665</ele>
        <time>2018-06-09T08:20:50.000Z</time>
      </trkpt>
      <trkpt lat="46.40307" lon="5.88613">
        <ele>664</ele>
        <time>2018-06-09T08:20:51.000Z</time>
      </trkpt>
      <trkpt lat="46.40306" lon="5.88606">
        <ele>662.79998779297</ele>
        <time>2018-06-09T08:20:53.000Z</time>
      </trkpt>
      <trkpt lat="46.40308" lon="5.88604">
        <ele>661.20001220703</ele>
        <time>2018-06-09T08:20:56.000Z</time>
      </trkpt>
      <trkpt lat="46.40308" lon="5.88603">
        <ele>660.20001220703</ele>
        <time>2018-06-09T08:20:58.000Z</time>
      </trkpt>
      <trkpt lat="46.40306" lon="5.88597">
        <ele>659.20001220703</ele>
        <time>2018-06-09T08:21:09.000Z</time>
      </trkpt>
      <trkpt lat="46.40303" lon="5.88593">
        <ele>658.40002441406</ele>
        <time>2018-06-09T08:21:12.000Z</time>
      </trkpt>
      <trkpt lat="46.40302" lon="5.8859">
        <ele>657.79998779297</ele>
        <time>2018-06-09T08:21:13.000Z</time>
      </trkpt>
      <trkpt lat="46.40299" lon="5.88585">
        <ele>656</ele>
        <time>2018-06-09T08:21:15.000Z</time>
      </trkpt>
      <trkpt lat="46.40296" lon="5.88578">
        <ele>654.40002441406</ele>
        <time>2018-06-09T08:21:17.000Z</time>
      </trkpt>
      <trkpt lat="46.40294" lon="5.88574">
        <ele>653</ele>
        <time>2018-06-09T08:21:19.000Z</time>
      </trkpt>
      <trkpt lat="46.40294" lon="5.88571">
        <ele>651.40002441406</ele>
        <time>2018-06-09T08:21:21.000Z</time>
      </trkpt>
      <trkpt lat="46.40294" lon="5.88568">
        <ele>650.20001220703</ele>
        <time>2018-06-09T08:21:23.000Z</time>
      </trkpt>
      <trkpt lat="46.40295" lon="5.88563">
        <ele>649</ele>
        <time>2018-06-09T08:21:25.000Z</time>
      </trkpt>
      <trkpt lat="46.40286" lon="5.88558">
        <ele>647.79998779297</ele>
        <time>2018-06-09T08:21:54.000Z</time>
      </trkpt>
      <trkpt lat="46.40284" lon="5.88555">
        <ele>646.59997558594</ele>
        <time>2018-06-09T08:21:57.000Z</time>
      </trkpt>
      <trkpt lat="46.40285" lon="5.88554">
        <ele>645.59997558594</ele>
        <time>2018-06-09T08:22:00.000Z</time>
      </trkpt>
      <trkpt lat="46.40287" lon="5.88547">
        <ele>644.79998779297</ele>
        <time>2018-06-09T08:22:03.000Z</time>
      </trkpt>
      <trkpt lat="46.40289" lon="5.88542">
        <ele>644.20001220703</ele>
        <time>2018-06-09T08:22:04.000Z</time>
      </trkpt>
      <trkpt lat="46.4029" lon="5.88538">
        <ele>643</ele>
        <time>2018-06-09T08:22:06.000Z</time>
      </trkpt>
      <trkpt lat="46.40298" lon="5.88528">
        <ele>642</ele>
        <time>2018-06-09T08:22:15.000Z</time>
      </trkpt>
      <trkpt lat="46.40307" lon="5.88532">
        <ele>640.79998779297</ele>
        <time>2018-06-09T08:22:25.000Z</time>
      </trkpt>
      <trkpt lat="46.4031" lon="5.88531">
        <ele>640.59997558594</ele>
        <time>2018-06-09T08:22:27.000Z</time>
      </trkpt>
      <trkpt lat="46.40315" lon="5.88529">
        <ele>639.59997558594</ele>
        <time>2018-06-09T08:22:30.000Z</time>
      </trkpt>
      <trkpt lat="46.40315" lon="5.88526">
        <ele>638.59997558594</ele>
        <time>2018-06-09T08:22:33.000Z</time>
      </trkpt>
      <trkpt lat="46.40314" lon="5.88522">
        <ele>637.59997558594</ele>
        <time>2018-06-09T08:22:35.000Z</time>
      </trkpt>
      <trkpt lat="46.40314" lon="5.88518">
        <ele>637</ele>
        <time>2018-06-09T08:22:37.000Z</time>
      </trkpt>
      <trkpt lat="46.40313" lon="5.88514">
        <ele>636.40002441406</ele>
        <time>2018-06-09T08:22:39.000Z</time>
      </trkpt>
      <trkpt lat="46.40311" lon="5.88507">
        <ele>635.40002441406</ele>
        <time>2018-06-09T08:22:43.000Z</time>
      </trkpt>
      <trkpt lat="46.40305" lon="5.88496">
        <ele>633.79998779297</ele>
        <time>2018-06-09T08:22:46.000Z</time>
      </trkpt>
      <trkpt lat="46.40303" lon="5.88494">
        <ele>633.20001220703</ele>
        <time>2018-06-09T08:22:47.000Z</time>
      </trkpt>
      <trkpt lat="46.403" lon="5.88493">
        <ele>632.79998779297</ele>
        <time>2018-06-09T08:22:48.000Z</time>
      </trkpt>
      <trkpt lat="46.40295" lon="5.88492">
        <ele>632.20001220703</ele>
        <time>2018-06-09T08:22:50.000Z</time>
      </trkpt>
      <trkpt lat="46.40289" lon="5.88486">
        <ele>631.59997558594</ele>
        <time>2018-06-09T08:22:54.000Z</time>
      </trkpt>
      <trkpt lat="46.40288" lon="5.88483">
        <ele>631.40002441406</ele>
        <time>2018-06-09T08:22:55.000Z</time>
      </trkpt>
      <trkpt lat="46.40286" lon="5.88475">
        <ele>630.20001220703</ele>
        <time>2018-06-09T08:22:58.000Z</time>
      </trkpt>
      <trkpt lat="46.40282" lon="5.88474">
        <ele>629.20001220703</ele>
        <time>2018-06-09T08:23:00.000Z</time>
      </trkpt>
      <trkpt lat="46.40279" lon="5.88471">
        <ele>628</ele>
        <time>2018-06-09T08:23:03.000Z</time>
      </trkpt>
      <trkpt lat="46.40272" lon="5.88465">
        <ele>627.40002441406</ele>
        <time>2018-06-09T08:23:14.000Z</time>
      </trkpt>
      <trkpt lat="46.4027" lon="5.88464">
        <ele>627.40002441406</ele>
        <time>2018-06-09T08:23:16.000Z</time>
      </trkpt>
      <trkpt lat="46.40267" lon="5.88464">
        <ele>627</ele>
        <time>2018-06-09T08:23:18.000Z</time>
      </trkpt>
      <trkpt lat="46.40265" lon="5.88463">
        <ele>626.40002441406</ele>
        <time>2018-06-09T08:23:19.000Z</time>
      </trkpt>
      <trkpt lat="46.40262" lon="5.88459">
        <ele>625.59997558594</ele>
        <time>2018-06-09T08:23:21.000Z</time>
      </trkpt>
      <trkpt lat="46.40255" lon="5.8845">
        <ele>624.40002441406</ele>
        <time>2018-06-09T08:23:25.000Z</time>
      </trkpt>
      <trkpt lat="46.4025" lon="5.88448">
        <ele>623.40002441406</ele>
        <time>2018-06-09T08:23:28.000Z</time>
      </trkpt>
      <trkpt lat="46.40248" lon="5.88445">
        <ele>623.20001220703</ele>
        <time>2018-06-09T08:23:29.000Z</time>
      </trkpt>
      <trkpt lat="46.40242" lon="5.8844">
        <ele>622</ele>
        <time>2018-06-09T08:23:31.000Z</time>
      </trkpt>
      <trkpt lat="46.40237" lon="5.88434">
        <ele>620</ele>
        <time>2018-06-09T08:23:33.000Z</time>
      </trkpt>
      <trkpt lat="46.40233" lon="5.88427">
        <ele>618.40002441406</ele>
        <time>2018-06-09T08:23:35.000Z</time>
      </trkpt>
      <trkpt lat="46.4023" lon="5.88421">
        <ele>617.20001220703</ele>
        <time>2018-06-09T08:23:37.000Z</time>
      </trkpt>
      <trkpt lat="46.40227" lon="5.88416">
        <ele>615.40002441406</ele>
        <time>2018-06-09T08:23:39.000Z</time>
      </trkpt>
      <trkpt lat="46.40222" lon="5.88415">
        <ele>613.40002441406</ele>
        <time>2018-06-09T08:23:41.000Z</time>
      </trkpt>
      <trkpt lat="46.4022" lon="5.88415">
        <ele>612.20001220703</ele>
        <time>2018-06-09T08:23:42.000Z</time>
      </trkpt>
      <trkpt lat="46.40218" lon="5.88413">
        <ele>611</ele>
        <time>2018-06-09T08:23:43.000Z</time>
      </trkpt>
      <trkpt lat="46.40211" lon="5.88407">
        <ele>609</ele>
        <time>2018-06-09T08:23:45.000Z</time>
      </trkpt>
      <trkpt lat="46.40208" lon="5.88404">
        <ele>608</ele>
        <time>2018-06-09T08:23:46.000Z</time>
      </trkpt>
      <trkpt lat="46.40204" lon="5.88399">
        <ele>606.79998779297</ele>
        <time>2018-06-09T08:23:47.000Z</time>
      </trkpt>
      <trkpt lat="46.40202" lon="5.88393">
        <ele>605.59997558594</ele>
        <time>2018-06-09T08:23:48.000Z</time>
      </trkpt>
      <trkpt lat="46.402" lon="5.88388">
        <ele>604.20001220703</ele>
        <time>2018-06-09T08:23:49.000Z</time>
      </trkpt>
      <trkpt lat="46.40198" lon="5.88384">
        <ele>602.79998779297</ele>
        <time>2018-06-09T08:23:50.000Z</time>
      </trkpt>
      <trkpt lat="46.40197" lon="5.88381">
        <ele>601.20001220703</ele>
        <time>2018-06-09T08:23:51.000Z</time>
      </trkpt>
      <trkpt lat="46.40195" lon="5.88379">
        <ele>599.79998779297</ele>
        <time>2018-06-09T08:23:52.000Z</time>
      </trkpt>
      <trkpt lat="46.40192" lon="5.88376">
        <ele>598.59997558594</ele>
        <time>2018-06-09T08:23:53.000Z</time>
      </trkpt>
      <trkpt lat="46.40188" lon="5.88373">
        <ele>597.40002441406</ele>
        <time>2018-06-09T08:23:55.000Z</time>
      </trkpt>
      <trkpt lat="46.40179" lon="5.88365">
        <ele>596.20001220703</ele>
        <time>2018-06-09T08:23:58.000Z</time>
      </trkpt>
      <trkpt lat="46.40175" lon="5.88361">
        <ele>594.40002441406</ele>
        <time>2018-06-09T08:24:00.000Z</time>
      </trkpt>
      <trkpt lat="46.4017" lon="5.88362">
        <ele>592.79998779297</ele>
        <time>2018-06-09T08:24:02.000Z</time>
      </trkpt>
      <trkpt lat="46.40167" lon="5.88363">
        <ele>591.40002441406</ele>
        <time>2018-06-09T08:24:04.000Z</time>
      </trkpt>
      <trkpt lat="46.40162" lon="5.88363">
        <ele>590.20001220703</ele>
        <time>2018-06-09T08:24:06.000Z</time>
      </trkpt>
      <trkpt lat="46.40158" lon="5.8836">
        <ele>589</ele>
        <time>2018-06-09T08:24:08.000Z</time>
      </trkpt>
      <trkpt lat="46.40156" lon="5.88357">
        <ele>587</ele>
        <time>2018-06-09T08:24:10.000Z</time>
      </trkpt>
      <trkpt lat="46.40154" lon="5.88356">
        <ele>585.79998779297</ele>
        <time>2018-06-09T08:24:11.000Z</time>
      </trkpt>
      <trkpt lat="46.40152" lon="5.88356">
        <ele>584.59997558594</ele>
        <time>2018-06-09T08:24:12.000Z</time>
      </trkpt>
      <trkpt lat="46.40148" lon="5.88355">
        <ele>583.20001220703</ele>
        <time>2018-06-09T08:24:14.000Z</time>
      </trkpt>
      <trkpt lat="46.40143" lon="5.88343">
        <ele>582.40002441406</ele>
        <time>2018-06-09T08:24:17.000Z</time>
      </trkpt>
      <trkpt lat="46.40138" lon="5.88334">
        <ele>582.20001220703</ele>
        <time>2018-06-09T08:24:19.000Z</time>
      </trkpt>
      <trkpt lat="46.40133" lon="5.8833">
        <ele>580.79998779297</ele>
        <time>2018-06-09T08:24:21.000Z</time>
      </trkpt>
      <trkpt lat="46.40127" lon="5.88326">
        <ele>579.20001220703</ele>
        <time>2018-06-09T08:24:23.000Z</time>
      </trkpt>
      <trkpt lat="46.40126" lon="5.88323">
        <ele>578.79998779297</ele>
        <time>2018-06-09T08:24:24.000Z</time>
      </trkpt>
      <trkpt lat="46.40119" lon="5.88321">
        <ele>577.79998779297</ele>
        <time>2018-06-09T08:24:26.000Z</time>
      </trkpt>
      <trkpt lat="46.4011" lon="5.88316">
        <ele>576.40002441406</ele>
        <time>2018-06-09T08:24:29.000Z</time>
      </trkpt>
      <trkpt lat="46.40102" lon="5.88313">
        <ele>575.40002441406</ele>
        <time>2018-06-09T08:24:31.000Z</time>
      </trkpt>
      <trkpt lat="46.40092" lon="5.88311">
        <ele>574.40002441406</ele>
        <time>2018-06-09T08:24:33.000Z</time>
      </trkpt>
      <trkpt lat="46.40087" lon="5.88309">
        <ele>573.40002441406</ele>
        <time>2018-06-09T08:24:35.000Z</time>
      </trkpt>
      <trkpt lat="46.4007" lon="5.88308">
        <ele>572</ele>
        <time>2018-06-09T08:24:37.000Z</time>
      </trkpt>
      <trkpt lat="46.40057" lon="5.88307">
        <ele>570.79998779297</ele>
        <time>2018-06-09T08:24:42.000Z</time>
      </trkpt>
      <trkpt lat="46.40052" lon="5.88307">
        <ele>570.79998779297</ele>
        <time>2018-06-09T08:25:52.000Z</time>
      </trkpt>
      <trkpt lat="46.40053" lon="5.8831">
        <ele>570.40002441406</ele>
        <time>2018-06-09T08:28:13.000Z</time>
      </trkpt>
      <trkpt lat="46.40041" lon="5.8831">
        <ele>570.40002441406</ele>
        <time>2018-06-09T08:29:51.000Z</time>
      </trkpt>
      <trkpt lat="46.40041" lon="5.8831">
        <ele>570.40002441406</ele>
        <time>2018-06-09T08:29:52.000Z</time>
      </trkpt>
      <trkpt lat="46.40043" lon="5.88314">
        <ele>570.40002441406</ele>
        <time>2018-06-09T08:31:38.000Z</time>
      </trkpt>
      <trkpt lat="46.40051" lon="5.8832">
        <ele>570.40002441406</ele>
        <time>2018-06-09T08:33:51.000Z</time>
      </trkpt>
      <trkpt lat="46.40048" lon="5.88318">
        <ele>570.40002441406</ele>
        <time>2018-06-09T08:34:00.000Z</time>
      </trkpt>
      <trkpt lat="46.40046" lon="5.8832">
        <ele>570.79998779297</ele>
        <time>2018-06-09T08:34:04.000Z</time>
      </trkpt>
      <trkpt lat="46.40042" lon="5.88317">
        <ele>570.59997558594</ele>
        <time>2018-06-09T08:34:06.000Z</time>
      </trkpt>
      <trkpt lat="46.40037" lon="5.88314">
        <ele>570.79998779297</ele>
        <time>2018-06-09T08:34:10.000Z</time>
      </trkpt>
      <trkpt lat="46.40032" lon="5.88312">
        <ele>570.79998779297</ele>
        <time>2018-06-09T08:34:13.000Z</time>
      </trkpt>
      <trkpt lat="46.4003" lon="5.88328">
        <ele>571.40002441406</ele>
        <time>2018-06-09T08:36:33.000Z</time>
      </trkpt>
      <trkpt lat="46.4003" lon="5.88338">
        <ele>571.40002441406</ele>
        <time>2018-06-09T08:36:43.000Z</time>
      </trkpt>
      <trkpt lat="46.40027" lon="5.88342">
        <ele>571.40002441406</ele>
        <time>2018-06-09T08:36:46.000Z</time>
      </trkpt>
      <trkpt lat="46.40018" lon="5.88344">
        <ele>571.59997558594</ele>
        <time>2018-06-09T08:36:51.000Z</time>
      </trkpt>
      <trkpt lat="46.4001" lon="5.88342">
        <ele>571.59997558594</ele>
        <time>2018-06-09T08:36:54.000Z</time>
      </trkpt>
      <trkpt lat="46.39989" lon="5.88359">
        <ele>570.79998779297</ele>
        <time>2018-06-09T08:37:23.000Z</time>
      </trkpt>
      <trkpt lat="46.39989" lon="5.88365">
        <ele>570.79998779297</ele>
        <time>2018-06-09T08:37:26.000Z</time>
      </trkpt>
      <trkpt lat="46.39962" lon="5.88393">
        <ele>569.79998779297</ele>
        <time>2018-06-09T08:37:38.000Z</time>
      </trkpt>
      <trkpt lat="46.3996" lon="5.88397">
        <ele>569.59997558594</ele>
        <time>2018-06-09T08:37:39.000Z</time>
      </trkpt>
      <trkpt lat="46.39935" lon="5.88424">
        <ele>569</ele>
        <time>2018-06-09T08:37:49.000Z</time>
      </trkpt>
      <trkpt lat="46.39923" lon="5.88416">
        <ele>569</ele>
        <time>2018-06-09T08:37:52.000Z</time>
      </trkpt>
      <trkpt lat="46.39914" lon="5.88338">
        <ele>568.59997558594</ele>
        <time>2018-06-09T08:38:11.000Z</time>
      </trkpt>
      <trkpt lat="46.39913" lon="5.88335">
        <ele>568.59997558594</ele>
        <time>2018-06-09T08:38:12.000Z</time>
      </trkpt>
      <trkpt lat="46.39936" lon="5.88269">
        <ele>567.59997558594</ele>
        <time>2018-06-09T08:38:28.000Z</time>
      </trkpt>
      <trkpt lat="46.39939" lon="5.88264">
        <ele>567.59997558594</ele>
        <time>2018-06-09T08:38:29.000Z</time>
      </trkpt>
      <trkpt lat="46.39948" lon="5.88191">
        <ele>568</ele>
        <time>2018-06-09T08:38:42.000Z</time>
      </trkpt>
      <trkpt lat="46.39939" lon="5.88159">
        <ele>568.59997558594</ele>
        <time>2018-06-09T08:38:49.000Z</time>
      </trkpt>
      <trkpt lat="46.39924" lon="5.88088">
        <ele>568</ele>
        <time>2018-06-09T08:39:05.000Z</time>
      </trkpt>
      <trkpt lat="46.39931" lon="5.88046">
        <ele>568.79998779297</ele>
        <time>2018-06-09T08:39:13.000Z</time>
      </trkpt>
      <trkpt lat="46.39928" lon="5.88039">
        <ele>569.59997558594</ele>
        <time>2018-06-09T08:39:16.000Z</time>
      </trkpt>
      <trkpt lat="46.39921" lon="5.88033">
        <ele>570.79998779297</ele>
        <time>2018-06-09T08:39:22.000Z</time>
      </trkpt>
      <trkpt lat="46.39918" lon="5.8803">
        <ele>571.40002441406</ele>
        <time>2018-06-09T08:39:24.000Z</time>
      </trkpt>
      <trkpt lat="46.39912" lon="5.88028">
        <ele>572</ele>
        <time>2018-06-09T08:39:27.000Z</time>
      </trkpt>
      <trkpt lat="46.39906" lon="5.88023">
        <ele>573</ele>
        <time>2018-06-09T08:39:31.000Z</time>
      </trkpt>
      <trkpt lat="46.39902" lon="5.88014">
        <ele>574</ele>
        <time>2018-06-09T08:39:36.000Z</time>
      </trkpt>
      <trkpt lat="46.39897" lon="5.88005">
        <ele>575.20001220703</ele>
        <time>2018-06-09T08:39:42.000Z</time>
      </trkpt>
      <trkpt lat="46.39889" lon="5.87994">
        <ele>576.40002441406</ele>
        <time>2018-06-09T08:39:48.000Z</time>
      </trkpt>
      <trkpt lat="46.3988" lon="5.87981">
        <ele>577.40002441406</ele>
        <time>2018-06-09T08:39:56.000Z</time>
      </trkpt>
      <trkpt lat="46.39876" lon="5.87978">
        <ele>578.59997558594</ele>
        <time>2018-06-09T08:40:01.000Z</time>
      </trkpt>
      <trkpt lat="46.39873" lon="5.87975">
        <ele>579.20001220703</ele>
        <time>2018-06-09T08:40:05.000Z</time>
      </trkpt>
      <trkpt lat="46.39871" lon="5.87973">
        <ele>579.59997558594</ele>
        <time>2018-06-09T08:40:07.000Z</time>
      </trkpt>
      <trkpt lat="46.3987" lon="5.87967">
        <ele>580</ele>
        <time>2018-06-09T08:40:10.000Z</time>
      </trkpt>
      <trkpt lat="46.39867" lon="5.8796">
        <ele>580.79998779297</ele>
        <time>2018-06-09T08:40:14.000Z</time>
      </trkpt>
      <trkpt lat="46.39864" lon="5.87958">
        <ele>581.79998779297</ele>
        <time>2018-06-09T08:40:19.000Z</time>
      </trkpt>
      <trkpt lat="46.39854" lon="5.87956">
        <ele>583</ele>
        <time>2018-06-09T08:40:24.000Z</time>
      </trkpt>
      <trkpt lat="46.39844" lon="5.87944">
        <ele>583.79998779297</ele>
        <time>2018-06-09T08:40:33.000Z</time>
      </trkpt>
      <trkpt lat="46.39844" lon="5.87926">
        <ele>582.59997558594</ele>
        <time>2018-06-09T08:40:37.000Z</time>
      </trkpt>
      <trkpt lat="46.39845" lon="5.8792">
        <ele>581.79998779297</ele>
        <time>2018-06-09T08:40:38.000Z</time>
      </trkpt>
      <trkpt lat="46.39846" lon="5.87912">
        <ele>581</ele>
        <time>2018-06-09T08:40:39.000Z</time>
      </trkpt>
      <trkpt lat="46.39848" lon="5.87904">
        <ele>579.59997558594</ele>
        <time>2018-06-09T08:40:40.000Z</time>
      </trkpt>
      <trkpt lat="46.39848" lon="5.87896">
        <ele>578.40002441406</ele>
        <time>2018-06-09T08:40:41.000Z</time>
      </trkpt>
      <trkpt lat="46.39847" lon="5.8789">
        <ele>577</ele>
        <time>2018-06-09T08:40:42.000Z</time>
      </trkpt>
      <trkpt lat="46.39846" lon="5.87884">
        <ele>575.79998779297</ele>
        <time>2018-06-09T08:40:43.000Z</time>
      </trkpt>
      <trkpt lat="46.39846" lon="5.87878">
        <ele>574.59997558594</ele>
        <time>2018-06-09T08:40:44.000Z</time>
      </trkpt>
      <trkpt lat="46.39847" lon="5.87871">
        <ele>573.79998779297</ele>
        <time>2018-06-09T08:40:45.000Z</time>
      </trkpt>
      <trkpt lat="46.39846" lon="5.87867">
        <ele>573</ele>
        <time>2018-06-09T08:40:46.000Z</time>
      </trkpt>
      <trkpt lat="46.39845" lon="5.87865">
        <ele>572.20001220703</ele>
        <time>2018-06-09T08:40:47.000Z</time>
      </trkpt>
      <trkpt lat="46.39843" lon="5.87861">
        <ele>571.20001220703</ele>
        <time>2018-06-09T08:40:48.000Z</time>
      </trkpt>
      <trkpt lat="46.39837" lon="5.8785">
        <ele>569.59997558594</ele>
        <time>2018-06-09T08:40:50.000Z</time>
      </trkpt>
      <trkpt lat="46.39835" lon="5.87842">
        <ele>567.79998779297</ele>
        <time>2018-06-09T08:40:52.000Z</time>
      </trkpt>
      <trkpt lat="46.39834" lon="5.87836">
        <ele>566.20001220703</ele>
        <time>2018-06-09T08:40:54.000Z</time>
      </trkpt>
      <trkpt lat="46.39831" lon="5.87833">
        <ele>564.40002441406</ele>
        <time>2018-06-09T08:40:56.000Z</time>
      </trkpt>
      <trkpt lat="46.3983" lon="5.87832">
        <ele>563.79998779297</ele>
        <time>2018-06-09T08:40:57.000Z</time>
      </trkpt>
      <trkpt lat="46.3983" lon="5.87831">
        <ele>563.20001220703</ele>
        <time>2018-06-09T08:40:58.000Z</time>
      </trkpt>
      <trkpt lat="46.39829" lon="5.87823">
        <ele>562</ele>
        <time>2018-06-09T08:41:10.000Z</time>
      </trkpt>
      <trkpt lat="46.39829" lon="5.87821">
        <ele>561</ele>
        <time>2018-06-09T08:41:16.000Z</time>
      </trkpt>
      <trkpt lat="46.39828" lon="5.87814">
        <ele>559.59997558594</ele>
        <time>2018-06-09T08:41:20.000Z</time>
      </trkpt>
      <trkpt lat="46.39831" lon="5.87802">
        <ele>558.59997558594</ele>
        <time>2018-06-09T08:41:22.000Z</time>
      </trkpt>
      <trkpt lat="46.39832" lon="5.87794">
        <ele>557.40002441406</ele>
        <time>2018-06-09T08:41:24.000Z</time>
      </trkpt>
      <trkpt lat="46.3983" lon="5.87782">
        <ele>556.20001220703</ele>
        <time>2018-06-09T08:41:27.000Z</time>
      </trkpt>
      <trkpt lat="46.39823" lon="5.87767">
        <ele>555</ele>
        <time>2018-06-09T08:41:30.000Z</time>
      </trkpt>
      <trkpt lat="46.39825" lon="5.87761">
        <ele>554.59997558594</ele>
        <time>2018-06-09T08:41:33.000Z</time>
      </trkpt>
      <trkpt lat="46.39828" lon="5.87755">
        <ele>554.20001220703</ele>
        <time>2018-06-09T08:41:35.000Z</time>
      </trkpt>
      <trkpt lat="46.39828" lon="5.87748">
        <ele>553.59997558594</ele>
        <time>2018-06-09T08:41:37.000Z</time>
      </trkpt>
      <trkpt lat="46.39827" lon="5.87738">
        <ele>552.40002441406</ele>
        <time>2018-06-09T08:41:40.000Z</time>
      </trkpt>
      <trkpt lat="46.39825" lon="5.87729">
        <ele>551.40002441406</ele>
        <time>2018-06-09T08:41:42.000Z</time>
      </trkpt>
      <trkpt lat="46.39823" lon="5.87716">
        <ele>549.59997558594</ele>
        <time>2018-06-09T08:41:44.000Z</time>
      </trkpt>
      <trkpt lat="46.39822" lon="5.87704">
        <ele>548</ele>
        <time>2018-06-09T08:41:46.000Z</time>
      </trkpt>
      <trkpt lat="46.39822" lon="5.87695">
        <ele>546</ele>
        <time>2018-06-09T08:41:48.000Z</time>
      </trkpt>
      <trkpt lat="46.39822" lon="5.87689">
        <ele>544.59997558594</ele>
        <time>2018-06-09T08:41:49.000Z</time>
      </trkpt>
      <trkpt lat="46.39823" lon="5.87684">
        <ele>543.40002441406</ele>
        <time>2018-06-09T08:41:50.000Z</time>
      </trkpt>
      <trkpt lat="46.39822" lon="5.87679">
        <ele>542.40002441406</ele>
        <time>2018-06-09T08:41:51.000Z</time>
      </trkpt>
      <trkpt lat="46.39821" lon="5.87667">
        <ele>541.20001220703</ele>
        <time>2018-06-09T08:41:53.000Z</time>
      </trkpt>
      <trkpt lat="46.39821" lon="5.8766">
        <ele>540</ele>
        <time>2018-06-09T08:41:55.000Z</time>
      </trkpt>
      <trkpt lat="46.39821" lon="5.87656">
        <ele>538</ele>
        <time>2018-06-09T08:41:57.000Z</time>
      </trkpt>
      <trkpt lat="46.39821" lon="5.87654">
        <ele>537</ele>
        <time>2018-06-09T08:41:58.000Z</time>
      </trkpt>
      <trkpt lat="46.3982" lon="5.8765">
        <ele>535.79998779297</ele>
        <time>2018-06-09T08:41:59.000Z</time>
      </trkpt>
      <trkpt lat="46.39822" lon="5.87645">
        <ele>534.20001220703</ele>
        <time>2018-06-09T08:42:01.000Z</time>
      </trkpt>
      <trkpt lat="46.39819" lon="5.87638">
        <ele>533.20001220703</ele>
        <time>2018-06-09T08:42:03.000Z</time>
      </trkpt>
      <trkpt lat="46.39818" lon="5.87635">
        <ele>532.59997558594</ele>
        <time>2018-06-09T08:42:04.000Z</time>
      </trkpt>
      <trkpt lat="46.39817" lon="5.87622">
        <ele>531.20001220703</ele>
        <time>2018-06-09T08:42:06.000Z</time>
      </trkpt>
      <trkpt lat="46.39817" lon="5.87617">
        <ele>530.20001220703</ele>
        <time>2018-06-09T08:42:07.000Z</time>
      </trkpt>
      <trkpt lat="46.39818" lon="5.87612">
        <ele>529</ele>
        <time>2018-06-09T08:42:08.000Z</time>
      </trkpt>
      <trkpt lat="46.39819" lon="5.87607">
        <ele>527.79998779297</ele>
        <time>2018-06-09T08:42:09.000Z</time>
      </trkpt>
      <trkpt lat="46.39821" lon="5.87601">
        <ele>526.40002441406</ele>
        <time>2018-06-09T08:42:10.000Z</time>
      </trkpt>
      <trkpt lat="46.39822" lon="5.87596">
        <ele>525</ele>
        <time>2018-06-09T08:42:11.000Z</time>
      </trkpt>
      <trkpt lat="46.39821" lon="5.87592">
        <ele>523.59997558594</ele>
        <time>2018-06-09T08:42:12.000Z</time>
      </trkpt>
      <trkpt lat="46.3982" lon="5.87588">
        <ele>522.40002441406</ele>
        <time>2018-06-09T08:42:13.000Z</time>
      </trkpt>
      <trkpt lat="46.3982" lon="5.87583">
        <ele>520.79998779297</ele>
        <time>2018-06-09T08:42:15.000Z</time>
      </trkpt>
      <trkpt lat="46.39821" lon="5.87579">
        <ele>519.79998779297</ele>
        <time>2018-06-09T08:42:18.000Z</time>
      </trkpt>
      <trkpt lat="46.39816" lon="5.87571">
        <ele>519.40002441406</ele>
        <time>2018-06-09T08:42:32.000Z</time>
      </trkpt>
      <trkpt lat="46.39807" lon="5.87558">
        <ele>518.59997558594</ele>
        <time>2018-06-09T08:42:35.000Z</time>
      </trkpt>
      <trkpt lat="46.39801" lon="5.87546">
        <ele>517.59997558594</ele>
        <time>2018-06-09T08:42:37.000Z</time>
      </trkpt>
      <trkpt lat="46.39796" lon="5.87532">
        <ele>516.20001220703</ele>
        <time>2018-06-09T08:42:39.000Z</time>
      </trkpt>
      <trkpt lat="46.39791" lon="5.87516">
        <ele>514.40002441406</ele>
        <time>2018-06-09T08:42:41.000Z</time>
      </trkpt>
      <trkpt lat="46.39789" lon="5.87504">
        <ele>513.40002441406</ele>
        <time>2018-06-09T08:42:42.000Z</time>
      </trkpt>
      <trkpt lat="46.39787" lon="5.87493">
        <ele>512.20001220703</ele>
        <time>2018-06-09T08:42:43.000Z</time>
      </trkpt>
      <trkpt lat="46.39785" lon="5.87482">
        <ele>511.20001220703</ele>
        <time>2018-06-09T08:42:44.000Z</time>
      </trkpt>
      <trkpt lat="46.39783" lon="5.87469">
        <ele>510.20001220703</ele>
        <time>2018-06-09T08:42:45.000Z</time>
      </trkpt>
      <trkpt lat="46.39774" lon="5.87444">
        <ele>508.20001220703</ele>
        <time>2018-06-09T08:42:47.000Z</time>
      </trkpt>
      <trkpt lat="46.3977" lon="5.87432">
        <ele>507.20001220703</ele>
        <time>2018-06-09T08:42:48.000Z</time>
      </trkpt>
      <trkpt lat="46.39763" lon="5.8742">
        <ele>505.79998779297</ele>
        <time>2018-06-09T08:42:49.000Z</time>
      </trkpt>
      <trkpt lat="46.39758" lon="5.87407">
        <ele>504</ele>
        <time>2018-06-09T08:42:50.000Z</time>
      </trkpt>
      <trkpt lat="46.39752" lon="5.87392">
        <ele>502</ele>
        <time>2018-06-09T08:42:51.000Z</time>
      </trkpt>
      <trkpt lat="46.39747" lon="5.87381">
        <ele>499.79998779297</ele>
        <time>2018-06-09T08:42:52.000Z</time>
      </trkpt>
      <trkpt lat="46.39744" lon="5.87372">
        <ele>498</ele>
        <time>2018-06-09T08:42:53.000Z</time>
      </trkpt>
      <trkpt lat="46.39742" lon="5.87367">
        <ele>496.79998779297</ele>
        <time>2018-06-09T08:42:54.000Z</time>
      </trkpt>
      <trkpt lat="46.39741" lon="5.87363">
        <ele>495.39999389648</ele>
        <time>2018-06-09T08:42:56.000Z</time>
      </trkpt>
      <trkpt lat="46.39747" lon="5.87354">
        <ele>494.39999389648</ele>
        <time>2018-06-09T08:43:00.000Z</time>
      </trkpt>
      <trkpt lat="46.39752" lon="5.87358">
        <ele>493</ele>
        <time>2018-06-09T08:43:02.000Z</time>
      </trkpt>
      <trkpt lat="46.39757" lon="5.87364">
        <ele>492.20001220703</ele>
        <time>2018-06-09T08:43:03.000Z</time>
      </trkpt>
      <trkpt lat="46.39761" lon="5.87371">
        <ele>490.79998779297</ele>
        <time>2018-06-09T08:43:04.000Z</time>
      </trkpt>
      <trkpt lat="46.39767" lon="5.87378">
        <ele>489.20001220703</ele>
        <time>2018-06-09T08:43:05.000Z</time>
      </trkpt>
      <trkpt lat="46.39774" lon="5.87386">
        <ele>487.39999389648</ele>
        <time>2018-06-09T08:43:06.000Z</time>
      </trkpt>
      <trkpt lat="46.39781" lon="5.87393">
        <ele>486</ele>
        <time>2018-06-09T08:43:07.000Z</time>
      </trkpt>
      <trkpt lat="46.39788" lon="5.87401">
        <ele>484.79998779297</ele>
        <time>2018-06-09T08:43:08.000Z</time>
      </trkpt>
      <trkpt lat="46.39802" lon="5.87416">
        <ele>483.20001220703</ele>
        <time>2018-06-09T08:43:10.000Z</time>
      </trkpt>
      <trkpt lat="46.39816" lon="5.8743">
        <ele>482.39999389648</ele>
        <time>2018-06-09T08:43:12.000Z</time>
      </trkpt>
      <trkpt lat="46.39823" lon="5.87433">
        <ele>482.20001220703</ele>
        <time>2018-06-09T08:43:13.000Z</time>
      </trkpt>
      <trkpt lat="46.39831" lon="5.87436">
        <ele>481.60000610352</ele>
        <time>2018-06-09T08:43:14.000Z</time>
      </trkpt>
      <trkpt lat="46.39848" lon="5.87438">
        <ele>481.20001220703</ele>
        <time>2018-06-09T08:43:16.000Z</time>
      </trkpt>
      <trkpt lat="46.39874" lon="5.87431">
        <ele>479.20001220703</ele>
        <time>2018-06-09T08:43:19.000Z</time>
      </trkpt>
      <trkpt lat="46.3988" lon="5.87428">
        <ele>478</ele>
        <time>2018-06-09T08:43:20.000Z</time>
      </trkpt>
      <trkpt lat="46.39887" lon="5.87426">
        <ele>476.79998779297</ele>
        <time>2018-06-09T08:43:21.000Z</time>
      </trkpt>
      <trkpt lat="46.39899" lon="5.87426">
        <ele>475.39999389648</ele>
        <time>2018-06-09T08:43:23.000Z</time>
      </trkpt>
      <trkpt lat="46.39911" lon="5.87429">
        <ele>474</ele>
        <time>2018-06-09T08:43:25.000Z</time>
      </trkpt>
      <trkpt lat="46.39917" lon="5.8743">
        <ele>473</ele>
        <time>2018-06-09T08:43:27.000Z</time>
      </trkpt>
      <trkpt lat="46.39913" lon="5.87403">
        <ele>472.20001220703</ele>
        <time>2018-06-09T08:43:44.000Z</time>
      </trkpt>
      <trkpt lat="46.39902" lon="5.87384">
        <ele>472.39999389648</ele>
        <time>2018-06-09T08:45:40.000Z</time>
      </trkpt>
      <trkpt lat="46.39903" lon="5.87378">
        <ele>472.39999389648</ele>
        <time>2018-06-09T08:47:18.000Z</time>
      </trkpt>
      <trkpt lat="46.39904" lon="5.87394">
        <ele>472.39999389648</ele>
        <time>2018-06-09T08:47:46.000Z</time>
      </trkpt>
      <trkpt lat="46.42589" lon="5.87357">
        <ele>884</ele>
        <time>2018-06-09T09:41:58.000Z</time>
      </trkpt>
      <trkpt lat="46.42592" lon="5.87362">
        <ele>885.20001220703</ele>
        <time>2018-06-09T09:43:52.000Z</time>
      </trkpt>
      <trkpt lat="46.42597" lon="5.87367">
        <ele>885.59997558594</ele>
        <time>2018-06-09T09:43:59.000Z</time>
      </trkpt>
      <trkpt lat="46.42599" lon="5.8737">
        <ele>885.59997558594</ele>
        <time>2018-06-09T09:44:01.000Z</time>
      </trkpt>
      <trkpt lat="46.42599" lon="5.87372">
        <ele>885.79998779297</ele>
        <time>2018-06-09T09:44:03.000Z</time>
      </trkpt>
      <trkpt lat="46.42602" lon="5.87376">
        <ele>886.20001220703</ele>
        <time>2018-06-09T09:44:14.000Z</time>
      </trkpt>
      <trkpt lat="46.42602" lon="5.87372">
        <ele>886</ele>
        <time>2018-06-09T09:44:28.000Z</time>
      </trkpt>
      <trkpt lat="46.4259" lon="5.87355">
        <ele>885</ele>
        <time>2018-06-09T09:44:42.000Z</time>
      </trkpt>
      <trkpt lat="46.42589" lon="5.87355">
        <ele>883.79998779297</ele>
        <time>2018-06-09T09:44:46.000Z</time>
      </trkpt>
      <trkpt lat="46.42583" lon="5.8736">
        <ele>884.40002441406</ele>
        <time>2018-06-09T09:47:25.000Z</time>
      </trkpt>
      <trkpt lat="46.42573" lon="5.87355">
        <ele>884.40002441406</ele>
        <time>2018-06-09T09:50:16.000Z</time>
      </trkpt>
      <trkpt lat="46.42562" lon="5.87352">
        <ele>882.59997558594</ele>
        <time>2018-06-09T09:50:19.000Z</time>
      </trkpt>
      <trkpt lat="46.42557" lon="5.87348">
        <ele>882.40002441406</ele>
        <time>2018-06-09T09:50:20.000Z</time>
      </trkpt>
      <trkpt lat="46.42552" lon="5.87345">
        <ele>881.20001220703</ele>
        <time>2018-06-09T09:50:21.000Z</time>
      </trkpt>
      <trkpt lat="46.42549" lon="5.87342">
        <ele>881.79998779297</ele>
        <time>2018-06-09T09:50:22.000Z</time>
      </trkpt>
      <trkpt lat="46.42536" lon="5.87332">
        <ele>879.79998779297</ele>
        <time>2018-06-09T09:50:26.000Z</time>
      </trkpt>
      <trkpt lat="46.42518" lon="5.8733">
        <ele>878.40002441406</ele>
        <time>2018-06-09T09:50:29.000Z</time>
      </trkpt>
      <trkpt lat="46.42513" lon="5.8733">
        <ele>877.59997558594</ele>
        <time>2018-06-09T09:50:30.000Z</time>
      </trkpt>
      <trkpt lat="46.42508" lon="5.8733">
        <ele>876.79998779297</ele>
        <time>2018-06-09T09:50:31.000Z</time>
      </trkpt>
      <trkpt lat="46.42503" lon="5.87328">
        <ele>875.79998779297</ele>
        <time>2018-06-09T09:50:32.000Z</time>
      </trkpt>
      <trkpt lat="46.42499" lon="5.87325">
        <ele>875</ele>
        <time>2018-06-09T09:50:33.000Z</time>
      </trkpt>
      <trkpt lat="46.42486" lon="5.87314">
        <ele>873.20001220703</ele>
        <time>2018-06-09T09:50:35.000Z</time>
      </trkpt>
      <trkpt lat="46.42473" lon="5.87308">
        <ele>871.40002441406</ele>
        <time>2018-06-09T09:50:37.000Z</time>
      </trkpt>
      <trkpt lat="46.42468" lon="5.87305">
        <ele>870.20001220703</ele>
        <time>2018-06-09T09:50:38.000Z</time>
      </trkpt>
      <trkpt lat="46.42461" lon="5.87304">
        <ele>868.59997558594</ele>
        <time>2018-06-09T09:50:39.000Z</time>
      </trkpt>
      <trkpt lat="46.42454" lon="5.87304">
        <ele>867</ele>
        <time>2018-06-09T09:50:40.000Z</time>
      </trkpt>
      <trkpt lat="46.42447" lon="5.87304">
        <ele>865.79998779297</ele>
        <time>2018-06-09T09:50:41.000Z</time>
      </trkpt>
      <trkpt lat="46.4244" lon="5.87302">
        <ele>865</ele>
        <time>2018-06-09T09:50:42.000Z</time>
      </trkpt>
      <trkpt lat="46.42434" lon="5.87301">
        <ele>864</ele>
        <time>2018-06-09T09:50:43.000Z</time>
      </trkpt>
      <trkpt lat="46.42429" lon="5.87302">
        <ele>862.59997558594</ele>
        <time>2018-06-09T09:50:44.000Z</time>
      </trkpt>
      <trkpt lat="46.42423" lon="5.87305">
        <ele>859.79998779297</ele>
        <time>2018-06-09T09:50:45.000Z</time>
      </trkpt>
      <trkpt lat="46.42416" lon="5.87309">
        <ele>857.20001220703</ele>
        <time>2018-06-09T09:50:46.000Z</time>
      </trkpt>
      <trkpt lat="46.42411" lon="5.87312">
        <ele>854.59997558594</ele>
        <time>2018-06-09T09:50:47.000Z</time>
      </trkpt>
      <trkpt lat="46.42406" lon="5.87313">
        <ele>852.79998779297</ele>
        <time>2018-06-09T09:50:48.000Z</time>
      </trkpt>
      <trkpt lat="46.42401" lon="5.87314">
        <ele>851.40002441406</ele>
        <time>2018-06-09T09:50:49.000Z</time>
      </trkpt>
      <trkpt lat="46.42396" lon="5.87317">
        <ele>849.79998779297</ele>
        <time>2018-06-09T09:50:50.000Z</time>
      </trkpt>
      <trkpt lat="46.42391" lon="5.87319">
        <ele>848.40002441406</ele>
        <time>2018-06-09T09:50:51.000Z</time>
      </trkpt>
      <trkpt lat="46.42387" lon="5.87321">
        <ele>847</ele>
        <time>2018-06-09T09:50:52.000Z</time>
      </trkpt>
      <trkpt lat="46.42384" lon="5.87323">
        <ele>845.59997558594</ele>
        <time>2018-06-09T09:50:53.000Z</time>
      </trkpt>
      <trkpt lat="46.42382" lon="5.87325">
        <ele>844.40002441406</ele>
        <time>2018-06-09T09:50:54.000Z</time>
      </trkpt>
      <trkpt lat="46.4238" lon="5.87328">
        <ele>843.20001220703</ele>
        <time>2018-06-09T09:50:55.000Z</time>
      </trkpt>
      <trkpt lat="46.42376" lon="5.87332">
        <ele>841.79998779297</ele>
        <time>2018-06-09T09:50:57.000Z</time>
      </trkpt>
      <trkpt lat="46.42373" lon="5.87335">
        <ele>840</ele>
        <time>2018-06-09T09:50:59.000Z</time>
      </trkpt>
      <trkpt lat="46.42371" lon="5.87337">
        <ele>839</ele>
        <time>2018-06-09T09:51:00.000Z</time>
      </trkpt>
      <trkpt lat="46.42369" lon="5.87339">
        <ele>837.79998779297</ele>
        <time>2018-06-09T09:51:01.000Z</time>
      </trkpt>
      <trkpt lat="46.42366" lon="5.87338">
        <ele>837.20001220703</ele>
        <time>2018-06-09T09:51:02.000Z</time>
      </trkpt>
      <trkpt lat="46.42363" lon="5.87336">
        <ele>836.59997558594</ele>
        <time>2018-06-09T09:51:03.000Z</time>
      </trkpt>
      <trkpt lat="46.42359" lon="5.87333">
        <ele>835.59997558594</ele>
        <time>2018-06-09T09:51:05.000Z</time>
      </trkpt>
      <trkpt lat="46.42358" lon="5.87334">
        <ele>834.59997558594</ele>
        <time>2018-06-09T09:51:06.000Z</time>
      </trkpt>
      <trkpt lat="46.42357" lon="5.87336">
        <ele>833.40002441406</ele>
        <time>2018-06-09T09:51:07.000Z</time>
      </trkpt>
      <trkpt lat="46.42355" lon="5.87338">
        <ele>832.40002441406</ele>
        <time>2018-06-09T09:51:08.000Z</time>
      </trkpt>
      <trkpt lat="46.4235" lon="5.87344">
        <ele>830.79998779297</ele>
        <time>2018-06-09T09:51:10.000Z</time>
      </trkpt>
      <trkpt lat="46.42345" lon="5.87346">
        <ele>829</ele>
        <time>2018-06-09T09:51:12.000Z</time>
      </trkpt>
      <trkpt lat="46.42341" lon="5.87348">
        <ele>827.79998779297</ele>
        <time>2018-06-09T09:51:13.000Z</time>
      </trkpt>
      <trkpt lat="46.42339" lon="5.87348">
        <ele>826.59997558594</ele>
        <time>2018-06-09T09:51:14.000Z</time>
      </trkpt>
      <trkpt lat="46.42338" lon="5.87348">
        <ele>825.20001220703</ele>
        <time>2018-06-09T09:51:15.000Z</time>
      </trkpt>
      <trkpt lat="46.42336" lon="5.87348">
        <ele>823.59997558594</ele>
        <time>2018-06-09T09:51:17.000Z</time>
      </trkpt>
      <trkpt lat="46.42334" lon="5.87347">
        <ele>822.40002441406</ele>
        <time>2018-06-09T09:51:19.000Z</time>
      </trkpt>
      <trkpt lat="46.42332" lon="5.87346">
        <ele>821.40002441406</ele>
        <time>2018-06-09T09:51:21.000Z</time>
      </trkpt>
      <trkpt lat="46.42328" lon="5.87346">
        <ele>820.20001220703</ele>
        <time>2018-06-09T09:51:25.000Z</time>
      </trkpt>
      <trkpt lat="46.42326" lon="5.87346">
        <ele>820</ele>
        <time>2018-06-09T09:51:26.000Z</time>
      </trkpt>
      <trkpt lat="46.4232" lon="5.87347">
        <ele>819</ele>
        <time>2018-06-09T09:51:28.000Z</time>
      </trkpt>
      <trkpt lat="46.42314" lon="5.87343">
        <ele>817.40002441406</ele>
        <time>2018-06-09T09:51:30.000Z</time>
      </trkpt>
      <trkpt lat="46.42308" lon="5.87343">
        <ele>815.40002441406</ele>
        <time>2018-06-09T09:51:32.000Z</time>
      </trkpt>
      <trkpt lat="46.42305" lon="5.87345">
        <ele>814</ele>
        <time>2018-06-09T09:51:33.000Z</time>
      </trkpt>
      <trkpt lat="46.42301" lon="5.87346">
        <ele>812.79998779297</ele>
        <time>2018-06-09T09:51:34.000Z</time>
      </trkpt>
      <trkpt lat="46.42298" lon="5.87344">
        <ele>811.59997558594</ele>
        <time>2018-06-09T09:51:35.000Z</time>
      </trkpt>
      <trkpt lat="46.42295" lon="5.87343">
        <ele>810.59997558594</ele>
        <time>2018-06-09T09:51:36.000Z</time>
      </trkpt>
      <trkpt lat="46.42292" lon="5.87341">
        <ele>809.40002441406</ele>
        <time>2018-06-09T09:51:37.000Z</time>
      </trkpt>
      <trkpt lat="46.42287" lon="5.8734">
        <ele>807.79998779297</ele>
        <time>2018-06-09T09:51:39.000Z</time>
      </trkpt>
      <trkpt lat="46.42283" lon="5.87337">
        <ele>806.40002441406</ele>
        <time>2018-06-09T09:51:41.000Z</time>
      </trkpt>
      <trkpt lat="46.42278" lon="5.87336">
        <ele>805</ele>
        <time>2018-06-09T09:51:43.000Z</time>
      </trkpt>
      <trkpt lat="46.42271" lon="5.87341">
        <ele>804.40002441406</ele>
        <time>2018-06-09T09:51:48.000Z</time>
      </trkpt>
      <trkpt lat="46.42263" lon="5.87338">
        <ele>803.79998779297</ele>
        <time>2018-06-09T09:51:51.000Z</time>
      </trkpt>
      <trkpt lat="46.42257" lon="5.87336">
        <ele>802</ele>
        <time>2018-06-09T09:51:53.000Z</time>
      </trkpt>
      <trkpt lat="46.42255" lon="5.87336">
        <ele>801.20001220703</ele>
        <time>2018-06-09T09:51:54.000Z</time>
      </trkpt>
      <trkpt lat="46.42253" lon="5.87337">
        <ele>800.20001220703</ele>
        <time>2018-06-09T09:51:55.000Z</time>
      </trkpt>
      <trkpt lat="46.4225" lon="5.8734">
        <ele>798.40002441406</ele>
        <time>2018-06-09T09:51:57.000Z</time>
      </trkpt>
      <trkpt lat="46.42246" lon="5.87342">
        <ele>796.59997558594</ele>
        <time>2018-06-09T09:51:59.000Z</time>
      </trkpt>
      <trkpt lat="46.42243" lon="5.87342">
        <ele>795.79998779297</ele>
        <time>2018-06-09T09:52:00.000Z</time>
      </trkpt>
      <trkpt lat="46.42241" lon="5.87342">
        <ele>795</ele>
        <time>2018-06-09T09:52:01.000Z</time>
      </trkpt>
      <trkpt lat="46.42238" lon="5.87341">
        <ele>794</ele>
        <time>2018-06-09T09:52:02.000Z</time>
      </trkpt>
      <trkpt lat="46.42233" lon="5.8734">
        <ele>793.20001220703</ele>
        <time>2018-06-09T09:52:03.000Z</time>
      </trkpt>
      <trkpt lat="46.42231" lon="5.87335">
        <ele>791.79998779297</ele>
        <time>2018-06-09T09:52:05.000Z</time>
      </trkpt>
      <trkpt lat="46.4223" lon="5.87333">
        <ele>791.40002441406</ele>
        <time>2018-06-09T09:52:06.000Z</time>
      </trkpt>
      <trkpt lat="46.42225" lon="5.87329">
        <ele>790.59997558594</ele>
        <time>2018-06-09T09:52:08.000Z</time>
      </trkpt>
      <trkpt lat="46.42218" lon="5.87326">
        <ele>788.79998779297</ele>
        <time>2018-06-09T09:52:10.000Z</time>
      </trkpt>
      <trkpt lat="46.42214" lon="5.87325">
        <ele>787.20001220703</ele>
        <time>2018-06-09T09:52:11.000Z</time>
      </trkpt>
      <trkpt lat="46.42211" lon="5.87324">
        <ele>785.40002441406</ele>
        <time>2018-06-09T09:52:12.000Z</time>
      </trkpt>
      <trkpt lat="46.42207" lon="5.87325">
        <ele>783.59997558594</ele>
        <time>2018-06-09T09:52:13.000Z</time>
      </trkpt>
      <trkpt lat="46.42205" lon="5.87327">
        <ele>782.20001220703</ele>
        <time>2018-06-09T09:52:14.000Z</time>
      </trkpt>
      <trkpt lat="46.42203" lon="5.8733">
        <ele>780</ele>
        <time>2018-06-09T09:52:16.000Z</time>
      </trkpt>
      <trkpt lat="46.42202" lon="5.87331">
        <ele>778.79998779297</ele>
        <time>2018-06-09T09:52:17.000Z</time>
      </trkpt>
      <trkpt lat="46.42202" lon="5.87331">
        <ele>777.59997558594</ele>
        <time>2018-06-09T09:52:18.000Z</time>
      </trkpt>
      <trkpt lat="46.422" lon="5.87336">
        <ele>776.59997558594</ele>
        <time>2018-06-09T09:52:20.000Z</time>
      </trkpt>
      <trkpt lat="46.42198" lon="5.87344">
        <ele>775.20001220703</ele>
        <time>2018-06-09T09:52:22.000Z</time>
      </trkpt>
      <trkpt lat="46.42197" lon="5.87353">
        <ele>773.20001220703</ele>
        <time>2018-06-09T09:52:24.000Z</time>
      </trkpt>
      <trkpt lat="46.42198" lon="5.87359">
        <ele>771.20001220703</ele>
        <time>2018-06-09T09:52:26.000Z</time>
      </trkpt>
      <trkpt lat="46.42199" lon="5.87362">
        <ele>770</ele>
        <time>2018-06-09T09:52:27.000Z</time>
      </trkpt>
      <trkpt lat="46.422" lon="5.87366">
        <ele>768.79998779297</ele>
        <time>2018-06-09T09:52:28.000Z</time>
      </trkpt>
      <trkpt lat="46.42202" lon="5.87373">
        <ele>767.40002441406</ele>
        <time>2018-06-09T09:52:30.000Z</time>
      </trkpt>
      <trkpt lat="46.42201" lon="5.87379">
        <ele>766.79998779297</ele>
        <time>2018-06-09T09:52:31.000Z</time>
      </trkpt>
      <trkpt lat="46.42198" lon="5.87385">
        <ele>766.20001220703</ele>
        <time>2018-06-09T09:52:32.000Z</time>
      </trkpt>
      <trkpt lat="46.42192" lon="5.87388">
        <ele>765</ele>
        <time>2018-06-09T09:52:35.000Z</time>
      </trkpt>
      <trkpt lat="46.42186" lon="5.87385">
        <ele>763.79998779297</ele>
        <time>2018-06-09T09:52:37.000Z</time>
      </trkpt>
      <trkpt lat="46.42183" lon="5.87383">
        <ele>763.20001220703</ele>
        <time>2018-06-09T09:52:38.000Z</time>
      </trkpt>
      <trkpt lat="46.4218" lon="5.87381">
        <ele>762.79998779297</ele>
        <time>2018-06-09T09:52:39.000Z</time>
      </trkpt>
      <trkpt lat="46.42173" lon="5.87376">
        <ele>761.79998779297</ele>
        <time>2018-06-09T09:52:41.000Z</time>
      </trkpt>
      <trkpt lat="46.42171" lon="5.87373">
        <ele>760.79998779297</ele>
        <time>2018-06-09T09:52:42.000Z</time>
      </trkpt>
      <trkpt lat="46.42168" lon="5.87371">
        <ele>759.59997558594</ele>
        <time>2018-06-09T09:52:43.000Z</time>
      </trkpt>
      <trkpt lat="46.42164" lon="5.87368">
        <ele>758.40002441406</ele>
        <time>2018-06-09T09:52:45.000Z</time>
      </trkpt>
      <trkpt lat="46.42157" lon="5.87368">
        <ele>756.40002441406</ele>
        <time>2018-06-09T09:52:47.000Z</time>
      </trkpt>
      <trkpt lat="46.42154" lon="5.87369">
        <ele>755</ele>
        <time>2018-06-09T09:52:48.000Z</time>
      </trkpt>
      <trkpt lat="46.4215" lon="5.87369">
        <ele>754</ele>
        <time>2018-06-09T09:52:49.000Z</time>
      </trkpt>
      <trkpt lat="46.42148" lon="5.8737">
        <ele>752.79998779297</ele>
        <time>2018-06-09T09:52:50.000Z</time>
      </trkpt>
      <trkpt lat="46.42147" lon="5.87368">
        <ele>751.59997558594</ele>
        <time>2018-06-09T09:52:51.000Z</time>
      </trkpt>
      <trkpt lat="46.42147" lon="5.87368">
        <ele>750.59997558594</ele>
        <time>2018-06-09T09:52:52.000Z</time>
      </trkpt>
      <trkpt lat="46.42146" lon="5.87369">
        <ele>749.59997558594</ele>
        <time>2018-06-09T09:52:53.000Z</time>
      </trkpt>
      <trkpt lat="46.42144" lon="5.87367">
        <ele>748</ele>
        <time>2018-06-09T09:52:55.000Z</time>
      </trkpt>
      <trkpt lat="46.4214" lon="5.87366">
        <ele>747</ele>
        <time>2018-06-09T09:53:01.000Z</time>
      </trkpt>
      <trkpt lat="46.42138" lon="5.87366">
        <ele>745.79998779297</ele>
        <time>2018-06-09T09:53:04.000Z</time>
      </trkpt>
      <trkpt lat="46.42136" lon="5.87367">
        <ele>743.79998779297</ele>
        <time>2018-06-09T09:53:06.000Z</time>
      </trkpt>
      <trkpt lat="46.42133" lon="5.87366">
        <ele>742.40002441406</ele>
        <time>2018-06-09T09:53:08.000Z</time>
      </trkpt>
      <trkpt lat="46.42128" lon="5.87366">
        <ele>740.79998779297</ele>
        <time>2018-06-09T09:53:10.000Z</time>
      </trkpt>
      <trkpt lat="46.42123" lon="5.87364">
        <ele>739.40002441406</ele>
        <time>2018-06-09T09:53:12.000Z</time>
      </trkpt>
      <trkpt lat="46.42121" lon="5.87363">
        <ele>738.40002441406</ele>
        <time>2018-06-09T09:53:13.000Z</time>
      </trkpt>
      <trkpt lat="46.4212" lon="5.87361">
        <ele>737.40002441406</ele>
        <time>2018-06-09T09:53:14.000Z</time>
      </trkpt>
      <trkpt lat="46.42116" lon="5.8736">
        <ele>735.59997558594</ele>
        <time>2018-06-09T09:53:16.000Z</time>
      </trkpt>
      <trkpt lat="46.42113" lon="5.87361">
        <ele>734.59997558594</ele>
        <time>2018-06-09T09:53:18.000Z</time>
      </trkpt>
      <trkpt lat="46.42112" lon="5.87359">
        <ele>733.40002441406</ele>
        <time>2018-06-09T09:53:20.000Z</time>
      </trkpt>
      <trkpt lat="46.42112" lon="5.87359">
        <ele>731.20001220703</ele>
        <time>2018-06-09T09:53:22.000Z</time>
      </trkpt>
      <trkpt lat="46.42111" lon="5.8736">
        <ele>730.20001220703</ele>
        <time>2018-06-09T09:53:23.000Z</time>
      </trkpt>
      <trkpt lat="46.42111" lon="5.87362">
        <ele>729.40002441406</ele>
        <time>2018-06-09T09:53:24.000Z</time>
      </trkpt>
      <trkpt lat="46.42109" lon="5.87365">
        <ele>729</ele>
        <time>2018-06-09T09:53:25.000Z</time>
      </trkpt>
      <trkpt lat="46.42107" lon="5.87366">
        <ele>728.59997558594</ele>
        <time>2018-06-09T09:53:26.000Z</time>
      </trkpt>
      <trkpt lat="46.42103" lon="5.87367">
        <ele>727.40002441406</ele>
        <time>2018-06-09T09:53:28.000Z</time>
      </trkpt>
      <trkpt lat="46.421" lon="5.87367">
        <ele>725.40002441406</ele>
        <time>2018-06-09T09:53:30.000Z</time>
      </trkpt>
      <trkpt lat="46.42099" lon="5.87369">
        <ele>724.20001220703</ele>
        <time>2018-06-09T09:53:32.000Z</time>
      </trkpt>
      <trkpt lat="46.42095" lon="5.87382">
        <ele>723</ele>
        <time>2018-06-09T09:53:48.000Z</time>
      </trkpt>
      <trkpt lat="46.42084" lon="5.87384">
        <ele>722.59997558594</ele>
        <time>2018-06-09T09:54:11.000Z</time>
      </trkpt>
      <trkpt lat="46.4208" lon="5.8738">
        <ele>721.79998779297</ele>
        <time>2018-06-09T09:54:15.000Z</time>
      </trkpt>
      <trkpt lat="46.42078" lon="5.87376">
        <ele>720.79998779297</ele>
        <time>2018-06-09T09:54:18.000Z</time>
      </trkpt>
      <trkpt lat="46.42078" lon="5.87374">
        <ele>719.40002441406</ele>
        <time>2018-06-09T09:54:22.000Z</time>
      </trkpt>
      <trkpt lat="46.42077" lon="5.87375">
        <ele>718.79998779297</ele>
        <time>2018-06-09T09:54:26.000Z</time>
      </trkpt>
      <trkpt lat="46.42074" lon="5.87374">
        <ele>718.20001220703</ele>
        <time>2018-06-09T09:54:28.000Z</time>
      </trkpt>
      <trkpt lat="46.42071" lon="5.87375">
        <ele>717.40002441406</ele>
        <time>2018-06-09T09:54:30.000Z</time>
      </trkpt>
      <trkpt lat="46.4207" lon="5.87374">
        <ele>716.59997558594</ele>
        <time>2018-06-09T09:54:31.000Z</time>
      </trkpt>
      <trkpt lat="46.42067" lon="5.87371">
        <ele>715.40002441406</ele>
        <time>2018-06-09T09:54:33.000Z</time>
      </trkpt>
      <trkpt lat="46.42063" lon="5.87371">
        <ele>714.59997558594</ele>
        <time>2018-06-09T09:54:35.000Z</time>
      </trkpt>
      <trkpt lat="46.42062" lon="5.87371">
        <ele>714</ele>
        <time>2018-06-09T09:54:36.000Z</time>
      </trkpt>
      <trkpt lat="46.42062" lon="5.87371">
        <ele>718.20001220703</ele>
        <time>2018-06-09T09:54:37.000Z</time>
      </trkpt>
      <trkpt lat="46.42062" lon="5.87372">
        <ele>719.79998779297</ele>
        <time>2018-06-09T09:54:38.000Z</time>
      </trkpt>
      <trkpt lat="46.42059" lon="5.87374">
        <ele>715.40002441406</ele>
        <time>2018-06-09T09:54:40.000Z</time>
      </trkpt>
      <trkpt lat="46.42058" lon="5.87374">
        <ele>712.40002441406</ele>
        <time>2018-06-09T09:54:41.000Z</time>
      </trkpt>
      <trkpt lat="46.42056" lon="5.87375">
        <ele>710.59997558594</ele>
        <time>2018-06-09T09:54:42.000Z</time>
      </trkpt>
      <trkpt lat="46.42051" lon="5.87378">
        <ele>709</ele>
        <time>2018-06-09T09:54:44.000Z</time>
      </trkpt>
      <trkpt lat="46.42043" lon="5.87376">
        <ele>708</ele>
        <time>2018-06-09T09:54:47.000Z</time>
      </trkpt>
      <trkpt lat="46.42041" lon="5.87375">
        <ele>707</ele>
        <time>2018-06-09T09:54:48.000Z</time>
      </trkpt>
      <trkpt lat="46.42038" lon="5.87376">
        <ele>705.79998779297</ele>
        <time>2018-06-09T09:54:49.000Z</time>
      </trkpt>
      <trkpt lat="46.42034" lon="5.87379">
        <ele>704.40002441406</ele>
        <time>2018-06-09T09:54:50.000Z</time>
      </trkpt>
      <trkpt lat="46.42032" lon="5.87379">
        <ele>703.20001220703</ele>
        <time>2018-06-09T09:54:51.000Z</time>
      </trkpt>
      <trkpt lat="46.42028" lon="5.8738">
        <ele>702</ele>
        <time>2018-06-09T09:54:52.000Z</time>
      </trkpt>
      <trkpt lat="46.42025" lon="5.87381">
        <ele>700.79998779297</ele>
        <time>2018-06-09T09:54:53.000Z</time>
      </trkpt>
      <trkpt lat="46.42021" lon="5.87382">
        <ele>699.59997558594</ele>
        <time>2018-06-09T09:54:54.000Z</time>
      </trkpt>
      <trkpt lat="46.42017" lon="5.87382">
        <ele>698.40002441406</ele>
        <time>2018-06-09T09:54:55.000Z</time>
      </trkpt>
      <trkpt lat="46.42007" lon="5.87387">
        <ele>696.20001220703</ele>
        <time>2018-06-09T09:54:57.000Z</time>
      </trkpt>
      <trkpt lat="46.42003" lon="5.87387">
        <ele>694.59997558594</ele>
        <time>2018-06-09T09:54:58.000Z</time>
      </trkpt>
      <trkpt lat="46.41997" lon="5.87391">
        <ele>692.40002441406</ele>
        <time>2018-06-09T09:54:59.000Z</time>
      </trkpt>
      <trkpt lat="46.41991" lon="5.8739">
        <ele>690.20001220703</ele>
        <time>2018-06-09T09:55:00.000Z</time>
      </trkpt>
      <trkpt lat="46.41987" lon="5.87389">
        <ele>688.20001220703</ele>
        <time>2018-06-09T09:55:01.000Z</time>
      </trkpt>
      <trkpt lat="46.41983" lon="5.87387">
        <ele>686.59997558594</ele>
        <time>2018-06-09T09:55:02.000Z</time>
      </trkpt>
      <trkpt lat="46.4198" lon="5.87386">
        <ele>685.20001220703</ele>
        <time>2018-06-09T09:55:03.000Z</time>
      </trkpt>
      <trkpt lat="46.41976" lon="5.87386">
        <ele>684</ele>
        <time>2018-06-09T09:55:04.000Z</time>
      </trkpt>
      <trkpt lat="46.41973" lon="5.87389">
        <ele>682.59997558594</ele>
        <time>2018-06-09T09:55:05.000Z</time>
      </trkpt>
      <trkpt lat="46.4197" lon="5.87387">
        <ele>681.20001220703</ele>
        <time>2018-06-09T09:55:06.000Z</time>
      </trkpt>
      <trkpt lat="46.41966" lon="5.87386">
        <ele>680</ele>
        <time>2018-06-09T09:55:07.000Z</time>
      </trkpt>
      <trkpt lat="46.4196" lon="5.87386">
        <ele>679</ele>
        <time>2018-06-09T09:55:08.000Z</time>
      </trkpt>
      <trkpt lat="46.41954" lon="5.87388">
        <ele>678</ele>
        <time>2018-06-09T09:55:09.000Z</time>
      </trkpt>
      <trkpt lat="46.41949" lon="5.87387">
        <ele>677</ele>
        <time>2018-06-09T09:55:10.000Z</time>
      </trkpt>
      <trkpt lat="46.41944" lon="5.87386">
        <ele>676</ele>
        <time>2018-06-09T09:55:11.000Z</time>
      </trkpt>
      <trkpt lat="46.41941" lon="5.87382">
        <ele>674.59997558594</ele>
        <time>2018-06-09T09:55:12.000Z</time>
      </trkpt>
      <trkpt lat="46.41938" lon="5.87381">
        <ele>673.20001220703</ele>
        <time>2018-06-09T09:55:13.000Z</time>
      </trkpt>
      <trkpt lat="46.41933" lon="5.87384">
        <ele>671.59997558594</ele>
        <time>2018-06-09T09:55:14.000Z</time>
      </trkpt>
      <trkpt lat="46.41931" lon="5.87383">
        <ele>670.20001220703</ele>
        <time>2018-06-09T09:55:15.000Z</time>
      </trkpt>
      <trkpt lat="46.41929" lon="5.87379">
        <ele>668.79998779297</ele>
        <time>2018-06-09T09:55:16.000Z</time>
      </trkpt>
      <trkpt lat="46.41927" lon="5.87377">
        <ele>667.59997558594</ele>
        <time>2018-06-09T09:55:17.000Z</time>
      </trkpt>
      <trkpt lat="46.41925" lon="5.87377">
        <ele>666.40002441406</ele>
        <time>2018-06-09T09:55:18.000Z</time>
      </trkpt>
      <trkpt lat="46.41924" lon="5.87378">
        <ele>665.40002441406</ele>
        <time>2018-06-09T09:55:19.000Z</time>
      </trkpt>
      <trkpt lat="46.41923" lon="5.87381">
        <ele>663.40002441406</ele>
        <time>2018-06-09T09:55:21.000Z</time>
      </trkpt>
      <trkpt lat="46.41922" lon="5.8738">
        <ele>662.40002441406</ele>
        <time>2018-06-09T09:55:22.000Z</time>
      </trkpt>
      <trkpt lat="46.41919" lon="5.8738">
        <ele>661.59997558594</ele>
        <time>2018-06-09T09:55:23.000Z</time>
      </trkpt>
      <trkpt lat="46.41914" lon="5.8738">
        <ele>659.79998779297</ele>
        <time>2018-06-09T09:55:25.000Z</time>
      </trkpt>
      <trkpt lat="46.41888" lon="5.87399">
        <ele>658</ele>
        <time>2018-06-09T09:55:27.000Z</time>
      </trkpt>
      <trkpt lat="46.41884" lon="5.87391">
        <ele>656.20001220703</ele>
        <time>2018-06-09T09:55:29.000Z</time>
      </trkpt>
      <trkpt lat="46.41877" lon="5.87389">
        <ele>655.59997558594</ele>
        <time>2018-06-09T09:55:36.000Z</time>
      </trkpt>
      <trkpt lat="46.41875" lon="5.87385">
        <ele>655.79998779297</ele>
        <time>2018-06-09T09:55:38.000Z</time>
      </trkpt>
      <trkpt lat="46.41872" lon="5.87377">
        <ele>655.79998779297</ele>
        <time>2018-06-09T09:55:42.000Z</time>
      </trkpt>
      <trkpt lat="46.41866" lon="5.87378">
        <ele>655</ele>
        <time>2018-06-09T09:55:45.000Z</time>
      </trkpt>
      <trkpt lat="46.41863" lon="5.87378">
        <ele>653</ele>
        <time>2018-06-09T09:55:47.000Z</time>
      </trkpt>
      <trkpt lat="46.41861" lon="5.87378">
        <ele>651.59997558594</ele>
        <time>2018-06-09T09:55:49.000Z</time>
      </trkpt>
      <trkpt lat="46.41857" lon="5.87379">
        <ele>649.59997558594</ele>
        <time>2018-06-09T09:55:51.000Z</time>
      </trkpt>
      <trkpt lat="46.41855" lon="5.87379">
        <ele>649.20001220703</ele>
        <time>2018-06-09T09:55:52.000Z</time>
      </trkpt>
      <trkpt lat="46.41848" lon="5.87378">
        <ele>647.79998779297</ele>
        <time>2018-06-09T09:55:54.000Z</time>
      </trkpt>
      <trkpt lat="46.41845" lon="5.87375">
        <ele>646.59997558594</ele>
        <time>2018-06-09T09:55:55.000Z</time>
      </trkpt>
      <trkpt lat="46.41844" lon="5.87372">
        <ele>645</ele>
        <time>2018-06-09T09:55:56.000Z</time>
      </trkpt>
      <trkpt lat="46.41842" lon="5.8737">
        <ele>643.79998779297</ele>
        <time>2018-06-09T09:55:57.000Z</time>
      </trkpt>
      <trkpt lat="46.41842" lon="5.8737">
        <ele>642.79998779297</ele>
        <time>2018-06-09T09:55:59.000Z</time>
      </trkpt>
      <trkpt lat="46.41842" lon="5.87366">
        <ele>642.40002441406</ele>
        <time>2018-06-09T09:56:02.000Z</time>
      </trkpt>
      <trkpt lat="46.4184" lon="5.87364">
        <ele>645</ele>
        <time>2018-06-09T09:56:03.000Z</time>
      </trkpt>
      <trkpt lat="46.41839" lon="5.87362">
        <ele>649.40002441406</ele>
        <time>2018-06-09T09:56:04.000Z</time>
      </trkpt>
      <trkpt lat="46.41837" lon="5.87362">
        <ele>651.59997558594</ele>
        <time>2018-06-09T09:56:05.000Z</time>
      </trkpt>
      <trkpt lat="46.41835" lon="5.87363">
        <ele>652</ele>
        <time>2018-06-09T09:56:06.000Z</time>
      </trkpt>
      <trkpt lat="46.41831" lon="5.87362">
        <ele>649</ele>
        <time>2018-06-09T09:56:08.000Z</time>
      </trkpt>
      <trkpt lat="46.4183" lon="5.87362">
        <ele>643</ele>
        <time>2018-06-09T09:56:09.000Z</time>
      </trkpt>
      <trkpt lat="46.4183" lon="5.8736">
        <ele>639.79998779297</ele>
        <time>2018-06-09T09:56:10.000Z</time>
      </trkpt>
      <trkpt lat="46.41829" lon="5.87359">
        <ele>637.79998779297</ele>
        <time>2018-06-09T09:56:11.000Z</time>
      </trkpt>
      <trkpt lat="46.41829" lon="5.87358">
        <ele>636.59997558594</ele>
        <time>2018-06-09T09:56:12.000Z</time>
      </trkpt>
      <trkpt lat="46.41828" lon="5.87355">
        <ele>635.59997558594</ele>
        <time>2018-06-09T09:56:14.000Z</time>
      </trkpt>
      <trkpt lat="46.41827" lon="5.87351">
        <ele>635.20001220703</ele>
        <time>2018-06-09T09:56:15.000Z</time>
      </trkpt>
      <trkpt lat="46.41823" lon="5.87353">
        <ele>634.20001220703</ele>
        <time>2018-06-09T09:56:17.000Z</time>
      </trkpt>
      <trkpt lat="46.41822" lon="5.87354">
        <ele>632.79998779297</ele>
        <time>2018-06-09T09:56:18.000Z</time>
      </trkpt>
      <trkpt lat="46.4182" lon="5.87354">
        <ele>632.20001220703</ele>
        <time>2018-06-09T09:56:19.000Z</time>
      </trkpt>
      <trkpt lat="46.41817" lon="5.87355">
        <ele>630.79998779297</ele>
        <time>2018-06-09T09:56:20.000Z</time>
      </trkpt>
      <trkpt lat="46.41815" lon="5.87356">
        <ele>629</ele>
        <time>2018-06-09T09:56:21.000Z</time>
      </trkpt>
      <trkpt lat="46.41812" lon="5.87357">
        <ele>627.20001220703</ele>
        <time>2018-06-09T09:56:22.000Z</time>
      </trkpt>
      <trkpt lat="46.41804" lon="5.87361">
        <ele>626</ele>
        <time>2018-06-09T09:56:25.000Z</time>
      </trkpt>
      <trkpt lat="46.41797" lon="5.8736">
        <ele>625</ele>
        <time>2018-06-09T09:56:27.000Z</time>
      </trkpt>
      <trkpt lat="46.41795" lon="5.8736">
        <ele>623.79998779297</ele>
        <time>2018-06-09T09:56:28.000Z</time>
      </trkpt>
      <trkpt lat="46.41793" lon="5.8736">
        <ele>622</ele>
        <time>2018-06-09T09:56:29.000Z</time>
      </trkpt>
      <trkpt lat="46.4179" lon="5.8736">
        <ele>619.79998779297</ele>
        <time>2018-06-09T09:56:30.000Z</time>
      </trkpt>
      <trkpt lat="46.41786" lon="5.87361">
        <ele>618.20001220703</ele>
        <time>2018-06-09T09:56:31.000Z</time>
      </trkpt>
      <trkpt lat="46.41783" lon="5.87362">
        <ele>617</ele>
        <time>2018-06-09T09:56:32.000Z</time>
      </trkpt>
      <trkpt lat="46.41778" lon="5.87361">
        <ele>615.20001220703</ele>
        <time>2018-06-09T09:56:34.000Z</time>
      </trkpt>
      <trkpt lat="46.41772" lon="5.87362">
        <ele>612.40002441406</ele>
        <time>2018-06-09T09:56:36.000Z</time>
      </trkpt>
      <trkpt lat="46.41767" lon="5.8736">
        <ele>609.59997558594</ele>
        <time>2018-06-09T09:56:38.000Z</time>
      </trkpt>
      <trkpt lat="46.41767" lon="5.8736">
        <ele>606.40002441406</ele>
        <time>2018-06-09T09:56:39.000Z</time>
      </trkpt>
      <trkpt lat="46.41766" lon="5.87358">
        <ele>604.59997558594</ele>
        <time>2018-06-09T09:56:40.000Z</time>
      </trkpt>
      <trkpt lat="46.41763" lon="5.87356">
        <ele>604.79998779297</ele>
        <time>2018-06-09T09:56:42.000Z</time>
      </trkpt>
      <trkpt lat="46.41757" lon="5.87348">
        <ele>603.40002441406</ele>
        <time>2018-06-09T09:56:44.000Z</time>
      </trkpt>
      <trkpt lat="46.41749" lon="5.87349">
        <ele>602.40002441406</ele>
        <time>2018-06-09T09:56:47.000Z</time>
      </trkpt>
      <trkpt lat="46.4174" lon="5.8735">
        <ele>600.59997558594</ele>
        <time>2018-06-09T09:56:50.000Z</time>
      </trkpt>
      <trkpt lat="46.41735" lon="5.87348">
        <ele>599.20001220703</ele>
        <time>2018-06-09T09:56:52.000Z</time>
      </trkpt>
      <trkpt lat="46.41732" lon="5.87351">
        <ele>598.40002441406</ele>
        <time>2018-06-09T09:56:53.000Z</time>
      </trkpt>
      <trkpt lat="46.4173" lon="5.87352">
        <ele>597.20001220703</ele>
        <time>2018-06-09T09:56:54.000Z</time>
      </trkpt>
      <trkpt lat="46.41728" lon="5.87351">
        <ele>595.40002441406</ele>
        <time>2018-06-09T09:56:55.000Z</time>
      </trkpt>
      <trkpt lat="46.41725" lon="5.87349">
        <ele>594.40002441406</ele>
        <time>2018-06-09T09:56:56.000Z</time>
      </trkpt>
      <trkpt lat="46.41723" lon="5.87347">
        <ele>591.40002441406</ele>
        <time>2018-06-09T09:56:57.000Z</time>
      </trkpt>
      <trkpt lat="46.41714" lon="5.87341">
        <ele>588.59997558594</ele>
        <time>2018-06-09T09:57:00.000Z</time>
      </trkpt>
      <trkpt lat="46.41712" lon="5.8734">
        <ele>585.40002441406</ele>
        <time>2018-06-09T09:57:01.000Z</time>
      </trkpt>
      <trkpt lat="46.41707" lon="5.87336">
        <ele>584</ele>
        <time>2018-06-09T09:57:03.000Z</time>
      </trkpt>
      <trkpt lat="46.41703" lon="5.87335">
        <ele>585.20001220703</ele>
        <time>2018-06-09T09:57:06.000Z</time>
      </trkpt>
      <trkpt lat="46.41692" lon="5.87334">
        <ele>586</ele>
        <time>2018-06-09T09:57:12.000Z</time>
      </trkpt>
      <trkpt lat="46.41687" lon="5.87338">
        <ele>585.40002441406</ele>
        <time>2018-06-09T09:57:14.000Z</time>
      </trkpt>
      <trkpt lat="46.41681" lon="5.8734">
        <ele>583.79998779297</ele>
        <time>2018-06-09T09:57:16.000Z</time>
      </trkpt>
      <trkpt lat="46.4168" lon="5.87339">
        <ele>582.59997558594</ele>
        <time>2018-06-09T09:57:18.000Z</time>
      </trkpt>
      <trkpt lat="46.41677" lon="5.8734">
        <ele>581.40002441406</ele>
        <time>2018-06-09T09:57:22.000Z</time>
      </trkpt>
      <trkpt lat="46.41669" lon="5.87344">
        <ele>580.40002441406</ele>
        <time>2018-06-09T09:57:35.000Z</time>
      </trkpt>
      <trkpt lat="46.41665" lon="5.87341">
        <ele>579.79998779297</ele>
        <time>2018-06-09T09:57:42.000Z</time>
      </trkpt>
      <trkpt lat="46.41665" lon="5.87338">
        <ele>579.40002441406</ele>
        <time>2018-06-09T09:57:44.000Z</time>
      </trkpt>
      <trkpt lat="46.41664" lon="5.87335">
        <ele>578.20001220703</ele>
        <time>2018-06-09T09:57:46.000Z</time>
      </trkpt>
      <trkpt lat="46.41663" lon="5.87334">
        <ele>577</ele>
        <time>2018-06-09T09:57:48.000Z</time>
      </trkpt>
      <trkpt lat="46.41662" lon="5.87332">
        <ele>575.79998779297</ele>
        <time>2018-06-09T09:57:53.000Z</time>
      </trkpt>
      <trkpt lat="46.4166" lon="5.87331">
        <ele>574.79998779297</ele>
        <time>2018-06-09T09:58:05.000Z</time>
      </trkpt>
      <trkpt lat="46.41659" lon="5.8733">
        <ele>574.79998779297</ele>
        <time>2018-06-09T09:58:07.000Z</time>
      </trkpt>
      <trkpt lat="46.41656" lon="5.87329">
        <ele>574.20001220703</ele>
        <time>2018-06-09T09:58:09.000Z</time>
      </trkpt>
      <trkpt lat="46.41655" lon="5.87329">
        <ele>573.59997558594</ele>
        <time>2018-06-09T09:58:10.000Z</time>
      </trkpt>
      <trkpt lat="46.4165" lon="5.87331">
        <ele>572.20001220703</ele>
        <time>2018-06-09T09:58:12.000Z</time>
      </trkpt>
      <trkpt lat="46.41643" lon="5.87329">
        <ele>570.79998779297</ele>
        <time>2018-06-09T09:58:15.000Z</time>
      </trkpt>
      <trkpt lat="46.41636" lon="5.87325">
        <ele>569.59997558594</ele>
        <time>2018-06-09T09:58:18.000Z</time>
      </trkpt>
      <trkpt lat="46.41633" lon="5.87322">
        <ele>568.20001220703</ele>
        <time>2018-06-09T09:58:19.000Z</time>
      </trkpt>
      <trkpt lat="46.4163" lon="5.87322">
        <ele>567</ele>
        <time>2018-06-09T09:58:20.000Z</time>
      </trkpt>
      <trkpt lat="46.41624" lon="5.87322">
        <ele>569</ele>
        <time>2018-06-09T09:58:21.000Z</time>
      </trkpt>
      <trkpt lat="46.4162" lon="5.87323">
        <ele>567.40002441406</ele>
        <time>2018-06-09T09:58:22.000Z</time>
      </trkpt>
      <trkpt lat="46.41615" lon="5.87323">
        <ele>565</ele>
        <time>2018-06-09T09:58:24.000Z</time>
      </trkpt>
      <trkpt lat="46.41613" lon="5.87322">
        <ele>563.40002441406</ele>
        <time>2018-06-09T09:58:25.000Z</time>
      </trkpt>
      <trkpt lat="46.4161" lon="5.87319">
        <ele>559</ele>
        <time>2018-06-09T09:58:27.000Z</time>
      </trkpt>
      <trkpt lat="46.41608" lon="5.87317">
        <ele>556.40002441406</ele>
        <time>2018-06-09T09:58:28.000Z</time>
      </trkpt>
      <trkpt lat="46.41606" lon="5.87318">
        <ele>554.40002441406</ele>
        <time>2018-06-09T09:58:29.000Z</time>
      </trkpt>
      <trkpt lat="46.41601" lon="5.87321">
        <ele>553</ele>
        <time>2018-06-09T09:58:31.000Z</time>
      </trkpt>
      <trkpt lat="46.41599" lon="5.87322">
        <ele>552.59997558594</ele>
        <time>2018-06-09T09:58:32.000Z</time>
      </trkpt>
      <trkpt lat="46.41588" lon="5.87322">
        <ele>552</ele>
        <time>2018-06-09T09:58:35.000Z</time>
      </trkpt>
      <trkpt lat="46.4158" lon="5.87324">
        <ele>550.59997558594</ele>
        <time>2018-06-09T09:58:37.000Z</time>
      </trkpt>
      <trkpt lat="46.4157" lon="5.87324">
        <ele>549.59997558594</ele>
        <time>2018-06-09T09:58:42.000Z</time>
      </trkpt>
      <trkpt lat="46.41568" lon="5.87325">
        <ele>549.59997558594</ele>
        <time>2018-06-09T09:58:43.000Z</time>
      </trkpt>
      <trkpt lat="46.41564" lon="5.8733">
        <ele>549.20001220703</ele>
        <time>2018-06-09T09:58:45.000Z</time>
      </trkpt>
      <trkpt lat="46.41561" lon="5.87334">
        <ele>548.40002441406</ele>
        <time>2018-06-09T09:58:46.000Z</time>
      </trkpt>
      <trkpt lat="46.41552" lon="5.87338">
        <ele>546.59997558594</ele>
        <time>2018-06-09T09:58:49.000Z</time>
      </trkpt>
      <trkpt lat="46.41549" lon="5.8734">
        <ele>545.40002441406</ele>
        <time>2018-06-09T09:58:50.000Z</time>
      </trkpt>
      <trkpt lat="46.41544" lon="5.87342">
        <ele>543.79998779297</ele>
        <time>2018-06-09T09:58:52.000Z</time>
      </trkpt>
      <trkpt lat="46.41544" lon="5.87343">
        <ele>542.59997558594</ele>
        <time>2018-06-09T09:58:53.000Z</time>
      </trkpt>
      <trkpt lat="46.41541" lon="5.87345">
        <ele>541</ele>
        <time>2018-06-09T09:58:55.000Z</time>
      </trkpt>
      <trkpt lat="46.41539" lon="5.87346">
        <ele>539.59997558594</ele>
        <time>2018-06-09T09:58:57.000Z</time>
      </trkpt>
      <trkpt lat="46.41532" lon="5.8735">
        <ele>538.59997558594</ele>
        <time>2018-06-09T09:59:02.000Z</time>
      </trkpt>
      <trkpt lat="46.41527" lon="5.87353">
        <ele>538</ele>
        <time>2018-06-09T09:59:04.000Z</time>
      </trkpt>
      <trkpt lat="46.41524" lon="5.87356">
        <ele>537.40002441406</ele>
        <time>2018-06-09T09:59:05.000Z</time>
      </trkpt>
      <trkpt lat="46.41517" lon="5.87365">
        <ele>535.59997558594</ele>
        <time>2018-06-09T09:59:07.000Z</time>
      </trkpt>
      <trkpt lat="46.41511" lon="5.87372">
        <ele>534.40002441406</ele>
        <time>2018-06-09T09:59:09.000Z</time>
      </trkpt>
      <trkpt lat="46.41507" lon="5.87377">
        <ele>532.79998779297</ele>
        <time>2018-06-09T09:59:11.000Z</time>
      </trkpt>
      <trkpt lat="46.41506" lon="5.87379">
        <ele>531.59997558594</ele>
        <time>2018-06-09T09:59:12.000Z</time>
      </trkpt>
      <trkpt lat="46.41505" lon="5.87381">
        <ele>530.40002441406</ele>
        <time>2018-06-09T09:59:13.000Z</time>
      </trkpt>
      <trkpt lat="46.41505" lon="5.87383">
        <ele>529.40002441406</ele>
        <time>2018-06-09T09:59:14.000Z</time>
      </trkpt>
      <trkpt lat="46.41507" lon="5.87387">
        <ele>528.20001220703</ele>
        <time>2018-06-09T09:59:16.000Z</time>
      </trkpt>
      <trkpt lat="46.41507" lon="5.87398">
        <ele>527.20001220703</ele>
        <time>2018-06-09T09:59:20.000Z</time>
      </trkpt>
      <trkpt lat="46.415" lon="5.87404">
        <ele>526.20001220703</ele>
        <time>2018-06-09T09:59:23.000Z</time>
      </trkpt>
      <trkpt lat="46.41496" lon="5.87405">
        <ele>526</ele>
        <time>2018-06-09T09:59:24.000Z</time>
      </trkpt>
      <trkpt lat="46.41494" lon="5.87405">
        <ele>525.79998779297</ele>
        <time>2018-06-09T09:59:25.000Z</time>
      </trkpt>
      <trkpt lat="46.41489" lon="5.87405">
        <ele>524.59997558594</ele>
        <time>2018-06-09T09:59:28.000Z</time>
      </trkpt>
      <trkpt lat="46.41488" lon="5.87405">
        <ele>524.20001220703</ele>
        <time>2018-06-09T09:59:29.000Z</time>
      </trkpt>
      <trkpt lat="46.41487" lon="5.87407">
        <ele>526.20001220703</ele>
        <time>2018-06-09T09:59:30.000Z</time>
      </trkpt>
      <trkpt lat="46.41487" lon="5.87409">
        <ele>525</ele>
        <time>2018-06-09T09:59:31.000Z</time>
      </trkpt>
      <trkpt lat="46.41487" lon="5.87414">
        <ele>523.59997558594</ele>
        <time>2018-06-09T09:59:33.000Z</time>
      </trkpt>
      <trkpt lat="46.41489" lon="5.8742">
        <ele>521.59997558594</ele>
        <time>2018-06-09T09:59:36.000Z</time>
      </trkpt>
      <trkpt lat="46.41487" lon="5.87422">
        <ele>520.20001220703</ele>
        <time>2018-06-09T09:59:37.000Z</time>
      </trkpt>
      <trkpt lat="46.41488" lon="5.87419">
        <ele>519</ele>
        <time>2018-06-09T09:59:39.000Z</time>
      </trkpt>
      <trkpt lat="46.41485" lon="5.8742">
        <ele>518.79998779297</ele>
        <time>2018-06-09T09:59:40.000Z</time>
      </trkpt>
      <trkpt lat="46.41484" lon="5.87418">
        <ele>518.40002441406</ele>
        <time>2018-06-09T09:59:41.000Z</time>
      </trkpt>
      <trkpt lat="46.41478" lon="5.87414">
        <ele>518</ele>
        <time>2018-06-09T09:59:43.000Z</time>
      </trkpt>
      <trkpt lat="46.41459" lon="5.87407">
        <ele>517</ele>
        <time>2018-06-09T09:59:53.000Z</time>
      </trkpt>
      <trkpt lat="46.41451" lon="5.87401">
        <ele>518.20001220703</ele>
        <time>2018-06-09T10:00:02.000Z</time>
      </trkpt>
      <trkpt lat="46.41453" lon="5.87395">
        <ele>519.40002441406</ele>
        <time>2018-06-09T10:00:06.000Z</time>
      </trkpt>
      <trkpt lat="46.41459" lon="5.87385">
        <ele>520.40002441406</ele>
        <time>2018-06-09T10:00:12.000Z</time>
      </trkpt>
      <trkpt lat="46.41462" lon="5.87378">
        <ele>521.40002441406</ele>
        <time>2018-06-09T10:00:19.000Z</time>
      </trkpt>
      <trkpt lat="46.41467" lon="5.87371">
        <ele>522.59997558594</ele>
        <time>2018-06-09T10:00:26.000Z</time>
      </trkpt>
      <trkpt lat="46.4147" lon="5.87366">
        <ele>523.79998779297</ele>
        <time>2018-06-09T10:00:32.000Z</time>
      </trkpt>
      <trkpt lat="46.41474" lon="5.87363">
        <ele>524.40002441406</ele>
        <time>2018-06-09T10:00:37.000Z</time>
      </trkpt>
      <trkpt lat="46.41476" lon="5.87363">
        <ele>524.40002441406</ele>
        <time>2018-06-09T10:00:39.000Z</time>
      </trkpt>
      <trkpt lat="46.41483" lon="5.87355">
        <ele>525</ele>
        <time>2018-06-09T10:00:48.000Z</time>
      </trkpt>
      <trkpt lat="46.41487" lon="5.87348">
        <ele>526</ele>
        <time>2018-06-09T10:00:54.000Z</time>
      </trkpt>
      <trkpt lat="46.41491" lon="5.8734">
        <ele>526.59997558594</ele>
        <time>2018-06-09T10:01:00.000Z</time>
      </trkpt>
      <trkpt lat="46.41493" lon="5.87337">
        <ele>527</ele>
        <time>2018-06-09T10:01:03.000Z</time>
      </trkpt>
      <trkpt lat="46.415" lon="5.87332">
        <ele>528.20001220703</ele>
        <time>2018-06-09T10:01:11.000Z</time>
      </trkpt>
      <trkpt lat="46.41513" lon="5.87318">
        <ele>529.20001220703</ele>
        <time>2018-06-09T10:01:25.000Z</time>
      </trkpt>
      <trkpt lat="46.41524" lon="5.87311">
        <ele>530.40002441406</ele>
        <time>2018-06-09T10:01:39.000Z</time>
      </trkpt>
      <trkpt lat="46.41525" lon="5.87302">
        <ele>529.79998779297</ele>
        <time>2018-06-09T10:01:46.000Z</time>
      </trkpt>
      <trkpt lat="46.41525" lon="5.87296">
        <ele>528.79998779297</ele>
        <time>2018-06-09T10:01:48.000Z</time>
      </trkpt>
      <trkpt lat="46.41526" lon="5.87294">
        <ele>528.40002441406</ele>
        <time>2018-06-09T10:01:49.000Z</time>
      </trkpt>
      <trkpt lat="46.41527" lon="5.87291">
        <ele>527.79998779297</ele>
        <time>2018-06-09T10:01:50.000Z</time>
      </trkpt>
      <trkpt lat="46.41528" lon="5.87286">
        <ele>526.59997558594</ele>
        <time>2018-06-09T10:01:52.000Z</time>
      </trkpt>
      <trkpt lat="46.41529" lon="5.87281">
        <ele>524.59997558594</ele>
        <time>2018-06-09T10:01:54.000Z</time>
      </trkpt>
      <trkpt lat="46.41529" lon="5.8728">
        <ele>523.40002441406</ele>
        <time>2018-06-09T10:01:55.000Z</time>
      </trkpt>
      <trkpt lat="46.41527" lon="5.87279">
        <ele>522</ele>
        <time>2018-06-09T10:01:56.000Z</time>
      </trkpt>
      <trkpt lat="46.41524" lon="5.87278">
        <ele>520.40002441406</ele>
        <time>2018-06-09T10:01:57.000Z</time>
      </trkpt>
      <trkpt lat="46.41521" lon="5.87277">
        <ele>518.20001220703</ele>
        <time>2018-06-09T10:01:58.000Z</time>
      </trkpt>
      <trkpt lat="46.41518" lon="5.87277">
        <ele>517</ele>
        <time>2018-06-09T10:01:59.000Z</time>
      </trkpt>
      <trkpt lat="46.41512" lon="5.87275">
        <ele>514.59997558594</ele>
        <time>2018-06-09T10:02:01.000Z</time>
      </trkpt>
      <trkpt lat="46.41506" lon="5.87272">
        <ele>513</ele>
        <time>2018-06-09T10:02:02.000Z</time>
      </trkpt>
      <trkpt lat="46.41501" lon="5.87263">
        <ele>511.79998779297</ele>
        <time>2018-06-09T10:02:04.000Z</time>
      </trkpt>
      <trkpt lat="46.41496" lon="5.87258">
        <ele>511.39999389648</ele>
        <time>2018-06-09T10:02:06.000Z</time>
      </trkpt>
      <trkpt lat="46.41488" lon="5.87255">
        <ele>510.39999389648</ele>
        <time>2018-06-09T10:02:08.000Z</time>
      </trkpt>
      <trkpt lat="46.41484" lon="5.87254">
        <ele>509.20001220703</ele>
        <time>2018-06-09T10:02:09.000Z</time>
      </trkpt>
      <trkpt lat="46.41481" lon="5.87254">
        <ele>507.79998779297</ele>
        <time>2018-06-09T10:02:10.000Z</time>
      </trkpt>
      <trkpt lat="46.41477" lon="5.87253">
        <ele>506.60000610352</ele>
        <time>2018-06-09T10:02:11.000Z</time>
      </trkpt>
      <trkpt lat="46.41473" lon="5.87252">
        <ele>505.60000610352</ele>
        <time>2018-06-09T10:02:12.000Z</time>
      </trkpt>
      <trkpt lat="46.41466" lon="5.87248">
        <ele>503.39999389648</ele>
        <time>2018-06-09T10:02:14.000Z</time>
      </trkpt>
      <trkpt lat="46.41463" lon="5.87246">
        <ele>502</ele>
        <time>2018-06-09T10:02:15.000Z</time>
      </trkpt>
      <trkpt lat="46.4146" lon="5.87242">
        <ele>500.79998779297</ele>
        <time>2018-06-09T10:02:16.000Z</time>
      </trkpt>
      <trkpt lat="46.41455" lon="5.87236">
        <ele>499.39999389648</ele>
        <time>2018-06-09T10:02:18.000Z</time>
      </trkpt>
      <trkpt lat="46.4145" lon="5.87232">
        <ele>497.39999389648</ele>
        <time>2018-06-09T10:02:21.000Z</time>
      </trkpt>
      <trkpt lat="46.41448" lon="5.8723">
        <ele>496.20001220703</ele>
        <time>2018-06-09T10:02:22.000Z</time>
      </trkpt>
      <trkpt lat="46.41443" lon="5.87226">
        <ele>495</ele>
        <time>2018-06-09T10:02:24.000Z</time>
      </trkpt>
      <trkpt lat="46.41435" lon="5.8721">
        <ele>495.20001220703</ele>
        <time>2018-06-09T10:02:32.000Z</time>
      </trkpt>
      <trkpt lat="46.41445" lon="5.87202">
        <ele>494</ele>
        <time>2018-06-09T10:02:38.000Z</time>
      </trkpt>
      <trkpt lat="46.4145" lon="5.87201">
        <ele>492.39999389648</ele>
        <time>2018-06-09T10:02:41.000Z</time>
      </trkpt>
      <trkpt lat="46.41456" lon="5.872">
        <ele>491</ele>
        <time>2018-06-09T10:02:44.000Z</time>
      </trkpt>
      <trkpt lat="46.41462" lon="5.87198">
        <ele>490</ele>
        <time>2018-06-09T10:02:48.000Z</time>
      </trkpt>
      <trkpt lat="46.41464" lon="5.87195">
        <ele>490</ele>
        <time>2018-06-09T10:02:50.000Z</time>
      </trkpt>
      <trkpt lat="46.4148" lon="5.87181">
        <ele>488.79998779297</ele>
        <time>2018-06-09T10:02:57.000Z</time>
      </trkpt>
      <trkpt lat="46.41505" lon="5.8717">
        <ele>487.79998779297</ele>
        <time>2018-06-09T10:03:06.000Z</time>
      </trkpt>
      <trkpt lat="46.41517" lon="5.87165">
        <ele>486.60000610352</ele>
        <time>2018-06-09T10:03:12.000Z</time>
      </trkpt>
      <trkpt lat="46.41525" lon="5.8716">
        <ele>485</ele>
        <time>2018-06-09T10:03:17.000Z</time>
      </trkpt>
      <trkpt lat="46.41525" lon="5.87155">
        <ele>483</ele>
        <time>2018-06-09T10:03:21.000Z</time>
      </trkpt>
      <trkpt lat="46.41523" lon="5.87154">
        <ele>481</ele>
        <time>2018-06-09T10:03:23.000Z</time>
      </trkpt>
      <trkpt lat="46.41523" lon="5.87151">
        <ele>479.79998779297</ele>
        <time>2018-06-09T10:03:24.000Z</time>
      </trkpt>
      <trkpt lat="46.41523" lon="5.87149">
        <ele>478.79998779297</ele>
        <time>2018-06-09T10:03:25.000Z</time>
      </trkpt>
      <trkpt lat="46.41525" lon="5.87144">
        <ele>477.60000610352</ele>
        <time>2018-06-09T10:03:28.000Z</time>
      </trkpt>
      <trkpt lat="46.41527" lon="5.87139">
        <ele>477</ele>
        <time>2018-06-09T10:03:30.000Z</time>
      </trkpt>
      <trkpt lat="46.4153" lon="5.87134">
        <ele>476.20001220703</ele>
        <time>2018-06-09T10:03:32.000Z</time>
      </trkpt>
      <trkpt lat="46.41533" lon="5.87128">
        <ele>474.39999389648</ele>
        <time>2018-06-09T10:03:34.000Z</time>
      </trkpt>
      <trkpt lat="46.41534" lon="5.87126">
        <ele>473.20001220703</ele>
        <time>2018-06-09T10:03:35.000Z</time>
      </trkpt>
      <trkpt lat="46.41535" lon="5.87125">
        <ele>472.20001220703</ele>
        <time>2018-06-09T10:03:36.000Z</time>
      </trkpt>
      <trkpt lat="46.41537" lon="5.87123">
        <ele>470.39999389648</ele>
        <time>2018-06-09T10:03:38.000Z</time>
      </trkpt>
      <trkpt lat="46.4154" lon="5.8712">
        <ele>469.60000610352</ele>
        <time>2018-06-09T10:03:39.000Z</time>
      </trkpt>
      <trkpt lat="46.41541" lon="5.87119">
        <ele>468.79998779297</ele>
        <time>2018-06-09T10:03:40.000Z</time>
      </trkpt>
      <trkpt lat="46.41541" lon="5.87118">
        <ele>467.60000610352</ele>
        <time>2018-06-09T10:03:41.000Z</time>
      </trkpt>
      <trkpt lat="46.41545" lon="5.8712">
        <ele>467.60000610352</ele>
        <time>2018-06-09T10:03:44.000Z</time>
      </trkpt>
      <trkpt lat="46.41545" lon="5.87119">
        <ele>464.39999389648</ele>
        <time>2018-06-09T10:03:47.000Z</time>
      </trkpt>
      <trkpt lat="46.4155" lon="5.87119">
        <ele>464.39999389648</ele>
        <time>2018-06-09T10:03:54.000Z</time>
      </trkpt>
      <trkpt lat="46.41556" lon="5.87122">
        <ele>462.60000610352</ele>
        <time>2018-06-09T10:03:57.000Z</time>
      </trkpt>
      <trkpt lat="46.41559" lon="5.87121">
        <ele>460.20001220703</ele>
        <time>2018-06-09T10:03:58.000Z</time>
      </trkpt>
      <trkpt lat="46.41564" lon="5.87121">
        <ele>457.60000610352</ele>
        <time>2018-06-09T10:03:59.000Z</time>
      </trkpt>
      <trkpt lat="46.4157" lon="5.8712">
        <ele>455.20001220703</ele>
        <time>2018-06-09T10:04:00.000Z</time>
      </trkpt>
      <trkpt lat="46.41574" lon="5.87118">
        <ele>453.79998779297</ele>
        <time>2018-06-09T10:04:01.000Z</time>
      </trkpt>
      <trkpt lat="46.41578" lon="5.87118">
        <ele>452.39999389648</ele>
        <time>2018-06-09T10:04:02.000Z</time>
      </trkpt>
      <trkpt lat="46.41585" lon="5.87112">
        <ele>450.79998779297</ele>
        <time>2018-06-09T10:04:04.000Z</time>
      </trkpt>
      <trkpt lat="46.41588" lon="5.87108">
        <ele>449.60000610352</ele>
        <time>2018-06-09T10:04:05.000Z</time>
      </trkpt>
      <trkpt lat="46.41592" lon="5.87106">
        <ele>448</ele>
        <time>2018-06-09T10:04:06.000Z</time>
      </trkpt>
      <trkpt lat="46.41595" lon="5.87102">
        <ele>446.60000610352</ele>
        <time>2018-06-09T10:04:07.000Z</time>
      </trkpt>
      <trkpt lat="46.41599" lon="5.87099">
        <ele>445.20001220703</ele>
        <time>2018-06-09T10:04:08.000Z</time>
      </trkpt>
      <trkpt lat="46.41608" lon="5.87093">
        <ele>442.60000610352</ele>
        <time>2018-06-09T10:04:10.000Z</time>
      </trkpt>
      <trkpt lat="46.41613" lon="5.87089">
        <ele>440.79998779297</ele>
        <time>2018-06-09T10:04:11.000Z</time>
      </trkpt>
      <trkpt lat="46.41619" lon="5.87083">
        <ele>439.60000610352</ele>
        <time>2018-06-09T10:04:12.000Z</time>
      </trkpt>
      <trkpt lat="46.41621" lon="5.87078">
        <ele>438.20001220703</ele>
        <time>2018-06-09T10:04:13.000Z</time>
      </trkpt>
      <trkpt lat="46.41625" lon="5.87076">
        <ele>436.79998779297</ele>
        <time>2018-06-09T10:04:15.000Z</time>
      </trkpt>
      <trkpt lat="46.41628" lon="5.87056">
        <ele>436.20001220703</ele>
        <time>2018-06-09T10:04:17.000Z</time>
      </trkpt>
      <trkpt lat="46.41625" lon="5.87042">
        <ele>435.60000610352</ele>
        <time>2018-06-09T10:04:18.000Z</time>
      </trkpt>
      <trkpt lat="46.41624" lon="5.87028">
        <ele>434.60000610352</ele>
        <time>2018-06-09T10:04:19.000Z</time>
      </trkpt>
      <trkpt lat="46.41624" lon="5.87011">
        <ele>433</ele>
        <time>2018-06-09T10:04:20.000Z</time>
      </trkpt>
      <trkpt lat="46.41626" lon="5.86991">
        <ele>431.60000610352</ele>
        <time>2018-06-09T10:04:21.000Z</time>
      </trkpt>
      <trkpt lat="46.41626" lon="5.86978">
        <ele>430.79998779297</ele>
        <time>2018-06-09T10:04:22.000Z</time>
      </trkpt>
      <trkpt lat="46.41628" lon="5.86967">
        <ele>430.39999389648</ele>
        <time>2018-06-09T10:04:23.000Z</time>
      </trkpt>
      <trkpt lat="46.41648" lon="5.869">
        <ele>429.39999389648</ele>
        <time>2018-06-09T10:04:32.000Z</time>
      </trkpt>
      <trkpt lat="46.41666" lon="5.86872">
        <ele>431</ele>
        <time>2018-06-09T10:04:56.000Z</time>
      </trkpt>
      <trkpt lat="46.41668" lon="5.86871">
        <ele>432.60000610352</ele>
        <time>2018-06-09T10:07:02.000Z</time>
      </trkpt>
      <trkpt lat="46.41667" lon="5.86871">
        <ele>433.79998779297</ele>
        <time>2018-06-09T10:07:03.000Z</time>
      </trkpt>
      <trkpt lat="46.41665" lon="5.86871">
        <ele>434.79998779297</ele>
        <time>2018-06-09T10:07:08.000Z</time>
      </trkpt>
      <trkpt lat="46.41664" lon="5.8687">
        <ele>433.39999389648</ele>
        <time>2018-06-09T10:07:15.000Z</time>
      </trkpt>
      <trkpt lat="46.41664" lon="5.8687">
        <ele>435</ele>
        <time>2018-06-09T10:07:20.000Z</time>
      </trkpt>
      <trkpt lat="46.41664" lon="5.8687">
        <ele>436.20001220703</ele>
        <time>2018-06-09T10:07:22.000Z</time>
      </trkpt>
      <trkpt lat="46.41664" lon="5.8687">
        <ele>435.20001220703</ele>
        <time>2018-06-09T10:07:37.000Z</time>
      </trkpt>
      <trkpt lat="46.41664" lon="5.8687">
        <ele>434.79998779297</ele>
        <time>2018-06-09T10:07:46.000Z</time>
      </trkpt>
      <trkpt lat="46.41665" lon="5.86869">
        <ele>436.60000610352</ele>
        <time>2018-06-09T10:07:59.000Z</time>
      </trkpt>
      <trkpt lat="46.41664" lon="5.8687">
        <ele>437.60000610352</ele>
        <time>2018-06-09T10:08:04.000Z</time>
      </trkpt>
      <trkpt lat="46.41662" lon="5.8686">
        <ele>437.79998779297</ele>
        <time>2018-06-09T10:09:03.000Z</time>
      </trkpt>
      <trkpt lat="46.41668" lon="5.86839">
        <ele>436.39999389648</ele>
        <time>2018-06-09T10:09:09.000Z</time>
      </trkpt>
      <trkpt lat="46.41669" lon="5.86837">
        <ele>436.20001220703</ele>
        <time>2018-06-09T10:09:10.000Z</time>
      </trkpt>
      <trkpt lat="46.4167" lon="5.86834">
        <ele>435.79998779297</ele>
        <time>2018-06-09T10:09:12.000Z</time>
      </trkpt>
      <trkpt lat="46.4167" lon="5.86829">
        <ele>435.20001220703</ele>
        <time>2018-06-09T10:09:14.000Z</time>
      </trkpt>
      <trkpt lat="46.41673" lon="5.8682">
        <ele>433.60000610352</ele>
        <time>2018-06-09T10:09:17.000Z</time>
      </trkpt>
      <trkpt lat="46.41674" lon="5.86818">
        <ele>432.60000610352</ele>
        <time>2018-06-09T10:09:18.000Z</time>
      </trkpt>
      <trkpt lat="46.41675" lon="5.86816">
        <ele>431.39999389648</ele>
        <time>2018-06-09T10:09:19.000Z</time>
      </trkpt>
      <trkpt lat="46.41676" lon="5.86814">
        <ele>430.60000610352</ele>
        <time>2018-06-09T10:09:20.000Z</time>
      </trkpt>
      <trkpt lat="46.41676" lon="5.8681">
        <ele>430</ele>
        <time>2018-06-09T10:09:21.000Z</time>
      </trkpt>
      <trkpt lat="46.41673" lon="5.86795">
        <ele>429</ele>
        <time>2018-06-09T10:09:24.000Z</time>
      </trkpt>
      <trkpt lat="46.41666" lon="5.86761">
        <ele>428.79998779297</ele>
        <time>2018-06-09T10:09:30.000Z</time>
      </trkpt>
      <trkpt lat="46.41668" lon="5.86741">
        <ele>428</ele>
        <time>2018-06-09T10:09:35.000Z</time>
      </trkpt>
      <trkpt lat="46.41671" lon="5.86738">
        <ele>428</ele>
        <time>2018-06-09T10:09:37.000Z</time>
      </trkpt>
      <trkpt lat="46.41681" lon="5.86729">
        <ele>429</ele>
        <time>2018-06-09T10:09:45.000Z</time>
      </trkpt>
      <trkpt lat="46.41685" lon="5.86724">
        <ele>429.39999389648</ele>
        <time>2018-06-09T10:09:49.000Z</time>
      </trkpt>
      <trkpt lat="46.41691" lon="5.86716">
        <ele>430</ele>
        <time>2018-06-09T10:09:54.000Z</time>
      </trkpt>
      <trkpt lat="46.41691" lon="5.86714">
        <ele>430.20001220703</ele>
        <time>2018-06-09T10:09:55.000Z</time>
      </trkpt>
      <trkpt lat="46.41692" lon="5.86707">
        <ele>430.60000610352</ele>
        <time>2018-06-09T10:09:58.000Z</time>
      </trkpt>
      <trkpt lat="46.41693" lon="5.86701">
        <ele>431</ele>
        <time>2018-06-09T10:10:02.000Z</time>
      </trkpt>
      <trkpt lat="46.41695" lon="5.86699">
        <ele>431.20001220703</ele>
        <time>2018-06-09T10:10:04.000Z</time>
      </trkpt>
      <trkpt lat="46.41699" lon="5.86691">
        <ele>432.20001220703</ele>
        <time>2018-06-09T10:10:10.000Z</time>
      </trkpt>
      <trkpt lat="46.41705" lon="5.86683">
        <ele>433</ele>
        <time>2018-06-09T10:10:15.000Z</time>
      </trkpt>
      <trkpt lat="46.41706" lon="5.86681">
        <ele>433.20001220703</ele>
        <time>2018-06-09T10:10:16.000Z</time>
      </trkpt>
      <trkpt lat="46.41712" lon="5.86675">
        <ele>434</ele>
        <time>2018-06-09T10:10:21.000Z</time>
      </trkpt>
      <trkpt lat="46.41712" lon="5.86673">
        <ele>434.20001220703</ele>
        <time>2018-06-09T10:10:22.000Z</time>
      </trkpt>
      <trkpt lat="46.41719" lon="5.86662">
        <ele>435.39999389648</ele>
        <time>2018-06-09T10:10:30.000Z</time>
      </trkpt>
      <trkpt lat="46.4172" lon="5.86661">
        <ele>435.60000610352</ele>
        <time>2018-06-09T10:10:31.000Z</time>
      </trkpt>
      <trkpt lat="46.41723" lon="5.86657">
        <ele>436</ele>
        <time>2018-06-09T10:10:34.000Z</time>
      </trkpt>
      <trkpt lat="46.41726" lon="5.86655">
        <ele>436.20001220703</ele>
        <time>2018-06-09T10:10:36.000Z</time>
      </trkpt>
      <trkpt lat="46.41726" lon="5.86654">
        <ele>436.39999389648</ele>
        <time>2018-06-09T10:10:37.000Z</time>
      </trkpt>
      <trkpt lat="46.41729" lon="5.86647">
        <ele>437.60000610352</ele>
        <time>2018-06-09T10:10:42.000Z</time>
      </trkpt>
      <trkpt lat="46.41731" lon="5.86637">
        <ele>438.79998779297</ele>
        <time>2018-06-09T10:10:49.000Z</time>
      </trkpt>
      <trkpt lat="46.41735" lon="5.86635">
        <ele>439.39999389648</ele>
        <time>2018-06-09T10:10:52.000Z</time>
      </trkpt>
      <trkpt lat="46.41738" lon="5.8663">
        <ele>440</ele>
        <time>2018-06-09T10:10:56.000Z</time>
      </trkpt>
      <trkpt lat="46.41739" lon="5.86628">
        <ele>440.39999389648</ele>
        <time>2018-06-09T10:10:57.000Z</time>
      </trkpt>
      <trkpt lat="46.41745" lon="5.86623">
        <ele>441.39999389648</ele>
        <time>2018-06-09T10:11:01.000Z</time>
      </trkpt>
      <trkpt lat="46.41752" lon="5.86614">
        <ele>442.39999389648</ele>
        <time>2018-06-09T10:11:08.000Z</time>
      </trkpt>
      <trkpt lat="46.41755" lon="5.86609">
        <ele>443.60000610352</ele>
        <time>2018-06-09T10:11:12.000Z</time>
      </trkpt>
      <trkpt lat="46.41758" lon="5.86604">
        <ele>444.79998779297</ele>
        <time>2018-06-09T10:11:18.000Z</time>
      </trkpt>
      <trkpt lat="46.41758" lon="5.86598">
        <ele>445.79998779297</ele>
        <time>2018-06-09T10:11:22.000Z</time>
      </trkpt>
      <trkpt lat="46.4176" lon="5.86592">
        <ele>447</ele>
        <time>2018-06-09T10:11:28.000Z</time>
      </trkpt>
      <trkpt lat="46.41775" lon="5.86576">
        <ele>446.60000610352</ele>
        <time>2018-06-09T10:11:43.000Z</time>
      </trkpt>
      <trkpt lat="46.4178" lon="5.86571">
        <ele>445.79998779297</ele>
        <time>2018-06-09T10:11:45.000Z</time>
      </trkpt>
      <trkpt lat="46.41787" lon="5.86563">
        <ele>444.20001220703</ele>
        <time>2018-06-09T10:11:48.000Z</time>
      </trkpt>
      <trkpt lat="46.41792" lon="5.8656">
        <ele>442.39999389648</ele>
        <time>2018-06-09T10:11:50.000Z</time>
      </trkpt>
      <trkpt lat="46.41801" lon="5.86557">
        <ele>440.60000610352</ele>
        <time>2018-06-09T10:11:52.000Z</time>
      </trkpt>
      <trkpt lat="46.41805" lon="5.86554">
        <ele>439.60000610352</ele>
        <time>2018-06-09T10:11:53.000Z</time>
      </trkpt>
      <trkpt lat="46.41811" lon="5.8655">
        <ele>438.39999389648</ele>
        <time>2018-06-09T10:11:54.000Z</time>
      </trkpt>
      <trkpt lat="46.41823" lon="5.86541">
        <ele>437</ele>
        <time>2018-06-09T10:11:56.000Z</time>
      </trkpt>
      <trkpt lat="46.41843" lon="5.86526">
        <ele>436</ele>
        <time>2018-06-09T10:11:59.000Z</time>
      </trkpt>
      <trkpt lat="46.41867" lon="5.86516">
        <ele>437.39999389648</ele>
        <time>2018-06-09T10:12:04.000Z</time>
      </trkpt>
      <trkpt lat="46.41878" lon="5.86514">
        <ele>438.39999389648</ele>
        <time>2018-06-09T10:12:06.000Z</time>
      </trkpt>
      <trkpt lat="46.41881" lon="5.86512">
        <ele>438.60000610352</ele>
        <time>2018-06-09T10:12:07.000Z</time>
      </trkpt>
      <trkpt lat="46.41892" lon="5.86505">
        <ele>440</ele>
        <time>2018-06-09T10:12:11.000Z</time>
      </trkpt>
      <trkpt lat="46.41895" lon="5.86503">
        <ele>440.20001220703</ele>
        <time>2018-06-09T10:12:13.000Z</time>
      </trkpt>
      <trkpt lat="46.41908" lon="5.86492">
        <ele>441.20001220703</ele>
        <time>2018-06-09T10:12:19.000Z</time>
      </trkpt>
      <trkpt lat="46.41916" lon="5.86484">
        <ele>442.20001220703</ele>
        <time>2018-06-09T10:12:25.000Z</time>
      </trkpt>
      <trkpt lat="46.41922" lon="5.86475">
        <ele>443.39999389648</ele>
        <time>2018-06-09T10:12:30.000Z</time>
      </trkpt>
      <trkpt lat="46.41926" lon="5.86465">
        <ele>444.39999389648</ele>
        <time>2018-06-09T10:12:36.000Z</time>
      </trkpt>
      <trkpt lat="46.4193" lon="5.86459">
        <ele>445.60000610352</ele>
        <time>2018-06-09T10:12:40.000Z</time>
      </trkpt>
      <trkpt lat="46.41934" lon="5.86455">
        <ele>446.79998779297</ele>
        <time>2018-06-09T10:12:44.000Z</time>
      </trkpt>
      <trkpt lat="46.41939" lon="5.86451">
        <ele>448</ele>
        <time>2018-06-09T10:12:49.000Z</time>
      </trkpt>
      <trkpt lat="46.41942" lon="5.86447">
        <ele>449</ele>
        <time>2018-06-09T10:12:53.000Z</time>
      </trkpt>
      <trkpt lat="46.41945" lon="5.86445">
        <ele>449.39999389648</ele>
        <time>2018-06-09T10:12:55.000Z</time>
      </trkpt>
      <trkpt lat="46.41947" lon="5.86441">
        <ele>450.20001220703</ele>
        <time>2018-06-09T10:12:58.000Z</time>
      </trkpt>
      <trkpt lat="46.41951" lon="5.86437">
        <ele>451.20001220703</ele>
        <time>2018-06-09T10:13:02.000Z</time>
      </trkpt>
      <trkpt lat="46.41955" lon="5.86435">
        <ele>452.39999389648</ele>
        <time>2018-06-09T10:13:06.000Z</time>
      </trkpt>
      <trkpt lat="46.41961" lon="5.86429">
        <ele>453.39999389648</ele>
        <time>2018-06-09T10:13:12.000Z</time>
      </trkpt>
      <trkpt lat="46.41966" lon="5.86423">
        <ele>454.20001220703</ele>
        <time>2018-06-09T10:13:18.000Z</time>
      </trkpt>
      <trkpt lat="46.41968" lon="5.86422">
        <ele>454.60000610352</ele>
        <time>2018-06-09T10:13:19.000Z</time>
      </trkpt>
      <trkpt lat="46.41969" lon="5.86421">
        <ele>454.79998779297</ele>
        <time>2018-06-09T10:13:20.000Z</time>
      </trkpt>
      <trkpt lat="46.41975" lon="5.86415">
        <ele>455.60000610352</ele>
        <time>2018-06-09T10:13:26.000Z</time>
      </trkpt>
      <trkpt lat="46.41987" lon="5.86399">
        <ele>456.60000610352</ele>
        <time>2018-06-09T10:13:38.000Z</time>
      </trkpt>
      <trkpt lat="46.41993" lon="5.86393">
        <ele>457</ele>
        <time>2018-06-09T10:13:43.000Z</time>
      </trkpt>
      <trkpt lat="46.41999" lon="5.86386">
        <ele>457.39999389648</ele>
        <time>2018-06-09T10:13:48.000Z</time>
      </trkpt>
      <trkpt lat="46.42005" lon="5.86381">
        <ele>457.39999389648</ele>
        <time>2018-06-09T10:13:52.000Z</time>
      </trkpt>
      <trkpt lat="46.42015" lon="5.86373">
        <ele>457.39999389648</ele>
        <time>2018-06-09T10:14:00.000Z</time>
      </trkpt>
      <trkpt lat="46.42027" lon="5.86359">
        <ele>457.79998779297</ele>
        <time>2018-06-09T10:14:09.000Z</time>
      </trkpt>
      <trkpt lat="46.42031" lon="5.86357">
        <ele>457.79998779297</ele>
        <time>2018-06-09T10:14:11.000Z</time>
      </trkpt>
      <trkpt lat="46.42086" lon="5.86344">
        <ele>458.79998779297</ele>
        <time>2018-06-09T10:14:33.000Z</time>
      </trkpt>
      <trkpt lat="46.4213" lon="5.86335">
        <ele>459.79998779297</ele>
        <time>2018-06-09T10:14:52.000Z</time>
      </trkpt>
      <trkpt lat="46.42155" lon="5.86326">
        <ele>460.79998779297</ele>
        <time>2018-06-09T10:15:03.000Z</time>
      </trkpt>
      <trkpt lat="46.42207" lon="5.86308">
        <ele>461.79998779297</ele>
        <time>2018-06-09T10:15:25.000Z</time>
      </trkpt>
      <trkpt lat="46.42247" lon="5.86263">
        <ele>461</ele>
        <time>2018-06-09T10:15:51.000Z</time>
      </trkpt>
      <trkpt lat="46.42246" lon="5.8626">
        <ele>461</ele>
        <time>2018-06-09T10:15:53.000Z</time>
      </trkpt>
      <trkpt lat="46.42247" lon="5.86255">
        <ele>461</ele>
        <time>2018-06-09T10:15:56.000Z</time>
      </trkpt>
      <trkpt lat="46.42255" lon="5.8626">
        <ele>461</ele>
        <time>2018-06-09T10:17:37.000Z</time>
      </trkpt>
      <trkpt lat="46.42251" lon="5.86262">
        <ele>461</ele>
        <time>2018-06-09T10:18:30.000Z</time>
      </trkpt>
      <trkpt lat="46.42254" lon="5.8626">
        <ele>461.39999389648</ele>
        <time>2018-06-09T10:18:33.000Z</time>
      </trkpt>
      <trkpt lat="46.42263" lon="5.86258">
        <ele>461.20001220703</ele>
        <time>2018-06-09T10:19:41.000Z</time>
      </trkpt>
      <trkpt lat="46.42263" lon="5.86257">
        <ele>461.20001220703</ele>
        <time>2018-06-09T10:20:06.000Z</time>
      </trkpt>
      <trkpt lat="46.42258" lon="5.86262">
        <ele>461.20001220703</ele>
        <time>2018-06-09T10:23:49.000Z</time>
      </trkpt>
      <trkpt lat="46.42247" lon="5.8626">
        <ele>461</ele>
        <time>2018-06-09T10:27:10.000Z</time>
      </trkpt>
      <trkpt lat="46.42249" lon="5.86271">
        <ele>460.79998779297</ele>
        <time>2018-06-09T10:27:40.000Z</time>
      </trkpt>
      <trkpt lat="46.42246" lon="5.86273">
        <ele>460.79998779297</ele>
        <time>2018-06-09T10:27:43.000Z</time>
      </trkpt>
      <trkpt lat="46.42198" lon="5.86308">
        <ele>461.39999389648</ele>
        <time>2018-06-09T10:28:14.000Z</time>
      </trkpt>
      <trkpt lat="46.4218" lon="5.86311">
        <ele>461.60000610352</ele>
        <time>2018-06-09T10:28:23.000Z</time>
      </trkpt>
      <trkpt lat="46.42178" lon="5.86306">
        <ele>461.60000610352</ele>
        <time>2018-06-09T10:28:25.000Z</time>
      </trkpt>
      <trkpt lat="46.42185" lon="5.86291">
        <ele>462</ele>
        <time>2018-06-09T10:28:31.000Z</time>
      </trkpt>
      <trkpt lat="46.42204" lon="5.86261">
        <ele>463</ele>
        <time>2018-06-09T10:28:45.000Z</time>
      </trkpt>
      <trkpt lat="46.42218" lon="5.86241">
        <ele>464</ele>
        <time>2018-06-09T10:28:54.000Z</time>
      </trkpt>
      <trkpt lat="46.42235" lon="5.86218">
        <ele>465.20001220703</ele>
        <time>2018-06-09T10:29:05.000Z</time>
      </trkpt>
      <trkpt lat="46.4225" lon="5.86196">
        <ele>465.39999389648</ele>
        <time>2018-06-09T10:29:14.000Z</time>
      </trkpt>
      <trkpt lat="46.42269" lon="5.86177">
        <ele>465.60000610352</ele>
        <time>2018-06-09T10:29:23.000Z</time>
      </trkpt>
      <trkpt lat="46.4232" lon="5.86144">
        <ele>466</ele>
        <time>2018-06-09T10:29:42.000Z</time>
      </trkpt>
      <trkpt lat="46.42326" lon="5.86142">
        <ele>466.20001220703</ele>
        <time>2018-06-09T10:29:44.000Z</time>
      </trkpt>
      <trkpt lat="46.42366" lon="5.86134">
        <ele>467.20001220703</ele>
        <time>2018-06-09T10:29:58.000Z</time>
      </trkpt>
      <trkpt lat="46.42422" lon="5.86121">
        <ele>467</ele>
        <time>2018-06-09T10:30:15.000Z</time>
      </trkpt>
      <trkpt lat="46.42438" lon="5.86123">
        <ele>466.60000610352</ele>
        <time>2018-06-09T10:30:19.000Z</time>
      </trkpt>
      <trkpt lat="46.42447" lon="5.86127">
        <ele>466</ele>
        <time>2018-06-09T10:30:21.000Z</time>
      </trkpt>
      <trkpt lat="46.42468" lon="5.86137">
        <ele>465.20001220703</ele>
        <time>2018-06-09T10:30:25.000Z</time>
      </trkpt>
      <trkpt lat="46.42474" lon="5.86141">
        <ele>465</ele>
        <time>2018-06-09T10:30:26.000Z</time>
      </trkpt>
      <trkpt lat="46.42491" lon="5.86151">
        <ele>463.79998779297</ele>
        <time>2018-06-09T10:30:29.000Z</time>
      </trkpt>
      <trkpt lat="46.42541" lon="5.86187">
        <ele>462.60000610352</ele>
        <time>2018-06-09T10:30:38.000Z</time>
      </trkpt>
      <trkpt lat="46.42558" lon="5.86198">
        <ele>461.39999389648</ele>
        <time>2018-06-09T10:30:41.000Z</time>
      </trkpt>
      <trkpt lat="46.42564" lon="5.862">
        <ele>461.20001220703</ele>
        <time>2018-06-09T10:30:42.000Z</time>
      </trkpt>
      <trkpt lat="46.4258" lon="5.862">
        <ele>460.60000610352</ele>
        <time>2018-06-09T10:30:45.000Z</time>
      </trkpt>
      <trkpt lat="46.42633" lon="5.86182">
        <ele>460.39999389648</ele>
        <time>2018-06-09T10:30:57.000Z</time>
      </trkpt>
      <trkpt lat="46.42678" lon="5.86207">
        <ele>459.20001220703</ele>
        <time>2018-06-09T10:31:06.000Z</time>
      </trkpt>
      <trkpt lat="46.42697" lon="5.86216">
        <ele>458</ele>
        <time>2018-06-09T10:31:09.000Z</time>
      </trkpt>
      <trkpt lat="46.42712" lon="5.86218">
        <ele>456.20001220703</ele>
        <time>2018-06-09T10:31:11.000Z</time>
      </trkpt>
      <trkpt lat="46.4273" lon="5.86219">
        <ele>454.39999389648</ele>
        <time>2018-06-09T10:31:13.000Z</time>
      </trkpt>
      <trkpt lat="46.42747" lon="5.86223">
        <ele>452.60000610352</ele>
        <time>2018-06-09T10:31:15.000Z</time>
      </trkpt>
      <trkpt lat="46.42764" lon="5.86228">
        <ele>450.60000610352</ele>
        <time>2018-06-09T10:31:17.000Z</time>
      </trkpt>
      <trkpt lat="46.42782" lon="5.86234">
        <ele>449.39999389648</ele>
        <time>2018-06-09T10:31:19.000Z</time>
      </trkpt>
      <trkpt lat="46.42801" lon="5.86241">
        <ele>448</ele>
        <time>2018-06-09T10:31:21.000Z</time>
      </trkpt>
      <trkpt lat="46.42821" lon="5.86249">
        <ele>446.79998779297</ele>
        <time>2018-06-09T10:31:23.000Z</time>
      </trkpt>
      <trkpt lat="46.4284" lon="5.86259">
        <ele>445.60000610352</ele>
        <time>2018-06-09T10:31:25.000Z</time>
      </trkpt>
      <trkpt lat="46.42848" lon="5.86266">
        <ele>445</ele>
        <time>2018-06-09T10:31:26.000Z</time>
      </trkpt>
      <trkpt lat="46.42857" lon="5.86274">
        <ele>444.39999389648</ele>
        <time>2018-06-09T10:31:27.000Z</time>
      </trkpt>
      <trkpt lat="46.42881" lon="5.86299">
        <ele>443</ele>
        <time>2018-06-09T10:31:30.000Z</time>
      </trkpt>
      <trkpt lat="46.42897" lon="5.86318">
        <ele>441.20001220703</ele>
        <time>2018-06-09T10:31:32.000Z</time>
      </trkpt>
      <trkpt lat="46.42913" lon="5.86337">
        <ele>439.39999389648</ele>
        <time>2018-06-09T10:31:34.000Z</time>
      </trkpt>
      <trkpt lat="46.42932" lon="5.86366">
        <ele>438.39999389648</ele>
        <time>2018-06-09T10:31:37.000Z</time>
      </trkpt>
      <trkpt lat="46.42959" lon="5.86395">
        <ele>440</ele>
        <time>2018-06-09T10:31:42.000Z</time>
      </trkpt>
      <trkpt lat="46.42967" lon="5.86405">
        <ele>441.20001220703</ele>
        <time>2018-06-09T10:31:44.000Z</time>
      </trkpt>
      <trkpt lat="46.42973" lon="5.86415">
        <ele>442.39999389648</ele>
        <time>2018-06-09T10:31:46.000Z</time>
      </trkpt>
      <trkpt lat="46.42984" lon="5.86425">
        <ele>443.79998779297</ele>
        <time>2018-06-09T10:31:49.000Z</time>
      </trkpt>
      <trkpt lat="46.42996" lon="5.86432">
        <ele>445</ele>
        <time>2018-06-09T10:31:53.000Z</time>
      </trkpt>
      <trkpt lat="46.43" lon="5.86434">
        <ele>445.60000610352</ele>
        <time>2018-06-09T10:31:55.000Z</time>
      </trkpt>
      <trkpt lat="46.43007" lon="5.86437">
        <ele>446.20001220703</ele>
        <time>2018-06-09T10:31:58.000Z</time>
      </trkpt>
      <trkpt lat="46.43062" lon="5.86439">
        <ele>445.60000610352</ele>
        <time>2018-06-09T10:32:11.000Z</time>
      </trkpt>
      <trkpt lat="46.43098" lon="5.86443">
        <ele>445</ele>
        <time>2018-06-09T10:32:18.000Z</time>
      </trkpt>
      <trkpt lat="46.43132" lon="5.86434">
        <ele>444.20001220703</ele>
        <time>2018-06-09T10:32:25.000Z</time>
      </trkpt>
      <trkpt lat="46.43172" lon="5.86426">
        <ele>444.39999389648</ele>
        <time>2018-06-09T10:32:33.000Z</time>
      </trkpt>
      <trkpt lat="46.43186" lon="5.86417">
        <ele>443.60000610352</ele>
        <time>2018-06-09T10:32:36.000Z</time>
      </trkpt>
      <trkpt lat="46.4319" lon="5.86413">
        <ele>443.20001220703</ele>
        <time>2018-06-09T10:32:37.000Z</time>
      </trkpt>
      <trkpt lat="46.43198" lon="5.86405">
        <ele>442.60000610352</ele>
        <time>2018-06-09T10:32:39.000Z</time>
      </trkpt>
      <trkpt lat="46.43239" lon="5.86399">
        <ele>441.39999389648</ele>
        <time>2018-06-09T10:32:45.000Z</time>
      </trkpt>
      <trkpt lat="46.43262" lon="5.86402">
        <ele>440</ele>
        <time>2018-06-09T10:32:48.000Z</time>
      </trkpt>
      <trkpt lat="46.43297" lon="5.86413">
        <ele>439</ele>
        <time>2018-06-09T10:32:53.000Z</time>
      </trkpt>
      <trkpt lat="46.43303" lon="5.86417">
        <ele>439</ele>
        <time>2018-06-09T10:32:54.000Z</time>
      </trkpt>
      <trkpt lat="46.43322" lon="5.86431">
        <ele>439</ele>
        <time>2018-06-09T10:32:57.000Z</time>
      </trkpt>
      <trkpt lat="46.43348" lon="5.86452">
        <ele>437.60000610352</ele>
        <time>2018-06-09T10:33:01.000Z</time>
      </trkpt>
      <trkpt lat="46.43362" lon="5.86473">
        <ele>436.79998779297</ele>
        <time>2018-06-09T10:33:04.000Z</time>
      </trkpt>
      <trkpt lat="46.43367" lon="5.86489">
        <ele>436.79998779297</ele>
        <time>2018-06-09T10:33:06.000Z</time>
      </trkpt>
      <trkpt lat="46.43369" lon="5.86496">
        <ele>436.60000610352</ele>
        <time>2018-06-09T10:33:07.000Z</time>
      </trkpt>
      <trkpt lat="46.43371" lon="5.86503">
        <ele>436.60000610352</ele>
        <time>2018-06-09T10:33:08.000Z</time>
      </trkpt>
      <trkpt lat="46.43387" lon="5.86521">
        <ele>436.79998779297</ele>
        <time>2018-06-09T10:33:12.000Z</time>
      </trkpt>
      <trkpt lat="46.43397" lon="5.86523">
        <ele>437</ele>
        <time>2018-06-09T10:33:14.000Z</time>
      </trkpt>
      <trkpt lat="46.4341" lon="5.86523">
        <ele>438</ele>
        <time>2018-06-09T10:33:17.000Z</time>
      </trkpt>
      <trkpt lat="46.43421" lon="5.86523">
        <ele>439</ele>
        <time>2018-06-09T10:33:20.000Z</time>
      </trkpt>
      <trkpt lat="46.43436" lon="5.86525">
        <ele>440</ele>
        <time>2018-06-09T10:33:27.000Z</time>
      </trkpt>
      <trkpt lat="46.43447" lon="5.86516">
        <ele>440.79998779297</ele>
        <time>2018-06-09T10:33:33.000Z</time>
      </trkpt>
      <trkpt lat="46.43448" lon="5.86513">
        <ele>441.20001220703</ele>
        <time>2018-06-09T10:33:34.000Z</time>
      </trkpt>
      <trkpt lat="46.4345" lon="5.865">
        <ele>442.39999389648</ele>
        <time>2018-06-09T10:33:40.000Z</time>
      </trkpt>
      <trkpt lat="46.4345" lon="5.86496">
        <ele>442.39999389648</ele>
        <time>2018-06-09T10:33:43.000Z</time>
      </trkpt>
      <trkpt lat="46.43449" lon="5.86492">
        <ele>442.60000610352</ele>
        <time>2018-06-09T10:33:45.000Z</time>
      </trkpt>
      <trkpt lat="46.43448" lon="5.86486">
        <ele>443.20001220703</ele>
        <time>2018-06-09T10:33:49.000Z</time>
      </trkpt>
      <trkpt lat="46.43448" lon="5.86485">
        <ele>443.39999389648</ele>
        <time>2018-06-09T10:33:50.000Z</time>
      </trkpt>
      <trkpt lat="46.43447" lon="5.86483">
        <ele>443.79998779297</ele>
        <time>2018-06-09T10:33:51.000Z</time>
      </trkpt>
      <trkpt lat="46.43447" lon="5.86473">
        <ele>444.79998779297</ele>
        <time>2018-06-09T10:33:56.000Z</time>
      </trkpt>
      <trkpt lat="46.4344" lon="5.8646">
        <ele>445.79998779297</ele>
        <time>2018-06-09T10:34:09.000Z</time>
      </trkpt>
      <trkpt lat="46.43437" lon="5.86454">
        <ele>446.79998779297</ele>
        <time>2018-06-09T10:34:15.000Z</time>
      </trkpt>
      <trkpt lat="46.43437" lon="5.86446">
        <ele>447.79998779297</ele>
        <time>2018-06-09T10:34:21.000Z</time>
      </trkpt>
      <trkpt lat="46.43438" lon="5.86438">
        <ele>449</ele>
        <time>2018-06-09T10:34:28.000Z</time>
      </trkpt>
      <trkpt lat="46.43438" lon="5.86428">
        <ele>449.79998779297</ele>
        <time>2018-06-09T10:34:35.000Z</time>
      </trkpt>
      <trkpt lat="46.43438" lon="5.86427">
        <ele>450</ele>
        <time>2018-06-09T10:34:36.000Z</time>
      </trkpt>
      <trkpt lat="46.43438" lon="5.86423">
        <ele>451</ele>
        <time>2018-06-09T10:34:40.000Z</time>
      </trkpt>
      <trkpt lat="46.43442" lon="5.86422">
        <ele>452.20001220703</ele>
        <time>2018-06-09T10:34:48.000Z</time>
      </trkpt>
      <trkpt lat="46.43445" lon="5.86425">
        <ele>452.60000610352</ele>
        <time>2018-06-09T10:34:51.000Z</time>
      </trkpt>
      <trkpt lat="46.43449" lon="5.86429">
        <ele>453.20001220703</ele>
        <time>2018-06-09T10:34:58.000Z</time>
      </trkpt>
      <trkpt lat="46.43451" lon="5.86431">
        <ele>454.39999389648</ele>
        <time>2018-06-09T10:35:03.000Z</time>
      </trkpt>
      <trkpt lat="46.43456" lon="5.86429">
        <ele>455.39999389648</ele>
        <time>2018-06-09T10:35:09.000Z</time>
      </trkpt>
      <trkpt lat="46.43457" lon="5.8643">
        <ele>455.60000610352</ele>
        <time>2018-06-09T10:35:11.000Z</time>
      </trkpt>
      <trkpt lat="46.43461" lon="5.86432">
        <ele>456.39999389648</ele>
        <time>2018-06-09T10:35:16.000Z</time>
      </trkpt>
      <trkpt lat="46.43463" lon="5.86434">
        <ele>457.39999389648</ele>
        <time>2018-06-09T10:35:21.000Z</time>
      </trkpt>
      <trkpt lat="46.43464" lon="5.86435">
        <ele>457.60000610352</ele>
        <time>2018-06-09T10:35:23.000Z</time>
      </trkpt>
      <trkpt lat="46.43471" lon="5.86438">
        <ele>458.39999389648</ele>
        <time>2018-06-09T10:35:30.000Z</time>
      </trkpt>
      <trkpt lat="46.43477" lon="5.86441">
        <ele>459.60000610352</ele>
        <time>2018-06-09T10:35:35.000Z</time>
      </trkpt>
      <trkpt lat="46.43484" lon="5.86446">
        <ele>460.39999389648</ele>
        <time>2018-06-09T10:35:42.000Z</time>
      </trkpt>
      <trkpt lat="46.43486" lon="5.86449">
        <ele>460.60000610352</ele>
        <time>2018-06-09T10:35:45.000Z</time>
      </trkpt>
      <trkpt lat="46.43486" lon="5.86457">
        <ele>462</ele>
        <time>2018-06-09T10:35:51.000Z</time>
      </trkpt>
      <trkpt lat="46.43489" lon="5.86459">
        <ele>463.20001220703</ele>
        <time>2018-06-09T10:35:57.000Z</time>
      </trkpt>
      <trkpt lat="46.43497" lon="5.86463">
        <ele>464.20001220703</ele>
        <time>2018-06-09T10:36:06.000Z</time>
      </trkpt>
      <trkpt lat="46.43502" lon="5.86466">
        <ele>465</ele>
        <time>2018-06-09T10:36:11.000Z</time>
      </trkpt>
      <trkpt lat="46.43504" lon="5.86468">
        <ele>465.39999389648</ele>
        <time>2018-06-09T10:36:13.000Z</time>
      </trkpt>
      <trkpt lat="46.43512" lon="5.86472">
        <ele>466.60000610352</ele>
        <time>2018-06-09T10:36:22.000Z</time>
      </trkpt>
      <trkpt lat="46.43515" lon="5.86476">
        <ele>467.60000610352</ele>
        <time>2018-06-09T10:36:28.000Z</time>
      </trkpt>
      <trkpt lat="46.43517" lon="5.86478">
        <ele>467.79998779297</ele>
        <time>2018-06-09T10:36:31.000Z</time>
      </trkpt>
      <trkpt lat="46.43521" lon="5.86479">
        <ele>468.20001220703</ele>
        <time>2018-06-09T10:36:34.000Z</time>
      </trkpt>
      <trkpt lat="46.43524" lon="5.86481">
        <ele>468.79998779297</ele>
        <time>2018-06-09T10:36:37.000Z</time>
      </trkpt>
      <trkpt lat="46.43527" lon="5.86484">
        <ele>469.79998779297</ele>
        <time>2018-06-09T10:36:43.000Z</time>
      </trkpt>
      <trkpt lat="46.43528" lon="5.86484">
        <ele>470</ele>
        <time>2018-06-09T10:36:44.000Z</time>
      </trkpt>
      <trkpt lat="46.43533" lon="5.86484">
        <ele>470.60000610352</ele>
        <time>2018-06-09T10:36:48.000Z</time>
      </trkpt>
      <trkpt lat="46.43534" lon="5.86484">
        <ele>470.79998779297</ele>
        <time>2018-06-09T10:36:49.000Z</time>
      </trkpt>
      <trkpt lat="46.43533" lon="5.8648">
        <ele>472</ele>
        <time>2018-06-09T10:36:56.000Z</time>
      </trkpt>
      <trkpt lat="46.4353" lon="5.86471">
        <ele>473</ele>
        <time>2018-06-09T10:37:03.000Z</time>
      </trkpt>
      <trkpt lat="46.43528" lon="5.86464">
        <ele>474.20001220703</ele>
        <time>2018-06-09T10:37:10.000Z</time>
      </trkpt>
      <trkpt lat="46.43526" lon="5.86456">
        <ele>475.39999389648</ele>
        <time>2018-06-09T10:37:17.000Z</time>
      </trkpt>
      <trkpt lat="46.43521" lon="5.8645">
        <ele>476.39999389648</ele>
        <time>2018-06-09T10:37:25.000Z</time>
      </trkpt>
      <trkpt lat="46.43517" lon="5.86438">
        <ele>477.39999389648</ele>
        <time>2018-06-09T10:37:36.000Z</time>
      </trkpt>
      <trkpt lat="46.43515" lon="5.86434">
        <ele>478</ele>
        <time>2018-06-09T10:37:39.000Z</time>
      </trkpt>
      <trkpt lat="46.43515" lon="5.86432">
        <ele>478.60000610352</ele>
        <time>2018-06-09T10:37:42.000Z</time>
      </trkpt>
      <trkpt lat="46.43511" lon="5.86424">
        <ele>479.60000610352</ele>
        <time>2018-06-09T10:37:49.000Z</time>
      </trkpt>
      <trkpt lat="46.43506" lon="5.86414">
        <ele>480.79998779297</ele>
        <time>2018-06-09T10:37:58.000Z</time>
      </trkpt>
      <trkpt lat="46.43505" lon="5.86412">
        <ele>480.79998779297</ele>
        <time>2018-06-09T10:37:59.000Z</time>
      </trkpt>
      <trkpt lat="46.43504" lon="5.86405">
        <ele>481.79998779297</ele>
        <time>2018-06-09T10:38:05.000Z</time>
      </trkpt>
      <trkpt lat="46.43499" lon="5.86391">
        <ele>482.79998779297</ele>
        <time>2018-06-09T10:38:15.000Z</time>
      </trkpt>
      <trkpt lat="46.43496" lon="5.86384">
        <ele>483.79998779297</ele>
        <time>2018-06-09T10:38:23.000Z</time>
      </trkpt>
      <trkpt lat="46.43491" lon="5.86373">
        <ele>485</ele>
        <time>2018-06-09T10:38:32.000Z</time>
      </trkpt>
      <trkpt lat="46.43488" lon="5.86367">
        <ele>486</ele>
        <time>2018-06-09T10:38:39.000Z</time>
      </trkpt>
      <trkpt lat="46.43487" lon="5.86359">
        <ele>487.20001220703</ele>
        <time>2018-06-09T10:38:46.000Z</time>
      </trkpt>
      <trkpt lat="46.4348" lon="5.86353">
        <ele>488.20001220703</ele>
        <time>2018-06-09T10:38:53.000Z</time>
      </trkpt>
      <trkpt lat="46.43479" lon="5.86344">
        <ele>489.39999389648</ele>
        <time>2018-06-09T10:39:01.000Z</time>
      </trkpt>
      <trkpt lat="46.43484" lon="5.86339">
        <ele>490.39999389648</ele>
        <time>2018-06-09T10:39:08.000Z</time>
      </trkpt>
      <trkpt lat="46.4349" lon="5.86336">
        <ele>491.20001220703</ele>
        <time>2018-06-09T10:39:13.000Z</time>
      </trkpt>
      <trkpt lat="46.43493" lon="5.86335">
        <ele>491.60000610352</ele>
        <time>2018-06-09T10:39:15.000Z</time>
      </trkpt>
      <trkpt lat="46.43494" lon="5.86336">
        <ele>491.79998779297</ele>
        <time>2018-06-09T10:39:16.000Z</time>
      </trkpt>
      <trkpt lat="46.43496" lon="5.86342">
        <ele>492.79998779297</ele>
        <time>2018-06-09T10:39:25.000Z</time>
      </trkpt>
      <trkpt lat="46.43501" lon="5.86343">
        <ele>493.60000610352</ele>
        <time>2018-06-09T10:39:31.000Z</time>
      </trkpt>
      <trkpt lat="46.43502" lon="5.86343">
        <ele>493.79998779297</ele>
        <time>2018-06-09T10:39:32.000Z</time>
      </trkpt>
      <trkpt lat="46.43507" lon="5.86345">
        <ele>494.79998779297</ele>
        <time>2018-06-09T10:39:41.000Z</time>
      </trkpt>
      <trkpt lat="46.4351" lon="5.86354">
        <ele>496</ele>
        <time>2018-06-09T10:39:49.000Z</time>
      </trkpt>
      <trkpt lat="46.43512" lon="5.86357">
        <ele>496.20001220703</ele>
        <time>2018-06-09T10:39:51.000Z</time>
      </trkpt>
      <trkpt lat="46.43516" lon="5.86361">
        <ele>497</ele>
        <time>2018-06-09T10:39:55.000Z</time>
      </trkpt>
      <trkpt lat="46.43522" lon="5.86363">
        <ele>498</ele>
        <time>2018-06-09T10:40:02.000Z</time>
      </trkpt>
      <trkpt lat="46.43527" lon="5.86367">
        <ele>499</ele>
        <time>2018-06-09T10:40:09.000Z</time>
      </trkpt>
      <trkpt lat="46.43531" lon="5.86371">
        <ele>500.20001220703</ele>
        <time>2018-06-09T10:40:16.000Z</time>
      </trkpt>
      <trkpt lat="46.43537" lon="5.86372">
        <ele>501.20001220703</ele>
        <time>2018-06-09T10:40:23.000Z</time>
      </trkpt>
      <trkpt lat="46.43542" lon="5.86376">
        <ele>502.39999389648</ele>
        <time>2018-06-09T10:40:31.000Z</time>
      </trkpt>
      <trkpt lat="46.43545" lon="5.86376">
        <ele>502.60000610352</ele>
        <time>2018-06-09T10:40:33.000Z</time>
      </trkpt>
      <trkpt lat="46.43549" lon="5.86377">
        <ele>503</ele>
        <time>2018-06-09T10:40:36.000Z</time>
      </trkpt>
      <trkpt lat="46.43551" lon="5.86377">
        <ele>503.39999389648</ele>
        <time>2018-06-09T10:40:39.000Z</time>
      </trkpt>
      <trkpt lat="46.43556" lon="5.8638">
        <ele>504.60000610352</ele>
        <time>2018-06-09T10:40:47.000Z</time>
      </trkpt>
      <trkpt lat="46.43559" lon="5.86388">
        <ele>505.60000610352</ele>
        <time>2018-06-09T10:40:55.000Z</time>
      </trkpt>
      <trkpt lat="46.43566" lon="5.86391">
        <ele>506.60000610352</ele>
        <time>2018-06-09T10:41:03.000Z</time>
      </trkpt>
      <trkpt lat="46.43569" lon="5.86394">
        <ele>507</ele>
        <time>2018-06-09T10:41:07.000Z</time>
      </trkpt>
      <trkpt lat="46.43572" lon="5.86397">
        <ele>507.39999389648</ele>
        <time>2018-06-09T10:41:10.000Z</time>
      </trkpt>
      <trkpt lat="46.43575" lon="5.86397">
        <ele>507.60000610352</ele>
        <time>2018-06-09T10:41:12.000Z</time>
      </trkpt>
      <trkpt lat="46.43578" lon="5.864">
        <ele>508.60000610352</ele>
        <time>2018-06-09T10:41:18.000Z</time>
      </trkpt>
      <trkpt lat="46.43586" lon="5.86403">
        <ele>509.60000610352</ele>
        <time>2018-06-09T10:41:27.000Z</time>
      </trkpt>
      <trkpt lat="46.4359" lon="5.86405">
        <ele>510.79998779297</ele>
        <time>2018-06-09T10:41:35.000Z</time>
      </trkpt>
      <trkpt lat="46.43593" lon="5.86405">
        <ele>511.20001220703</ele>
        <time>2018-06-09T10:41:37.000Z</time>
      </trkpt>
      <trkpt lat="46.43598" lon="5.86404">
        <ele>512</ele>
        <time>2018-06-09T10:41:42.000Z</time>
      </trkpt>
      <trkpt lat="46.43602" lon="5.86406">
        <ele>513</ele>
        <time>2018-06-09T10:41:48.000Z</time>
      </trkpt>
      <trkpt lat="46.43607" lon="5.86408">
        <ele>513.40002441406</ele>
        <time>2018-06-09T10:41:52.000Z</time>
      </trkpt>
      <trkpt lat="46.43611" lon="5.8641">
        <ele>514.20001220703</ele>
        <time>2018-06-09T10:41:58.000Z</time>
      </trkpt>
      <trkpt lat="46.43612" lon="5.86416">
        <ele>515.20001220703</ele>
        <time>2018-06-09T10:42:05.000Z</time>
      </trkpt>
      <trkpt lat="46.43614" lon="5.86417">
        <ele>515.59997558594</ele>
        <time>2018-06-09T10:42:07.000Z</time>
      </trkpt>
      <trkpt lat="46.43619" lon="5.86418">
        <ele>516.20001220703</ele>
        <time>2018-06-09T10:42:13.000Z</time>
      </trkpt>
      <trkpt lat="46.43621" lon="5.8642">
        <ele>517.40002441406</ele>
        <time>2018-06-09T10:42:19.000Z</time>
      </trkpt>
      <trkpt lat="46.43624" lon="5.86418">
        <ele>518.40002441406</ele>
        <time>2018-06-09T10:42:25.000Z</time>
      </trkpt>
      <trkpt lat="46.43628" lon="5.86414">
        <ele>519.59997558594</ele>
        <time>2018-06-09T10:42:31.000Z</time>
      </trkpt>
      <trkpt lat="46.43635" lon="5.86417">
        <ele>520.59997558594</ele>
        <time>2018-06-09T10:42:38.000Z</time>
      </trkpt>
      <trkpt lat="46.43641" lon="5.86416">
        <ele>521.59997558594</ele>
        <time>2018-06-09T10:42:46.000Z</time>
      </trkpt>
      <trkpt lat="46.43644" lon="5.86416">
        <ele>522.40002441406</ele>
        <time>2018-06-09T10:42:52.000Z</time>
      </trkpt>
      <trkpt lat="46.43644" lon="5.86417">
        <ele>522.59997558594</ele>
        <time>2018-06-09T10:42:54.000Z</time>
      </trkpt>
      <trkpt lat="46.43654" lon="5.86411">
        <ele>523.59997558594</ele>
        <time>2018-06-09T10:43:02.000Z</time>
      </trkpt>
      <trkpt lat="46.43659" lon="5.86403">
        <ele>524.79998779297</ele>
        <time>2018-06-09T10:43:10.000Z</time>
      </trkpt>
      <trkpt lat="46.43657" lon="5.86403">
        <ele>525.59997558594</ele>
        <time>2018-06-09T10:43:16.000Z</time>
      </trkpt>
      <trkpt lat="46.43656" lon="5.86404">
        <ele>525.79998779297</ele>
        <time>2018-06-09T10:43:17.000Z</time>
      </trkpt>
      <trkpt lat="46.43652" lon="5.86405">
        <ele>526.79998779297</ele>
        <time>2018-06-09T10:43:22.000Z</time>
      </trkpt>
      <trkpt lat="46.43647" lon="5.86405">
        <ele>528</ele>
        <time>2018-06-09T10:43:30.000Z</time>
      </trkpt>
      <trkpt lat="46.43646" lon="5.86405">
        <ele>528</ele>
        <time>2018-06-09T10:43:31.000Z</time>
      </trkpt>
      <trkpt lat="46.43637" lon="5.86404">
        <ele>528.59997558594</ele>
        <time>2018-06-09T10:43:38.000Z</time>
      </trkpt>
      <trkpt lat="46.43634" lon="5.86404">
        <ele>529</ele>
        <time>2018-06-09T10:43:40.000Z</time>
      </trkpt>
      <trkpt lat="46.43629" lon="5.864">
        <ele>530</ele>
        <time>2018-06-09T10:43:47.000Z</time>
      </trkpt>
      <trkpt lat="46.43628" lon="5.864">
        <ele>530</ele>
        <time>2018-06-09T10:43:48.000Z</time>
      </trkpt>
      <trkpt lat="46.43619" lon="5.864">
        <ele>530.59997558594</ele>
        <time>2018-06-09T10:43:54.000Z</time>
      </trkpt>
      <trkpt lat="46.43616" lon="5.86398">
        <ele>531</ele>
        <time>2018-06-09T10:43:56.000Z</time>
      </trkpt>
      <trkpt lat="46.43615" lon="5.86398">
        <ele>531</ele>
        <time>2018-06-09T10:43:57.000Z</time>
      </trkpt>
      <trkpt lat="46.4361" lon="5.86393">
        <ele>531.59997558594</ele>
        <time>2018-06-09T10:44:02.000Z</time>
      </trkpt>
      <trkpt lat="46.43609" lon="5.8639">
        <ele>531.79998779297</ele>
        <time>2018-06-09T10:44:04.000Z</time>
      </trkpt>
      <trkpt lat="46.43609" lon="5.86389">
        <ele>532</ele>
        <time>2018-06-09T10:44:05.000Z</time>
      </trkpt>
      <trkpt lat="46.43607" lon="5.86385">
        <ele>532.40002441406</ele>
        <time>2018-06-09T10:44:07.000Z</time>
      </trkpt>
      <trkpt lat="46.43602" lon="5.86383">
        <ele>533.20001220703</ele>
        <time>2018-06-09T10:44:11.000Z</time>
      </trkpt>
      <trkpt lat="46.436" lon="5.86374">
        <ele>534.20001220703</ele>
        <time>2018-06-09T10:44:19.000Z</time>
      </trkpt>
      <trkpt lat="46.436" lon="5.86364">
        <ele>534.79998779297</ele>
        <time>2018-06-09T10:44:25.000Z</time>
      </trkpt>
      <trkpt lat="46.43595" lon="5.8636">
        <ele>535.20001220703</ele>
        <time>2018-06-09T10:44:30.000Z</time>
      </trkpt>
      <trkpt lat="46.43594" lon="5.86355">
        <ele>536.40002441406</ele>
        <time>2018-06-09T10:44:36.000Z</time>
      </trkpt>
      <trkpt lat="46.43588" lon="5.86349">
        <ele>537.40002441406</ele>
        <time>2018-06-09T10:44:42.000Z</time>
      </trkpt>
      <trkpt lat="46.43589" lon="5.86346">
        <ele>537.59997558594</ele>
        <time>2018-06-09T10:44:44.000Z</time>
      </trkpt>
      <trkpt lat="46.43592" lon="5.86337">
        <ele>538.40002441406</ele>
        <time>2018-06-09T10:44:49.000Z</time>
      </trkpt>
      <trkpt lat="46.43591" lon="5.86334">
        <ele>538.59997558594</ele>
        <time>2018-06-09T10:44:51.000Z</time>
      </trkpt>
      <trkpt lat="46.4359" lon="5.86333">
        <ele>538.79998779297</ele>
        <time>2018-06-09T10:44:52.000Z</time>
      </trkpt>
      <trkpt lat="46.43589" lon="5.86324">
        <ele>539.79998779297</ele>
        <time>2018-06-09T10:44:59.000Z</time>
      </trkpt>
      <trkpt lat="46.43587" lon="5.86316">
        <ele>540.79998779297</ele>
        <time>2018-06-09T10:45:06.000Z</time>
      </trkpt>
      <trkpt lat="46.43583" lon="5.8631">
        <ele>542</ele>
        <time>2018-06-09T10:45:13.000Z</time>
      </trkpt>
      <trkpt lat="46.43584" lon="5.863">
        <ele>543</ele>
        <time>2018-06-09T10:45:21.000Z</time>
      </trkpt>
      <trkpt lat="46.43582" lon="5.86289">
        <ele>544.20001220703</ele>
        <time>2018-06-09T10:45:28.000Z</time>
      </trkpt>
      <trkpt lat="46.43581" lon="5.86284">
        <ele>545.20001220703</ele>
        <time>2018-06-09T10:45:35.000Z</time>
      </trkpt>
      <trkpt lat="46.43579" lon="5.86275">
        <ele>546.20001220703</ele>
        <time>2018-06-09T10:45:42.000Z</time>
      </trkpt>
      <trkpt lat="46.43578" lon="5.86273">
        <ele>546.40002441406</ele>
        <time>2018-06-09T10:45:44.000Z</time>
      </trkpt>
      <trkpt lat="46.43578" lon="5.86265">
        <ele>547.20001220703</ele>
        <time>2018-06-09T10:45:50.000Z</time>
      </trkpt>
      <trkpt lat="46.43577" lon="5.86257">
        <ele>548.20001220703</ele>
        <time>2018-06-09T10:45:57.000Z</time>
      </trkpt>
      <trkpt lat="46.43577" lon="5.86249">
        <ele>549.40002441406</ele>
        <time>2018-06-09T10:46:05.000Z</time>
      </trkpt>
      <trkpt lat="46.43578" lon="5.8624">
        <ele>550.59997558594</ele>
        <time>2018-06-09T10:46:13.000Z</time>
      </trkpt>
      <trkpt lat="46.43577" lon="5.86234">
        <ele>551.59997558594</ele>
        <time>2018-06-09T10:46:19.000Z</time>
      </trkpt>
      <trkpt lat="46.43577" lon="5.86232">
        <ele>551.59997558594</ele>
        <time>2018-06-09T10:46:20.000Z</time>
      </trkpt>
      <trkpt lat="46.43578" lon="5.86224">
        <ele>552.59997558594</ele>
        <time>2018-06-09T10:46:26.000Z</time>
      </trkpt>
      <trkpt lat="46.43579" lon="5.86221">
        <ele>553</ele>
        <time>2018-06-09T10:46:29.000Z</time>
      </trkpt>
      <trkpt lat="46.43578" lon="5.86216">
        <ele>553.40002441406</ele>
        <time>2018-06-09T10:46:33.000Z</time>
      </trkpt>
      <trkpt lat="46.43578" lon="5.86211">
        <ele>553.59997558594</ele>
        <time>2018-06-09T10:46:36.000Z</time>
      </trkpt>
      <trkpt lat="46.43578" lon="5.86204">
        <ele>554.59997558594</ele>
        <time>2018-06-09T10:46:43.000Z</time>
      </trkpt>
      <trkpt lat="46.43579" lon="5.86198">
        <ele>555.20001220703</ele>
        <time>2018-06-09T10:46:47.000Z</time>
      </trkpt>
      <trkpt lat="46.43581" lon="5.86194">
        <ele>555.79998779297</ele>
        <time>2018-06-09T10:46:50.000Z</time>
      </trkpt>
      <trkpt lat="46.43584" lon="5.86194">
        <ele>556.79998779297</ele>
        <time>2018-06-09T10:46:56.000Z</time>
      </trkpt>
      <trkpt lat="46.43586" lon="5.86194">
        <ele>557</ele>
        <time>2018-06-09T10:47:08.000Z</time>
      </trkpt>
      <trkpt lat="46.43593" lon="5.86187">
        <ele>558</ele>
        <time>2018-06-09T10:47:21.000Z</time>
      </trkpt>
      <trkpt lat="46.43595" lon="5.86182">
        <ele>559</ele>
        <time>2018-06-09T10:47:26.000Z</time>
      </trkpt>
      <trkpt lat="46.43592" lon="5.8617">
        <ele>560.20001220703</ele>
        <time>2018-06-09T10:47:34.000Z</time>
      </trkpt>
      <trkpt lat="46.43592" lon="5.86165">
        <ele>560.79998779297</ele>
        <time>2018-06-09T10:47:38.000Z</time>
      </trkpt>
      <trkpt lat="46.43592" lon="5.86161">
        <ele>561.20001220703</ele>
        <time>2018-06-09T10:47:40.000Z</time>
      </trkpt>
      <trkpt lat="46.43591" lon="5.86158">
        <ele>561.59997558594</ele>
        <time>2018-06-09T10:47:42.000Z</time>
      </trkpt>
      <trkpt lat="46.4359" lon="5.8615">
        <ele>562.40002441406</ele>
        <time>2018-06-09T10:47:48.000Z</time>
      </trkpt>
      <trkpt lat="46.43589" lon="5.86138">
        <ele>563.40002441406</ele>
        <time>2018-06-09T10:47:56.000Z</time>
      </trkpt>
      <trkpt lat="46.4359" lon="5.86133">
        <ele>564.59997558594</ele>
        <time>2018-06-09T10:48:04.000Z</time>
      </trkpt>
      <trkpt lat="46.43593" lon="5.86128">
        <ele>565.79998779297</ele>
        <time>2018-06-09T10:48:10.000Z</time>
      </trkpt>
      <trkpt lat="46.43597" lon="5.86123">
        <ele>566.79998779297</ele>
        <time>2018-06-09T10:48:16.000Z</time>
      </trkpt>
      <trkpt lat="46.43603" lon="5.86121">
        <ele>567.79998779297</ele>
        <time>2018-06-09T10:48:21.000Z</time>
      </trkpt>
      <trkpt lat="46.4361" lon="5.86119">
        <ele>569</ele>
        <time>2018-06-09T10:48:29.000Z</time>
      </trkpt>
      <trkpt lat="46.43614" lon="5.86115">
        <ele>570</ele>
        <time>2018-06-09T10:48:35.000Z</time>
      </trkpt>
      <trkpt lat="46.43621" lon="5.8611">
        <ele>571</ele>
        <time>2018-06-09T10:48:43.000Z</time>
      </trkpt>
      <trkpt lat="46.43625" lon="5.86105">
        <ele>572.20001220703</ele>
        <time>2018-06-09T10:48:49.000Z</time>
      </trkpt>
      <trkpt lat="46.43628" lon="5.86099">
        <ele>573.20001220703</ele>
        <time>2018-06-09T10:48:56.000Z</time>
      </trkpt>
      <trkpt lat="46.43628" lon="5.86096">
        <ele>573.59997558594</ele>
        <time>2018-06-09T10:48:58.000Z</time>
      </trkpt>
      <trkpt lat="46.43621" lon="5.86093">
        <ele>574.20001220703</ele>
        <time>2018-06-09T10:49:05.000Z</time>
      </trkpt>
      <trkpt lat="46.43619" lon="5.86096">
        <ele>575.40002441406</ele>
        <time>2018-06-09T10:49:10.000Z</time>
      </trkpt>
      <trkpt lat="46.43612" lon="5.861">
        <ele>576.40002441406</ele>
        <time>2018-06-09T10:49:18.000Z</time>
      </trkpt>
      <trkpt lat="46.43605" lon="5.86102">
        <ele>577.59997558594</ele>
        <time>2018-06-09T10:49:26.000Z</time>
      </trkpt>
      <trkpt lat="46.43596" lon="5.86102">
        <ele>578.59997558594</ele>
        <time>2018-06-09T10:49:34.000Z</time>
      </trkpt>
      <trkpt lat="46.43591" lon="5.861">
        <ele>579.79998779297</ele>
        <time>2018-06-09T10:49:41.000Z</time>
      </trkpt>
      <trkpt lat="46.43581" lon="5.86093">
        <ele>580.79998779297</ele>
        <time>2018-06-09T10:49:51.000Z</time>
      </trkpt>
      <trkpt lat="46.43579" lon="5.86086">
        <ele>582</ele>
        <time>2018-06-09T10:49:59.000Z</time>
      </trkpt>
      <trkpt lat="46.43579" lon="5.86078">
        <ele>583</ele>
        <time>2018-06-09T10:50:07.000Z</time>
      </trkpt>
      <trkpt lat="46.43581" lon="5.86069">
        <ele>584.20001220703</ele>
        <time>2018-06-09T10:50:14.000Z</time>
      </trkpt>
      <trkpt lat="46.43583" lon="5.86064">
        <ele>585.40002441406</ele>
        <time>2018-06-09T10:50:22.000Z</time>
      </trkpt>
      <trkpt lat="46.43588" lon="5.86058">
        <ele>586.20001220703</ele>
        <time>2018-06-09T10:50:29.000Z</time>
      </trkpt>
      <trkpt lat="46.43589" lon="5.86058">
        <ele>586.40002441406</ele>
        <time>2018-06-09T10:50:30.000Z</time>
      </trkpt>
      <trkpt lat="46.4359" lon="5.86057">
        <ele>586.59997558594</ele>
        <time>2018-06-09T10:50:31.000Z</time>
      </trkpt>
      <trkpt lat="46.43599" lon="5.86052">
        <ele>587.59997558594</ele>
        <time>2018-06-09T10:50:39.000Z</time>
      </trkpt>
      <trkpt lat="46.43603" lon="5.86048">
        <ele>588</ele>
        <time>2018-06-09T10:50:44.000Z</time>
      </trkpt>
      <trkpt lat="46.43606" lon="5.86045">
        <ele>588.79998779297</ele>
        <time>2018-06-09T10:50:48.000Z</time>
      </trkpt>
      <trkpt lat="46.43606" lon="5.86036">
        <ele>589.79998779297</ele>
        <time>2018-06-09T10:50:58.000Z</time>
      </trkpt>
      <trkpt lat="46.43606" lon="5.86028">
        <ele>590.59997558594</ele>
        <time>2018-06-09T10:51:03.000Z</time>
      </trkpt>
      <trkpt lat="46.43605" lon="5.86025">
        <ele>591</ele>
        <time>2018-06-09T10:51:05.000Z</time>
      </trkpt>
      <trkpt lat="46.43601" lon="5.86019">
        <ele>592</ele>
        <time>2018-06-09T10:51:12.000Z</time>
      </trkpt>
      <trkpt lat="46.43595" lon="5.86015">
        <ele>592.79998779297</ele>
        <time>2018-06-09T10:51:18.000Z</time>
      </trkpt>
      <trkpt lat="46.43595" lon="5.86013">
        <ele>593</ele>
        <time>2018-06-09T10:51:20.000Z</time>
      </trkpt>
      <trkpt lat="46.43595" lon="5.86006">
        <ele>594</ele>
        <time>2018-06-09T10:51:29.000Z</time>
      </trkpt>
      <trkpt lat="46.43591" lon="5.86003">
        <ele>595</ele>
        <time>2018-06-09T10:51:37.000Z</time>
      </trkpt>
      <trkpt lat="46.43586" lon="5.85997">
        <ele>596.20001220703</ele>
        <time>2018-06-09T10:51:44.000Z</time>
      </trkpt>
      <trkpt lat="46.43584" lon="5.85991">
        <ele>597.20001220703</ele>
        <time>2018-06-09T10:51:50.000Z</time>
      </trkpt>
      <trkpt lat="46.43584" lon="5.85988">
        <ele>597.40002441406</ele>
        <time>2018-06-09T10:51:52.000Z</time>
      </trkpt>
      <trkpt lat="46.43585" lon="5.85984">
        <ele>597.59997558594</ele>
        <time>2018-06-09T10:51:54.000Z</time>
      </trkpt>
      <trkpt lat="46.43587" lon="5.85981">
        <ele>598.20001220703</ele>
        <time>2018-06-09T10:51:57.000Z</time>
      </trkpt>
      <trkpt lat="46.4359" lon="5.85968">
        <ele>599.40002441406</ele>
        <time>2018-06-09T10:52:07.000Z</time>
      </trkpt>
      <trkpt lat="46.43599" lon="5.85963">
        <ele>600.40002441406</ele>
        <time>2018-06-09T10:52:18.000Z</time>
      </trkpt>
      <trkpt lat="46.436" lon="5.85962">
        <ele>600.40002441406</ele>
        <time>2018-06-09T10:52:19.000Z</time>
      </trkpt>
      <trkpt lat="46.43602" lon="5.85961">
        <ele>600.59997558594</ele>
        <time>2018-06-09T10:52:20.000Z</time>
      </trkpt>
      <trkpt lat="46.43608" lon="5.85958">
        <ele>601.59997558594</ele>
        <time>2018-06-09T10:52:24.000Z</time>
      </trkpt>
      <trkpt lat="46.4361" lon="5.85956">
        <ele>602.40002441406</ele>
        <time>2018-06-09T10:52:28.000Z</time>
      </trkpt>
      <trkpt lat="46.43611" lon="5.85951">
        <ele>602.59997558594</ele>
        <time>2018-06-09T10:52:30.000Z</time>
      </trkpt>
      <trkpt lat="46.43612" lon="5.8595">
        <ele>602.59997558594</ele>
        <time>2018-06-09T10:52:31.000Z</time>
      </trkpt>
      <trkpt lat="46.43616" lon="5.8594">
        <ele>603.79998779297</ele>
        <time>2018-06-09T10:52:39.000Z</time>
      </trkpt>
      <trkpt lat="46.43619" lon="5.85931">
        <ele>605</ele>
        <time>2018-06-09T10:52:56.000Z</time>
      </trkpt>
      <trkpt lat="46.43623" lon="5.85926">
        <ele>606</ele>
        <time>2018-06-09T10:53:04.000Z</time>
      </trkpt>
      <trkpt lat="46.43624" lon="5.85925">
        <ele>606.20001220703</ele>
        <time>2018-06-09T10:53:05.000Z</time>
      </trkpt>
      <trkpt lat="46.43628" lon="5.85919">
        <ele>607</ele>
        <time>2018-06-09T10:53:11.000Z</time>
      </trkpt>
      <trkpt lat="46.43629" lon="5.85914">
        <ele>608</ele>
        <time>2018-06-09T10:53:17.000Z</time>
      </trkpt>
      <trkpt lat="46.43633" lon="5.8591">
        <ele>609.20001220703</ele>
        <time>2018-06-09T10:53:23.000Z</time>
      </trkpt>
      <trkpt lat="46.43634" lon="5.85906">
        <ele>610.40002441406</ele>
        <time>2018-06-09T10:53:29.000Z</time>
      </trkpt>
      <trkpt lat="46.43636" lon="5.85902">
        <ele>611.40002441406</ele>
        <time>2018-06-09T10:53:34.000Z</time>
      </trkpt>
      <trkpt lat="46.43638" lon="5.85895">
        <ele>612.40002441406</ele>
        <time>2018-06-09T10:53:40.000Z</time>
      </trkpt>
      <trkpt lat="46.43637" lon="5.85891">
        <ele>613.40002441406</ele>
        <time>2018-06-09T10:53:48.000Z</time>
      </trkpt>
      <trkpt lat="46.43637" lon="5.85885">
        <ele>614.59997558594</ele>
        <time>2018-06-09T10:53:55.000Z</time>
      </trkpt>
      <trkpt lat="46.43638" lon="5.85881">
        <ele>615.79998779297</ele>
        <time>2018-06-09T10:54:01.000Z</time>
      </trkpt>
      <trkpt lat="46.4364" lon="5.85872">
        <ele>616.79998779297</ele>
        <time>2018-06-09T10:54:09.000Z</time>
      </trkpt>
      <trkpt lat="46.43641" lon="5.85865">
        <ele>617.79998779297</ele>
        <time>2018-06-09T10:54:15.000Z</time>
      </trkpt>
      <trkpt lat="46.4364" lon="5.85858">
        <ele>618.79998779297</ele>
        <time>2018-06-09T10:54:21.000Z</time>
      </trkpt>
      <trkpt lat="46.43641" lon="5.8585">
        <ele>620</ele>
        <time>2018-06-09T10:54:29.000Z</time>
      </trkpt>
      <trkpt lat="46.43641" lon="5.85845">
        <ele>621</ele>
        <time>2018-06-09T10:54:34.000Z</time>
      </trkpt>
      <trkpt lat="46.43642" lon="5.85836">
        <ele>622</ele>
        <time>2018-06-09T10:54:42.000Z</time>
      </trkpt>
      <trkpt lat="46.43641" lon="5.85831">
        <ele>623</ele>
        <time>2018-06-09T10:54:48.000Z</time>
      </trkpt>
      <trkpt lat="46.43637" lon="5.85827">
        <ele>624.20001220703</ele>
        <time>2018-06-09T10:54:54.000Z</time>
      </trkpt>
      <trkpt lat="46.43635" lon="5.85823">
        <ele>625.20001220703</ele>
        <time>2018-06-09T10:55:00.000Z</time>
      </trkpt>
      <trkpt lat="46.43633" lon="5.85816">
        <ele>626.40002441406</ele>
        <time>2018-06-09T10:55:06.000Z</time>
      </trkpt>
      <trkpt lat="46.43632" lon="5.85811">
        <ele>627.59997558594</ele>
        <time>2018-06-09T10:55:11.000Z</time>
      </trkpt>
      <trkpt lat="46.43631" lon="5.85805">
        <ele>628.59997558594</ele>
        <time>2018-06-09T10:55:17.000Z</time>
      </trkpt>
      <trkpt lat="46.43635" lon="5.85799">
        <ele>629.79998779297</ele>
        <time>2018-06-09T10:55:26.000Z</time>
      </trkpt>
      <trkpt lat="46.4364" lon="5.8579">
        <ele>630.79998779297</ele>
        <time>2018-06-09T10:55:35.000Z</time>
      </trkpt>
      <trkpt lat="46.4364" lon="5.85784">
        <ele>632</ele>
        <time>2018-06-09T10:55:42.000Z</time>
      </trkpt>
      <trkpt lat="46.43643" lon="5.85776">
        <ele>633</ele>
        <time>2018-06-09T10:55:49.000Z</time>
      </trkpt>
      <trkpt lat="46.43649" lon="5.85763">
        <ele>634</ele>
        <time>2018-06-09T10:56:04.000Z</time>
      </trkpt>
      <trkpt lat="46.43648" lon="5.85749">
        <ele>635.20001220703</ele>
        <time>2018-06-09T10:56:14.000Z</time>
      </trkpt>
      <trkpt lat="46.43652" lon="5.85743">
        <ele>636.20001220703</ele>
        <time>2018-06-09T10:56:20.000Z</time>
      </trkpt>
      <trkpt lat="46.43652" lon="5.85742">
        <ele>636.40002441406</ele>
        <time>2018-06-09T10:56:21.000Z</time>
      </trkpt>
      <trkpt lat="46.43653" lon="5.85739">
        <ele>636.59997558594</ele>
        <time>2018-06-09T10:56:23.000Z</time>
      </trkpt>
      <trkpt lat="46.43656" lon="5.85732">
        <ele>637.40002441406</ele>
        <time>2018-06-09T10:56:27.000Z</time>
      </trkpt>
      <trkpt lat="46.43657" lon="5.85725">
        <ele>638.40002441406</ele>
        <time>2018-06-09T10:56:34.000Z</time>
      </trkpt>
      <trkpt lat="46.43658" lon="5.85713">
        <ele>639.40002441406</ele>
        <time>2018-06-09T10:56:43.000Z</time>
      </trkpt>
      <trkpt lat="46.43659" lon="5.85705">
        <ele>640.40002441406</ele>
        <time>2018-06-09T10:56:49.000Z</time>
      </trkpt>
      <trkpt lat="46.43662" lon="5.857">
        <ele>641.59997558594</ele>
        <time>2018-06-09T10:56:55.000Z</time>
      </trkpt>
      <trkpt lat="46.43664" lon="5.8569">
        <ele>642.79998779297</ele>
        <time>2018-06-09T10:57:03.000Z</time>
      </trkpt>
      <trkpt lat="46.43664" lon="5.85684">
        <ele>643.79998779297</ele>
        <time>2018-06-09T10:57:09.000Z</time>
      </trkpt>
      <trkpt lat="46.4366" lon="5.85673">
        <ele>644.79998779297</ele>
        <time>2018-06-09T10:57:16.000Z</time>
      </trkpt>
      <trkpt lat="46.4366" lon="5.85665">
        <ele>646</ele>
        <time>2018-06-09T10:57:22.000Z</time>
      </trkpt>
      <trkpt lat="46.43661" lon="5.85664">
        <ele>646.20001220703</ele>
        <time>2018-06-09T10:57:23.000Z</time>
      </trkpt>
      <trkpt lat="46.43663" lon="5.85653">
        <ele>647</ele>
        <time>2018-06-09T10:57:31.000Z</time>
      </trkpt>
      <trkpt lat="46.43664" lon="5.85652">
        <ele>647.20001220703</ele>
        <time>2018-06-09T10:57:32.000Z</time>
      </trkpt>
      <trkpt lat="46.43668" lon="5.85644">
        <ele>648</ele>
        <time>2018-06-09T10:57:38.000Z</time>
      </trkpt>
      <trkpt lat="46.43673" lon="5.85634">
        <ele>648.79998779297</ele>
        <time>2018-06-09T10:57:45.000Z</time>
      </trkpt>
      <trkpt lat="46.43674" lon="5.85633">
        <ele>649.20001220703</ele>
        <time>2018-06-09T10:57:50.000Z</time>
      </trkpt>
      <trkpt lat="46.43679" lon="5.85632">
        <ele>650.20001220703</ele>
        <time>2018-06-09T10:57:57.000Z</time>
      </trkpt>
      <trkpt lat="46.43684" lon="5.85634">
        <ele>651.40002441406</ele>
        <time>2018-06-09T10:58:04.000Z</time>
      </trkpt>
      <trkpt lat="46.43687" lon="5.85635">
        <ele>652</ele>
        <time>2018-06-09T10:58:07.000Z</time>
      </trkpt>
      <trkpt lat="46.43691" lon="5.85636">
        <ele>652.59997558594</ele>
        <time>2018-06-09T10:58:10.000Z</time>
      </trkpt>
      <trkpt lat="46.43705" lon="5.85641">
        <ele>653.40002441406</ele>
        <time>2018-06-09T10:58:27.000Z</time>
      </trkpt>
      <trkpt lat="46.43706" lon="5.8564">
        <ele>653.59997558594</ele>
        <time>2018-06-09T10:58:28.000Z</time>
      </trkpt>
      <trkpt lat="46.43719" lon="5.85636">
        <ele>654.20001220703</ele>
        <time>2018-06-09T11:00:03.000Z</time>
      </trkpt>
      <trkpt lat="46.4372" lon="5.85631">
        <ele>655</ele>
        <time>2018-06-09T11:00:06.000Z</time>
      </trkpt>
      <trkpt lat="46.43724" lon="5.85628">
        <ele>656</ele>
        <time>2018-06-09T11:00:09.000Z</time>
      </trkpt>
      <trkpt lat="46.43728" lon="5.85622">
        <ele>656.20001220703</ele>
        <time>2018-06-09T11:00:13.000Z</time>
      </trkpt>
      <trkpt lat="46.43733" lon="5.85611">
        <ele>657.20001220703</ele>
        <time>2018-06-09T11:00:19.000Z</time>
      </trkpt>
      <trkpt lat="46.43736" lon="5.85603">
        <ele>658.20001220703</ele>
        <time>2018-06-09T11:00:24.000Z</time>
      </trkpt>
      <trkpt lat="46.43738" lon="5.85596">
        <ele>659.40002441406</ele>
        <time>2018-06-09T11:00:28.000Z</time>
      </trkpt>
      <trkpt lat="46.4374" lon="5.85592">
        <ele>659.79998779297</ele>
        <time>2018-06-09T11:00:30.000Z</time>
      </trkpt>
      <trkpt lat="46.43741" lon="5.85589">
        <ele>660.59997558594</ele>
        <time>2018-06-09T11:00:32.000Z</time>
      </trkpt>
      <trkpt lat="46.43744" lon="5.85583">
        <ele>661.59997558594</ele>
        <time>2018-06-09T11:00:36.000Z</time>
      </trkpt>
      <trkpt lat="46.43749" lon="5.85572">
        <ele>662.79998779297</ele>
        <time>2018-06-09T11:00:42.000Z</time>
      </trkpt>
      <trkpt lat="46.4375" lon="5.85565">
        <ele>663.40002441406</ele>
        <time>2018-06-09T11:00:45.000Z</time>
      </trkpt>
      <trkpt lat="46.43751" lon="5.85561">
        <ele>664</ele>
        <time>2018-06-09T11:00:47.000Z</time>
      </trkpt>
      <trkpt lat="46.43754" lon="5.85555">
        <ele>665</ele>
        <time>2018-06-09T11:00:51.000Z</time>
      </trkpt>
      <trkpt lat="46.4376" lon="5.85547">
        <ele>666.20001220703</ele>
        <time>2018-06-09T11:00:57.000Z</time>
      </trkpt>
      <trkpt lat="46.43764" lon="5.8554">
        <ele>667.20001220703</ele>
        <time>2018-06-09T11:01:02.000Z</time>
      </trkpt>
      <trkpt lat="46.43763" lon="5.85539">
        <ele>667.40002441406</ele>
        <time>2018-06-09T11:01:03.000Z</time>
      </trkpt>
      <trkpt lat="46.43761" lon="5.85534">
        <ele>668.40002441406</ele>
        <time>2018-06-09T11:01:06.000Z</time>
      </trkpt>
      <trkpt lat="46.4376" lon="5.85533">
        <ele>668.79998779297</ele>
        <time>2018-06-09T11:01:07.000Z</time>
      </trkpt>
      <trkpt lat="46.43755" lon="5.85526">
        <ele>669.59997558594</ele>
        <time>2018-06-09T11:01:13.000Z</time>
      </trkpt>
      <trkpt lat="46.43733" lon="5.85499">
        <ele>670.59997558594</ele>
        <time>2018-06-09T11:01:32.000Z</time>
      </trkpt>
      <trkpt lat="46.43733" lon="5.85497">
        <ele>670.59997558594</ele>
        <time>2018-06-09T11:01:33.000Z</time>
      </trkpt>
      <trkpt lat="46.43727" lon="5.85478">
        <ele>671.40002441406</ele>
        <time>2018-06-09T11:01:41.000Z</time>
      </trkpt>
      <trkpt lat="46.43704" lon="5.85441">
        <ele>671</ele>
        <time>2018-06-09T11:01:56.000Z</time>
      </trkpt>
      <trkpt lat="46.43716" lon="5.85422">
        <ele>671.59997558594</ele>
        <time>2018-06-09T11:02:04.000Z</time>
      </trkpt>
      <trkpt lat="46.43717" lon="5.85418">
        <ele>672.20001220703</ele>
        <time>2018-06-09T11:02:06.000Z</time>
      </trkpt>
      <trkpt lat="46.43696" lon="5.85398">
        <ele>672</ele>
        <time>2018-06-09T11:02:15.000Z</time>
      </trkpt>
      <trkpt lat="46.43688" lon="5.85395">
        <ele>671.79998779297</ele>
        <time>2018-06-09T11:02:17.000Z</time>
      </trkpt>
      <trkpt lat="46.43679" lon="5.85391">
        <ele>671.59997558594</ele>
        <time>2018-06-09T11:02:19.000Z</time>
      </trkpt>
      <trkpt lat="46.43674" lon="5.85362">
        <ele>672.79998779297</ele>
        <time>2018-06-09T11:02:28.000Z</time>
      </trkpt>
      <trkpt lat="46.43662" lon="5.85347">
        <ele>674</ele>
        <time>2018-06-09T11:02:36.000Z</time>
      </trkpt>
      <trkpt lat="46.43654" lon="5.8534">
        <ele>675</ele>
        <time>2018-06-09T11:02:41.000Z</time>
      </trkpt>
      <trkpt lat="46.4365" lon="5.85335">
        <ele>676</ele>
        <time>2018-06-09T11:02:46.000Z</time>
      </trkpt>
      <trkpt lat="46.43649" lon="5.85333">
        <ele>676</ele>
        <time>2018-06-09T11:02:47.000Z</time>
      </trkpt>
      <trkpt lat="46.43641" lon="5.85324">
        <ele>677.20001220703</ele>
        <time>2018-06-09T11:02:53.000Z</time>
      </trkpt>
      <trkpt lat="46.43632" lon="5.85305">
        <ele>678.20001220703</ele>
        <time>2018-06-09T11:03:01.000Z</time>
      </trkpt>
      <trkpt lat="46.43624" lon="5.85303">
        <ele>678.79998779297</ele>
        <time>2018-06-09T11:03:05.000Z</time>
      </trkpt>
      <trkpt lat="46.43614" lon="5.85301">
        <ele>679.40002441406</ele>
        <time>2018-06-09T11:03:09.000Z</time>
      </trkpt>
      <trkpt lat="46.436" lon="5.85299">
        <ele>680.40002441406</ele>
        <time>2018-06-09T11:03:17.000Z</time>
      </trkpt>
      <trkpt lat="46.43589" lon="5.853">
        <ele>681.40002441406</ele>
        <time>2018-06-09T11:03:24.000Z</time>
      </trkpt>
      <trkpt lat="46.4358" lon="5.85303">
        <ele>682.59997558594</ele>
        <time>2018-06-09T11:03:31.000Z</time>
      </trkpt>
      <trkpt lat="46.43572" lon="5.85301">
        <ele>683.59997558594</ele>
        <time>2018-06-09T11:03:38.000Z</time>
      </trkpt>
      <trkpt lat="46.43572" lon="5.85298">
        <ele>684.79998779297</ele>
        <time>2018-06-09T11:03:48.000Z</time>
      </trkpt>
      <trkpt lat="46.43572" lon="5.85298">
        <ele>684.59997558594</ele>
        <time>2018-06-09T11:04:07.000Z</time>
      </trkpt>
      <trkpt lat="46.43568" lon="5.85293">
        <ele>685.20001220703</ele>
        <time>2018-06-09T11:04:15.000Z</time>
      </trkpt>
      <trkpt lat="46.43564" lon="5.85289">
        <ele>685.20001220703</ele>
        <time>2018-06-09T11:04:18.000Z</time>
      </trkpt>
      <trkpt lat="46.43556" lon="5.85286">
        <ele>685.20001220703</ele>
        <time>2018-06-09T11:04:22.000Z</time>
      </trkpt>
      <trkpt lat="46.43509" lon="5.85249">
        <ele>684.59997558594</ele>
        <time>2018-06-09T11:04:43.000Z</time>
      </trkpt>
      <trkpt lat="46.43495" lon="5.85241">
        <ele>683.20001220703</ele>
        <time>2018-06-09T11:04:46.000Z</time>
      </trkpt>
      <trkpt lat="46.43484" lon="5.85236">
        <ele>682</ele>
        <time>2018-06-09T11:04:49.000Z</time>
      </trkpt>
      <trkpt lat="46.43431" lon="5.85217">
        <ele>682</ele>
        <time>2018-06-09T11:05:10.000Z</time>
      </trkpt>
      <trkpt lat="46.43424" lon="5.85215">
        <ele>682.59997558594</ele>
        <time>2018-06-09T11:05:15.000Z</time>
      </trkpt>
      <trkpt lat="46.43418" lon="5.85214">
        <ele>682.59997558594</ele>
        <time>2018-06-09T11:05:18.000Z</time>
      </trkpt>
      <trkpt lat="46.43409" lon="5.85214">
        <ele>683</ele>
        <time>2018-06-09T11:05:23.000Z</time>
      </trkpt>
      <trkpt lat="46.43398" lon="5.85216">
        <ele>683.20001220703</ele>
        <time>2018-06-09T11:05:28.000Z</time>
      </trkpt>
      <trkpt lat="46.43382" lon="5.85215">
        <ele>681.79998779297</ele>
        <time>2018-06-09T11:05:33.000Z</time>
      </trkpt>
      <trkpt lat="46.43374" lon="5.85219">
        <ele>680.20001220703</ele>
        <time>2018-06-09T11:05:35.000Z</time>
      </trkpt>
      <trkpt lat="46.43329" lon="5.85214">
        <ele>681.20001220703</ele>
        <time>2018-06-09T11:05:46.000Z</time>
      </trkpt>
      <trkpt lat="46.43316" lon="5.85202">
        <ele>682.20001220703</ele>
        <time>2018-06-09T11:05:52.000Z</time>
      </trkpt>
      <trkpt lat="46.43313" lon="5.85199">
        <ele>683.40002441406</ele>
        <time>2018-06-09T11:05:57.000Z</time>
      </trkpt>
      <trkpt lat="46.43311" lon="5.85199">
        <ele>684.59997558594</ele>
        <time>2018-06-09T11:06:03.000Z</time>
      </trkpt>
      <trkpt lat="46.43311" lon="5.85199">
        <ele>685.59997558594</ele>
        <time>2018-06-09T11:06:09.000Z</time>
      </trkpt>
      <trkpt lat="46.4331" lon="5.85199">
        <ele>686.79998779297</ele>
        <time>2018-06-09T11:06:15.000Z</time>
      </trkpt>
      <trkpt lat="46.4331" lon="5.85199">
        <ele>688</ele>
        <time>2018-06-09T11:06:23.000Z</time>
      </trkpt>
      <trkpt lat="46.43308" lon="5.85198">
        <ele>689</ele>
        <time>2018-06-09T11:06:32.000Z</time>
      </trkpt>
      <trkpt lat="46.43306" lon="5.85196">
        <ele>690.20001220703</ele>
        <time>2018-06-09T11:06:39.000Z</time>
      </trkpt>
      <trkpt lat="46.43306" lon="5.85195">
        <ele>691.20001220703</ele>
        <time>2018-06-09T11:06:45.000Z</time>
      </trkpt>
      <trkpt lat="46.43305" lon="5.85192">
        <ele>692.20001220703</ele>
        <time>2018-06-09T11:06:51.000Z</time>
      </trkpt>
      <trkpt lat="46.43296" lon="5.85174">
        <ele>693.20001220703</ele>
        <time>2018-06-09T11:07:01.000Z</time>
      </trkpt>
      <trkpt lat="46.43279" lon="5.85156">
        <ele>694.40002441406</ele>
        <time>2018-06-09T11:07:09.000Z</time>
      </trkpt>
      <trkpt lat="46.43272" lon="5.85146">
        <ele>695.20001220703</ele>
        <time>2018-06-09T11:07:16.000Z</time>
      </trkpt>
      <trkpt lat="46.4327" lon="5.85143">
        <ele>695.40002441406</ele>
        <time>2018-06-09T11:07:18.000Z</time>
      </trkpt>
      <trkpt lat="46.43267" lon="5.8514">
        <ele>695.59997558594</ele>
        <time>2018-06-09T11:07:20.000Z</time>
      </trkpt>
      <trkpt lat="46.43261" lon="5.85134">
        <ele>696.40002441406</ele>
        <time>2018-06-09T11:07:25.000Z</time>
      </trkpt>
      <trkpt lat="46.43259" lon="5.85132">
        <ele>697</ele>
        <time>2018-06-09T11:07:28.000Z</time>
      </trkpt>
      <trkpt lat="46.43256" lon="5.85132">
        <ele>697.40002441406</ele>
        <time>2018-06-09T11:07:30.000Z</time>
      </trkpt>
      <trkpt lat="46.43254" lon="5.85131">
        <ele>697.59997558594</ele>
        <time>2018-06-09T11:07:31.000Z</time>
      </trkpt>
      <trkpt lat="46.43253" lon="5.85131">
        <ele>697.79998779297</ele>
        <time>2018-06-09T11:07:34.000Z</time>
      </trkpt>
      <trkpt lat="46.4325" lon="5.85129">
        <ele>698.40002441406</ele>
        <time>2018-06-09T11:07:38.000Z</time>
      </trkpt>
      <trkpt lat="46.43248" lon="5.85131">
        <ele>699.59997558594</ele>
        <time>2018-06-09T11:07:46.000Z</time>
      </trkpt>
      <trkpt lat="46.43246" lon="5.85137">
        <ele>700.59997558594</ele>
        <time>2018-06-09T11:07:51.000Z</time>
      </trkpt>
      <trkpt lat="46.43245" lon="5.85142">
        <ele>701.59997558594</ele>
        <time>2018-06-09T11:07:58.000Z</time>
      </trkpt>
      <trkpt lat="46.43243" lon="5.85143">
        <ele>701.59997558594</ele>
        <time>2018-06-09T11:07:59.000Z</time>
      </trkpt>
      <trkpt lat="46.43244" lon="5.85144">
        <ele>701.79998779297</ele>
        <time>2018-06-09T11:08:00.000Z</time>
      </trkpt>
      <trkpt lat="46.43243" lon="5.85148">
        <ele>702.59997558594</ele>
        <time>2018-06-09T11:08:05.000Z</time>
      </trkpt>
      <trkpt lat="46.43231" lon="5.85154">
        <ele>703.79998779297</ele>
        <time>2018-06-09T11:08:16.000Z</time>
      </trkpt>
      <trkpt lat="46.43229" lon="5.85155">
        <ele>704</ele>
        <time>2018-06-09T11:08:17.000Z</time>
      </trkpt>
      <trkpt lat="46.43223" lon="5.85156">
        <ele>704.59997558594</ele>
        <time>2018-06-09T11:08:22.000Z</time>
      </trkpt>
      <trkpt lat="46.43219" lon="5.85155">
        <ele>704.79998779297</ele>
        <time>2018-06-09T11:08:24.000Z</time>
      </trkpt>
      <trkpt lat="46.43214" lon="5.85156">
        <ele>706</ele>
        <time>2018-06-09T11:08:33.000Z</time>
      </trkpt>
      <trkpt lat="46.43206" lon="5.85149">
        <ele>707</ele>
        <time>2018-06-09T11:08:46.000Z</time>
      </trkpt>
      <trkpt lat="46.43202" lon="5.85149">
        <ele>707.20001220703</ele>
        <time>2018-06-09T11:08:48.000Z</time>
      </trkpt>
      <trkpt lat="46.43194" lon="5.85144">
        <ele>708</ele>
        <time>2018-06-09T11:08:56.000Z</time>
      </trkpt>
      <trkpt lat="46.43184" lon="5.85142">
        <ele>709.20001220703</ele>
        <time>2018-06-09T11:09:04.000Z</time>
      </trkpt>
      <trkpt lat="46.43175" lon="5.85143">
        <ele>710.20001220703</ele>
        <time>2018-06-09T11:09:11.000Z</time>
      </trkpt>
      <trkpt lat="46.43173" lon="5.85136">
        <ele>711.40002441406</ele>
        <time>2018-06-09T11:09:16.000Z</time>
      </trkpt>
      <trkpt lat="46.43163" lon="5.85129">
        <ele>712.40002441406</ele>
        <time>2018-06-09T11:09:23.000Z</time>
      </trkpt>
      <trkpt lat="46.4316" lon="5.85129">
        <ele>713.20001220703</ele>
        <time>2018-06-09T11:09:28.000Z</time>
      </trkpt>
      <trkpt lat="46.43157" lon="5.85129">
        <ele>713.40002441406</ele>
        <time>2018-06-09T11:09:30.000Z</time>
      </trkpt>
      <trkpt lat="46.43156" lon="5.85128">
        <ele>713.59997558594</ele>
        <time>2018-06-09T11:09:31.000Z</time>
      </trkpt>
      <trkpt lat="46.4315" lon="5.85118">
        <ele>714.59997558594</ele>
        <time>2018-06-09T11:09:38.000Z</time>
      </trkpt>
      <trkpt lat="46.43144" lon="5.85102">
        <ele>715.40002441406</ele>
        <time>2018-06-09T11:09:46.000Z</time>
      </trkpt>
      <trkpt lat="46.4314" lon="5.85097">
        <ele>715.20001220703</ele>
        <time>2018-06-09T11:09:49.000Z</time>
      </trkpt>
      <trkpt lat="46.43137" lon="5.85091">
        <ele>715.20001220703</ele>
        <time>2018-06-09T11:09:51.000Z</time>
      </trkpt>
      <trkpt lat="46.43115" lon="5.85065">
        <ele>715.59997558594</ele>
        <time>2018-06-09T11:10:02.000Z</time>
      </trkpt>
      <trkpt lat="46.43115" lon="5.85063">
        <ele>715.79998779297</ele>
        <time>2018-06-09T11:10:03.000Z</time>
      </trkpt>
      <trkpt lat="46.4311" lon="5.85058">
        <ele>716</ele>
        <time>2018-06-09T11:10:07.000Z</time>
      </trkpt>
      <trkpt lat="46.431" lon="5.8505">
        <ele>716.40002441406</ele>
        <time>2018-06-09T11:10:13.000Z</time>
      </trkpt>
      <trkpt lat="46.43095" lon="5.85046">
        <ele>716.79998779297</ele>
        <time>2018-06-09T11:10:16.000Z</time>
      </trkpt>
      <trkpt lat="46.43074" lon="5.85033">
        <ele>717.79998779297</ele>
        <time>2018-06-09T11:10:29.000Z</time>
      </trkpt>
      <trkpt lat="46.43068" lon="5.85027">
        <ele>717.79998779297</ele>
        <time>2018-06-09T11:10:32.000Z</time>
      </trkpt>
      <trkpt lat="46.43062" lon="5.8502">
        <ele>717.79998779297</ele>
        <time>2018-06-09T11:10:34.000Z</time>
      </trkpt>
      <trkpt lat="46.43028" lon="5.84987">
        <ele>718.79998779297</ele>
        <time>2018-06-09T11:10:50.000Z</time>
      </trkpt>
      <trkpt lat="46.43027" lon="5.84985">
        <ele>718.79998779297</ele>
        <time>2018-06-09T11:10:51.000Z</time>
      </trkpt>
      <trkpt lat="46.43025" lon="5.84983">
        <ele>719</ele>
        <time>2018-06-09T11:10:52.000Z</time>
      </trkpt>
      <trkpt lat="46.43014" lon="5.84977">
        <ele>719.79998779297</ele>
        <time>2018-06-09T11:10:57.000Z</time>
      </trkpt>
      <trkpt lat="46.43008" lon="5.84971">
        <ele>720.40002441406</ele>
        <time>2018-06-09T11:11:00.000Z</time>
      </trkpt>
      <trkpt lat="46.43006" lon="5.84963">
        <ele>721</ele>
        <time>2018-06-09T11:11:03.000Z</time>
      </trkpt>
      <trkpt lat="46.43001" lon="5.84953">
        <ele>722</ele>
        <time>2018-06-09T11:11:09.000Z</time>
      </trkpt>
      <trkpt lat="46.42994" lon="5.84948">
        <ele>723</ele>
        <time>2018-06-09T11:11:13.000Z</time>
      </trkpt>
      <trkpt lat="46.42993" lon="5.84947">
        <ele>723</ele>
        <time>2018-06-09T11:11:14.000Z</time>
      </trkpt>
      <trkpt lat="46.42989" lon="5.84943">
        <ele>723.59997558594</ele>
        <time>2018-06-09T11:11:17.000Z</time>
      </trkpt>
      <trkpt lat="46.42982" lon="5.84936">
        <ele>724</ele>
        <time>2018-06-09T11:11:23.000Z</time>
      </trkpt>
      <trkpt lat="46.42978" lon="5.84935">
        <ele>724</ele>
        <time>2018-06-09T11:11:24.000Z</time>
      </trkpt>
      <trkpt lat="46.42973" lon="5.84929">
        <ele>725</ele>
        <time>2018-06-09T11:11:30.000Z</time>
      </trkpt>
      <trkpt lat="46.42972" lon="5.84928">
        <ele>725.20001220703</ele>
        <time>2018-06-09T11:11:31.000Z</time>
      </trkpt>
      <trkpt lat="46.42969" lon="5.84926">
        <ele>725.59997558594</ele>
        <time>2018-06-09T11:11:34.000Z</time>
      </trkpt>
      <trkpt lat="46.42962" lon="5.84925">
        <ele>726</ele>
        <time>2018-06-09T11:11:40.000Z</time>
      </trkpt>
      <trkpt lat="46.42959" lon="5.84924">
        <ele>726.40002441406</ele>
        <time>2018-06-09T11:11:42.000Z</time>
      </trkpt>
      <trkpt lat="46.42956" lon="5.84924">
        <ele>726.40002441406</ele>
        <time>2018-06-09T11:11:43.000Z</time>
      </trkpt>
      <trkpt lat="46.42953" lon="5.84924">
        <ele>727.20001220703</ele>
        <time>2018-06-09T11:11:46.000Z</time>
      </trkpt>
      <trkpt lat="46.42951" lon="5.84926">
        <ele>727.40002441406</ele>
        <time>2018-06-09T11:11:47.000Z</time>
      </trkpt>
      <trkpt lat="46.42946" lon="5.84929">
        <ele>727.79998779297</ele>
        <time>2018-06-09T11:11:49.000Z</time>
      </trkpt>
      <trkpt lat="46.42941" lon="5.84934">
        <ele>728.40002441406</ele>
        <time>2018-06-09T11:11:52.000Z</time>
      </trkpt>
      <trkpt lat="46.42934" lon="5.84949">
        <ele>729.20001220703</ele>
        <time>2018-06-09T11:11:59.000Z</time>
      </trkpt>
      <trkpt lat="46.42933" lon="5.84952">
        <ele>729.40002441406</ele>
        <time>2018-06-09T11:12:01.000Z</time>
      </trkpt>
      <trkpt lat="46.42932" lon="5.84955">
        <ele>729.59997558594</ele>
        <time>2018-06-09T11:12:02.000Z</time>
      </trkpt>
      <trkpt lat="46.42931" lon="5.84958">
        <ele>729.59997558594</ele>
        <time>2018-06-09T11:12:03.000Z</time>
      </trkpt>
      <trkpt lat="46.42917" lon="5.84981">
        <ele>729.40002441406</ele>
        <time>2018-06-09T11:12:13.000Z</time>
      </trkpt>
      <trkpt lat="46.4291" lon="5.84985">
        <ele>728.59997558594</ele>
        <time>2018-06-09T11:12:17.000Z</time>
      </trkpt>
      <trkpt lat="46.42908" lon="5.84986">
        <ele>728.40002441406</ele>
        <time>2018-06-09T11:12:18.000Z</time>
      </trkpt>
      <trkpt lat="46.42905" lon="5.84985">
        <ele>728</ele>
        <time>2018-06-09T11:12:19.000Z</time>
      </trkpt>
      <trkpt lat="46.42895" lon="5.84981">
        <ele>727.20001220703</ele>
        <time>2018-06-09T11:12:21.000Z</time>
      </trkpt>
      <trkpt lat="46.42888" lon="5.84976">
        <ele>726</ele>
        <time>2018-06-09T11:12:24.000Z</time>
      </trkpt>
      <trkpt lat="46.42886" lon="5.84977">
        <ele>725.79998779297</ele>
        <time>2018-06-09T11:12:25.000Z</time>
      </trkpt>
      <trkpt lat="46.42882" lon="5.84981">
        <ele>725.79998779297</ele>
        <time>2018-06-09T11:12:28.000Z</time>
      </trkpt>
      <trkpt lat="46.42874" lon="5.84989">
        <ele>725.79998779297</ele>
        <time>2018-06-09T11:12:31.000Z</time>
      </trkpt>
      <trkpt lat="46.42868" lon="5.84995">
        <ele>725.79998779297</ele>
        <time>2018-06-09T11:12:34.000Z</time>
      </trkpt>
      <trkpt lat="46.42866" lon="5.8501">
        <ele>726.40002441406</ele>
        <time>2018-06-09T11:12:41.000Z</time>
      </trkpt>
      <trkpt lat="46.42866" lon="5.85021">
        <ele>727</ele>
        <time>2018-06-09T11:12:46.000Z</time>
      </trkpt>
      <trkpt lat="46.42864" lon="5.85026">
        <ele>727.59997558594</ele>
        <time>2018-06-09T11:12:49.000Z</time>
      </trkpt>
      <trkpt lat="46.42863" lon="5.85027">
        <ele>728</ele>
        <time>2018-06-09T11:12:50.000Z</time>
      </trkpt>
      <trkpt lat="46.4286" lon="5.85031">
        <ele>729.20001220703</ele>
        <time>2018-06-09T11:12:53.000Z</time>
      </trkpt>
      <trkpt lat="46.4286" lon="5.8503">
        <ele>729.59997558594</ele>
        <time>2018-06-09T11:12:55.000Z</time>
      </trkpt>
      <trkpt lat="46.42854" lon="5.85035">
        <ele>730.20001220703</ele>
        <time>2018-06-09T11:13:00.000Z</time>
      </trkpt>
      <trkpt lat="46.42847" lon="5.85043">
        <ele>731.20001220703</ele>
        <time>2018-06-09T11:13:06.000Z</time>
      </trkpt>
      <trkpt lat="46.42846" lon="5.85043">
        <ele>731.40002441406</ele>
        <time>2018-06-09T11:13:07.000Z</time>
      </trkpt>
      <trkpt lat="46.42838" lon="5.85048">
        <ele>732.40002441406</ele>
        <time>2018-06-09T11:13:19.000Z</time>
      </trkpt>
      <trkpt lat="46.42826" lon="5.85046">
        <ele>733.40002441406</ele>
        <time>2018-06-09T11:13:43.000Z</time>
      </trkpt>
      <trkpt lat="46.4283" lon="5.85045">
        <ele>734.40002441406</ele>
        <time>2018-06-09T11:14:48.000Z</time>
      </trkpt>
      <trkpt lat="46.42821" lon="5.85044">
        <ele>735.40002441406</ele>
        <time>2018-06-09T11:14:59.000Z</time>
      </trkpt>
      <trkpt lat="46.42817" lon="5.85048">
        <ele>736.59997558594</ele>
        <time>2018-06-09T11:15:08.000Z</time>
      </trkpt>
      <trkpt lat="46.42815" lon="5.85049">
        <ele>737.59997558594</ele>
        <time>2018-06-09T11:15:16.000Z</time>
      </trkpt>
      <trkpt lat="46.42809" lon="5.85051">
        <ele>738.59997558594</ele>
        <time>2018-06-09T11:15:23.000Z</time>
      </trkpt>
      <trkpt lat="46.42802" lon="5.85049">
        <ele>739.79998779297</ele>
        <time>2018-06-09T11:15:29.000Z</time>
      </trkpt>
      <trkpt lat="46.42795" lon="5.85049">
        <ele>740.79998779297</ele>
        <time>2018-06-09T11:15:36.000Z</time>
      </trkpt>
      <trkpt lat="46.42788" lon="5.85053">
        <ele>742</ele>
        <time>2018-06-09T11:15:43.000Z</time>
      </trkpt>
      <trkpt lat="46.42784" lon="5.85055">
        <ele>742.79998779297</ele>
        <time>2018-06-09T11:15:51.000Z</time>
      </trkpt>
      <trkpt lat="46.42783" lon="5.85056">
        <ele>743</ele>
        <time>2018-06-09T11:15:52.000Z</time>
      </trkpt>
      <trkpt lat="46.42779" lon="5.85057">
        <ele>744.20001220703</ele>
        <time>2018-06-09T11:15:59.000Z</time>
      </trkpt>
      <trkpt lat="46.42776" lon="5.85054">
        <ele>745.20001220703</ele>
        <time>2018-06-09T11:16:05.000Z</time>
      </trkpt>
      <trkpt lat="46.4277" lon="5.85051">
        <ele>746.40002441406</ele>
        <time>2018-06-09T11:16:14.000Z</time>
      </trkpt>
      <trkpt lat="46.42768" lon="5.85053">
        <ele>747.40002441406</ele>
        <time>2018-06-09T11:16:20.000Z</time>
      </trkpt>
      <trkpt lat="46.42766" lon="5.85052">
        <ele>748.59997558594</ele>
        <time>2018-06-09T11:16:30.000Z</time>
      </trkpt>
      <trkpt lat="46.42766" lon="5.85053">
        <ele>749.59997558594</ele>
        <time>2018-06-09T11:16:35.000Z</time>
      </trkpt>
      <trkpt lat="46.42765" lon="5.85051">
        <ele>750.79998779297</ele>
        <time>2018-06-09T11:16:41.000Z</time>
      </trkpt>
      <trkpt lat="46.42759" lon="5.85045">
        <ele>751.79998779297</ele>
        <time>2018-06-09T11:16:48.000Z</time>
      </trkpt>
      <trkpt lat="46.42755" lon="5.85044">
        <ele>753</ele>
        <time>2018-06-09T11:16:58.000Z</time>
      </trkpt>
      <trkpt lat="46.42755" lon="5.85045">
        <ele>754</ele>
        <time>2018-06-09T11:17:03.000Z</time>
      </trkpt>
      <trkpt lat="46.42749" lon="5.8505">
        <ele>755.20001220703</ele>
        <time>2018-06-09T11:17:10.000Z</time>
      </trkpt>
      <trkpt lat="46.42743" lon="5.85048">
        <ele>756.40002441406</ele>
        <time>2018-06-09T11:17:17.000Z</time>
      </trkpt>
      <trkpt lat="46.42736" lon="5.8504">
        <ele>757.40002441406</ele>
        <time>2018-06-09T11:17:33.000Z</time>
      </trkpt>
      <trkpt lat="46.42732" lon="5.8504">
        <ele>758.59997558594</ele>
        <time>2018-06-09T11:17:39.000Z</time>
      </trkpt>
      <trkpt lat="46.42729" lon="5.8504">
        <ele>759.79998779297</ele>
        <time>2018-06-09T11:17:45.000Z</time>
      </trkpt>
      <trkpt lat="46.42722" lon="5.85041">
        <ele>761</ele>
        <time>2018-06-09T11:17:50.000Z</time>
      </trkpt>
      <trkpt lat="46.42718" lon="5.85038">
        <ele>762</ele>
        <time>2018-06-09T11:17:56.000Z</time>
      </trkpt>
      <trkpt lat="46.42714" lon="5.85037">
        <ele>763</ele>
        <time>2018-06-09T11:18:02.000Z</time>
      </trkpt>
      <trkpt lat="46.42716" lon="5.85035">
        <ele>764.20001220703</ele>
        <time>2018-06-09T11:18:09.000Z</time>
      </trkpt>
      <trkpt lat="46.42713" lon="5.85032">
        <ele>765.20001220703</ele>
        <time>2018-06-09T11:18:17.000Z</time>
      </trkpt>
      <trkpt lat="46.42705" lon="5.8503">
        <ele>766.20001220703</ele>
        <time>2018-06-09T11:18:23.000Z</time>
      </trkpt>
      <trkpt lat="46.42702" lon="5.85029">
        <ele>767.20001220703</ele>
        <time>2018-06-09T11:18:30.000Z</time>
      </trkpt>
      <trkpt lat="46.42694" lon="5.85025">
        <ele>768.40002441406</ele>
        <time>2018-06-09T11:18:39.000Z</time>
      </trkpt>
      <trkpt lat="46.42692" lon="5.85024">
        <ele>769.40002441406</ele>
        <time>2018-06-09T11:18:46.000Z</time>
      </trkpt>
      <trkpt lat="46.42687" lon="5.85016">
        <ele>770.59997558594</ele>
        <time>2018-06-09T11:18:57.000Z</time>
      </trkpt>
      <trkpt lat="46.4269" lon="5.85016">
        <ele>771.79998779297</ele>
        <time>2018-06-09T11:19:04.000Z</time>
      </trkpt>
      <trkpt lat="46.42689" lon="5.85008">
        <ele>773</ele>
        <time>2018-06-09T11:19:19.000Z</time>
      </trkpt>
      <trkpt lat="46.42687" lon="5.85005">
        <ele>774</ele>
        <time>2018-06-09T11:19:23.000Z</time>
      </trkpt>
      <trkpt lat="46.42686" lon="5.85004">
        <ele>775</ele>
        <time>2018-06-09T11:19:27.000Z</time>
      </trkpt>
      <trkpt lat="46.42682" lon="5.85003">
        <ele>776</ele>
        <time>2018-06-09T11:19:31.000Z</time>
      </trkpt>
      <trkpt lat="46.42682" lon="5.85003">
        <ele>777.20001220703</ele>
        <time>2018-06-09T11:19:36.000Z</time>
      </trkpt>
      <trkpt lat="46.42682" lon="5.85001">
        <ele>778.20001220703</ele>
        <time>2018-06-09T11:19:43.000Z</time>
      </trkpt>
      <trkpt lat="46.4268" lon="5.84998">
        <ele>779.40002441406</ele>
        <time>2018-06-09T11:19:48.000Z</time>
      </trkpt>
      <trkpt lat="46.42672" lon="5.84993">
        <ele>780.59997558594</ele>
        <time>2018-06-09T11:19:56.000Z</time>
      </trkpt>
      <trkpt lat="46.42668" lon="5.84991">
        <ele>781.59997558594</ele>
        <time>2018-06-09T11:20:02.000Z</time>
      </trkpt>
      <trkpt lat="46.42669" lon="5.8499">
        <ele>782.59997558594</ele>
        <time>2018-06-09T11:20:10.000Z</time>
      </trkpt>
      <trkpt lat="46.42667" lon="5.84988">
        <ele>783.79998779297</ele>
        <time>2018-06-09T11:20:16.000Z</time>
      </trkpt>
      <trkpt lat="46.42664" lon="5.84987">
        <ele>784.79998779297</ele>
        <time>2018-06-09T11:20:23.000Z</time>
      </trkpt>
      <trkpt lat="46.42658" lon="5.84991">
        <ele>786</ele>
        <time>2018-06-09T11:20:31.000Z</time>
      </trkpt>
      <trkpt lat="46.42652" lon="5.84992">
        <ele>787.20001220703</ele>
        <time>2018-06-09T11:20:37.000Z</time>
      </trkpt>
      <trkpt lat="46.42654" lon="5.84993">
        <ele>788.20001220703</ele>
        <time>2018-06-09T11:20:43.000Z</time>
      </trkpt>
      <trkpt lat="46.42658" lon="5.84993">
        <ele>789.40002441406</ele>
        <time>2018-06-09T11:20:51.000Z</time>
      </trkpt>
      <trkpt lat="46.42643" lon="5.84993">
        <ele>790.40002441406</ele>
        <time>2018-06-09T11:20:58.000Z</time>
      </trkpt>
      <trkpt lat="46.42637" lon="5.84996">
        <ele>791.79998779297</ele>
        <time>2018-06-09T11:21:04.000Z</time>
      </trkpt>
      <trkpt lat="46.42634" lon="5.84996">
        <ele>792.79998779297</ele>
        <time>2018-06-09T11:21:11.000Z</time>
      </trkpt>
      <trkpt lat="46.4263" lon="5.84995">
        <ele>793.79998779297</ele>
        <time>2018-06-09T11:21:17.000Z</time>
      </trkpt>
      <trkpt lat="46.42627" lon="5.84997">
        <ele>795</ele>
        <time>2018-06-09T11:21:23.000Z</time>
      </trkpt>
      <trkpt lat="46.42615" lon="5.84995">
        <ele>796</ele>
        <time>2018-06-09T11:21:30.000Z</time>
      </trkpt>
      <trkpt lat="46.42607" lon="5.84996">
        <ele>797</ele>
        <time>2018-06-09T11:21:38.000Z</time>
      </trkpt>
      <trkpt lat="46.42612" lon="5.84993">
        <ele>798.20001220703</ele>
        <time>2018-06-09T11:21:47.000Z</time>
      </trkpt>
      <trkpt lat="46.42609" lon="5.8499">
        <ele>799.20001220703</ele>
        <time>2018-06-09T11:21:54.000Z</time>
      </trkpt>
      <trkpt lat="46.42608" lon="5.84985">
        <ele>800.40002441406</ele>
        <time>2018-06-09T11:22:00.000Z</time>
      </trkpt>
      <trkpt lat="46.42608" lon="5.84981">
        <ele>801.40002441406</ele>
        <time>2018-06-09T11:22:09.000Z</time>
      </trkpt>
      <trkpt lat="46.42607" lon="5.84979">
        <ele>802.59997558594</ele>
        <time>2018-06-09T11:22:16.000Z</time>
      </trkpt>
      <trkpt lat="46.42599" lon="5.84979">
        <ele>803.59997558594</ele>
        <time>2018-06-09T11:22:24.000Z</time>
      </trkpt>
      <trkpt lat="46.42598" lon="5.84979">
        <ele>803.59997558594</ele>
        <time>2018-06-09T11:22:25.000Z</time>
      </trkpt>
      <trkpt lat="46.42587" lon="5.84977">
        <ele>804.79998779297</ele>
        <time>2018-06-09T11:22:31.000Z</time>
      </trkpt>
      <trkpt lat="46.42583" lon="5.84972">
        <ele>806</ele>
        <time>2018-06-09T11:22:39.000Z</time>
      </trkpt>
      <trkpt lat="46.42583" lon="5.84971">
        <ele>807</ele>
        <time>2018-06-09T11:22:45.000Z</time>
      </trkpt>
      <trkpt lat="46.42581" lon="5.84967">
        <ele>808.20001220703</ele>
        <time>2018-06-09T11:22:51.000Z</time>
      </trkpt>
      <trkpt lat="46.42577" lon="5.84966">
        <ele>809.20001220703</ele>
        <time>2018-06-09T11:22:58.000Z</time>
      </trkpt>
      <trkpt lat="46.42574" lon="5.84966">
        <ele>810.20001220703</ele>
        <time>2018-06-09T11:23:03.000Z</time>
      </trkpt>
      <trkpt lat="46.4257" lon="5.84962">
        <ele>811.40002441406</ele>
        <time>2018-06-09T11:23:09.000Z</time>
      </trkpt>
      <trkpt lat="46.42564" lon="5.84963">
        <ele>812.40002441406</ele>
        <time>2018-06-09T11:23:14.000Z</time>
      </trkpt>
      <trkpt lat="46.42554" lon="5.8497">
        <ele>813.59997558594</ele>
        <time>2018-06-09T11:23:37.000Z</time>
      </trkpt>
      <trkpt lat="46.42549" lon="5.84973">
        <ele>814.59997558594</ele>
        <time>2018-06-09T11:23:45.000Z</time>
      </trkpt>
      <trkpt lat="46.42542" lon="5.84976">
        <ele>815.40002441406</ele>
        <time>2018-06-09T11:23:57.000Z</time>
      </trkpt>
      <trkpt lat="46.42537" lon="5.84975">
        <ele>815.59997558594</ele>
        <time>2018-06-09T11:24:00.000Z</time>
      </trkpt>
      <trkpt lat="46.42532" lon="5.84972">
        <ele>815.40002441406</ele>
        <time>2018-06-09T11:24:03.000Z</time>
      </trkpt>
      <trkpt lat="46.42527" lon="5.84971">
        <ele>815.20001220703</ele>
        <time>2018-06-09T11:24:05.000Z</time>
      </trkpt>
      <trkpt lat="46.42495" lon="5.84985">
        <ele>814.79998779297</ele>
        <time>2018-06-09T11:24:20.000Z</time>
      </trkpt>
      <trkpt lat="46.4248" lon="5.84997">
        <ele>815.59997558594</ele>
        <time>2018-06-09T11:24:33.000Z</time>
      </trkpt>
      <trkpt lat="46.42474" lon="5.85007">
        <ele>816.79998779297</ele>
        <time>2018-06-09T11:24:43.000Z</time>
      </trkpt>
      <trkpt lat="46.42466" lon="5.85012">
        <ele>817.79998779297</ele>
        <time>2018-06-09T11:24:52.000Z</time>
      </trkpt>
      <trkpt lat="46.4246" lon="5.85017">
        <ele>819</ele>
        <time>2018-06-09T11:25:00.000Z</time>
      </trkpt>
      <trkpt lat="46.42452" lon="5.85018">
        <ele>820</ele>
        <time>2018-06-09T11:25:07.000Z</time>
      </trkpt>
      <trkpt lat="46.4245" lon="5.85018">
        <ele>820</ele>
        <time>2018-06-09T11:25:08.000Z</time>
      </trkpt>
      <trkpt lat="46.42445" lon="5.8502">
        <ele>821</ele>
        <time>2018-06-09T11:25:14.000Z</time>
      </trkpt>
      <trkpt lat="46.42441" lon="5.8503">
        <ele>822.20001220703</ele>
        <time>2018-06-09T11:25:21.000Z</time>
      </trkpt>
      <trkpt lat="46.42442" lon="5.8504">
        <ele>823.40002441406</ele>
        <time>2018-06-09T11:25:28.000Z</time>
      </trkpt>
      <trkpt lat="46.42436" lon="5.85042">
        <ele>824.40002441406</ele>
        <time>2018-06-09T11:25:36.000Z</time>
      </trkpt>
      <trkpt lat="46.42432" lon="5.85046">
        <ele>825.59997558594</ele>
        <time>2018-06-09T11:25:43.000Z</time>
      </trkpt>
      <trkpt lat="46.42425" lon="5.85047">
        <ele>826.79998779297</ele>
        <time>2018-06-09T11:25:49.000Z</time>
      </trkpt>
      <trkpt lat="46.42422" lon="5.8505">
        <ele>827.79998779297</ele>
        <time>2018-06-09T11:25:53.000Z</time>
      </trkpt>
      <trkpt lat="46.42412" lon="5.8505">
        <ele>828.79998779297</ele>
        <time>2018-06-09T11:26:01.000Z</time>
      </trkpt>
      <trkpt lat="46.42403" lon="5.8505">
        <ele>830</ele>
        <time>2018-06-09T11:26:10.000Z</time>
      </trkpt>
      <trkpt lat="46.42396" lon="5.85049">
        <ele>831</ele>
        <time>2018-06-09T11:26:17.000Z</time>
      </trkpt>
      <trkpt lat="46.42388" lon="5.85048">
        <ele>832.20001220703</ele>
        <time>2018-06-09T11:26:26.000Z</time>
      </trkpt>
      <trkpt lat="46.42386" lon="5.85047">
        <ele>832.59997558594</ele>
        <time>2018-06-09T11:26:29.000Z</time>
      </trkpt>
      <trkpt lat="46.42382" lon="5.85046">
        <ele>832.79998779297</ele>
        <time>2018-06-09T11:26:32.000Z</time>
      </trkpt>
      <trkpt lat="46.42378" lon="5.85048">
        <ele>833.20001220703</ele>
        <time>2018-06-09T11:26:35.000Z</time>
      </trkpt>
      <trkpt lat="46.42363" lon="5.8505">
        <ele>834.20001220703</ele>
        <time>2018-06-09T11:26:50.000Z</time>
      </trkpt>
      <trkpt lat="46.42361" lon="5.85051">
        <ele>835.20001220703</ele>
        <time>2018-06-09T11:26:58.000Z</time>
      </trkpt>
      <trkpt lat="46.42346" lon="5.85056">
        <ele>836.40002441406</ele>
        <time>2018-06-09T11:27:10.000Z</time>
      </trkpt>
      <trkpt lat="46.42341" lon="5.85058">
        <ele>837.40002441406</ele>
        <time>2018-06-09T11:27:17.000Z</time>
      </trkpt>
      <trkpt lat="46.42335" lon="5.85064">
        <ele>838.59997558594</ele>
        <time>2018-06-09T11:27:24.000Z</time>
      </trkpt>
      <trkpt lat="46.4233" lon="5.85067">
        <ele>839.20001220703</ele>
        <time>2018-06-09T11:27:29.000Z</time>
      </trkpt>
      <trkpt lat="46.42328" lon="5.85069">
        <ele>839.59997558594</ele>
        <time>2018-06-09T11:27:31.000Z</time>
      </trkpt>
      <trkpt lat="46.42314" lon="5.85076">
        <ele>840.59997558594</ele>
        <time>2018-06-09T11:27:47.000Z</time>
      </trkpt>
      <trkpt lat="46.42304" lon="5.85087">
        <ele>840.79998779297</ele>
        <time>2018-06-09T11:28:01.000Z</time>
      </trkpt>
      <trkpt lat="46.42297" lon="5.85091">
        <ele>841</ele>
        <time>2018-06-09T11:28:05.000Z</time>
      </trkpt>
      <trkpt lat="46.42292" lon="5.85094">
        <ele>841.79998779297</ele>
        <time>2018-06-09T11:28:09.000Z</time>
      </trkpt>
      <trkpt lat="46.42289" lon="5.85096">
        <ele>843.20001220703</ele>
        <time>2018-06-09T11:28:12.000Z</time>
      </trkpt>
      <trkpt lat="46.42282" lon="5.85096">
        <ele>844.20001220703</ele>
        <time>2018-06-09T11:28:17.000Z</time>
      </trkpt>
      <trkpt lat="46.42279" lon="5.85098">
        <ele>844.59997558594</ele>
        <time>2018-06-09T11:28:19.000Z</time>
      </trkpt>
      <trkpt lat="46.42252" lon="5.85114">
        <ele>845.20001220703</ele>
        <time>2018-06-09T11:28:37.000Z</time>
      </trkpt>
      <trkpt lat="46.42251" lon="5.85115">
        <ele>845.40002441406</ele>
        <time>2018-06-09T11:28:38.000Z</time>
      </trkpt>
      <trkpt lat="46.42239" lon="5.85121">
        <ele>846</ele>
        <time>2018-06-09T11:28:44.000Z</time>
      </trkpt>
      <trkpt lat="46.42233" lon="5.85125">
        <ele>846.59997558594</ele>
        <time>2018-06-09T11:28:48.000Z</time>
      </trkpt>
      <trkpt lat="46.42225" lon="5.85128">
        <ele>847</ele>
        <time>2018-06-09T11:28:52.000Z</time>
      </trkpt>
      <trkpt lat="46.4222" lon="5.85131">
        <ele>847.40002441406</ele>
        <time>2018-06-09T11:28:55.000Z</time>
      </trkpt>
      <trkpt lat="46.42217" lon="5.8513">
        <ele>847.59997558594</ele>
        <time>2018-06-09T11:28:57.000Z</time>
      </trkpt>
      <trkpt lat="46.42202" lon="5.85129">
        <ele>847.59997558594</ele>
        <time>2018-06-09T11:29:10.000Z</time>
      </trkpt>
      <trkpt lat="46.42198" lon="5.85123">
        <ele>847.59997558594</ele>
        <time>2018-06-09T11:29:13.000Z</time>
      </trkpt>
      <trkpt lat="46.42189" lon="5.85118">
        <ele>848</ele>
        <time>2018-06-09T11:29:20.000Z</time>
      </trkpt>
      <trkpt lat="46.42169" lon="5.85121">
        <ele>848.59997558594</ele>
        <time>2018-06-09T11:29:33.000Z</time>
      </trkpt>
      <trkpt lat="46.42155" lon="5.85123">
        <ele>848</ele>
        <time>2018-06-09T11:29:42.000Z</time>
      </trkpt>
      <trkpt lat="46.42103" lon="5.85149">
        <ele>848.79998779297</ele>
        <time>2018-06-09T11:30:01.000Z</time>
      </trkpt>
      <trkpt lat="46.42066" lon="5.85163">
        <ele>847.59997558594</ele>
        <time>2018-06-09T11:30:16.000Z</time>
      </trkpt>
      <trkpt lat="46.4205" lon="5.85165">
        <ele>848</ele>
        <time>2018-06-09T11:30:23.000Z</time>
      </trkpt>
      <trkpt lat="46.42007" lon="5.85202">
        <ele>848.79998779297</ele>
        <time>2018-06-09T11:30:38.000Z</time>
      </trkpt>
      <trkpt lat="46.41974" lon="5.85267">
        <ele>849.20001220703</ele>
        <time>2018-06-09T11:30:55.000Z</time>
      </trkpt>
      <trkpt lat="46.41973" lon="5.85269">
        <ele>850</ele>
        <time>2018-06-09T11:30:57.000Z</time>
      </trkpt>
      <trkpt lat="46.41966" lon="5.85276">
        <ele>850.59997558594</ele>
        <time>2018-06-09T11:31:01.000Z</time>
      </trkpt>
      <trkpt lat="46.41947" lon="5.85282">
        <ele>849</ele>
        <time>2018-06-09T11:31:07.000Z</time>
      </trkpt>
      <trkpt lat="46.41939" lon="5.85282">
        <ele>848.20001220703</ele>
        <time>2018-06-09T11:31:09.000Z</time>
      </trkpt>
      <trkpt lat="46.41934" lon="5.85283">
        <ele>848</ele>
        <time>2018-06-09T11:31:10.000Z</time>
      </trkpt>
      <trkpt lat="46.41923" lon="5.85284">
        <ele>847</ele>
        <time>2018-06-09T11:31:13.000Z</time>
      </trkpt>
      <trkpt lat="46.41915" lon="5.85291">
        <ele>846.20001220703</ele>
        <time>2018-06-09T11:31:17.000Z</time>
      </trkpt>
      <trkpt lat="46.41903" lon="5.85309">
        <ele>846.59997558594</ele>
        <time>2018-06-09T11:31:23.000Z</time>
      </trkpt>
      <trkpt lat="46.41891" lon="5.85316">
        <ele>846.79998779297</ele>
        <time>2018-06-09T11:31:27.000Z</time>
      </trkpt>
      <trkpt lat="46.41881" lon="5.85322">
        <ele>845.79998779297</ele>
        <time>2018-06-09T11:31:29.000Z</time>
      </trkpt>
      <trkpt lat="46.41876" lon="5.85324">
        <ele>844.59997558594</ele>
        <time>2018-06-09T11:31:30.000Z</time>
      </trkpt>
      <trkpt lat="46.41872" lon="5.85327">
        <ele>843</ele>
        <time>2018-06-09T11:31:31.000Z</time>
      </trkpt>
      <trkpt lat="46.41863" lon="5.85331">
        <ele>841.40002441406</ele>
        <time>2018-06-09T11:31:33.000Z</time>
      </trkpt>
      <trkpt lat="46.41854" lon="5.85332">
        <ele>840.20001220703</ele>
        <time>2018-06-09T11:31:36.000Z</time>
      </trkpt>
      <trkpt lat="46.41848" lon="5.8533">
        <ele>839.59997558594</ele>
        <time>2018-06-09T11:31:39.000Z</time>
      </trkpt>
      <trkpt lat="46.41845" lon="5.85329">
        <ele>839.59997558594</ele>
        <time>2018-06-09T11:31:40.000Z</time>
      </trkpt>
      <trkpt lat="46.41808" lon="5.85282">
        <ele>841.40002441406</ele>
        <time>2018-06-09T11:31:58.000Z</time>
      </trkpt>
      <trkpt lat="46.41806" lon="5.85278">
        <ele>842.59997558594</ele>
        <time>2018-06-09T11:32:00.000Z</time>
      </trkpt>
      <trkpt lat="46.41806" lon="5.85271">
        <ele>843.79998779297</ele>
        <time>2018-06-09T11:32:03.000Z</time>
      </trkpt>
      <trkpt lat="46.41803" lon="5.85231">
        <ele>843.59997558594</ele>
        <time>2018-06-09T11:32:15.000Z</time>
      </trkpt>
      <trkpt lat="46.41815" lon="5.85218">
        <ele>845</ele>
        <time>2018-06-09T11:32:23.000Z</time>
      </trkpt>
      <trkpt lat="46.41825" lon="5.85203">
        <ele>846</ele>
        <time>2018-06-09T11:32:31.000Z</time>
      </trkpt>
      <trkpt lat="46.41826" lon="5.85199">
        <ele>846.20001220703</ele>
        <time>2018-06-09T11:32:33.000Z</time>
      </trkpt>
      <trkpt lat="46.41817" lon="5.85177">
        <ele>847</ele>
        <time>2018-06-09T11:32:42.000Z</time>
      </trkpt>
      <trkpt lat="46.41811" lon="5.85171">
        <ele>848.20001220703</ele>
        <time>2018-06-09T11:32:49.000Z</time>
      </trkpt>
      <trkpt lat="46.41811" lon="5.85176">
        <ele>847.20001220703</ele>
        <time>2018-06-09T11:33:36.000Z</time>
      </trkpt>
      <trkpt lat="46.41811" lon="5.85175">
        <ele>847.79998779297</ele>
        <time>2018-06-09T11:35:07.000Z</time>
      </trkpt>
      <trkpt lat="46.41819" lon="5.85192">
        <ele>847.79998779297</ele>
        <time>2018-06-09T11:35:33.000Z</time>
      </trkpt>
      <trkpt lat="46.41809" lon="5.85181">
        <ele>848.40002441406</ele>
        <time>2018-06-09T11:36:07.000Z</time>
      </trkpt>
      <trkpt lat="46.41809" lon="5.85175">
        <ele>848.59997558594</ele>
        <time>2018-06-09T11:36:11.000Z</time>
      </trkpt>
      <trkpt lat="46.41803" lon="5.85165">
        <ele>849</ele>
        <time>2018-06-09T11:36:29.000Z</time>
      </trkpt>
      <trkpt lat="46.41798" lon="5.85161">
        <ele>849.20001220703</ele>
        <time>2018-06-09T11:36:32.000Z</time>
      </trkpt>
      <trkpt lat="46.41785" lon="5.85147">
        <ele>849.59997558594</ele>
        <time>2018-06-09T11:36:40.000Z</time>
      </trkpt>
      <trkpt lat="46.41772" lon="5.85134">
        <ele>850.59997558594</ele>
        <time>2018-06-09T11:36:49.000Z</time>
      </trkpt>
      <trkpt lat="46.41763" lon="5.85129">
        <ele>851.79998779297</ele>
        <time>2018-06-09T11:36:55.000Z</time>
      </trkpt>
      <trkpt lat="46.41754" lon="5.85122">
        <ele>852.79998779297</ele>
        <time>2018-06-09T11:37:00.000Z</time>
      </trkpt>
      <trkpt lat="46.4174" lon="5.85105">
        <ele>853.79998779297</ele>
        <time>2018-06-09T11:37:10.000Z</time>
      </trkpt>
      <trkpt lat="46.41734" lon="5.85096">
        <ele>854.79998779297</ele>
        <time>2018-06-09T11:37:16.000Z</time>
      </trkpt>
      <trkpt lat="46.41723" lon="5.85081">
        <ele>856.20001220703</ele>
        <time>2018-06-09T11:37:25.000Z</time>
      </trkpt>
      <trkpt lat="46.4171" lon="5.85065">
        <ele>857.20001220703</ele>
        <time>2018-06-09T11:37:34.000Z</time>
      </trkpt>
      <trkpt lat="46.41706" lon="5.85054">
        <ele>858.40002441406</ele>
        <time>2018-06-09T11:37:39.000Z</time>
      </trkpt>
      <trkpt lat="46.41698" lon="5.85041">
        <ele>859.40002441406</ele>
        <time>2018-06-09T11:37:46.000Z</time>
      </trkpt>
      <trkpt lat="46.41679" lon="5.8498">
        <ele>860.40002441406</ele>
        <time>2018-06-09T11:38:07.000Z</time>
      </trkpt>
      <trkpt lat="46.41681" lon="5.84963">
        <ele>861.59997558594</ele>
        <time>2018-06-09T11:38:14.000Z</time>
      </trkpt>
      <trkpt lat="46.4168" lon="5.84954">
        <ele>862.59997558594</ele>
        <time>2018-06-09T11:38:19.000Z</time>
      </trkpt>
      <trkpt lat="46.41643" lon="5.84915">
        <ele>862</ele>
        <time>2018-06-09T11:38:36.000Z</time>
      </trkpt>
      <trkpt lat="46.41622" lon="5.84902">
        <ele>861.59997558594</ele>
        <time>2018-06-09T11:38:42.000Z</time>
      </trkpt>
      <trkpt lat="46.41611" lon="5.84891">
        <ele>861.20001220703</ele>
        <time>2018-06-09T11:38:45.000Z</time>
      </trkpt>
      <trkpt lat="46.41597" lon="5.84863">
        <ele>862.59997558594</ele>
        <time>2018-06-09T11:38:52.000Z</time>
      </trkpt>
      <trkpt lat="46.41595" lon="5.84807">
        <ele>863.79998779297</ele>
        <time>2018-06-09T11:39:07.000Z</time>
      </trkpt>
      <trkpt lat="46.41593" lon="5.84792">
        <ele>865</ele>
        <time>2018-06-09T11:39:13.000Z</time>
      </trkpt>
      <trkpt lat="46.41589" lon="5.84778">
        <ele>866.20001220703</ele>
        <time>2018-06-09T11:39:19.000Z</time>
      </trkpt>
      <trkpt lat="46.41586" lon="5.84766">
        <ele>867.20001220703</ele>
        <time>2018-06-09T11:39:23.000Z</time>
      </trkpt>
      <trkpt lat="46.4158" lon="5.8475">
        <ele>868.40002441406</ele>
        <time>2018-06-09T11:39:30.000Z</time>
      </trkpt>
      <trkpt lat="46.41568" lon="5.8473">
        <ele>869.40002441406</ele>
        <time>2018-06-09T11:39:37.000Z</time>
      </trkpt>
      <trkpt lat="46.41569" lon="5.84658">
        <ele>870.20001220703</ele>
        <time>2018-06-09T11:39:57.000Z</time>
      </trkpt>
      <trkpt lat="46.41568" lon="5.84588">
        <ele>870</ele>
        <time>2018-06-09T11:40:13.000Z</time>
      </trkpt>
      <trkpt lat="46.41542" lon="5.84528">
        <ele>869.20001220703</ele>
        <time>2018-06-09T11:40:25.000Z</time>
      </trkpt>
      <trkpt lat="46.41516" lon="5.845">
        <ele>870.40002441406</ele>
        <time>2018-06-09T11:40:33.000Z</time>
      </trkpt>
      <trkpt lat="46.41498" lon="5.84479">
        <ele>869.20001220703</ele>
        <time>2018-06-09T11:40:38.000Z</time>
      </trkpt>
      <trkpt lat="46.41487" lon="5.84468">
        <ele>867.79998779297</ele>
        <time>2018-06-09T11:40:40.000Z</time>
      </trkpt>
      <trkpt lat="46.41476" lon="5.84458">
        <ele>866.59997558594</ele>
        <time>2018-06-09T11:40:42.000Z</time>
      </trkpt>
      <trkpt lat="46.41467" lon="5.84449">
        <ele>865.79998779297</ele>
        <time>2018-06-09T11:40:44.000Z</time>
      </trkpt>
      <trkpt lat="46.41462" lon="5.84444">
        <ele>865.59997558594</ele>
        <time>2018-06-09T11:40:45.000Z</time>
      </trkpt>
      <trkpt lat="46.41437" lon="5.84414">
        <ele>864.79998779297</ele>
        <time>2018-06-09T11:40:51.000Z</time>
      </trkpt>
      <trkpt lat="46.41419" lon="5.84396">
        <ele>864.59997558594</ele>
        <time>2018-06-09T11:40:55.000Z</time>
      </trkpt>
      <trkpt lat="46.41393" lon="5.84366">
        <ele>866.79998779297</ele>
        <time>2018-06-09T11:41:02.000Z</time>
      </trkpt>
      <trkpt lat="46.41382" lon="5.8435">
        <ele>867</ele>
        <time>2018-06-09T11:41:05.000Z</time>
      </trkpt>
      <trkpt lat="46.41378" lon="5.84334">
        <ele>866.40002441406</ele>
        <time>2018-06-09T11:41:07.000Z</time>
      </trkpt>
      <trkpt lat="46.41376" lon="5.84316">
        <ele>865.40002441406</ele>
        <time>2018-06-09T11:41:09.000Z</time>
      </trkpt>
      <trkpt lat="46.41373" lon="5.843">
        <ele>865</ele>
        <time>2018-06-09T11:41:11.000Z</time>
      </trkpt>
      <trkpt lat="46.41368" lon="5.84288">
        <ele>864.59997558594</ele>
        <time>2018-06-09T11:41:13.000Z</time>
      </trkpt>
      <trkpt lat="46.41363" lon="5.84279">
        <ele>864.79998779297</ele>
        <time>2018-06-09T11:41:15.000Z</time>
      </trkpt>
      <trkpt lat="46.41355" lon="5.84275">
        <ele>864.59997558594</ele>
        <time>2018-06-09T11:41:17.000Z</time>
      </trkpt>
      <trkpt lat="46.41315" lon="5.84271">
        <ele>866.59997558594</ele>
        <time>2018-06-09T11:41:28.000Z</time>
      </trkpt>
      <trkpt lat="46.4131" lon="5.84271">
        <ele>866.59997558594</ele>
        <time>2018-06-09T11:41:29.000Z</time>
      </trkpt>
      <trkpt lat="46.41277" lon="5.84278">
        <ele>865.40002441406</ele>
        <time>2018-06-09T11:41:36.000Z</time>
      </trkpt>
      <trkpt lat="46.41266" lon="5.84277">
        <ele>865.20001220703</ele>
        <time>2018-06-09T11:41:38.000Z</time>
      </trkpt>
      <trkpt lat="46.41253" lon="5.84274">
        <ele>864.59997558594</ele>
        <time>2018-06-09T11:41:40.000Z</time>
      </trkpt>
      <trkpt lat="46.41246" lon="5.8427">
        <ele>864.40002441406</ele>
        <time>2018-06-09T11:41:41.000Z</time>
      </trkpt>
      <trkpt lat="46.41233" lon="5.84263">
        <ele>863.59997558594</ele>
        <time>2018-06-09T11:41:43.000Z</time>
      </trkpt>
      <trkpt lat="46.41219" lon="5.84252">
        <ele>863.40002441406</ele>
        <time>2018-06-09T11:41:46.000Z</time>
      </trkpt>
      <trkpt lat="46.41201" lon="5.84231">
        <ele>864.40002441406</ele>
        <time>2018-06-09T11:41:51.000Z</time>
      </trkpt>
      <trkpt lat="46.4118" lon="5.84209">
        <ele>865.59997558594</ele>
        <time>2018-06-09T11:41:56.000Z</time>
      </trkpt>
      <trkpt lat="46.41163" lon="5.84196">
        <ele>865</ele>
        <time>2018-06-09T11:42:00.000Z</time>
      </trkpt>
      <trkpt lat="46.41154" lon="5.84193">
        <ele>864.40002441406</ele>
        <time>2018-06-09T11:42:02.000Z</time>
      </trkpt>
      <trkpt lat="46.41128" lon="5.84186">
        <ele>864.40002441406</ele>
        <time>2018-06-09T11:42:07.000Z</time>
      </trkpt>
      <trkpt lat="46.41114" lon="5.84177">
        <ele>864.79998779297</ele>
        <time>2018-06-09T11:42:10.000Z</time>
      </trkpt>
      <trkpt lat="46.41105" lon="5.84171">
        <ele>864.59997558594</ele>
        <time>2018-06-09T11:42:12.000Z</time>
      </trkpt>
      <trkpt lat="46.41092" lon="5.84161">
        <ele>864.59997558594</ele>
        <time>2018-06-09T11:42:15.000Z</time>
      </trkpt>
      <trkpt lat="46.41064" lon="5.84147">
        <ele>864.79998779297</ele>
        <time>2018-06-09T11:42:21.000Z</time>
      </trkpt>
      <trkpt lat="46.41039" lon="5.84134">
        <ele>865.40002441406</ele>
        <time>2018-06-09T11:42:28.000Z</time>
      </trkpt>
      <trkpt lat="46.41029" lon="5.84127">
        <ele>866.59997558594</ele>
        <time>2018-06-09T11:42:32.000Z</time>
      </trkpt>
      <trkpt lat="46.4102" lon="5.84123">
        <ele>867.59997558594</ele>
        <time>2018-06-09T11:42:35.000Z</time>
      </trkpt>
      <trkpt lat="46.41008" lon="5.84118">
        <ele>868.79998779297</ele>
        <time>2018-06-09T11:42:40.000Z</time>
      </trkpt>
      <trkpt lat="46.40995" lon="5.84115">
        <ele>869.79998779297</ele>
        <time>2018-06-09T11:42:46.000Z</time>
      </trkpt>
      <trkpt lat="46.40983" lon="5.84116">
        <ele>870</ele>
        <time>2018-06-09T11:42:53.000Z</time>
      </trkpt>
      <trkpt lat="46.40981" lon="5.84128">
        <ele>870.40002441406</ele>
        <time>2018-06-09T11:42:58.000Z</time>
      </trkpt>
      <trkpt lat="46.40976" lon="5.84143">
        <ele>870.79998779297</ele>
        <time>2018-06-09T11:43:02.000Z</time>
      </trkpt>
      <trkpt lat="46.40972" lon="5.84155">
        <ele>872</ele>
        <time>2018-06-09T11:43:08.000Z</time>
      </trkpt>
      <trkpt lat="46.40971" lon="5.84174">
        <ele>873</ele>
        <time>2018-06-09T11:43:15.000Z</time>
      </trkpt>
      <trkpt lat="46.40971" lon="5.84187">
        <ele>874.40002441406</ele>
        <time>2018-06-09T11:43:21.000Z</time>
      </trkpt>
      <trkpt lat="46.40973" lon="5.84204">
        <ele>875.20001220703</ele>
        <time>2018-06-09T11:43:30.000Z</time>
      </trkpt>
      <trkpt lat="46.40976" lon="5.84213">
        <ele>874.79998779297</ele>
        <time>2018-06-09T11:43:33.000Z</time>
      </trkpt>
      <trkpt lat="46.40976" lon="5.84221">
        <ele>874.40002441406</ele>
        <time>2018-06-09T11:43:35.000Z</time>
      </trkpt>
      <trkpt lat="46.40979" lon="5.8424">
        <ele>873.40002441406</ele>
        <time>2018-06-09T11:43:38.000Z</time>
      </trkpt>
      <trkpt lat="46.40984" lon="5.84259">
        <ele>872</ele>
        <time>2018-06-09T11:43:41.000Z</time>
      </trkpt>
      <trkpt lat="46.40988" lon="5.8427">
        <ele>871.20001220703</ele>
        <time>2018-06-09T11:43:44.000Z</time>
      </trkpt>
      <trkpt lat="46.4102" lon="5.84334">
        <ele>870.79998779297</ele>
        <time>2018-06-09T11:44:02.000Z</time>
      </trkpt>
      <trkpt lat="46.4102" lon="5.8436">
        <ele>870.20001220703</ele>
        <time>2018-06-09T11:44:08.000Z</time>
      </trkpt>
      <trkpt lat="46.41016" lon="5.84373">
        <ele>872</ele>
        <time>2018-06-09T11:44:14.000Z</time>
      </trkpt>
      <trkpt lat="46.41014" lon="5.84376">
        <ele>872.79998779297</ele>
        <time>2018-06-09T11:44:16.000Z</time>
      </trkpt>
      <trkpt lat="46.41013" lon="5.8438">
        <ele>873</ele>
        <time>2018-06-09T11:44:18.000Z</time>
      </trkpt>
      <trkpt lat="46.40999" lon="5.84399">
        <ele>872.59997558594</ele>
        <time>2018-06-09T11:44:27.000Z</time>
      </trkpt>
      <trkpt lat="46.40989" lon="5.84424">
        <ele>874.20001220703</ele>
        <time>2018-06-09T11:44:37.000Z</time>
      </trkpt>
      <trkpt lat="46.40981" lon="5.8444">
        <ele>875.40002441406</ele>
        <time>2018-06-09T11:44:43.000Z</time>
      </trkpt>
      <trkpt lat="46.40981" lon="5.84507">
        <ele>875.40002441406</ele>
        <time>2018-06-09T11:45:06.000Z</time>
      </trkpt>
      <trkpt lat="46.40996" lon="5.84541">
        <ele>874</ele>
        <time>2018-06-09T11:45:14.000Z</time>
      </trkpt>
      <trkpt lat="46.41021" lon="5.84595">
        <ele>873.20001220703</ele>
        <time>2018-06-09T11:45:27.000Z</time>
      </trkpt>
      <trkpt lat="46.41022" lon="5.84596">
        <ele>873</ele>
        <time>2018-06-09T11:45:28.000Z</time>
      </trkpt>
      <trkpt lat="46.41028" lon="5.846">
        <ele>872.79998779297</ele>
        <time>2018-06-09T11:45:31.000Z</time>
      </trkpt>
      <trkpt lat="46.41035" lon="5.84597">
        <ele>874</ele>
        <time>2018-06-09T11:45:37.000Z</time>
      </trkpt>
      <trkpt lat="46.41034" lon="5.84592">
        <ele>875.20001220703</ele>
        <time>2018-06-09T11:45:41.000Z</time>
      </trkpt>
      <trkpt lat="46.41035" lon="5.84588">
        <ele>875.59997558594</ele>
        <time>2018-06-09T11:45:43.000Z</time>
      </trkpt>
      <trkpt lat="46.41041" lon="5.84577">
        <ele>875.79998779297</ele>
        <time>2018-06-09T11:45:48.000Z</time>
      </trkpt>
      <trkpt lat="46.41048" lon="5.84575">
        <ele>876.20001220703</ele>
        <time>2018-06-09T11:45:53.000Z</time>
      </trkpt>
      <trkpt lat="46.41052" lon="5.84577">
        <ele>877.40002441406</ele>
        <time>2018-06-09T11:45:57.000Z</time>
      </trkpt>
      <trkpt lat="46.41061" lon="5.84584">
        <ele>878.40002441406</ele>
        <time>2018-06-09T11:46:04.000Z</time>
      </trkpt>
      <trkpt lat="46.41075" lon="5.84603">
        <ele>878.59997558594</ele>
        <time>2018-06-09T11:46:15.000Z</time>
      </trkpt>
      <trkpt lat="46.4109" lon="5.84612">
        <ele>879.40002441406</ele>
        <time>2018-06-09T11:46:24.000Z</time>
      </trkpt>
      <trkpt lat="46.41095" lon="5.84616">
        <ele>879.79998779297</ele>
        <time>2018-06-09T11:46:27.000Z</time>
      </trkpt>
      <trkpt lat="46.41111" lon="5.84639">
        <ele>879.59997558594</ele>
        <time>2018-06-09T11:46:41.000Z</time>
      </trkpt>
      <trkpt lat="46.41143" lon="5.84667">
        <ele>880.20001220703</ele>
        <time>2018-06-09T11:46:57.000Z</time>
      </trkpt>
      <trkpt lat="46.41147" lon="5.8467">
        <ele>880.40002441406</ele>
        <time>2018-06-09T11:46:59.000Z</time>
      </trkpt>
      <trkpt lat="46.41168" lon="5.84683">
        <ele>881.40002441406</ele>
        <time>2018-06-09T11:47:09.000Z</time>
      </trkpt>
      <trkpt lat="46.41171" lon="5.84688">
        <ele>881.59997558594</ele>
        <time>2018-06-09T11:47:11.000Z</time>
      </trkpt>
      <trkpt lat="46.41173" lon="5.84689">
        <ele>881.59997558594</ele>
        <time>2018-06-09T11:47:12.000Z</time>
      </trkpt>
      <trkpt lat="46.4119" lon="5.84698">
        <ele>882.59997558594</ele>
        <time>2018-06-09T11:47:20.000Z</time>
      </trkpt>
      <trkpt lat="46.41204" lon="5.84698">
        <ele>883</ele>
        <time>2018-06-09T11:47:29.000Z</time>
      </trkpt>
      <trkpt lat="46.41215" lon="5.84696">
        <ele>883</ele>
        <time>2018-06-09T11:47:35.000Z</time>
      </trkpt>
      <trkpt lat="46.4122" lon="5.84701">
        <ele>882.79998779297</ele>
        <time>2018-06-09T11:47:39.000Z</time>
      </trkpt>
      <trkpt lat="46.41227" lon="5.84717">
        <ele>882.59997558594</ele>
        <time>2018-06-09T11:47:45.000Z</time>
      </trkpt>
      <trkpt lat="46.41232" lon="5.84725">
        <ele>883.79998779297</ele>
        <time>2018-06-09T11:47:52.000Z</time>
      </trkpt>
      <trkpt lat="46.41235" lon="5.84723">
        <ele>884.20001220703</ele>
        <time>2018-06-09T11:47:54.000Z</time>
      </trkpt>
      <trkpt lat="46.41252" lon="5.84691">
        <ele>884.79998779297</ele>
        <time>2018-06-09T11:48:43.000Z</time>
      </trkpt>
      <trkpt lat="46.41248" lon="5.84691">
        <ele>884.79998779297</ele>
        <time>2018-06-09T11:49:19.000Z</time>
      </trkpt>
      <trkpt lat="46.4124" lon="5.84682">
        <ele>889.79998779297</ele>
        <time>2018-06-09T11:50:10.000Z</time>
      </trkpt>
      <trkpt lat="46.41244" lon="5.84688">
        <ele>888.79998779297</ele>
        <time>2018-06-09T11:50:31.000Z</time>
      </trkpt>
      <trkpt lat="46.41243" lon="5.84681">
        <ele>889.40002441406</ele>
        <time>2018-06-09T11:51:42.000Z</time>
      </trkpt>
      <trkpt lat="46.41237" lon="5.84667">
        <ele>889.59997558594</ele>
        <time>2018-06-09T11:55:31.000Z</time>
      </trkpt>
      <trkpt lat="46.41257" lon="5.84682">
        <ele>888.40002441406</ele>
        <time>2018-06-09T11:57:58.000Z</time>
      </trkpt>
      <trkpt lat="46.41263" lon="5.84685">
        <ele>886.79998779297</ele>
        <time>2018-06-09T11:58:00.000Z</time>
      </trkpt>
      <trkpt lat="46.41267" lon="5.84687">
        <ele>884.20001220703</ele>
        <time>2018-06-09T11:58:01.000Z</time>
      </trkpt>
      <trkpt lat="46.41273" lon="5.84689">
        <ele>885.59997558594</ele>
        <time>2018-06-09T11:58:02.000Z</time>
      </trkpt>
      <trkpt lat="46.41284" lon="5.84692">
        <ele>884.20001220703</ele>
        <time>2018-06-09T11:58:04.000Z</time>
      </trkpt>
      <trkpt lat="46.41288" lon="5.84693">
        <ele>882.59997558594</ele>
        <time>2018-06-09T11:58:05.000Z</time>
      </trkpt>
      <trkpt lat="46.41291" lon="5.84695">
        <ele>881.40002441406</ele>
        <time>2018-06-09T11:58:06.000Z</time>
      </trkpt>
      <trkpt lat="46.41293" lon="5.84698">
        <ele>880.20001220703</ele>
        <time>2018-06-09T11:58:07.000Z</time>
      </trkpt>
      <trkpt lat="46.41296" lon="5.84705">
        <ele>879</ele>
        <time>2018-06-09T11:58:09.000Z</time>
      </trkpt>
      <trkpt lat="46.41303" lon="5.84723">
        <ele>877.79998779297</ele>
        <time>2018-06-09T11:58:12.000Z</time>
      </trkpt>
      <trkpt lat="46.41306" lon="5.84728">
        <ele>877.20001220703</ele>
        <time>2018-06-09T11:58:13.000Z</time>
      </trkpt>
      <trkpt lat="46.41308" lon="5.84733">
        <ele>876.20001220703</ele>
        <time>2018-06-09T11:58:14.000Z</time>
      </trkpt>
      <trkpt lat="46.41309" lon="5.84737">
        <ele>874.79998779297</ele>
        <time>2018-06-09T11:58:15.000Z</time>
      </trkpt>
      <trkpt lat="46.41313" lon="5.84744">
        <ele>873.40002441406</ele>
        <time>2018-06-09T11:58:17.000Z</time>
      </trkpt>
      <trkpt lat="46.41317" lon="5.84762">
        <ele>872.20001220703</ele>
        <time>2018-06-09T11:58:20.000Z</time>
      </trkpt>
      <trkpt lat="46.41322" lon="5.84777">
        <ele>870.79998779297</ele>
        <time>2018-06-09T11:58:23.000Z</time>
      </trkpt>
      <trkpt lat="46.41347" lon="5.8481">
        <ele>872</ele>
        <time>2018-06-09T11:58:30.000Z</time>
      </trkpt>
      <trkpt lat="46.41357" lon="5.84825">
        <ele>873.20001220703</ele>
        <time>2018-06-09T11:58:37.000Z</time>
      </trkpt>
      <trkpt lat="46.41357" lon="5.84829">
        <ele>873.20001220703</ele>
        <time>2018-06-09T11:58:38.000Z</time>
      </trkpt>
      <trkpt lat="46.41363" lon="5.84853">
        <ele>871.59997558594</ele>
        <time>2018-06-09T11:58:42.000Z</time>
      </trkpt>
      <trkpt lat="46.41369" lon="5.8487">
        <ele>870</ele>
        <time>2018-06-09T11:58:44.000Z</time>
      </trkpt>
      <trkpt lat="46.41376" lon="5.84883">
        <ele>868</ele>
        <time>2018-06-09T11:58:46.000Z</time>
      </trkpt>
      <trkpt lat="46.41381" lon="5.84893">
        <ele>866.40002441406</ele>
        <time>2018-06-09T11:58:48.000Z</time>
      </trkpt>
      <trkpt lat="46.41382" lon="5.84898">
        <ele>865.40002441406</ele>
        <time>2018-06-09T11:58:49.000Z</time>
      </trkpt>
      <trkpt lat="46.4138" lon="5.84903">
        <ele>864.40002441406</ele>
        <time>2018-06-09T11:58:50.000Z</time>
      </trkpt>
      <trkpt lat="46.41381" lon="5.84908">
        <ele>863.20001220703</ele>
        <time>2018-06-09T11:58:52.000Z</time>
      </trkpt>
      <trkpt lat="46.4138" lon="5.84923">
        <ele>864.40002441406</ele>
        <time>2018-06-09T11:58:58.000Z</time>
      </trkpt>
      <trkpt lat="46.41377" lon="5.84937">
        <ele>865.59997558594</ele>
        <time>2018-06-09T11:59:03.000Z</time>
      </trkpt>
      <trkpt lat="46.41372" lon="5.84989">
        <ele>864.40002441406</ele>
        <time>2018-06-09T11:59:19.000Z</time>
      </trkpt>
      <trkpt lat="46.41372" lon="5.85002">
        <ele>862.59997558594</ele>
        <time>2018-06-09T11:59:21.000Z</time>
      </trkpt>
      <trkpt lat="46.41372" lon="5.85014">
        <ele>861.40002441406</ele>
        <time>2018-06-09T11:59:23.000Z</time>
      </trkpt>
      <trkpt lat="46.41373" lon="5.85025">
        <ele>860.79998779297</ele>
        <time>2018-06-09T11:59:25.000Z</time>
      </trkpt>
      <trkpt lat="46.41374" lon="5.85051">
        <ele>859.79998779297</ele>
        <time>2018-06-09T11:59:29.000Z</time>
      </trkpt>
      <trkpt lat="46.41373" lon="5.85068">
        <ele>858.59997558594</ele>
        <time>2018-06-09T11:59:32.000Z</time>
      </trkpt>
      <trkpt lat="46.41375" lon="5.85079">
        <ele>857.79998779297</ele>
        <time>2018-06-09T11:59:35.000Z</time>
      </trkpt>
      <trkpt lat="46.41389" lon="5.85094">
        <ele>858.40002441406</ele>
        <time>2018-06-09T11:59:42.000Z</time>
      </trkpt>
      <trkpt lat="46.4139" lon="5.85104">
        <ele>859</ele>
        <time>2018-06-09T11:59:45.000Z</time>
      </trkpt>
      <trkpt lat="46.41391" lon="5.85107">
        <ele>859.79998779297</ele>
        <time>2018-06-09T11:59:47.000Z</time>
      </trkpt>
      <trkpt lat="46.4141" lon="5.85127">
        <ele>860.40002441406</ele>
        <time>2018-06-09T11:59:55.000Z</time>
      </trkpt>
      <trkpt lat="46.41416" lon="5.85136">
        <ele>858.59997558594</ele>
        <time>2018-06-09T11:59:57.000Z</time>
      </trkpt>
      <trkpt lat="46.41422" lon="5.85146">
        <ele>856.79998779297</ele>
        <time>2018-06-09T11:59:59.000Z</time>
      </trkpt>
      <trkpt lat="46.41422" lon="5.85161">
        <ele>856.40002441406</ele>
        <time>2018-06-09T12:00:02.000Z</time>
      </trkpt>
      <trkpt lat="46.41427" lon="5.85194">
        <ele>856</ele>
        <time>2018-06-09T12:00:08.000Z</time>
      </trkpt>
      <trkpt lat="46.4143" lon="5.85197">
        <ele>855.79998779297</ele>
        <time>2018-06-09T12:00:09.000Z</time>
      </trkpt>
      <trkpt lat="46.41443" lon="5.85208">
        <ele>857</ele>
        <time>2018-06-09T12:00:16.000Z</time>
      </trkpt>
      <trkpt lat="46.41455" lon="5.85225">
        <ele>855.79998779297</ele>
        <time>2018-06-09T12:00:20.000Z</time>
      </trkpt>
      <trkpt lat="46.41457" lon="5.85238">
        <ele>854.59997558594</ele>
        <time>2018-06-09T12:00:23.000Z</time>
      </trkpt>
      <trkpt lat="46.41457" lon="5.8525">
        <ele>854.40002441406</ele>
        <time>2018-06-09T12:00:26.000Z</time>
      </trkpt>
      <trkpt lat="46.41458" lon="5.85265">
        <ele>853.40002441406</ele>
        <time>2018-06-09T12:00:30.000Z</time>
      </trkpt>
      <trkpt lat="46.4146" lon="5.85277">
        <ele>852</ele>
        <time>2018-06-09T12:00:32.000Z</time>
      </trkpt>
      <trkpt lat="46.4146" lon="5.85281">
        <ele>851</ele>
        <time>2018-06-09T12:00:33.000Z</time>
      </trkpt>
      <trkpt lat="46.41459" lon="5.85283">
        <ele>849.79998779297</ele>
        <time>2018-06-09T12:00:34.000Z</time>
      </trkpt>
      <trkpt lat="46.41457" lon="5.85285">
        <ele>848.59997558594</ele>
        <time>2018-06-09T12:00:36.000Z</time>
      </trkpt>
      <trkpt lat="46.41456" lon="5.8529">
        <ele>847.59997558594</ele>
        <time>2018-06-09T12:00:38.000Z</time>
      </trkpt>
      <trkpt lat="46.41455" lon="5.85296">
        <ele>846.59997558594</ele>
        <time>2018-06-09T12:00:40.000Z</time>
      </trkpt>
      <trkpt lat="46.41454" lon="5.85297">
        <ele>846</ele>
        <time>2018-06-09T12:00:41.000Z</time>
      </trkpt>
      <trkpt lat="46.4145" lon="5.853">
        <ele>844.79998779297</ele>
        <time>2018-06-09T12:00:43.000Z</time>
      </trkpt>
      <trkpt lat="46.41444" lon="5.85304">
        <ele>843.40002441406</ele>
        <time>2018-06-09T12:00:46.000Z</time>
      </trkpt>
      <trkpt lat="46.41446" lon="5.85307">
        <ele>842.20001220703</ele>
        <time>2018-06-09T12:00:49.000Z</time>
      </trkpt>
      <trkpt lat="46.41451" lon="5.85307">
        <ele>841</ele>
        <time>2018-06-09T12:00:52.000Z</time>
      </trkpt>
      <trkpt lat="46.4145" lon="5.85313">
        <ele>839.59997558594</ele>
        <time>2018-06-09T12:00:54.000Z</time>
      </trkpt>
      <trkpt lat="46.41451" lon="5.85315">
        <ele>837.79998779297</ele>
        <time>2018-06-09T12:00:56.000Z</time>
      </trkpt>
      <trkpt lat="46.41454" lon="5.85315">
        <ele>836.59997558594</ele>
        <time>2018-06-09T12:00:58.000Z</time>
      </trkpt>
      <trkpt lat="46.41457" lon="5.85315">
        <ele>836</ele>
        <time>2018-06-09T12:00:59.000Z</time>
      </trkpt>
      <trkpt lat="46.41459" lon="5.85314">
        <ele>835.40002441406</ele>
        <time>2018-06-09T12:01:00.000Z</time>
      </trkpt>
      <trkpt lat="46.41461" lon="5.85314">
        <ele>834.79998779297</ele>
        <time>2018-06-09T12:01:01.000Z</time>
      </trkpt>
      <trkpt lat="46.41464" lon="5.8532">
        <ele>834</ele>
        <time>2018-06-09T12:01:03.000Z</time>
      </trkpt>
      <trkpt lat="46.41466" lon="5.85332">
        <ele>832.79998779297</ele>
        <time>2018-06-09T12:01:05.000Z</time>
      </trkpt>
      <trkpt lat="46.41466" lon="5.85338">
        <ele>831.59997558594</ele>
        <time>2018-06-09T12:01:07.000Z</time>
      </trkpt>
      <trkpt lat="46.41459" lon="5.8534">
        <ele>831</ele>
        <time>2018-06-09T12:01:09.000Z</time>
      </trkpt>
      <trkpt lat="46.41454" lon="5.85341">
        <ele>830.40002441406</ele>
        <time>2018-06-09T12:01:10.000Z</time>
      </trkpt>
      <trkpt lat="46.41444" lon="5.85339">
        <ele>828.59997558594</ele>
        <time>2018-06-09T12:01:12.000Z</time>
      </trkpt>
      <trkpt lat="46.41433" lon="5.85339">
        <ele>826.79998779297</ele>
        <time>2018-06-09T12:01:14.000Z</time>
      </trkpt>
      <trkpt lat="46.41421" lon="5.85338">
        <ele>825.79998779297</ele>
        <time>2018-06-09T12:01:16.000Z</time>
      </trkpt>
      <trkpt lat="46.4141" lon="5.85339">
        <ele>825.20001220703</ele>
        <time>2018-06-09T12:01:18.000Z</time>
      </trkpt>
      <trkpt lat="46.41405" lon="5.85341">
        <ele>824.59997558594</ele>
        <time>2018-06-09T12:01:19.000Z</time>
      </trkpt>
      <trkpt lat="46.41401" lon="5.85344">
        <ele>823.40002441406</ele>
        <time>2018-06-09T12:01:20.000Z</time>
      </trkpt>
      <trkpt lat="46.41396" lon="5.85347">
        <ele>822.20001220703</ele>
        <time>2018-06-09T12:01:21.000Z</time>
      </trkpt>
      <trkpt lat="46.4139" lon="5.85349">
        <ele>820.79998779297</ele>
        <time>2018-06-09T12:01:22.000Z</time>
      </trkpt>
      <trkpt lat="46.41384" lon="5.8535">
        <ele>819.40002441406</ele>
        <time>2018-06-09T12:01:23.000Z</time>
      </trkpt>
      <trkpt lat="46.41378" lon="5.85353">
        <ele>818.20001220703</ele>
        <time>2018-06-09T12:01:24.000Z</time>
      </trkpt>
      <trkpt lat="46.41366" lon="5.85356">
        <ele>816.79998779297</ele>
        <time>2018-06-09T12:01:26.000Z</time>
      </trkpt>
      <trkpt lat="46.4136" lon="5.85358">
        <ele>816.40002441406</ele>
        <time>2018-06-09T12:01:27.000Z</time>
      </trkpt>
      <trkpt lat="46.41347" lon="5.85358">
        <ele>815.79998779297</ele>
        <time>2018-06-09T12:01:29.000Z</time>
      </trkpt>
      <trkpt lat="46.41328" lon="5.85354">
        <ele>814.59997558594</ele>
        <time>2018-06-09T12:01:32.000Z</time>
      </trkpt>
      <trkpt lat="46.41322" lon="5.85354">
        <ele>814</ele>
        <time>2018-06-09T12:01:33.000Z</time>
      </trkpt>
      <trkpt lat="46.41315" lon="5.85354">
        <ele>813.40002441406</ele>
        <time>2018-06-09T12:01:34.000Z</time>
      </trkpt>
      <trkpt lat="46.41306" lon="5.85356">
        <ele>812</ele>
        <time>2018-06-09T12:01:36.000Z</time>
      </trkpt>
      <trkpt lat="46.41299" lon="5.85359">
        <ele>811</ele>
        <time>2018-06-09T12:01:38.000Z</time>
      </trkpt>
      <trkpt lat="46.41278" lon="5.85369">
        <ele>809.59997558594</ele>
        <time>2018-06-09T12:01:42.000Z</time>
      </trkpt>
      <trkpt lat="46.41264" lon="5.85376">
        <ele>808.20001220703</ele>
        <time>2018-06-09T12:01:44.000Z</time>
      </trkpt>
      <trkpt lat="46.41255" lon="5.85382">
        <ele>806.79998779297</ele>
        <time>2018-06-09T12:01:45.000Z</time>
      </trkpt>
      <trkpt lat="46.4124" lon="5.85393">
        <ele>804</ele>
        <time>2018-06-09T12:01:47.000Z</time>
      </trkpt>
      <trkpt lat="46.41232" lon="5.85399">
        <ele>801.59997558594</ele>
        <time>2018-06-09T12:01:48.000Z</time>
      </trkpt>
      <trkpt lat="46.41225" lon="5.85403">
        <ele>799.59997558594</ele>
        <time>2018-06-09T12:01:49.000Z</time>
      </trkpt>
      <trkpt lat="46.41219" lon="5.85407">
        <ele>798.40002441406</ele>
        <time>2018-06-09T12:01:50.000Z</time>
      </trkpt>
      <trkpt lat="46.41206" lon="5.85414">
        <ele>797.20001220703</ele>
        <time>2018-06-09T12:01:52.000Z</time>
      </trkpt>
      <trkpt lat="46.41191" lon="5.8542">
        <ele>796</ele>
        <time>2018-06-09T12:01:54.000Z</time>
      </trkpt>
      <trkpt lat="46.41178" lon="5.85427">
        <ele>794.59997558594</ele>
        <time>2018-06-09T12:01:56.000Z</time>
      </trkpt>
      <trkpt lat="46.41159" lon="5.85437">
        <ele>793.40002441406</ele>
        <time>2018-06-09T12:01:59.000Z</time>
      </trkpt>
      <trkpt lat="46.4113" lon="5.85453">
        <ele>793.20001220703</ele>
        <time>2018-06-09T12:02:04.000Z</time>
      </trkpt>
      <trkpt lat="46.41124" lon="5.85457">
        <ele>793</ele>
        <time>2018-06-09T12:02:05.000Z</time>
      </trkpt>
      <trkpt lat="46.41114" lon="5.85465">
        <ele>792.20001220703</ele>
        <time>2018-06-09T12:02:07.000Z</time>
      </trkpt>
      <trkpt lat="46.41109" lon="5.85468">
        <ele>791.20001220703</ele>
        <time>2018-06-09T12:02:08.000Z</time>
      </trkpt>
      <trkpt lat="46.41101" lon="5.85467">
        <ele>790.20001220703</ele>
        <time>2018-06-09T12:02:09.000Z</time>
      </trkpt>
      <trkpt lat="46.41094" lon="5.85466">
        <ele>789.40002441406</ele>
        <time>2018-06-09T12:02:10.000Z</time>
      </trkpt>
      <trkpt lat="46.41089" lon="5.85465">
        <ele>788.59997558594</ele>
        <time>2018-06-09T12:02:11.000Z</time>
      </trkpt>
      <trkpt lat="46.41084" lon="5.85467">
        <ele>787.79998779297</ele>
        <time>2018-06-09T12:02:12.000Z</time>
      </trkpt>
      <trkpt lat="46.41081" lon="5.8547">
        <ele>787</ele>
        <time>2018-06-09T12:02:13.000Z</time>
      </trkpt>
      <trkpt lat="46.41076" lon="5.85475">
        <ele>786</ele>
        <time>2018-06-09T12:02:14.000Z</time>
      </trkpt>
      <trkpt lat="46.41071" lon="5.85479">
        <ele>785.20001220703</ele>
        <time>2018-06-09T12:02:15.000Z</time>
      </trkpt>
      <trkpt lat="46.41067" lon="5.85481">
        <ele>784.40002441406</ele>
        <time>2018-06-09T12:02:16.000Z</time>
      </trkpt>
      <trkpt lat="46.41063" lon="5.85485">
        <ele>783.79998779297</ele>
        <time>2018-06-09T12:02:17.000Z</time>
      </trkpt>
      <trkpt lat="46.41052" lon="5.85497">
        <ele>782.59997558594</ele>
        <time>2018-06-09T12:02:20.000Z</time>
      </trkpt>
      <trkpt lat="46.41049" lon="5.85503">
        <ele>781.40002441406</ele>
        <time>2018-06-09T12:02:21.000Z</time>
      </trkpt>
      <trkpt lat="46.41045" lon="5.85505">
        <ele>779.79998779297</ele>
        <time>2018-06-09T12:02:22.000Z</time>
      </trkpt>
      <trkpt lat="46.41041" lon="5.85508">
        <ele>778.59997558594</ele>
        <time>2018-06-09T12:02:23.000Z</time>
      </trkpt>
      <trkpt lat="46.41037" lon="5.85511">
        <ele>777.20001220703</ele>
        <time>2018-06-09T12:02:24.000Z</time>
      </trkpt>
      <trkpt lat="46.41032" lon="5.85515">
        <ele>775.59997558594</ele>
        <time>2018-06-09T12:02:25.000Z</time>
      </trkpt>
      <trkpt lat="46.41026" lon="5.85517">
        <ele>774</ele>
        <time>2018-06-09T12:02:26.000Z</time>
      </trkpt>
      <trkpt lat="46.4102" lon="5.85518">
        <ele>772.20001220703</ele>
        <time>2018-06-09T12:02:27.000Z</time>
      </trkpt>
      <trkpt lat="46.41014" lon="5.8552">
        <ele>770.59997558594</ele>
        <time>2018-06-09T12:02:28.000Z</time>
      </trkpt>
      <trkpt lat="46.41008" lon="5.85522">
        <ele>769.20001220703</ele>
        <time>2018-06-09T12:02:29.000Z</time>
      </trkpt>
      <trkpt lat="46.41001" lon="5.85523">
        <ele>767.79998779297</ele>
        <time>2018-06-09T12:02:30.000Z</time>
      </trkpt>
      <trkpt lat="46.40995" lon="5.85522">
        <ele>766.59997558594</ele>
        <time>2018-06-09T12:02:31.000Z</time>
      </trkpt>
      <trkpt lat="46.40988" lon="5.8552">
        <ele>765.20001220703</ele>
        <time>2018-06-09T12:02:32.000Z</time>
      </trkpt>
      <trkpt lat="46.40981" lon="5.85523">
        <ele>763.79998779297</ele>
        <time>2018-06-09T12:02:33.000Z</time>
      </trkpt>
      <trkpt lat="46.40973" lon="5.85523">
        <ele>762.20001220703</ele>
        <time>2018-06-09T12:02:34.000Z</time>
      </trkpt>
      <trkpt lat="46.40967" lon="5.85524">
        <ele>761</ele>
        <time>2018-06-09T12:02:35.000Z</time>
      </trkpt>
      <trkpt lat="46.4096" lon="5.85525">
        <ele>760</ele>
        <time>2018-06-09T12:02:36.000Z</time>
      </trkpt>
      <trkpt lat="46.40954" lon="5.85525">
        <ele>759.20001220703</ele>
        <time>2018-06-09T12:02:37.000Z</time>
      </trkpt>
      <trkpt lat="46.40943" lon="5.85525">
        <ele>758.20001220703</ele>
        <time>2018-06-09T12:02:39.000Z</time>
      </trkpt>
      <trkpt lat="46.40937" lon="5.85527">
        <ele>757.79998779297</ele>
        <time>2018-06-09T12:02:40.000Z</time>
      </trkpt>
      <trkpt lat="46.40923" lon="5.8553">
        <ele>757.59997558594</ele>
        <time>2018-06-09T12:02:42.000Z</time>
      </trkpt>
      <trkpt lat="46.40907" lon="5.85539">
        <ele>757.20001220703</ele>
        <time>2018-06-09T12:02:45.000Z</time>
      </trkpt>
      <trkpt lat="46.40902" lon="5.85542">
        <ele>756.59997558594</ele>
        <time>2018-06-09T12:02:46.000Z</time>
      </trkpt>
      <trkpt lat="46.40898" lon="5.85546">
        <ele>755.40002441406</ele>
        <time>2018-06-09T12:02:47.000Z</time>
      </trkpt>
      <trkpt lat="46.40893" lon="5.85552">
        <ele>754</ele>
        <time>2018-06-09T12:02:48.000Z</time>
      </trkpt>
      <trkpt lat="46.40888" lon="5.85558">
        <ele>752.20001220703</ele>
        <time>2018-06-09T12:02:49.000Z</time>
      </trkpt>
      <trkpt lat="46.40883" lon="5.85563">
        <ele>750.59997558594</ele>
        <time>2018-06-09T12:02:50.000Z</time>
      </trkpt>
      <trkpt lat="46.40879" lon="5.85565">
        <ele>749.59997558594</ele>
        <time>2018-06-09T12:02:51.000Z</time>
      </trkpt>
      <trkpt lat="46.40873" lon="5.85568">
        <ele>748.20001220703</ele>
        <time>2018-06-09T12:02:52.000Z</time>
      </trkpt>
      <trkpt lat="46.40868" lon="5.85572">
        <ele>747.79998779297</ele>
        <time>2018-06-09T12:02:53.000Z</time>
      </trkpt>
      <trkpt lat="46.40861" lon="5.85577">
        <ele>746.59997558594</ele>
        <time>2018-06-09T12:02:54.000Z</time>
      </trkpt>
      <trkpt lat="46.40853" lon="5.85583">
        <ele>746.59997558594</ele>
        <time>2018-06-09T12:02:55.000Z</time>
      </trkpt>
      <trkpt lat="46.40845" lon="5.85587">
        <ele>744.20001220703</ele>
        <time>2018-06-09T12:02:56.000Z</time>
      </trkpt>
      <trkpt lat="46.40838" lon="5.8559">
        <ele>742.20001220703</ele>
        <time>2018-06-09T12:02:57.000Z</time>
      </trkpt>
      <trkpt lat="46.40833" lon="5.85595">
        <ele>740</ele>
        <time>2018-06-09T12:02:58.000Z</time>
      </trkpt>
      <trkpt lat="46.40825" lon="5.856">
        <ele>738.40002441406</ele>
        <time>2018-06-09T12:02:59.000Z</time>
      </trkpt>
      <trkpt lat="46.40818" lon="5.85606">
        <ele>737.20001220703</ele>
        <time>2018-06-09T12:03:00.000Z</time>
      </trkpt>
      <trkpt lat="46.40812" lon="5.85611">
        <ele>736</ele>
        <time>2018-06-09T12:03:01.000Z</time>
      </trkpt>
      <trkpt lat="46.40805" lon="5.85615">
        <ele>734.79998779297</ele>
        <time>2018-06-09T12:03:02.000Z</time>
      </trkpt>
      <trkpt lat="46.40798" lon="5.85619">
        <ele>733.40002441406</ele>
        <time>2018-06-09T12:03:03.000Z</time>
      </trkpt>
      <trkpt lat="46.40791" lon="5.85621">
        <ele>732.40002441406</ele>
        <time>2018-06-09T12:03:04.000Z</time>
      </trkpt>
      <trkpt lat="46.4078" lon="5.85624">
        <ele>730.59997558594</ele>
        <time>2018-06-09T12:03:06.000Z</time>
      </trkpt>
      <trkpt lat="46.40769" lon="5.85627">
        <ele>729</ele>
        <time>2018-06-09T12:03:08.000Z</time>
      </trkpt>
      <trkpt lat="46.40758" lon="5.8563">
        <ele>727.59997558594</ele>
        <time>2018-06-09T12:03:10.000Z</time>
      </trkpt>
      <trkpt lat="46.40747" lon="5.85638">
        <ele>725.40002441406</ele>
        <time>2018-06-09T12:03:12.000Z</time>
      </trkpt>
      <trkpt lat="46.40742" lon="5.8564">
        <ele>723.79998779297</ele>
        <time>2018-06-09T12:03:13.000Z</time>
      </trkpt>
      <trkpt lat="46.40737" lon="5.8564">
        <ele>722.59997558594</ele>
        <time>2018-06-09T12:03:14.000Z</time>
      </trkpt>
      <trkpt lat="46.40732" lon="5.85639">
        <ele>721.40002441406</ele>
        <time>2018-06-09T12:03:17.000Z</time>
      </trkpt>
      <trkpt lat="46.40719" lon="5.85647">
        <ele>720.20001220703</ele>
        <time>2018-06-09T12:03:21.000Z</time>
      </trkpt>
      <trkpt lat="46.40711" lon="5.85648">
        <ele>718.59997558594</ele>
        <time>2018-06-09T12:03:23.000Z</time>
      </trkpt>
      <trkpt lat="46.40705" lon="5.85648">
        <ele>717.40002441406</ele>
        <time>2018-06-09T12:03:25.000Z</time>
      </trkpt>
      <trkpt lat="46.40699" lon="5.85652">
        <ele>716.20001220703</ele>
        <time>2018-06-09T12:03:27.000Z</time>
      </trkpt>
      <trkpt lat="46.40693" lon="5.85653">
        <ele>715</ele>
        <time>2018-06-09T12:03:29.000Z</time>
      </trkpt>
      <trkpt lat="46.40686" lon="5.85657">
        <ele>713.79998779297</ele>
        <time>2018-06-09T12:03:31.000Z</time>
      </trkpt>
      <trkpt lat="46.40682" lon="5.85661">
        <ele>712.79998779297</ele>
        <time>2018-06-09T12:03:32.000Z</time>
      </trkpt>
      <trkpt lat="46.40678" lon="5.85662">
        <ele>711.79998779297</ele>
        <time>2018-06-09T12:03:33.000Z</time>
      </trkpt>
      <trkpt lat="46.4067" lon="5.85666">
        <ele>710</ele>
        <time>2018-06-09T12:03:35.000Z</time>
      </trkpt>
      <trkpt lat="46.40666" lon="5.85668">
        <ele>708.59997558594</ele>
        <time>2018-06-09T12:03:36.000Z</time>
      </trkpt>
      <trkpt lat="46.40661" lon="5.85671">
        <ele>707</ele>
        <time>2018-06-09T12:03:37.000Z</time>
      </trkpt>
      <trkpt lat="46.40656" lon="5.85672">
        <ele>706.20001220703</ele>
        <time>2018-06-09T12:03:38.000Z</time>
      </trkpt>
      <trkpt lat="46.4065" lon="5.85676">
        <ele>705.59997558594</ele>
        <time>2018-06-09T12:03:39.000Z</time>
      </trkpt>
      <trkpt lat="46.40617" lon="5.8568">
        <ele>705.20001220703</ele>
        <time>2018-06-09T12:03:46.000Z</time>
      </trkpt>
      <trkpt lat="46.40606" lon="5.85682">
        <ele>704.40002441406</ele>
        <time>2018-06-09T12:03:48.000Z</time>
      </trkpt>
      <trkpt lat="46.40599" lon="5.85682">
        <ele>703.59997558594</ele>
        <time>2018-06-09T12:03:49.000Z</time>
      </trkpt>
      <trkpt lat="46.40592" lon="5.8568">
        <ele>702.79998779297</ele>
        <time>2018-06-09T12:03:50.000Z</time>
      </trkpt>
      <trkpt lat="46.40581" lon="5.85679">
        <ele>701.20001220703</ele>
        <time>2018-06-09T12:03:52.000Z</time>
      </trkpt>
      <trkpt lat="46.4057" lon="5.85681">
        <ele>699.59997558594</ele>
        <time>2018-06-09T12:03:54.000Z</time>
      </trkpt>
      <trkpt lat="46.40562" lon="5.8568">
        <ele>698</ele>
        <time>2018-06-09T12:03:56.000Z</time>
      </trkpt>
      <trkpt lat="46.40555" lon="5.85679">
        <ele>696.40002441406</ele>
        <time>2018-06-09T12:03:58.000Z</time>
      </trkpt>
      <trkpt lat="46.40546" lon="5.85676">
        <ele>695.40002441406</ele>
        <time>2018-06-09T12:04:00.000Z</time>
      </trkpt>
      <trkpt lat="46.40531" lon="5.85671">
        <ele>694</ele>
        <time>2018-06-09T12:04:03.000Z</time>
      </trkpt>
      <trkpt lat="46.40509" lon="5.85668">
        <ele>693</ele>
        <time>2018-06-09T12:04:08.000Z</time>
      </trkpt>
      <trkpt lat="46.4049" lon="5.85661">
        <ele>691.79998779297</ele>
        <time>2018-06-09T12:04:14.000Z</time>
      </trkpt>
      <trkpt lat="46.40487" lon="5.85647">
        <ele>693</ele>
        <time>2018-06-09T12:04:31.000Z</time>
      </trkpt>
      <trkpt lat="46.40484" lon="5.85646">
        <ele>694</ele>
        <time>2018-06-09T12:04:47.000Z</time>
      </trkpt>
      <trkpt lat="46.40481" lon="5.85644">
        <ele>694.59997558594</ele>
        <time>2018-06-09T12:05:48.000Z</time>
      </trkpt>
      <trkpt lat="46.40465" lon="5.8565">
        <ele>694</ele>
        <time>2018-06-09T12:06:52.000Z</time>
      </trkpt>
      <trkpt lat="46.40447" lon="5.85658">
        <ele>693</ele>
        <time>2018-06-09T12:06:57.000Z</time>
      </trkpt>
      <trkpt lat="46.40392" lon="5.85663">
        <ele>692</ele>
        <time>2018-06-09T12:07:11.000Z</time>
      </trkpt>
      <trkpt lat="46.4037" lon="5.8566">
        <ele>691</ele>
        <time>2018-06-09T12:07:16.000Z</time>
      </trkpt>
      <trkpt lat="46.40316" lon="5.85653">
        <ele>691</ele>
        <time>2018-06-09T12:07:32.000Z</time>
      </trkpt>
      <trkpt lat="46.40285" lon="5.85654">
        <ele>689.79998779297</ele>
        <time>2018-06-09T12:07:40.000Z</time>
      </trkpt>
      <trkpt lat="46.4027" lon="5.85649">
        <ele>689</ele>
        <time>2018-06-09T12:07:44.000Z</time>
      </trkpt>
      <trkpt lat="46.40267" lon="5.85647">
        <ele>688.59997558594</ele>
        <time>2018-06-09T12:07:45.000Z</time>
      </trkpt>
      <trkpt lat="46.40243" lon="5.85616">
        <ele>690.20001220703</ele>
        <time>2018-06-09T12:07:57.000Z</time>
      </trkpt>
      <trkpt lat="46.40233" lon="5.85606">
        <ele>691.20001220703</ele>
        <time>2018-06-09T12:08:01.000Z</time>
      </trkpt>
      <trkpt lat="46.40183" lon="5.85569">
        <ele>691</ele>
        <time>2018-06-09T12:08:18.000Z</time>
      </trkpt>
      <trkpt lat="46.40142" lon="5.85541">
        <ele>692.20001220703</ele>
        <time>2018-06-09T12:08:34.000Z</time>
      </trkpt>
      <trkpt lat="46.40127" lon="5.85529">
        <ele>693.20001220703</ele>
        <time>2018-06-09T12:08:42.000Z</time>
      </trkpt>
      <trkpt lat="46.40085" lon="5.85496">
        <ele>694.40002441406</ele>
        <time>2018-06-09T12:09:04.000Z</time>
      </trkpt>
      <trkpt lat="46.40077" lon="5.85484">
        <ele>695.40002441406</ele>
        <time>2018-06-09T12:09:10.000Z</time>
      </trkpt>
      <trkpt lat="46.40063" lon="5.85472">
        <ele>696.20001220703</ele>
        <time>2018-06-09T12:09:18.000Z</time>
      </trkpt>
      <trkpt lat="46.40059" lon="5.85471">
        <ele>696.40002441406</ele>
        <time>2018-06-09T12:09:20.000Z</time>
      </trkpt>
      <trkpt lat="46.40051" lon="5.85467">
        <ele>697</ele>
        <time>2018-06-09T12:09:24.000Z</time>
      </trkpt>
      <trkpt lat="46.40039" lon="5.85459">
        <ele>697.59997558594</ele>
        <time>2018-06-09T12:09:30.000Z</time>
      </trkpt>
      <trkpt lat="46.40029" lon="5.8544">
        <ele>698.79998779297</ele>
        <time>2018-06-09T12:09:38.000Z</time>
      </trkpt>
      <trkpt lat="46.4" lon="5.85404">
        <ele>697.79998779297</ele>
        <time>2018-06-09T12:09:50.000Z</time>
      </trkpt>
      <trkpt lat="46.39953" lon="5.85366">
        <ele>698.20001220703</ele>
        <time>2018-06-09T12:10:07.000Z</time>
      </trkpt>
      <trkpt lat="46.39934" lon="5.8536">
        <ele>698.79998779297</ele>
        <time>2018-06-09T12:10:15.000Z</time>
      </trkpt>
      <trkpt lat="46.39926" lon="5.85355">
        <ele>699.79998779297</ele>
        <time>2018-06-09T12:10:20.000Z</time>
      </trkpt>
      <trkpt lat="46.39917" lon="5.85352">
        <ele>700.79998779297</ele>
        <time>2018-06-09T12:10:25.000Z</time>
      </trkpt>
      <trkpt lat="46.39915" lon="5.8535">
        <ele>701</ele>
        <time>2018-06-09T12:10:26.000Z</time>
      </trkpt>
      <trkpt lat="46.39907" lon="5.8535">
        <ele>702</ele>
        <time>2018-06-09T12:10:31.000Z</time>
      </trkpt>
      <trkpt lat="46.39903" lon="5.85347">
        <ele>702.59997558594</ele>
        <time>2018-06-09T12:10:34.000Z</time>
      </trkpt>
      <trkpt lat="46.39901" lon="5.85347">
        <ele>703</ele>
        <time>2018-06-09T12:10:35.000Z</time>
      </trkpt>
      <trkpt lat="46.39879" lon="5.85342">
        <ele>703.40002441406</ele>
        <time>2018-06-09T12:10:47.000Z</time>
      </trkpt>
      <trkpt lat="46.39871" lon="5.85342">
        <ele>703.40002441406</ele>
        <time>2018-06-09T12:10:51.000Z</time>
      </trkpt>
      <trkpt lat="46.39846" lon="5.85333">
        <ele>704</ele>
        <time>2018-06-09T12:11:01.000Z</time>
      </trkpt>
      <trkpt lat="46.39836" lon="5.85328">
        <ele>705.20001220703</ele>
        <time>2018-06-09T12:11:08.000Z</time>
      </trkpt>
      <trkpt lat="46.39827" lon="5.85324">
        <ele>706.20001220703</ele>
        <time>2018-06-09T12:11:14.000Z</time>
      </trkpt>
      <trkpt lat="46.39814" lon="5.85322">
        <ele>707.20001220703</ele>
        <time>2018-06-09T12:11:20.000Z</time>
      </trkpt>
      <trkpt lat="46.3981" lon="5.8531">
        <ele>708.40002441406</ele>
        <time>2018-06-09T12:11:26.000Z</time>
      </trkpt>
      <trkpt lat="46.39809" lon="5.85308">
        <ele>708.59997558594</ele>
        <time>2018-06-09T12:11:27.000Z</time>
      </trkpt>
      <trkpt lat="46.39805" lon="5.85298">
        <ele>709.59997558594</ele>
        <time>2018-06-09T12:11:33.000Z</time>
      </trkpt>
      <trkpt lat="46.39804" lon="5.85288">
        <ele>710.59997558594</ele>
        <time>2018-06-09T12:11:39.000Z</time>
      </trkpt>
      <trkpt lat="46.39799" lon="5.85284">
        <ele>711.20001220703</ele>
        <time>2018-06-09T12:11:44.000Z</time>
      </trkpt>
      <trkpt lat="46.3979" lon="5.85277">
        <ele>711.79998779297</ele>
        <time>2018-06-09T12:11:51.000Z</time>
      </trkpt>
      <trkpt lat="46.39788" lon="5.85273">
        <ele>712</ele>
        <time>2018-06-09T12:11:53.000Z</time>
      </trkpt>
      <trkpt lat="46.39781" lon="5.85265">
        <ele>712.79998779297</ele>
        <time>2018-06-09T12:11:58.000Z</time>
      </trkpt>
      <trkpt lat="46.3977" lon="5.85257">
        <ele>713.79998779297</ele>
        <time>2018-06-09T12:12:05.000Z</time>
      </trkpt>
      <trkpt lat="46.39753" lon="5.85244">
        <ele>713.59997558594</ele>
        <time>2018-06-09T12:12:16.000Z</time>
      </trkpt>
      <trkpt lat="46.39747" lon="5.85244">
        <ele>713.20001220703</ele>
        <time>2018-06-09T12:12:18.000Z</time>
      </trkpt>
      <trkpt lat="46.39743" lon="5.8524">
        <ele>712.79998779297</ele>
        <time>2018-06-09T12:12:20.000Z</time>
      </trkpt>
      <trkpt lat="46.39732" lon="5.85217">
        <ele>711.59997558594</ele>
        <time>2018-06-09T12:12:28.000Z</time>
      </trkpt>
      <trkpt lat="46.39722" lon="5.85211">
        <ele>710.40002441406</ele>
        <time>2018-06-09T12:12:32.000Z</time>
      </trkpt>
      <trkpt lat="46.39695" lon="5.85182">
        <ele>709.40002441406</ele>
        <time>2018-06-09T12:12:41.000Z</time>
      </trkpt>
      <trkpt lat="46.39678" lon="5.85164">
        <ele>708.79998779297</ele>
        <time>2018-06-09T12:12:46.000Z</time>
      </trkpt>
      <trkpt lat="46.39647" lon="5.85125">
        <ele>708.40002441406</ele>
        <time>2018-06-09T12:12:55.000Z</time>
      </trkpt>
      <trkpt lat="46.39604" lon="5.85081">
        <ele>707.40002441406</ele>
        <time>2018-06-09T12:13:10.000Z</time>
      </trkpt>
      <trkpt lat="46.39562" lon="5.85033">
        <ele>708.20001220703</ele>
        <time>2018-06-09T12:13:27.000Z</time>
      </trkpt>
      <trkpt lat="46.39562" lon="5.85026">
        <ele>708.40002441406</ele>
        <time>2018-06-09T12:13:30.000Z</time>
      </trkpt>
      <trkpt lat="46.39533" lon="5.84973">
        <ele>708.20001220703</ele>
        <time>2018-06-09T12:13:44.000Z</time>
      </trkpt>
      <trkpt lat="46.3953" lon="5.8496">
        <ele>708</ele>
        <time>2018-06-09T12:13:46.000Z</time>
      </trkpt>
      <trkpt lat="46.39527" lon="5.84954">
        <ele>707.59997558594</ele>
        <time>2018-06-09T12:13:48.000Z</time>
      </trkpt>
      <trkpt lat="46.39523" lon="5.84946">
        <ele>707.40002441406</ele>
        <time>2018-06-09T12:13:50.000Z</time>
      </trkpt>
      <trkpt lat="46.39514" lon="5.84918">
        <ele>708.59997558594</ele>
        <time>2018-06-09T12:13:59.000Z</time>
      </trkpt>
      <trkpt lat="46.39504" lon="5.84885">
        <ele>709.20001220703</ele>
        <time>2018-06-09T12:14:08.000Z</time>
      </trkpt>
      <trkpt lat="46.39486" lon="5.84879">
        <ele>709.59997558594</ele>
        <time>2018-06-09T12:14:15.000Z</time>
      </trkpt>
      <trkpt lat="46.39476" lon="5.8488">
        <ele>710.59997558594</ele>
        <time>2018-06-09T12:14:20.000Z</time>
      </trkpt>
      <trkpt lat="46.39471" lon="5.84879">
        <ele>711.20001220703</ele>
        <time>2018-06-09T12:14:24.000Z</time>
      </trkpt>
      <trkpt lat="46.39462" lon="5.84877">
        <ele>711.79998779297</ele>
        <time>2018-06-09T12:14:28.000Z</time>
      </trkpt>
      <trkpt lat="46.39437" lon="5.84866">
        <ele>712.40002441406</ele>
        <time>2018-06-09T12:14:42.000Z</time>
      </trkpt>
      <trkpt lat="46.39433" lon="5.84862">
        <ele>712.40002441406</ele>
        <time>2018-06-09T12:14:44.000Z</time>
      </trkpt>
      <trkpt lat="46.39429" lon="5.84862">
        <ele>712.79998779297</ele>
        <time>2018-06-09T12:14:46.000Z</time>
      </trkpt>
      <trkpt lat="46.3942" lon="5.8486">
        <ele>714</ele>
        <time>2018-06-09T12:14:51.000Z</time>
      </trkpt>
      <trkpt lat="46.39409" lon="5.84853">
        <ele>715.20001220703</ele>
        <time>2018-06-09T12:14:57.000Z</time>
      </trkpt>
      <trkpt lat="46.39383" lon="5.84843">
        <ele>716.20001220703</ele>
        <time>2018-06-09T12:15:10.000Z</time>
      </trkpt>
      <trkpt lat="46.39371" lon="5.84828">
        <ele>717.40002441406</ele>
        <time>2018-06-09T12:15:20.000Z</time>
      </trkpt>
      <trkpt lat="46.39352" lon="5.84809">
        <ele>718.40002441406</ele>
        <time>2018-06-09T12:15:32.000Z</time>
      </trkpt>
      <trkpt lat="46.39344" lon="5.84804">
        <ele>719.40002441406</ele>
        <time>2018-06-09T12:15:38.000Z</time>
      </trkpt>
      <trkpt lat="46.39341" lon="5.84798">
        <ele>719.59997558594</ele>
        <time>2018-06-09T12:15:41.000Z</time>
      </trkpt>
      <trkpt lat="46.39316" lon="5.84765">
        <ele>720.59997558594</ele>
        <time>2018-06-09T12:15:57.000Z</time>
      </trkpt>
      <trkpt lat="46.39306" lon="5.84758">
        <ele>721.40002441406</ele>
        <time>2018-06-09T12:16:02.000Z</time>
      </trkpt>
      <trkpt lat="46.39303" lon="5.84756">
        <ele>721.59997558594</ele>
        <time>2018-06-09T12:16:03.000Z</time>
      </trkpt>
      <trkpt lat="46.39254" lon="5.84727">
        <ele>721.79998779297</ele>
        <time>2018-06-09T12:16:25.000Z</time>
      </trkpt>
      <trkpt lat="46.39203" lon="5.84692">
        <ele>720.79998779297</ele>
        <time>2018-06-09T12:16:39.000Z</time>
      </trkpt>
      <trkpt lat="46.39174" lon="5.84671">
        <ele>721.20001220703</ele>
        <time>2018-06-09T12:16:47.000Z</time>
      </trkpt>
      <trkpt lat="46.39158" lon="5.84669">
        <ele>721</ele>
        <time>2018-06-09T12:16:50.000Z</time>
      </trkpt>
      <trkpt lat="46.39147" lon="5.84666">
        <ele>720.79998779297</ele>
        <time>2018-06-09T12:16:52.000Z</time>
      </trkpt>
      <trkpt lat="46.39103" lon="5.84628">
        <ele>722.59997558594</ele>
        <time>2018-06-09T12:17:08.000Z</time>
      </trkpt>
      <trkpt lat="46.39073" lon="5.84608">
        <ele>723.59997558594</ele>
        <time>2018-06-09T12:17:20.000Z</time>
      </trkpt>
      <trkpt lat="46.39052" lon="5.84586">
        <ele>724.59997558594</ele>
        <time>2018-06-09T12:17:31.000Z</time>
      </trkpt>
      <trkpt lat="46.39035" lon="5.84577">
        <ele>725.79998779297</ele>
        <time>2018-06-09T12:17:39.000Z</time>
      </trkpt>
      <trkpt lat="46.39025" lon="5.84567">
        <ele>726.79998779297</ele>
        <time>2018-06-09T12:17:46.000Z</time>
      </trkpt>
      <trkpt lat="46.39014" lon="5.84567">
        <ele>728</ele>
        <time>2018-06-09T12:17:53.000Z</time>
      </trkpt>
      <trkpt lat="46.39011" lon="5.84567">
        <ele>728.59997558594</ele>
        <time>2018-06-09T12:17:56.000Z</time>
      </trkpt>
      <trkpt lat="46.39008" lon="5.84567">
        <ele>729</ele>
        <time>2018-06-09T12:18:02.000Z</time>
      </trkpt>
      <trkpt lat="46.39008" lon="5.84567">
        <ele>729.20001220703</ele>
        <time>2018-06-09T12:18:39.000Z</time>
      </trkpt>
      <trkpt lat="46.39008" lon="5.84567">
        <ele>729.59997558594</ele>
        <time>2018-06-09T12:19:51.000Z</time>
      </trkpt>
      <trkpt lat="46.39008" lon="5.84567">
        <ele>730</ele>
        <time>2018-06-09T12:20:37.000Z</time>
      </trkpt>
      <trkpt lat="46.39006" lon="5.84565">
        <ele>730</ele>
        <time>2018-06-09T12:20:39.000Z</time>
      </trkpt>
      <trkpt lat="46.39003" lon="5.84563">
        <ele>730.79998779297</ele>
        <time>2018-06-09T12:20:41.000Z</time>
      </trkpt>
      <trkpt lat="46.38998" lon="5.84563">
        <ele>730</ele>
        <time>2018-06-09T12:20:44.000Z</time>
      </trkpt>
      <trkpt lat="46.38995" lon="5.84556">
        <ele>730.20001220703</ele>
        <time>2018-06-09T12:22:09.000Z</time>
      </trkpt>
      <trkpt lat="46.38999" lon="5.84557">
        <ele>730.59997558594</ele>
        <time>2018-06-09T12:22:12.000Z</time>
      </trkpt>
      <trkpt lat="46.39003" lon="5.84554">
        <ele>730.40002441406</ele>
        <time>2018-06-09T12:22:28.000Z</time>
      </trkpt>
      <trkpt lat="46.39005" lon="5.84548">
        <ele>730.59997558594</ele>
        <time>2018-06-09T12:22:31.000Z</time>
      </trkpt>
      <trkpt lat="46.39018" lon="5.84542">
        <ele>731.79998779297</ele>
        <time>2018-06-09T12:22:38.000Z</time>
      </trkpt>
      <trkpt lat="46.39073" lon="5.84543">
        <ele>732.59997558594</ele>
        <time>2018-06-09T12:22:57.000Z</time>
      </trkpt>
      <trkpt lat="46.39086" lon="5.84544">
        <ele>732.79998779297</ele>
        <time>2018-06-09T12:23:01.000Z</time>
      </trkpt>
      <trkpt lat="46.39111" lon="5.84548">
        <ele>734.20001220703</ele>
        <time>2018-06-09T12:23:09.000Z</time>
      </trkpt>
      <trkpt lat="46.39129" lon="5.84556">
        <ele>735.20001220703</ele>
        <time>2018-06-09T12:23:15.000Z</time>
      </trkpt>
      <trkpt lat="46.39145" lon="5.84558">
        <ele>736.40002441406</ele>
        <time>2018-06-09T12:23:21.000Z</time>
      </trkpt>
      <trkpt lat="46.3916" lon="5.84564">
        <ele>737.40002441406</ele>
        <time>2018-06-09T12:23:28.000Z</time>
      </trkpt>
      <trkpt lat="46.3918" lon="5.84568">
        <ele>738.59997558594</ele>
        <time>2018-06-09T12:23:36.000Z</time>
      </trkpt>
      <trkpt lat="46.39197" lon="5.84571">
        <ele>739.79998779297</ele>
        <time>2018-06-09T12:23:43.000Z</time>
      </trkpt>
      <trkpt lat="46.39209" lon="5.84575">
        <ele>740.79998779297</ele>
        <time>2018-06-09T12:23:49.000Z</time>
      </trkpt>
      <trkpt lat="46.39222" lon="5.8458">
        <ele>741.79998779297</ele>
        <time>2018-06-09T12:23:55.000Z</time>
      </trkpt>
      <trkpt lat="46.39233" lon="5.84583">
        <ele>743</ele>
        <time>2018-06-09T12:24:00.000Z</time>
      </trkpt>
      <trkpt lat="46.39241" lon="5.84583">
        <ele>743.59997558594</ele>
        <time>2018-06-09T12:24:04.000Z</time>
      </trkpt>
      <trkpt lat="46.39247" lon="5.84585">
        <ele>744</ele>
        <time>2018-06-09T12:24:06.000Z</time>
      </trkpt>
      <trkpt lat="46.39263" lon="5.84583">
        <ele>745.20001220703</ele>
        <time>2018-06-09T12:24:15.000Z</time>
      </trkpt>
      <trkpt lat="46.39277" lon="5.84578">
        <ele>746.20001220703</ele>
        <time>2018-06-09T12:24:22.000Z</time>
      </trkpt>
      <trkpt lat="46.39293" lon="5.84578">
        <ele>747.20001220703</ele>
        <time>2018-06-09T12:24:30.000Z</time>
      </trkpt>
      <trkpt lat="46.39308" lon="5.84577">
        <ele>748.40002441406</ele>
        <time>2018-06-09T12:24:38.000Z</time>
      </trkpt>
      <trkpt lat="46.39321" lon="5.84578">
        <ele>749.40002441406</ele>
        <time>2018-06-09T12:24:45.000Z</time>
      </trkpt>
      <trkpt lat="46.39337" lon="5.84574">
        <ele>750.40002441406</ele>
        <time>2018-06-09T12:24:53.000Z</time>
      </trkpt>
      <trkpt lat="46.39347" lon="5.84576">
        <ele>751.59997558594</ele>
        <time>2018-06-09T12:25:00.000Z</time>
      </trkpt>
      <trkpt lat="46.39358" lon="5.84575">
        <ele>752.59997558594</ele>
        <time>2018-06-09T12:25:07.000Z</time>
      </trkpt>
      <trkpt lat="46.39372" lon="5.84576">
        <ele>753.59997558594</ele>
        <time>2018-06-09T12:25:15.000Z</time>
      </trkpt>
      <trkpt lat="46.39383" lon="5.84578">
        <ele>754.79998779297</ele>
        <time>2018-06-09T12:25:22.000Z</time>
      </trkpt>
      <trkpt lat="46.394" lon="5.84582">
        <ele>755.79998779297</ele>
        <time>2018-06-09T12:25:32.000Z</time>
      </trkpt>
      <trkpt lat="46.39418" lon="5.84586">
        <ele>757</ele>
        <time>2018-06-09T12:25:42.000Z</time>
      </trkpt>
      <trkpt lat="46.39432" lon="5.8458">
        <ele>758</ele>
        <time>2018-06-09T12:25:50.000Z</time>
      </trkpt>
      <trkpt lat="46.39434" lon="5.84567">
        <ele>759</ele>
        <time>2018-06-09T12:25:56.000Z</time>
      </trkpt>
      <trkpt lat="46.39431" lon="5.84556">
        <ele>760.20001220703</ele>
        <time>2018-06-09T12:26:00.000Z</time>
      </trkpt>
      <trkpt lat="46.39423" lon="5.84542">
        <ele>761.20001220703</ele>
        <time>2018-06-09T12:26:07.000Z</time>
      </trkpt>
      <trkpt lat="46.39417" lon="5.84533">
        <ele>762.20001220703</ele>
        <time>2018-06-09T12:26:12.000Z</time>
      </trkpt>
      <trkpt lat="46.39407" lon="5.84524">
        <ele>763.40002441406</ele>
        <time>2018-06-09T12:26:19.000Z</time>
      </trkpt>
      <trkpt lat="46.39393" lon="5.84509">
        <ele>764.40002441406</ele>
        <time>2018-06-09T12:26:29.000Z</time>
      </trkpt>
      <trkpt lat="46.39377" lon="5.84491">
        <ele>765.40002441406</ele>
        <time>2018-06-09T12:26:39.000Z</time>
      </trkpt>
      <trkpt lat="46.39367" lon="5.8448">
        <ele>766.59997558594</ele>
        <time>2018-06-09T12:26:47.000Z</time>
      </trkpt>
      <trkpt lat="46.39356" lon="5.84468">
        <ele>767.59997558594</ele>
        <time>2018-06-09T12:26:56.000Z</time>
      </trkpt>
      <trkpt lat="46.39352" lon="5.84465">
        <ele>767.79998779297</ele>
        <time>2018-06-09T12:26:59.000Z</time>
      </trkpt>
      <trkpt lat="46.39344" lon="5.84453">
        <ele>768.59997558594</ele>
        <time>2018-06-09T12:27:07.000Z</time>
      </trkpt>
      <trkpt lat="46.39336" lon="5.84441">
        <ele>769.79998779297</ele>
        <time>2018-06-09T12:27:16.000Z</time>
      </trkpt>
      <trkpt lat="46.39323" lon="5.84426">
        <ele>770.79998779297</ele>
        <time>2018-06-09T12:27:25.000Z</time>
      </trkpt>
      <trkpt lat="46.39314" lon="5.84413">
        <ele>771.79998779297</ele>
        <time>2018-06-09T12:27:32.000Z</time>
      </trkpt>
      <trkpt lat="46.39301" lon="5.844">
        <ele>772.79998779297</ele>
        <time>2018-06-09T12:27:40.000Z</time>
      </trkpt>
      <trkpt lat="46.39293" lon="5.84388">
        <ele>774</ele>
        <time>2018-06-09T12:27:47.000Z</time>
      </trkpt>
      <trkpt lat="46.39284" lon="5.84381">
        <ele>775</ele>
        <time>2018-06-09T12:27:54.000Z</time>
      </trkpt>
      <trkpt lat="46.39272" lon="5.84365">
        <ele>776</ele>
        <time>2018-06-09T12:28:05.000Z</time>
      </trkpt>
      <trkpt lat="46.39265" lon="5.84353">
        <ele>777.20001220703</ele>
        <time>2018-06-09T12:28:13.000Z</time>
      </trkpt>
      <trkpt lat="46.39252" lon="5.84334">
        <ele>778.20001220703</ele>
        <time>2018-06-09T12:28:23.000Z</time>
      </trkpt>
      <trkpt lat="46.39241" lon="5.84316">
        <ele>779.20001220703</ele>
        <time>2018-06-09T12:28:34.000Z</time>
      </trkpt>
      <trkpt lat="46.3923" lon="5.84296">
        <ele>780.40002441406</ele>
        <time>2018-06-09T12:28:45.000Z</time>
      </trkpt>
      <trkpt lat="46.39223" lon="5.84279">
        <ele>781.59997558594</ele>
        <time>2018-06-09T12:28:54.000Z</time>
      </trkpt>
      <trkpt lat="46.39216" lon="5.84269">
        <ele>782.59997558594</ele>
        <time>2018-06-09T12:29:01.000Z</time>
      </trkpt>
      <trkpt lat="46.39209" lon="5.84257">
        <ele>783.79998779297</ele>
        <time>2018-06-09T12:29:08.000Z</time>
      </trkpt>
      <trkpt lat="46.39212" lon="5.8424">
        <ele>784.79998779297</ele>
        <time>2018-06-09T12:29:15.000Z</time>
      </trkpt>
      <trkpt lat="46.39226" lon="5.84236">
        <ele>785.79998779297</ele>
        <time>2018-06-09T12:29:24.000Z</time>
      </trkpt>
      <trkpt lat="46.39234" lon="5.84238">
        <ele>786.20001220703</ele>
        <time>2018-06-09T12:29:29.000Z</time>
      </trkpt>
      <trkpt lat="46.39238" lon="5.84244">
        <ele>786.79998779297</ele>
        <time>2018-06-09T12:29:33.000Z</time>
      </trkpt>
      <trkpt lat="46.39247" lon="5.84249">
        <ele>788</ele>
        <time>2018-06-09T12:29:40.000Z</time>
      </trkpt>
      <trkpt lat="46.39263" lon="5.84254">
        <ele>789</ele>
        <time>2018-06-09T12:29:50.000Z</time>
      </trkpt>
      <trkpt lat="46.39273" lon="5.84256">
        <ele>790</ele>
        <time>2018-06-09T12:29:57.000Z</time>
      </trkpt>
      <trkpt lat="46.39292" lon="5.84264">
        <ele>791.20001220703</ele>
        <time>2018-06-09T12:30:10.000Z</time>
      </trkpt>
      <trkpt lat="46.393" lon="5.84267">
        <ele>792.20001220703</ele>
        <time>2018-06-09T12:30:15.000Z</time>
      </trkpt>
      <trkpt lat="46.3931" lon="5.84272">
        <ele>793.20001220703</ele>
        <time>2018-06-09T12:30:22.000Z</time>
      </trkpt>
      <trkpt lat="46.39318" lon="5.84278">
        <ele>794.20001220703</ele>
        <time>2018-06-09T12:30:27.000Z</time>
      </trkpt>
      <trkpt lat="46.39342" lon="5.84285">
        <ele>795.20001220703</ele>
        <time>2018-06-09T12:30:41.000Z</time>
      </trkpt>
      <trkpt lat="46.3936" lon="5.84294">
        <ele>796.40002441406</ele>
        <time>2018-06-09T12:30:52.000Z</time>
      </trkpt>
      <trkpt lat="46.39369" lon="5.843">
        <ele>797.40002441406</ele>
        <time>2018-06-09T12:30:59.000Z</time>
      </trkpt>
      <trkpt lat="46.39391" lon="5.84289">
        <ele>798.40002441406</ele>
        <time>2018-06-09T12:31:13.000Z</time>
      </trkpt>
      <trkpt lat="46.39416" lon="5.84283">
        <ele>799.40002441406</ele>
        <time>2018-06-09T12:31:30.000Z</time>
      </trkpt>
      <trkpt lat="46.39443" lon="5.84292">
        <ele>800.59997558594</ele>
        <time>2018-06-09T12:31:44.000Z</time>
      </trkpt>
      <trkpt lat="46.39457" lon="5.84303">
        <ele>801.59997558594</ele>
        <time>2018-06-09T12:31:52.000Z</time>
      </trkpt>
      <trkpt lat="46.39472" lon="5.84305">
        <ele>802.40002441406</ele>
        <time>2018-06-09T12:32:00.000Z</time>
      </trkpt>
      <trkpt lat="46.39475" lon="5.84303">
        <ele>802.59997558594</ele>
        <time>2018-06-09T12:32:02.000Z</time>
      </trkpt>
      <trkpt lat="46.3948" lon="5.84292">
        <ele>803.20001220703</ele>
        <time>2018-06-09T12:32:07.000Z</time>
      </trkpt>
      <trkpt lat="46.39483" lon="5.84279">
        <ele>803.59997558594</ele>
        <time>2018-06-09T12:32:11.000Z</time>
      </trkpt>
      <trkpt lat="46.39523" lon="5.84275">
        <ele>804.79998779297</ele>
        <time>2018-06-09T12:32:30.000Z</time>
      </trkpt>
      <trkpt lat="46.3954" lon="5.84288">
        <ele>805.59997558594</ele>
        <time>2018-06-09T12:32:38.000Z</time>
      </trkpt>
      <trkpt lat="46.39544" lon="5.84291">
        <ele>805.79998779297</ele>
        <time>2018-06-09T12:32:40.000Z</time>
      </trkpt>
      <trkpt lat="46.39557" lon="5.84301">
        <ele>806.79998779297</ele>
        <time>2018-06-09T12:32:47.000Z</time>
      </trkpt>
      <trkpt lat="46.39595" lon="5.84295">
        <ele>807.79998779297</ele>
        <time>2018-06-09T12:33:05.000Z</time>
      </trkpt>
      <trkpt lat="46.39606" lon="5.84273">
        <ele>809</ele>
        <time>2018-06-09T12:33:14.000Z</time>
      </trkpt>
      <trkpt lat="46.3962" lon="5.84252">
        <ele>809.20001220703</ele>
        <time>2018-06-09T12:33:23.000Z</time>
      </trkpt>
      <trkpt lat="46.39625" lon="5.84247">
        <ele>809.59997558594</ele>
        <time>2018-06-09T12:33:26.000Z</time>
      </trkpt>
      <trkpt lat="46.39631" lon="5.84247">
        <ele>810</ele>
        <time>2018-06-09T12:33:29.000Z</time>
      </trkpt>
      <trkpt lat="46.39641" lon="5.8425">
        <ele>811</ele>
        <time>2018-06-09T12:33:35.000Z</time>
      </trkpt>
      <trkpt lat="46.39657" lon="5.84251">
        <ele>812</ele>
        <time>2018-06-09T12:33:42.000Z</time>
      </trkpt>
      <trkpt lat="46.39679" lon="5.8425">
        <ele>813</ele>
        <time>2018-06-09T12:33:52.000Z</time>
      </trkpt>
      <trkpt lat="46.39684" lon="5.84251">
        <ele>813.20001220703</ele>
        <time>2018-06-09T12:33:54.000Z</time>
      </trkpt>
      <trkpt lat="46.39692" lon="5.84263">
        <ele>814.20001220703</ele>
        <time>2018-06-09T12:34:00.000Z</time>
      </trkpt>
      <trkpt lat="46.39701" lon="5.84276">
        <ele>815.20001220703</ele>
        <time>2018-06-09T12:34:07.000Z</time>
      </trkpt>
      <trkpt lat="46.39705" lon="5.84281">
        <ele>816</ele>
        <time>2018-06-09T12:34:11.000Z</time>
      </trkpt>
      <trkpt lat="46.39707" lon="5.84284">
        <ele>816.20001220703</ele>
        <time>2018-06-09T12:34:13.000Z</time>
      </trkpt>
      <trkpt lat="46.39708" lon="5.84285">
        <ele>816.40002441406</ele>
        <time>2018-06-09T12:34:14.000Z</time>
      </trkpt>
      <trkpt lat="46.39717" lon="5.84285">
        <ele>816.59997558594</ele>
        <time>2018-06-09T12:34:19.000Z</time>
      </trkpt>
      <trkpt lat="46.39722" lon="5.84288">
        <ele>816.79998779297</ele>
        <time>2018-06-09T12:34:22.000Z</time>
      </trkpt>
      <trkpt lat="46.39731" lon="5.84293">
        <ele>817.20001220703</ele>
        <time>2018-06-09T12:34:27.000Z</time>
      </trkpt>
      <trkpt lat="46.39736" lon="5.84295">
        <ele>817.40002441406</ele>
        <time>2018-06-09T12:34:29.000Z</time>
      </trkpt>
      <trkpt lat="46.39752" lon="5.84305">
        <ele>818.40002441406</ele>
        <time>2018-06-09T12:34:36.000Z</time>
      </trkpt>
      <trkpt lat="46.39756" lon="5.84307">
        <ele>818.79998779297</ele>
        <time>2018-06-09T12:34:38.000Z</time>
      </trkpt>
      <trkpt lat="46.39778" lon="5.84308">
        <ele>819.40002441406</ele>
        <time>2018-06-09T12:34:48.000Z</time>
      </trkpt>
      <trkpt lat="46.39806" lon="5.84318">
        <ele>820.40002441406</ele>
        <time>2018-06-09T12:35:02.000Z</time>
      </trkpt>
      <trkpt lat="46.39828" lon="5.84327">
        <ele>821.59997558594</ele>
        <time>2018-06-09T12:35:12.000Z</time>
      </trkpt>
      <trkpt lat="46.39838" lon="5.84335">
        <ele>822.59997558594</ele>
        <time>2018-06-09T12:35:19.000Z</time>
      </trkpt>
      <trkpt lat="46.39853" lon="5.84354">
        <ele>823.79998779297</ele>
        <time>2018-06-09T12:35:30.000Z</time>
      </trkpt>
      <trkpt lat="46.39886" lon="5.84387">
        <ele>824.79998779297</ele>
        <time>2018-06-09T12:35:51.000Z</time>
      </trkpt>
      <trkpt lat="46.39911" lon="5.84396">
        <ele>825.79998779297</ele>
        <time>2018-06-09T12:36:05.000Z</time>
      </trkpt>
      <trkpt lat="46.39925" lon="5.84401">
        <ele>826.79998779297</ele>
        <time>2018-06-09T12:36:12.000Z</time>
      </trkpt>
      <trkpt lat="46.39938" lon="5.84411">
        <ele>827.79998779297</ele>
        <time>2018-06-09T12:36:19.000Z</time>
      </trkpt>
      <trkpt lat="46.39952" lon="5.8443">
        <ele>828.79998779297</ele>
        <time>2018-06-09T12:36:29.000Z</time>
      </trkpt>
      <trkpt lat="46.39978" lon="5.8447">
        <ele>830</ele>
        <time>2018-06-09T12:36:47.000Z</time>
      </trkpt>
      <trkpt lat="46.39987" lon="5.84481">
        <ele>831</ele>
        <time>2018-06-09T12:36:53.000Z</time>
      </trkpt>
      <trkpt lat="46.40005" lon="5.84505">
        <ele>832</ele>
        <time>2018-06-09T12:37:06.000Z</time>
      </trkpt>
      <trkpt lat="46.40009" lon="5.84504">
        <ele>832.40002441406</ele>
        <time>2018-06-09T12:37:08.000Z</time>
      </trkpt>
      <trkpt lat="46.40013" lon="5.84499">
        <ele>832.59997558594</ele>
        <time>2018-06-09T12:37:10.000Z</time>
      </trkpt>
      <trkpt lat="46.40018" lon="5.84491">
        <ele>833.20001220703</ele>
        <time>2018-06-09T12:37:13.000Z</time>
      </trkpt>
      <trkpt lat="46.40018" lon="5.84489">
        <ele>833.40002441406</ele>
        <time>2018-06-09T12:37:14.000Z</time>
      </trkpt>
      <trkpt lat="46.4002" lon="5.84473">
        <ele>834.40002441406</ele>
        <time>2018-06-09T12:37:20.000Z</time>
      </trkpt>
      <trkpt lat="46.40025" lon="5.84469">
        <ele>835.40002441406</ele>
        <time>2018-06-09T12:37:47.000Z</time>
      </trkpt>
      <trkpt lat="46.40021" lon="5.84472">
        <ele>835.59997558594</ele>
        <time>2018-06-09T12:39:56.000Z</time>
      </trkpt>
      <trkpt lat="46.40026" lon="5.84467">
        <ele>836.59997558594</ele>
        <time>2018-06-09T12:39:58.000Z</time>
      </trkpt>
      <trkpt lat="46.40031" lon="5.84459">
        <ele>836.20001220703</ele>
        <time>2018-06-09T12:40:03.000Z</time>
      </trkpt>
      <trkpt lat="46.40043" lon="5.8445">
        <ele>837.20001220703</ele>
        <time>2018-06-09T12:40:13.000Z</time>
      </trkpt>
      <trkpt lat="46.40044" lon="5.84448">
        <ele>837.59997558594</ele>
        <time>2018-06-09T12:40:15.000Z</time>
      </trkpt>
      <trkpt lat="46.40045" lon="5.84447">
        <ele>837.59997558594</ele>
        <time>2018-06-09T12:40:16.000Z</time>
      </trkpt>
      <trkpt lat="46.40051" lon="5.84442">
        <ele>838.20001220703</ele>
        <time>2018-06-09T12:40:20.000Z</time>
      </trkpt>
      <trkpt lat="46.40054" lon="5.8444">
        <ele>838.20001220703</ele>
        <time>2018-06-09T12:40:22.000Z</time>
      </trkpt>
      <trkpt lat="46.40061" lon="5.84436">
        <ele>838.59997558594</ele>
        <time>2018-06-09T12:40:26.000Z</time>
      </trkpt>
      <trkpt lat="46.40071" lon="5.84431">
        <ele>839.79998779297</ele>
        <time>2018-06-09T12:40:34.000Z</time>
      </trkpt>
      <trkpt lat="46.40074" lon="5.84429">
        <ele>840.20001220703</ele>
        <time>2018-06-09T12:40:38.000Z</time>
      </trkpt>
      <trkpt lat="46.40079" lon="5.84429">
        <ele>841</ele>
        <time>2018-06-09T12:40:43.000Z</time>
      </trkpt>
      <trkpt lat="46.40081" lon="5.84427">
        <ele>841.20001220703</ele>
        <time>2018-06-09T12:40:44.000Z</time>
      </trkpt>
      <trkpt lat="46.4009" lon="5.84418">
        <ele>842</ele>
        <time>2018-06-09T12:40:51.000Z</time>
      </trkpt>
      <trkpt lat="46.40099" lon="5.84413">
        <ele>842.40002441406</ele>
        <time>2018-06-09T12:40:58.000Z</time>
      </trkpt>
      <trkpt lat="46.40104" lon="5.84401">
        <ele>843.20001220703</ele>
        <time>2018-06-09T12:41:04.000Z</time>
      </trkpt>
      <trkpt lat="46.40111" lon="5.8439">
        <ele>844.20001220703</ele>
        <time>2018-06-09T12:41:12.000Z</time>
      </trkpt>
      <trkpt lat="46.40121" lon="5.84375">
        <ele>845.20001220703</ele>
        <time>2018-06-09T12:41:22.000Z</time>
      </trkpt>
      <trkpt lat="46.40123" lon="5.84369">
        <ele>845.59997558594</ele>
        <time>2018-06-09T12:41:25.000Z</time>
      </trkpt>
      <trkpt lat="46.40128" lon="5.84358">
        <ele>846</ele>
        <time>2018-06-09T12:41:31.000Z</time>
      </trkpt>
      <trkpt lat="46.40129" lon="5.84355">
        <ele>846.20001220703</ele>
        <time>2018-06-09T12:41:33.000Z</time>
      </trkpt>
      <trkpt lat="46.4013" lon="5.84351">
        <ele>846.59997558594</ele>
        <time>2018-06-09T12:41:35.000Z</time>
      </trkpt>
      <trkpt lat="46.40128" lon="5.84342">
        <ele>847</ele>
        <time>2018-06-09T12:41:39.000Z</time>
      </trkpt>
      <trkpt lat="46.40126" lon="5.84339">
        <ele>847.40002441406</ele>
        <time>2018-06-09T12:41:41.000Z</time>
      </trkpt>
      <trkpt lat="46.4012" lon="5.84325">
        <ele>848.40002441406</ele>
        <time>2018-06-09T12:41:50.000Z</time>
      </trkpt>
      <trkpt lat="46.40113" lon="5.84307">
        <ele>848.79998779297</ele>
        <time>2018-06-09T12:41:57.000Z</time>
      </trkpt>
      <trkpt lat="46.401" lon="5.84282">
        <ele>847.20001220703</ele>
        <time>2018-06-09T12:42:01.000Z</time>
      </trkpt>
      <trkpt lat="46.40093" lon="5.84267">
        <ele>846.20001220703</ele>
        <time>2018-06-09T12:42:03.000Z</time>
      </trkpt>
      <trkpt lat="46.40084" lon="5.84246">
        <ele>845</ele>
        <time>2018-06-09T12:42:06.000Z</time>
      </trkpt>
      <trkpt lat="46.40067" lon="5.84216">
        <ele>845.20001220703</ele>
        <time>2018-06-09T12:42:11.000Z</time>
      </trkpt>
      <trkpt lat="46.40059" lon="5.84197">
        <ele>845.20001220703</ele>
        <time>2018-06-09T12:42:14.000Z</time>
      </trkpt>
      <trkpt lat="46.40052" lon="5.84175">
        <ele>846</ele>
        <time>2018-06-09T12:42:19.000Z</time>
      </trkpt>
      <trkpt lat="46.40047" lon="5.8416">
        <ele>847.20001220703</ele>
        <time>2018-06-09T12:42:23.000Z</time>
      </trkpt>
      <trkpt lat="46.4002" lon="5.84089">
        <ele>848.20001220703</ele>
        <time>2018-06-09T12:42:39.000Z</time>
      </trkpt>
      <trkpt lat="46.40011" lon="5.84066">
        <ele>849.40002441406</ele>
        <time>2018-06-09T12:42:46.000Z</time>
      </trkpt>
      <trkpt lat="46.40002" lon="5.84044">
        <ele>850.59997558594</ele>
        <time>2018-06-09T12:42:53.000Z</time>
      </trkpt>
      <trkpt lat="46.39972" lon="5.83975">
        <ele>851.40002441406</ele>
        <time>2018-06-09T12:43:11.000Z</time>
      </trkpt>
      <trkpt lat="46.3995" lon="5.83933">
        <ele>851.59997558594</ele>
        <time>2018-06-09T12:43:22.000Z</time>
      </trkpt>
      <trkpt lat="46.39945" lon="5.8391">
        <ele>852.79998779297</ele>
        <time>2018-06-09T12:43:29.000Z</time>
      </trkpt>
      <trkpt lat="46.39942" lon="5.83897">
        <ele>853.79998779297</ele>
        <time>2018-06-09T12:43:35.000Z</time>
      </trkpt>
      <trkpt lat="46.39941" lon="5.83894">
        <ele>854.20001220703</ele>
        <time>2018-06-09T12:43:36.000Z</time>
      </trkpt>
      <trkpt lat="46.39941" lon="5.83887">
        <ele>855</ele>
        <time>2018-06-09T12:43:39.000Z</time>
      </trkpt>
      <trkpt lat="46.39939" lon="5.83882">
        <ele>855.79998779297</ele>
        <time>2018-06-09T12:43:42.000Z</time>
      </trkpt>
      <trkpt lat="46.39938" lon="5.83879">
        <ele>856</ele>
        <time>2018-06-09T12:43:44.000Z</time>
      </trkpt>
      <trkpt lat="46.39936" lon="5.83874">
        <ele>856.59997558594</ele>
        <time>2018-06-09T12:43:47.000Z</time>
      </trkpt>
      <trkpt lat="46.39934" lon="5.83869">
        <ele>857</ele>
        <time>2018-06-09T12:43:51.000Z</time>
      </trkpt>
      <trkpt lat="46.3993" lon="5.83861">
        <ele>857.20001220703</ele>
        <time>2018-06-09T12:43:55.000Z</time>
      </trkpt>
      <trkpt lat="46.39923" lon="5.83856">
        <ele>857.20001220703</ele>
        <time>2018-06-09T12:44:00.000Z</time>
      </trkpt>
      <trkpt lat="46.39894" lon="5.83795">
        <ele>857.79998779297</ele>
        <time>2018-06-09T12:44:26.000Z</time>
      </trkpt>
      <trkpt lat="46.39892" lon="5.83781">
        <ele>858.20001220703</ele>
        <time>2018-06-09T12:44:30.000Z</time>
      </trkpt>
      <trkpt lat="46.39873" lon="5.83757">
        <ele>858.40002441406</ele>
        <time>2018-06-09T12:45:33.000Z</time>
      </trkpt>
      <trkpt lat="46.39868" lon="5.83754">
        <ele>858.20001220703</ele>
        <time>2018-06-09T12:45:35.000Z</time>
      </trkpt>
      <trkpt lat="46.39849" lon="5.83742">
        <ele>857.20001220703</ele>
        <time>2018-06-09T12:45:41.000Z</time>
      </trkpt>
      <trkpt lat="46.39807" lon="5.83691">
        <ele>856.79998779297</ele>
        <time>2018-06-09T12:45:56.000Z</time>
      </trkpt>
      <trkpt lat="46.398" lon="5.83642">
        <ele>856.20001220703</ele>
        <time>2018-06-09T12:46:08.000Z</time>
      </trkpt>
      <trkpt lat="46.398" lon="5.83635">
        <ele>855.40002441406</ele>
        <time>2018-06-09T12:46:09.000Z</time>
      </trkpt>
      <trkpt lat="46.39799" lon="5.83619">
        <ele>853.79998779297</ele>
        <time>2018-06-09T12:46:11.000Z</time>
      </trkpt>
      <trkpt lat="46.398" lon="5.83603">
        <ele>852.79998779297</ele>
        <time>2018-06-09T12:46:13.000Z</time>
      </trkpt>
      <trkpt lat="46.398" lon="5.83595">
        <ele>852.59997558594</ele>
        <time>2018-06-09T12:46:14.000Z</time>
      </trkpt>
      <trkpt lat="46.39808" lon="5.83563">
        <ele>853.40002441406</ele>
        <time>2018-06-09T12:46:19.000Z</time>
      </trkpt>
      <trkpt lat="46.39817" lon="5.83549">
        <ele>853.59997558594</ele>
        <time>2018-06-09T12:46:22.000Z</time>
      </trkpt>
      <trkpt lat="46.39861" lon="5.83517">
        <ele>853.79998779297</ele>
        <time>2018-06-09T12:46:35.000Z</time>
      </trkpt>
      <trkpt lat="46.39891" lon="5.8345">
        <ele>854.20001220703</ele>
        <time>2018-06-09T12:46:50.000Z</time>
      </trkpt>
      <trkpt lat="46.39898" lon="5.83437">
        <ele>855</ele>
        <time>2018-06-09T12:46:54.000Z</time>
      </trkpt>
      <trkpt lat="46.39908" lon="5.83399">
        <ele>856</ele>
        <time>2018-06-09T12:47:03.000Z</time>
      </trkpt>
      <trkpt lat="46.39904" lon="5.83377">
        <ele>857</ele>
        <time>2018-06-09T12:47:10.000Z</time>
      </trkpt>
      <trkpt lat="46.39905" lon="5.83375">
        <ele>857</ele>
        <time>2018-06-09T12:47:11.000Z</time>
      </trkpt>
      <trkpt lat="46.399" lon="5.83352">
        <ele>858</ele>
        <time>2018-06-09T12:47:19.000Z</time>
      </trkpt>
      <trkpt lat="46.39893" lon="5.83329">
        <ele>859</ele>
        <time>2018-06-09T12:47:27.000Z</time>
      </trkpt>
      <trkpt lat="46.39884" lon="5.833">
        <ele>859.59997558594</ele>
        <time>2018-06-09T12:47:35.000Z</time>
      </trkpt>
      <trkpt lat="46.39882" lon="5.83291">
        <ele>860.20001220703</ele>
        <time>2018-06-09T12:47:38.000Z</time>
      </trkpt>
      <trkpt lat="46.39878" lon="5.8328">
        <ele>861.20001220703</ele>
        <time>2018-06-09T12:47:42.000Z</time>
      </trkpt>
      <trkpt lat="46.39874" lon="5.83272">
        <ele>862.40002441406</ele>
        <time>2018-06-09T12:47:46.000Z</time>
      </trkpt>
      <trkpt lat="46.39853" lon="5.8326">
        <ele>863.59997558594</ele>
        <time>2018-06-09T12:48:00.000Z</time>
      </trkpt>
      <trkpt lat="46.3985" lon="5.8326">
        <ele>863.79998779297</ele>
        <time>2018-06-09T12:48:02.000Z</time>
      </trkpt>
      <trkpt lat="46.39836" lon="5.83244">
        <ele>864.59997558594</ele>
        <time>2018-06-09T12:48:11.000Z</time>
      </trkpt>
      <trkpt lat="46.39801" lon="5.83199">
        <ele>865.59997558594</ele>
        <time>2018-06-09T12:48:35.000Z</time>
      </trkpt>
      <trkpt lat="46.39796" lon="5.83184">
        <ele>866.20001220703</ele>
        <time>2018-06-09T12:48:41.000Z</time>
      </trkpt>
      <trkpt lat="46.39795" lon="5.83172">
        <ele>866.79998779297</ele>
        <time>2018-06-09T12:48:45.000Z</time>
      </trkpt>
      <trkpt lat="46.39797" lon="5.83166">
        <ele>867.20001220703</ele>
        <time>2018-06-09T12:48:48.000Z</time>
      </trkpt>
      <trkpt lat="46.39798" lon="5.83161">
        <ele>867.20001220703</ele>
        <time>2018-06-09T12:48:50.000Z</time>
      </trkpt>
      <trkpt lat="46.39801" lon="5.83156">
        <ele>867.40002441406</ele>
        <time>2018-06-09T12:48:52.000Z</time>
      </trkpt>
      <trkpt lat="46.39806" lon="5.83144">
        <ele>867.20001220703</ele>
        <time>2018-06-09T12:48:55.000Z</time>
      </trkpt>
      <trkpt lat="46.39822" lon="5.83116">
        <ele>865.20001220703</ele>
        <time>2018-06-09T12:48:59.000Z</time>
      </trkpt>
      <trkpt lat="46.3983" lon="5.83101">
        <ele>864</ele>
        <time>2018-06-09T12:49:01.000Z</time>
      </trkpt>
      <trkpt lat="46.39844" lon="5.83073">
        <ele>863.20001220703</ele>
        <time>2018-06-09T12:49:05.000Z</time>
      </trkpt>
      <trkpt lat="46.3985" lon="5.83049">
        <ele>863</ele>
        <time>2018-06-09T12:49:08.000Z</time>
      </trkpt>
      <trkpt lat="46.39853" lon="5.83041">
        <ele>863</ele>
        <time>2018-06-09T12:49:09.000Z</time>
      </trkpt>
      <trkpt lat="46.39861" lon="5.83026">
        <ele>862.20001220703</ele>
        <time>2018-06-09T12:49:11.000Z</time>
      </trkpt>
      <trkpt lat="46.39865" lon="5.83021">
        <ele>862</ele>
        <time>2018-06-09T12:49:12.000Z</time>
      </trkpt>
      <trkpt lat="46.39869" lon="5.83017">
        <ele>861.59997558594</ele>
        <time>2018-06-09T12:49:13.000Z</time>
      </trkpt>
      <trkpt lat="46.39901" lon="5.82986">
        <ele>863</ele>
        <time>2018-06-09T12:49:24.000Z</time>
      </trkpt>
      <trkpt lat="46.39907" lon="5.82974">
        <ele>864.40002441406</ele>
        <time>2018-06-09T12:49:28.000Z</time>
      </trkpt>
      <trkpt lat="46.39911" lon="5.82967">
        <ele>865.59997558594</ele>
        <time>2018-06-09T12:49:31.000Z</time>
      </trkpt>
      <trkpt lat="46.39914" lon="5.82964">
        <ele>865.79998779297</ele>
        <time>2018-06-09T12:49:33.000Z</time>
      </trkpt>
      <trkpt lat="46.39926" lon="5.82957">
        <ele>866.59997558594</ele>
        <time>2018-06-09T12:49:40.000Z</time>
      </trkpt>
      <trkpt lat="46.39947" lon="5.82955">
        <ele>865.40002441406</ele>
        <time>2018-06-09T12:49:47.000Z</time>
      </trkpt>
      <trkpt lat="46.39985" lon="5.82946">
        <ele>866.40002441406</ele>
        <time>2018-06-09T12:50:03.000Z</time>
      </trkpt>
      <trkpt lat="46.3999" lon="5.82939">
        <ele>866.79998779297</ele>
        <time>2018-06-09T12:50:06.000Z</time>
      </trkpt>
      <trkpt lat="46.3999" lon="5.82934">
        <ele>867</ele>
        <time>2018-06-09T12:50:08.000Z</time>
      </trkpt>
      <trkpt lat="46.39979" lon="5.82912">
        <ele>866.40002441406</ele>
        <time>2018-06-09T12:50:20.000Z</time>
      </trkpt>
      <trkpt lat="46.39967" lon="5.82901">
        <ele>865.20001220703</ele>
        <time>2018-06-09T12:50:24.000Z</time>
      </trkpt>
      <trkpt lat="46.39954" lon="5.82881">
        <ele>864</ele>
        <time>2018-06-09T12:50:28.000Z</time>
      </trkpt>
      <trkpt lat="46.39946" lon="5.82869">
        <ele>863</ele>
        <time>2018-06-09T12:50:31.000Z</time>
      </trkpt>
      <trkpt lat="46.39938" lon="5.82857">
        <ele>864</ele>
        <time>2018-06-09T12:50:37.000Z</time>
      </trkpt>
      <trkpt lat="46.39933" lon="5.82853">
        <ele>865.40002441406</ele>
        <time>2018-06-09T12:50:40.000Z</time>
      </trkpt>
      <trkpt lat="46.39929" lon="5.82845">
        <ele>866.40002441406</ele>
        <time>2018-06-09T12:50:44.000Z</time>
      </trkpt>
      <trkpt lat="46.3992" lon="5.82833">
        <ele>867.40002441406</ele>
        <time>2018-06-09T12:50:51.000Z</time>
      </trkpt>
      <trkpt lat="46.39913" lon="5.82827">
        <ele>867.20001220703</ele>
        <time>2018-06-09T12:50:53.000Z</time>
      </trkpt>
      <trkpt lat="46.39906" lon="5.82816">
        <ele>866</ele>
        <time>2018-06-09T12:50:55.000Z</time>
      </trkpt>
      <trkpt lat="46.39899" lon="5.82802">
        <ele>864.79998779297</ele>
        <time>2018-06-09T12:50:57.000Z</time>
      </trkpt>
      <trkpt lat="46.3988" lon="5.82754">
        <ele>865.79998779297</ele>
        <time>2018-06-09T12:51:11.000Z</time>
      </trkpt>
      <trkpt lat="46.39849" lon="5.82688">
        <ele>866</ele>
        <time>2018-06-09T12:51:29.000Z</time>
      </trkpt>
      <trkpt lat="46.3984" lon="5.82671">
        <ele>866.79998779297</ele>
        <time>2018-06-09T12:51:35.000Z</time>
      </trkpt>
      <trkpt lat="46.39832" lon="5.8265">
        <ele>868</ele>
        <time>2018-06-09T12:51:43.000Z</time>
      </trkpt>
      <trkpt lat="46.39829" lon="5.82644">
        <ele>869</ele>
        <time>2018-06-09T12:51:46.000Z</time>
      </trkpt>
      <trkpt lat="46.39826" lon="5.82634">
        <ele>870.20001220703</ele>
        <time>2018-06-09T12:51:50.000Z</time>
      </trkpt>
      <trkpt lat="46.39823" lon="5.82624">
        <ele>871.40002441406</ele>
        <time>2018-06-09T12:51:55.000Z</time>
      </trkpt>
      <trkpt lat="46.39822" lon="5.82615">
        <ele>872.59997558594</ele>
        <time>2018-06-09T12:51:59.000Z</time>
      </trkpt>
      <trkpt lat="46.39819" lon="5.82604">
        <ele>873.59997558594</ele>
        <time>2018-06-09T12:52:04.000Z</time>
      </trkpt>
      <trkpt lat="46.39785" lon="5.82554">
        <ele>874</ele>
        <time>2018-06-09T12:52:32.000Z</time>
      </trkpt>
      <trkpt lat="46.39781" lon="5.82552">
        <ele>874.59997558594</ele>
        <time>2018-06-09T12:52:34.000Z</time>
      </trkpt>
      <trkpt lat="46.39733" lon="5.82515">
        <ele>875.40002441406</ele>
        <time>2018-06-09T12:52:55.000Z</time>
      </trkpt>
      <trkpt lat="46.39729" lon="5.82512">
        <ele>875.79998779297</ele>
        <time>2018-06-09T12:52:57.000Z</time>
      </trkpt>
      <trkpt lat="46.39717" lon="5.82502">
        <ele>876.40002441406</ele>
        <time>2018-06-09T12:53:05.000Z</time>
      </trkpt>
      <trkpt lat="46.39713" lon="5.82502">
        <ele>877</ele>
        <time>2018-06-09T12:53:07.000Z</time>
      </trkpt>
      <trkpt lat="46.39705" lon="5.82499">
        <ele>878.20001220703</ele>
        <time>2018-06-09T12:53:11.000Z</time>
      </trkpt>
      <trkpt lat="46.39695" lon="5.82495">
        <ele>879.20001220703</ele>
        <time>2018-06-09T12:53:17.000Z</time>
      </trkpt>
      <trkpt lat="46.39669" lon="5.82484">
        <ele>880.40002441406</ele>
        <time>2018-06-09T12:53:33.000Z</time>
      </trkpt>
      <trkpt lat="46.39649" lon="5.82475">
        <ele>881.40002441406</ele>
        <time>2018-06-09T12:53:43.000Z</time>
      </trkpt>
      <trkpt lat="46.39641" lon="5.82465">
        <ele>882.59997558594</ele>
        <time>2018-06-09T12:53:49.000Z</time>
      </trkpt>
      <trkpt lat="46.3963" lon="5.82462">
        <ele>883.59997558594</ele>
        <time>2018-06-09T12:53:55.000Z</time>
      </trkpt>
      <trkpt lat="46.39618" lon="5.82457">
        <ele>884.79998779297</ele>
        <time>2018-06-09T12:54:03.000Z</time>
      </trkpt>
      <trkpt lat="46.39612" lon="5.82455">
        <ele>884.79998779297</ele>
        <time>2018-06-09T12:54:07.000Z</time>
      </trkpt>
      <trkpt lat="46.39606" lon="5.82455">
        <ele>884.59997558594</ele>
        <time>2018-06-09T12:54:10.000Z</time>
      </trkpt>
      <trkpt lat="46.39588" lon="5.82475">
        <ele>885.79998779297</ele>
        <time>2018-06-09T12:54:48.000Z</time>
      </trkpt>
      <trkpt lat="46.39578" lon="5.82473">
        <ele>886.59997558594</ele>
        <time>2018-06-09T12:55:37.000Z</time>
      </trkpt>
      <trkpt lat="46.39577" lon="5.82473">
        <ele>886.79998779297</ele>
        <time>2018-06-09T12:55:38.000Z</time>
      </trkpt>
      <trkpt lat="46.39574" lon="5.82472">
        <ele>887.40002441406</ele>
        <time>2018-06-09T12:55:42.000Z</time>
      </trkpt>
      <trkpt lat="46.39571" lon="5.82469">
        <ele>887.40002441406</ele>
        <time>2018-06-09T12:55:46.000Z</time>
      </trkpt>
      <trkpt lat="46.39567" lon="5.82471">
        <ele>887.20001220703</ele>
        <time>2018-06-09T12:55:49.000Z</time>
      </trkpt>
      <trkpt lat="46.39564" lon="5.82485">
        <ele>888</ele>
        <time>2018-06-09T12:55:59.000Z</time>
      </trkpt>
      <trkpt lat="46.39563" lon="5.82491">
        <ele>889</ele>
        <time>2018-06-09T12:56:04.000Z</time>
      </trkpt>
      <trkpt lat="46.39566" lon="5.825">
        <ele>890.20001220703</ele>
        <time>2018-06-09T12:56:12.000Z</time>
      </trkpt>
      <trkpt lat="46.39569" lon="5.82509">
        <ele>891.20001220703</ele>
        <time>2018-06-09T12:56:20.000Z</time>
      </trkpt>
      <trkpt lat="46.39575" lon="5.82515">
        <ele>892.20001220703</ele>
        <time>2018-06-09T12:56:29.000Z</time>
      </trkpt>
      <trkpt lat="46.39576" lon="5.82514">
        <ele>892.59997558594</ele>
        <time>2018-06-09T12:56:36.000Z</time>
      </trkpt>
      <trkpt lat="46.39572" lon="5.82522">
        <ele>893</ele>
        <time>2018-06-09T13:00:52.000Z</time>
      </trkpt>
      <trkpt lat="46.39581" lon="5.82533">
        <ele>893</ele>
        <time>2018-06-09T13:03:37.000Z</time>
      </trkpt>
      <trkpt lat="46.39581" lon="5.8254">
        <ele>893</ele>
        <time>2018-06-09T13:04:53.000Z</time>
      </trkpt>
      <trkpt lat="46.39575" lon="5.82545">
        <ele>891</ele>
        <time>2018-06-09T13:04:55.000Z</time>
      </trkpt>
      <trkpt lat="46.39571" lon="5.82546">
        <ele>889.40002441406</ele>
        <time>2018-06-09T13:04:56.000Z</time>
      </trkpt>
      <trkpt lat="46.39566" lon="5.82546">
        <ele>888</ele>
        <time>2018-06-09T13:04:57.000Z</time>
      </trkpt>
      <trkpt lat="46.39561" lon="5.82544">
        <ele>887.20001220703</ele>
        <time>2018-06-09T13:04:58.000Z</time>
      </trkpt>
      <trkpt lat="46.39556" lon="5.82542">
        <ele>885.20001220703</ele>
        <time>2018-06-09T13:04:59.000Z</time>
      </trkpt>
      <trkpt lat="46.39551" lon="5.82541">
        <ele>886</ele>
        <time>2018-06-09T13:05:00.000Z</time>
      </trkpt>
      <trkpt lat="46.39541" lon="5.82539">
        <ele>885.79998779297</ele>
        <time>2018-06-09T13:05:02.000Z</time>
      </trkpt>
      <trkpt lat="46.39531" lon="5.82535">
        <ele>883.40002441406</ele>
        <time>2018-06-09T13:05:04.000Z</time>
      </trkpt>
      <trkpt lat="46.39523" lon="5.82528">
        <ele>882.40002441406</ele>
        <time>2018-06-09T13:05:06.000Z</time>
      </trkpt>
      <trkpt lat="46.39516" lon="5.82524">
        <ele>882</ele>
        <time>2018-06-09T13:05:07.000Z</time>
      </trkpt>
      <trkpt lat="46.39502" lon="5.82507">
        <ele>881.20001220703</ele>
        <time>2018-06-09T13:05:10.000Z</time>
      </trkpt>
      <trkpt lat="46.39498" lon="5.82503">
        <ele>881</ele>
        <time>2018-06-09T13:05:11.000Z</time>
      </trkpt>
      <trkpt lat="46.39489" lon="5.82493">
        <ele>880</ele>
        <time>2018-06-09T13:05:13.000Z</time>
      </trkpt>
      <trkpt lat="46.3948" lon="5.82487">
        <ele>878</ele>
        <time>2018-06-09T13:05:15.000Z</time>
      </trkpt>
      <trkpt lat="46.39474" lon="5.82484">
        <ele>876.79998779297</ele>
        <time>2018-06-09T13:05:16.000Z</time>
      </trkpt>
      <trkpt lat="46.39468" lon="5.82479">
        <ele>875.59997558594</ele>
        <time>2018-06-09T13:05:17.000Z</time>
      </trkpt>
      <trkpt lat="46.39462" lon="5.82474">
        <ele>874.20001220703</ele>
        <time>2018-06-09T13:05:18.000Z</time>
      </trkpt>
      <trkpt lat="46.39456" lon="5.82472">
        <ele>873</ele>
        <time>2018-06-09T13:05:19.000Z</time>
      </trkpt>
      <trkpt lat="46.39453" lon="5.82469">
        <ele>871.79998779297</ele>
        <time>2018-06-09T13:05:20.000Z</time>
      </trkpt>
      <trkpt lat="46.39445" lon="5.82466">
        <ele>870.59997558594</ele>
        <time>2018-06-09T13:05:22.000Z</time>
      </trkpt>
      <trkpt lat="46.39419" lon="5.82445">
        <ele>870</ele>
        <time>2018-06-09T13:05:29.000Z</time>
      </trkpt>
      <trkpt lat="46.39411" lon="5.82439">
        <ele>869.20001220703</ele>
        <time>2018-06-09T13:05:31.000Z</time>
      </trkpt>
      <trkpt lat="46.39395" lon="5.82443">
        <ele>868</ele>
        <time>2018-06-09T13:05:35.000Z</time>
      </trkpt>
      <trkpt lat="46.39391" lon="5.82443">
        <ele>868</ele>
        <time>2018-06-09T13:05:36.000Z</time>
      </trkpt>
      <trkpt lat="46.39375" lon="5.82448">
        <ele>868.20001220703</ele>
        <time>2018-06-09T13:05:40.000Z</time>
      </trkpt>
      <trkpt lat="46.3937" lon="5.82451">
        <ele>868.59997558594</ele>
        <time>2018-06-09T13:05:42.000Z</time>
      </trkpt>
      <trkpt lat="46.39351" lon="5.82447">
        <ele>868</ele>
        <time>2018-06-09T13:05:47.000Z</time>
      </trkpt>
      <trkpt lat="46.39336" lon="5.82459">
        <ele>865.79998779297</ele>
        <time>2018-06-09T13:05:49.000Z</time>
      </trkpt>
      <trkpt lat="46.3933" lon="5.82459">
        <ele>864.59997558594</ele>
        <time>2018-06-09T13:05:50.000Z</time>
      </trkpt>
      <trkpt lat="46.39322" lon="5.82457">
        <ele>863.20001220703</ele>
        <time>2018-06-09T13:05:51.000Z</time>
      </trkpt>
      <trkpt lat="46.39314" lon="5.82454">
        <ele>861.59997558594</ele>
        <time>2018-06-09T13:05:52.000Z</time>
      </trkpt>
      <trkpt lat="46.39307" lon="5.8245">
        <ele>860</ele>
        <time>2018-06-09T13:05:53.000Z</time>
      </trkpt>
      <trkpt lat="46.39299" lon="5.82445">
        <ele>858.79998779297</ele>
        <time>2018-06-09T13:05:54.000Z</time>
      </trkpt>
      <trkpt lat="46.39293" lon="5.82442">
        <ele>858.20001220703</ele>
        <time>2018-06-09T13:05:55.000Z</time>
      </trkpt>
      <trkpt lat="46.39254" lon="5.82431">
        <ele>860.20001220703</ele>
        <time>2018-06-09T13:06:04.000Z</time>
      </trkpt>
      <trkpt lat="46.39248" lon="5.82429">
        <ele>861.20001220703</ele>
        <time>2018-06-09T13:06:07.000Z</time>
      </trkpt>
      <trkpt lat="46.39246" lon="5.82429">
        <ele>861.20001220703</ele>
        <time>2018-06-09T13:06:08.000Z</time>
      </trkpt>
      <trkpt lat="46.39239" lon="5.82427">
        <ele>861.40002441406</ele>
        <time>2018-06-09T13:06:11.000Z</time>
      </trkpt>
      <trkpt lat="46.39225" lon="5.82429">
        <ele>859.40002441406</ele>
        <time>2018-06-09T13:06:14.000Z</time>
      </trkpt>
      <trkpt lat="46.39223" lon="5.82426">
        <ele>858.40002441406</ele>
        <time>2018-06-09T13:06:15.000Z</time>
      </trkpt>
      <trkpt lat="46.39222" lon="5.82423">
        <ele>857.59997558594</ele>
        <time>2018-06-09T13:06:16.000Z</time>
      </trkpt>
      <trkpt lat="46.3922" lon="5.82421">
        <ele>857.20001220703</ele>
        <time>2018-06-09T13:06:17.000Z</time>
      </trkpt>
      <trkpt lat="46.39219" lon="5.82413">
        <ele>857.20001220703</ele>
        <time>2018-06-09T13:06:21.000Z</time>
      </trkpt>
      <trkpt lat="46.3922" lon="5.82408">
        <ele>857.20001220703</ele>
        <time>2018-06-09T13:06:23.000Z</time>
      </trkpt>
      <trkpt lat="46.39208" lon="5.82381">
        <ele>856.40002441406</ele>
        <time>2018-06-09T13:06:27.000Z</time>
      </trkpt>
      <trkpt lat="46.39207" lon="5.82374">
        <ele>856</ele>
        <time>2018-06-09T13:06:28.000Z</time>
      </trkpt>
      <trkpt lat="46.39207" lon="5.82369">
        <ele>855</ele>
        <time>2018-06-09T13:06:30.000Z</time>
      </trkpt>
      <trkpt lat="46.39208" lon="5.82362">
        <ele>854</ele>
        <time>2018-06-09T13:06:32.000Z</time>
      </trkpt>
      <trkpt lat="46.39208" lon="5.82355">
        <ele>852.79998779297</ele>
        <time>2018-06-09T13:06:34.000Z</time>
      </trkpt>
      <trkpt lat="46.39207" lon="5.82343">
        <ele>851.79998779297</ele>
        <time>2018-06-09T13:06:36.000Z</time>
      </trkpt>
      <trkpt lat="46.39208" lon="5.82337">
        <ele>851.20001220703</ele>
        <time>2018-06-09T13:06:37.000Z</time>
      </trkpt>
      <trkpt lat="46.3921" lon="5.82335">
        <ele>850.40002441406</ele>
        <time>2018-06-09T13:06:38.000Z</time>
      </trkpt>
      <trkpt lat="46.39214" lon="5.82333">
        <ele>849.40002441406</ele>
        <time>2018-06-09T13:06:39.000Z</time>
      </trkpt>
      <trkpt lat="46.39221" lon="5.82325">
        <ele>847.40002441406</ele>
        <time>2018-06-09T13:06:41.000Z</time>
      </trkpt>
      <trkpt lat="46.3922" lon="5.82315">
        <ele>846.20001220703</ele>
        <time>2018-06-09T13:06:43.000Z</time>
      </trkpt>
      <trkpt lat="46.39217" lon="5.82311">
        <ele>845.79998779297</ele>
        <time>2018-06-09T13:06:44.000Z</time>
      </trkpt>
      <trkpt lat="46.39212" lon="5.82301">
        <ele>844</ele>
        <time>2018-06-09T13:06:46.000Z</time>
      </trkpt>
      <trkpt lat="46.39211" lon="5.82294">
        <ele>842</ele>
        <time>2018-06-09T13:06:47.000Z</time>
      </trkpt>
      <trkpt lat="46.39211" lon="5.82286">
        <ele>839.59997558594</ele>
        <time>2018-06-09T13:06:48.000Z</time>
      </trkpt>
      <trkpt lat="46.39211" lon="5.82278">
        <ele>838.20001220703</ele>
        <time>2018-06-09T13:06:49.000Z</time>
      </trkpt>
      <trkpt lat="46.39209" lon="5.82269">
        <ele>837</ele>
        <time>2018-06-09T13:06:50.000Z</time>
      </trkpt>
      <trkpt lat="46.39203" lon="5.8225">
        <ele>835.40002441406</ele>
        <time>2018-06-09T13:06:52.000Z</time>
      </trkpt>
      <trkpt lat="46.39196" lon="5.82238">
        <ele>834.40002441406</ele>
        <time>2018-06-09T13:06:54.000Z</time>
      </trkpt>
      <trkpt lat="46.39188" lon="5.82226">
        <ele>832.59997558594</ele>
        <time>2018-06-09T13:06:56.000Z</time>
      </trkpt>
      <trkpt lat="46.39184" lon="5.8222">
        <ele>831.59997558594</ele>
        <time>2018-06-09T13:06:57.000Z</time>
      </trkpt>
      <trkpt lat="46.39181" lon="5.82213">
        <ele>831</ele>
        <time>2018-06-09T13:06:58.000Z</time>
      </trkpt>
      <trkpt lat="46.39178" lon="5.82206">
        <ele>830.20001220703</ele>
        <time>2018-06-09T13:06:59.000Z</time>
      </trkpt>
      <trkpt lat="46.39176" lon="5.82199">
        <ele>829.40002441406</ele>
        <time>2018-06-09T13:07:00.000Z</time>
      </trkpt>
      <trkpt lat="46.39175" lon="5.82193">
        <ele>828.40002441406</ele>
        <time>2018-06-09T13:07:01.000Z</time>
      </trkpt>
      <trkpt lat="46.39175" lon="5.82188">
        <ele>827.20001220703</ele>
        <time>2018-06-09T13:07:02.000Z</time>
      </trkpt>
      <trkpt lat="46.39175" lon="5.82184">
        <ele>826.20001220703</ele>
        <time>2018-06-09T13:07:03.000Z</time>
      </trkpt>
      <trkpt lat="46.39177" lon="5.8218">
        <ele>825</ele>
        <time>2018-06-09T13:07:05.000Z</time>
      </trkpt>
      <trkpt lat="46.39185" lon="5.82177">
        <ele>823.59997558594</ele>
        <time>2018-06-09T13:07:11.000Z</time>
      </trkpt>
      <trkpt lat="46.39187" lon="5.82176">
        <ele>823.40002441406</ele>
        <time>2018-06-09T13:07:12.000Z</time>
      </trkpt>
      <trkpt lat="46.39189" lon="5.82169">
        <ele>822.79998779297</ele>
        <time>2018-06-09T13:07:14.000Z</time>
      </trkpt>
      <trkpt lat="46.3919" lon="5.82167">
        <ele>822.40002441406</ele>
        <time>2018-06-09T13:07:15.000Z</time>
      </trkpt>
      <trkpt lat="46.39193" lon="5.82164">
        <ele>821.59997558594</ele>
        <time>2018-06-09T13:07:17.000Z</time>
      </trkpt>
      <trkpt lat="46.39193" lon="5.82162">
        <ele>821.20001220703</ele>
        <time>2018-06-09T13:07:18.000Z</time>
      </trkpt>
      <trkpt lat="46.39194" lon="5.82155">
        <ele>819.20001220703</ele>
        <time>2018-06-09T13:07:20.000Z</time>
      </trkpt>
      <trkpt lat="46.39195" lon="5.8215">
        <ele>818</ele>
        <time>2018-06-09T13:07:21.000Z</time>
      </trkpt>
      <trkpt lat="46.39194" lon="5.82144">
        <ele>816.79998779297</ele>
        <time>2018-06-09T13:07:22.000Z</time>
      </trkpt>
      <trkpt lat="46.39193" lon="5.8213">
        <ele>815.59997558594</ele>
        <time>2018-06-09T13:07:24.000Z</time>
      </trkpt>
      <trkpt lat="46.39195" lon="5.8212">
        <ele>814.20001220703</ele>
        <time>2018-06-09T13:07:26.000Z</time>
      </trkpt>
      <trkpt lat="46.39195" lon="5.82108">
        <ele>812.20001220703</ele>
        <time>2018-06-09T13:07:28.000Z</time>
      </trkpt>
      <trkpt lat="46.39195" lon="5.82099">
        <ele>811</ele>
        <time>2018-06-09T13:07:29.000Z</time>
      </trkpt>
      <trkpt lat="46.39195" lon="5.82091">
        <ele>810</ele>
        <time>2018-06-09T13:07:30.000Z</time>
      </trkpt>
      <trkpt lat="46.39192" lon="5.82069">
        <ele>808.20001220703</ele>
        <time>2018-06-09T13:07:32.000Z</time>
      </trkpt>
      <trkpt lat="46.39185" lon="5.82053">
        <ele>807.20001220703</ele>
        <time>2018-06-09T13:07:34.000Z</time>
      </trkpt>
      <trkpt lat="46.3918" lon="5.82047">
        <ele>807</ele>
        <time>2018-06-09T13:07:35.000Z</time>
      </trkpt>
      <trkpt lat="46.39175" lon="5.82042">
        <ele>807</ele>
        <time>2018-06-09T13:07:36.000Z</time>
      </trkpt>
      <trkpt lat="46.39152" lon="5.82019">
        <ele>807.79998779297</ele>
        <time>2018-06-09T13:07:42.000Z</time>
      </trkpt>
      <trkpt lat="46.39146" lon="5.82005">
        <ele>807</ele>
        <time>2018-06-09T13:07:44.000Z</time>
      </trkpt>
      <trkpt lat="46.39142" lon="5.81994">
        <ele>805.59997558594</ele>
        <time>2018-06-09T13:07:45.000Z</time>
      </trkpt>
      <trkpt lat="46.39137" lon="5.8198">
        <ele>803.20001220703</ele>
        <time>2018-06-09T13:07:46.000Z</time>
      </trkpt>
      <trkpt lat="46.39133" lon="5.8197">
        <ele>800.79998779297</ele>
        <time>2018-06-09T13:07:47.000Z</time>
      </trkpt>
      <trkpt lat="46.39128" lon="5.81962">
        <ele>799.40002441406</ele>
        <time>2018-06-09T13:07:48.000Z</time>
      </trkpt>
      <trkpt lat="46.39123" lon="5.81953">
        <ele>798</ele>
        <time>2018-06-09T13:07:50.000Z</time>
      </trkpt>
      <trkpt lat="46.391" lon="5.81934">
        <ele>796.59997558594</ele>
        <time>2018-06-09T13:07:57.000Z</time>
      </trkpt>
      <trkpt lat="46.39094" lon="5.8193">
        <ele>795.59997558594</ele>
        <time>2018-06-09T13:07:58.000Z</time>
      </trkpt>
      <trkpt lat="46.39087" lon="5.81927">
        <ele>794</ele>
        <time>2018-06-09T13:07:59.000Z</time>
      </trkpt>
      <trkpt lat="46.39079" lon="5.81922">
        <ele>792</ele>
        <time>2018-06-09T13:08:00.000Z</time>
      </trkpt>
      <trkpt lat="46.39074" lon="5.81914">
        <ele>789.20001220703</ele>
        <time>2018-06-09T13:08:01.000Z</time>
      </trkpt>
      <trkpt lat="46.39069" lon="5.8191">
        <ele>786.79998779297</ele>
        <time>2018-06-09T13:08:02.000Z</time>
      </trkpt>
      <trkpt lat="46.39064" lon="5.81905">
        <ele>784.59997558594</ele>
        <time>2018-06-09T13:08:03.000Z</time>
      </trkpt>
      <trkpt lat="46.39058" lon="5.819">
        <ele>783</ele>
        <time>2018-06-09T13:08:04.000Z</time>
      </trkpt>
      <trkpt lat="46.39054" lon="5.81897">
        <ele>781.79998779297</ele>
        <time>2018-06-09T13:08:05.000Z</time>
      </trkpt>
      <trkpt lat="46.39049" lon="5.81897">
        <ele>780.20001220703</ele>
        <time>2018-06-09T13:08:06.000Z</time>
      </trkpt>
      <trkpt lat="46.39047" lon="5.81899">
        <ele>778.79998779297</ele>
        <time>2018-06-09T13:08:07.000Z</time>
      </trkpt>
      <trkpt lat="46.39044" lon="5.81901">
        <ele>777.59997558594</ele>
        <time>2018-06-09T13:08:08.000Z</time>
      </trkpt>
      <trkpt lat="46.39042" lon="5.81905">
        <ele>776.40002441406</ele>
        <time>2018-06-09T13:08:09.000Z</time>
      </trkpt>
      <trkpt lat="46.39036" lon="5.81913">
        <ele>774.79998779297</ele>
        <time>2018-06-09T13:08:11.000Z</time>
      </trkpt>
      <trkpt lat="46.39017" lon="5.81905">
        <ele>773.20001220703</ele>
        <time>2018-06-09T13:08:14.000Z</time>
      </trkpt>
      <trkpt lat="46.39013" lon="5.81896">
        <ele>772</ele>
        <time>2018-06-09T13:08:15.000Z</time>
      </trkpt>
      <trkpt lat="46.3901" lon="5.81887">
        <ele>770.40002441406</ele>
        <time>2018-06-09T13:08:16.000Z</time>
      </trkpt>
      <trkpt lat="46.39009" lon="5.8188">
        <ele>768.79998779297</ele>
        <time>2018-06-09T13:08:17.000Z</time>
      </trkpt>
      <trkpt lat="46.39009" lon="5.81873">
        <ele>767.59997558594</ele>
        <time>2018-06-09T13:08:18.000Z</time>
      </trkpt>
      <trkpt lat="46.3901" lon="5.81866">
        <ele>766.59997558594</ele>
        <time>2018-06-09T13:08:19.000Z</time>
      </trkpt>
      <trkpt lat="46.39012" lon="5.81857">
        <ele>765.79998779297</ele>
        <time>2018-06-09T13:08:20.000Z</time>
      </trkpt>
      <trkpt lat="46.39013" lon="5.81849">
        <ele>764.59997558594</ele>
        <time>2018-06-09T13:08:21.000Z</time>
      </trkpt>
      <trkpt lat="46.39014" lon="5.81841">
        <ele>763</ele>
        <time>2018-06-09T13:08:22.000Z</time>
      </trkpt>
      <trkpt lat="46.39016" lon="5.81833">
        <ele>761.40002441406</ele>
        <time>2018-06-09T13:08:23.000Z</time>
      </trkpt>
      <trkpt lat="46.39015" lon="5.81827">
        <ele>760</ele>
        <time>2018-06-09T13:08:24.000Z</time>
      </trkpt>
      <trkpt lat="46.39012" lon="5.8182">
        <ele>759</ele>
        <time>2018-06-09T13:08:25.000Z</time>
      </trkpt>
      <trkpt lat="46.39007" lon="5.81815">
        <ele>758</ele>
        <time>2018-06-09T13:08:26.000Z</time>
      </trkpt>
      <trkpt lat="46.39" lon="5.8181">
        <ele>757.20001220703</ele>
        <time>2018-06-09T13:08:27.000Z</time>
      </trkpt>
      <trkpt lat="46.38994" lon="5.81809">
        <ele>756.20001220703</ele>
        <time>2018-06-09T13:08:28.000Z</time>
      </trkpt>
      <trkpt lat="46.38989" lon="5.81807">
        <ele>754.79998779297</ele>
        <time>2018-06-09T13:08:29.000Z</time>
      </trkpt>
      <trkpt lat="46.38983" lon="5.81808">
        <ele>753.40002441406</ele>
        <time>2018-06-09T13:08:31.000Z</time>
      </trkpt>
      <trkpt lat="46.38976" lon="5.81812">
        <ele>751.59997558594</ele>
        <time>2018-06-09T13:08:33.000Z</time>
      </trkpt>
      <trkpt lat="46.38955" lon="5.81815">
        <ele>750.40002441406</ele>
        <time>2018-06-09T13:08:38.000Z</time>
      </trkpt>
      <trkpt lat="46.38946" lon="5.81812">
        <ele>749.59997558594</ele>
        <time>2018-06-09T13:08:41.000Z</time>
      </trkpt>
      <trkpt lat="46.38943" lon="5.8181">
        <ele>749.40002441406</ele>
        <time>2018-06-09T13:08:42.000Z</time>
      </trkpt>
      <trkpt lat="46.38938" lon="5.81804">
        <ele>748.20001220703</ele>
        <time>2018-06-09T13:08:46.000Z</time>
      </trkpt>
      <trkpt lat="46.38938" lon="5.81801">
        <ele>747.59997558594</ele>
        <time>2018-06-09T13:08:47.000Z</time>
      </trkpt>
      <trkpt lat="46.38938" lon="5.81798">
        <ele>747</ele>
        <time>2018-06-09T13:08:48.000Z</time>
      </trkpt>
      <trkpt lat="46.38938" lon="5.8179">
        <ele>745.79998779297</ele>
        <time>2018-06-09T13:08:50.000Z</time>
      </trkpt>
      <trkpt lat="46.38937" lon="5.8178">
        <ele>744.59997558594</ele>
        <time>2018-06-09T13:08:52.000Z</time>
      </trkpt>
      <trkpt lat="46.38938" lon="5.8177">
        <ele>743.20001220703</ele>
        <time>2018-06-09T13:08:54.000Z</time>
      </trkpt>
      <trkpt lat="46.38938" lon="5.81762">
        <ele>741.59997558594</ele>
        <time>2018-06-09T13:08:56.000Z</time>
      </trkpt>
      <trkpt lat="46.3894" lon="5.81753">
        <ele>740.20001220703</ele>
        <time>2018-06-09T13:08:58.000Z</time>
      </trkpt>
      <trkpt lat="46.38942" lon="5.81747">
        <ele>738.79998779297</ele>
        <time>2018-06-09T13:09:00.000Z</time>
      </trkpt>
      <trkpt lat="46.38944" lon="5.81741">
        <ele>737.20001220703</ele>
        <time>2018-06-09T13:09:02.000Z</time>
      </trkpt>
      <trkpt lat="46.38945" lon="5.81735">
        <ele>735.40002441406</ele>
        <time>2018-06-09T13:09:04.000Z</time>
      </trkpt>
      <trkpt lat="46.38946" lon="5.8173">
        <ele>734</ele>
        <time>2018-06-09T13:09:05.000Z</time>
      </trkpt>
      <trkpt lat="46.38946" lon="5.81725">
        <ele>732.59997558594</ele>
        <time>2018-06-09T13:09:06.000Z</time>
      </trkpt>
      <trkpt lat="46.38946" lon="5.81719">
        <ele>730.79998779297</ele>
        <time>2018-06-09T13:09:07.000Z</time>
      </trkpt>
      <trkpt lat="46.38944" lon="5.81715">
        <ele>729.20001220703</ele>
        <time>2018-06-09T13:09:08.000Z</time>
      </trkpt>
      <trkpt lat="46.38942" lon="5.8171">
        <ele>727.59997558594</ele>
        <time>2018-06-09T13:09:09.000Z</time>
      </trkpt>
      <trkpt lat="46.3894" lon="5.81706">
        <ele>726.59997558594</ele>
        <time>2018-06-09T13:09:10.000Z</time>
      </trkpt>
      <trkpt lat="46.38939" lon="5.81702">
        <ele>725.40002441406</ele>
        <time>2018-06-09T13:09:11.000Z</time>
      </trkpt>
      <trkpt lat="46.38938" lon="5.81698">
        <ele>724.20001220703</ele>
        <time>2018-06-09T13:09:12.000Z</time>
      </trkpt>
      <trkpt lat="46.38937" lon="5.81698">
        <ele>723</ele>
        <time>2018-06-09T13:09:13.000Z</time>
      </trkpt>
      <trkpt lat="46.38935" lon="5.81697">
        <ele>721.79998779297</ele>
        <time>2018-06-09T13:09:14.000Z</time>
      </trkpt>
      <trkpt lat="46.38929" lon="5.81699">
        <ele>720.59997558594</ele>
        <time>2018-06-09T13:09:16.000Z</time>
      </trkpt>
      <trkpt lat="46.38923" lon="5.81695">
        <ele>719.20001220703</ele>
        <time>2018-06-09T13:09:18.000Z</time>
      </trkpt>
      <trkpt lat="46.38919" lon="5.8169">
        <ele>718</ele>
        <time>2018-06-09T13:09:20.000Z</time>
      </trkpt>
      <trkpt lat="46.38914" lon="5.81687">
        <ele>717.20001220703</ele>
        <time>2018-06-09T13:09:21.000Z</time>
      </trkpt>
      <trkpt lat="46.38909" lon="5.81685">
        <ele>715.79998779297</ele>
        <time>2018-06-09T13:09:22.000Z</time>
      </trkpt>
      <trkpt lat="46.38904" lon="5.81682">
        <ele>714.40002441406</ele>
        <time>2018-06-09T13:09:23.000Z</time>
      </trkpt>
      <trkpt lat="46.38899" lon="5.8168">
        <ele>712.59997558594</ele>
        <time>2018-06-09T13:09:24.000Z</time>
      </trkpt>
      <trkpt lat="46.38894" lon="5.81678">
        <ele>710.59997558594</ele>
        <time>2018-06-09T13:09:25.000Z</time>
      </trkpt>
      <trkpt lat="46.3889" lon="5.81677">
        <ele>708.40002441406</ele>
        <time>2018-06-09T13:09:26.000Z</time>
      </trkpt>
      <trkpt lat="46.38887" lon="5.81673">
        <ele>706.20001220703</ele>
        <time>2018-06-09T13:09:27.000Z</time>
      </trkpt>
      <trkpt lat="46.3888" lon="5.81672">
        <ele>704.20001220703</ele>
        <time>2018-06-09T13:09:28.000Z</time>
      </trkpt>
      <trkpt lat="46.38877" lon="5.81669">
        <ele>703</ele>
        <time>2018-06-09T13:09:29.000Z</time>
      </trkpt>
      <trkpt lat="46.38873" lon="5.81666">
        <ele>701.20001220703</ele>
        <time>2018-06-09T13:09:31.000Z</time>
      </trkpt>
      <trkpt lat="46.38866" lon="5.81667">
        <ele>699.40002441406</ele>
        <time>2018-06-09T13:09:33.000Z</time>
      </trkpt>
      <trkpt lat="46.38856" lon="5.81669">
        <ele>698</ele>
        <time>2018-06-09T13:09:35.000Z</time>
      </trkpt>
      <trkpt lat="46.38848" lon="5.81664">
        <ele>697</ele>
        <time>2018-06-09T13:09:37.000Z</time>
      </trkpt>
      <trkpt lat="46.38839" lon="5.81654">
        <ele>695.40002441406</ele>
        <time>2018-06-09T13:09:40.000Z</time>
      </trkpt>
      <trkpt lat="46.38834" lon="5.81649">
        <ele>693.59997558594</ele>
        <time>2018-06-09T13:09:42.000Z</time>
      </trkpt>
      <trkpt lat="46.38832" lon="5.81647">
        <ele>692.40002441406</ele>
        <time>2018-06-09T13:09:43.000Z</time>
      </trkpt>
      <trkpt lat="46.3883" lon="5.81643">
        <ele>691.20001220703</ele>
        <time>2018-06-09T13:09:44.000Z</time>
      </trkpt>
      <trkpt lat="46.38826" lon="5.81642">
        <ele>690</ele>
        <time>2018-06-09T13:09:45.000Z</time>
      </trkpt>
      <trkpt lat="46.38823" lon="5.8164">
        <ele>688.59997558594</ele>
        <time>2018-06-09T13:09:46.000Z</time>
      </trkpt>
      <trkpt lat="46.38821" lon="5.81637">
        <ele>686.79998779297</ele>
        <time>2018-06-09T13:09:47.000Z</time>
      </trkpt>
      <trkpt lat="46.3882" lon="5.81635">
        <ele>685</ele>
        <time>2018-06-09T13:09:48.000Z</time>
      </trkpt>
      <trkpt lat="46.38819" lon="5.81632">
        <ele>683.40002441406</ele>
        <time>2018-06-09T13:09:49.000Z</time>
      </trkpt>
      <trkpt lat="46.38817" lon="5.81629">
        <ele>682.20001220703</ele>
        <time>2018-06-09T13:09:50.000Z</time>
      </trkpt>
      <trkpt lat="46.38809" lon="5.81622">
        <ele>680.20001220703</ele>
        <time>2018-06-09T13:09:52.000Z</time>
      </trkpt>
      <trkpt lat="46.38805" lon="5.81617">
        <ele>679</ele>
        <time>2018-06-09T13:09:53.000Z</time>
      </trkpt>
      <trkpt lat="46.38803" lon="5.81612">
        <ele>678</ele>
        <time>2018-06-09T13:09:54.000Z</time>
      </trkpt>
      <trkpt lat="46.38801" lon="5.81606">
        <ele>676.79998779297</ele>
        <time>2018-06-09T13:09:55.000Z</time>
      </trkpt>
      <trkpt lat="46.38795" lon="5.81594">
        <ele>675.20001220703</ele>
        <time>2018-06-09T13:09:57.000Z</time>
      </trkpt>
      <trkpt lat="46.38794" lon="5.81589">
        <ele>674.20001220703</ele>
        <time>2018-06-09T13:09:58.000Z</time>
      </trkpt>
      <trkpt lat="46.38793" lon="5.81584">
        <ele>673</ele>
        <time>2018-06-09T13:09:59.000Z</time>
      </trkpt>
      <trkpt lat="46.38792" lon="5.81584">
        <ele>672.20001220703</ele>
        <time>2018-06-09T13:10:00.000Z</time>
      </trkpt>
      <trkpt lat="46.38791" lon="5.81586">
        <ele>671.40002441406</ele>
        <time>2018-06-09T13:10:01.000Z</time>
      </trkpt>
      <trkpt lat="46.38786" lon="5.81593">
        <ele>670.20001220703</ele>
        <time>2018-06-09T13:10:03.000Z</time>
      </trkpt>
      <trkpt lat="46.38782" lon="5.81598">
        <ele>668.79998779297</ele>
        <time>2018-06-09T13:10:05.000Z</time>
      </trkpt>
      <trkpt lat="46.38781" lon="5.81605">
        <ele>667.20001220703</ele>
        <time>2018-06-09T13:10:07.000Z</time>
      </trkpt>
      <trkpt lat="46.38783" lon="5.8161">
        <ele>665.79998779297</ele>
        <time>2018-06-09T13:10:09.000Z</time>
      </trkpt>
      <trkpt lat="46.38784" lon="5.81615">
        <ele>664</ele>
        <time>2018-06-09T13:10:11.000Z</time>
      </trkpt>
      <trkpt lat="46.38781" lon="5.81626">
        <ele>662.59997558594</ele>
        <time>2018-06-09T13:10:13.000Z</time>
      </trkpt>
      <trkpt lat="46.38779" lon="5.81638">
        <ele>660.79998779297</ele>
        <time>2018-06-09T13:10:15.000Z</time>
      </trkpt>
      <trkpt lat="46.38777" lon="5.81643">
        <ele>659.20001220703</ele>
        <time>2018-06-09T13:10:16.000Z</time>
      </trkpt>
      <trkpt lat="46.38776" lon="5.81649">
        <ele>657.40002441406</ele>
        <time>2018-06-09T13:10:17.000Z</time>
      </trkpt>
      <trkpt lat="46.38774" lon="5.81654">
        <ele>655.79998779297</ele>
        <time>2018-06-09T13:10:18.000Z</time>
      </trkpt>
      <trkpt lat="46.38772" lon="5.8166">
        <ele>654.20001220703</ele>
        <time>2018-06-09T13:10:19.000Z</time>
      </trkpt>
      <trkpt lat="46.38769" lon="5.81665">
        <ele>653</ele>
        <time>2018-06-09T13:10:20.000Z</time>
      </trkpt>
      <trkpt lat="46.38766" lon="5.8167">
        <ele>651.79998779297</ele>
        <time>2018-06-09T13:10:21.000Z</time>
      </trkpt>
      <trkpt lat="46.38761" lon="5.81676">
        <ele>650</ele>
        <time>2018-06-09T13:10:23.000Z</time>
      </trkpt>
      <trkpt lat="46.38753" lon="5.81685">
        <ele>649.59997558594</ele>
        <time>2018-06-09T13:10:24.000Z</time>
      </trkpt>
      <trkpt lat="46.38748" lon="5.81695">
        <ele>649</ele>
        <time>2018-06-09T13:10:26.000Z</time>
      </trkpt>
      <trkpt lat="46.38744" lon="5.81707">
        <ele>648</ele>
        <time>2018-06-09T13:10:29.000Z</time>
      </trkpt>
      <trkpt lat="46.38743" lon="5.81711">
        <ele>647.59997558594</ele>
        <time>2018-06-09T13:10:30.000Z</time>
      </trkpt>
      <trkpt lat="46.38743" lon="5.81717">
        <ele>646.20001220703</ele>
        <time>2018-06-09T13:10:33.000Z</time>
      </trkpt>
      <trkpt lat="46.38743" lon="5.81726">
        <ele>644.79998779297</ele>
        <time>2018-06-09T13:10:36.000Z</time>
      </trkpt>
      <trkpt lat="46.38741" lon="5.81734">
        <ele>643.79998779297</ele>
        <time>2018-06-09T13:10:38.000Z</time>
      </trkpt>
      <trkpt lat="46.38739" lon="5.81742">
        <ele>642</ele>
        <time>2018-06-09T13:10:40.000Z</time>
      </trkpt>
      <trkpt lat="46.38737" lon="5.81749">
        <ele>640.20001220703</ele>
        <time>2018-06-09T13:10:42.000Z</time>
      </trkpt>
      <trkpt lat="46.38736" lon="5.81754">
        <ele>639</ele>
        <time>2018-06-09T13:10:43.000Z</time>
      </trkpt>
      <trkpt lat="46.38736" lon="5.81761">
        <ele>637.40002441406</ele>
        <time>2018-06-09T13:10:44.000Z</time>
      </trkpt>
      <trkpt lat="46.38736" lon="5.81767">
        <ele>636</ele>
        <time>2018-06-09T13:10:45.000Z</time>
      </trkpt>
      <trkpt lat="46.38737" lon="5.81772">
        <ele>634.59997558594</ele>
        <time>2018-06-09T13:10:46.000Z</time>
      </trkpt>
      <trkpt lat="46.38736" lon="5.81778">
        <ele>633.20001220703</ele>
        <time>2018-06-09T13:10:47.000Z</time>
      </trkpt>
      <trkpt lat="46.38737" lon="5.81783">
        <ele>631.59997558594</ele>
        <time>2018-06-09T13:10:48.000Z</time>
      </trkpt>
      <trkpt lat="46.38736" lon="5.81787">
        <ele>630.59997558594</ele>
        <time>2018-06-09T13:10:49.000Z</time>
      </trkpt>
      <trkpt lat="46.38737" lon="5.81799">
        <ele>628.79998779297</ele>
        <time>2018-06-09T13:10:51.000Z</time>
      </trkpt>
      <trkpt lat="46.38737" lon="5.81804">
        <ele>627.59997558594</ele>
        <time>2018-06-09T13:10:52.000Z</time>
      </trkpt>
      <trkpt lat="46.38738" lon="5.81809">
        <ele>626.20001220703</ele>
        <time>2018-06-09T13:10:53.000Z</time>
      </trkpt>
      <trkpt lat="46.38739" lon="5.81812">
        <ele>625.20001220703</ele>
        <time>2018-06-09T13:10:54.000Z</time>
      </trkpt>
      <trkpt lat="46.3874" lon="5.81816">
        <ele>624</ele>
        <time>2018-06-09T13:10:55.000Z</time>
      </trkpt>
      <trkpt lat="46.3874" lon="5.8182">
        <ele>622.59997558594</ele>
        <time>2018-06-09T13:10:56.000Z</time>
      </trkpt>
      <trkpt lat="46.38739" lon="5.81827">
        <ele>621</ele>
        <time>2018-06-09T13:10:57.000Z</time>
      </trkpt>
      <trkpt lat="46.38738" lon="5.8183">
        <ele>620</ele>
        <time>2018-06-09T13:10:58.000Z</time>
      </trkpt>
      <trkpt lat="46.38735" lon="5.81833">
        <ele>618.20001220703</ele>
        <time>2018-06-09T13:11:00.000Z</time>
      </trkpt>
      <trkpt lat="46.38733" lon="5.81833">
        <ele>617</ele>
        <time>2018-06-09T13:11:01.000Z</time>
      </trkpt>
      <trkpt lat="46.38729" lon="5.81833">
        <ele>615.79998779297</ele>
        <time>2018-06-09T13:11:02.000Z</time>
      </trkpt>
      <trkpt lat="46.38725" lon="5.8183">
        <ele>614.20001220703</ele>
        <time>2018-06-09T13:11:03.000Z</time>
      </trkpt>
      <trkpt lat="46.38721" lon="5.81827">
        <ele>612.59997558594</ele>
        <time>2018-06-09T13:11:04.000Z</time>
      </trkpt>
      <trkpt lat="46.38714" lon="5.81824">
        <ele>611</ele>
        <time>2018-06-09T13:11:05.000Z</time>
      </trkpt>
      <trkpt lat="46.38709" lon="5.8182">
        <ele>609.40002441406</ele>
        <time>2018-06-09T13:11:06.000Z</time>
      </trkpt>
      <trkpt lat="46.38704" lon="5.81817">
        <ele>608.20001220703</ele>
        <time>2018-06-09T13:11:07.000Z</time>
      </trkpt>
      <trkpt lat="46.387" lon="5.81814">
        <ele>607.40002441406</ele>
        <time>2018-06-09T13:11:08.000Z</time>
      </trkpt>
      <trkpt lat="46.38697" lon="5.81811">
        <ele>606.79998779297</ele>
        <time>2018-06-09T13:11:09.000Z</time>
      </trkpt>
      <trkpt lat="46.38682" lon="5.81811">
        <ele>606.20001220703</ele>
        <time>2018-06-09T13:11:11.000Z</time>
      </trkpt>
      <trkpt lat="46.3868" lon="5.818">
        <ele>605.79998779297</ele>
        <time>2018-06-09T13:11:14.000Z</time>
      </trkpt>
      <trkpt lat="46.38677" lon="5.81778">
        <ele>604.40002441406</ele>
        <time>2018-06-09T13:11:20.000Z</time>
      </trkpt>
      <trkpt lat="46.38676" lon="5.81772">
        <ele>603</ele>
        <time>2018-06-09T13:11:22.000Z</time>
      </trkpt>
      <trkpt lat="46.38676" lon="5.81768">
        <ele>601.40002441406</ele>
        <time>2018-06-09T13:11:24.000Z</time>
      </trkpt>
      <trkpt lat="46.38675" lon="5.8176">
        <ele>600.20001220703</ele>
        <time>2018-06-09T13:11:45.000Z</time>
      </trkpt>
      <trkpt lat="46.38673" lon="5.81751">
        <ele>599.20001220703</ele>
        <time>2018-06-09T13:11:48.000Z</time>
      </trkpt>
      <trkpt lat="46.38669" lon="5.81733">
        <ele>598.59997558594</ele>
        <time>2018-06-09T13:11:55.000Z</time>
      </trkpt>
      <trkpt lat="46.38666" lon="5.81728">
        <ele>598</ele>
        <time>2018-06-09T13:11:57.000Z</time>
      </trkpt>
      <trkpt lat="46.38664" lon="5.81721">
        <ele>596.40002441406</ele>
        <time>2018-06-09T13:11:59.000Z</time>
      </trkpt>
      <trkpt lat="46.38661" lon="5.81715">
        <ele>594.79998779297</ele>
        <time>2018-06-09T13:12:01.000Z</time>
      </trkpt>
      <trkpt lat="46.3866" lon="5.81713">
        <ele>594</ele>
        <time>2018-06-09T13:12:02.000Z</time>
      </trkpt>
      <trkpt lat="46.38658" lon="5.8171">
        <ele>593.20001220703</ele>
        <time>2018-06-09T13:12:03.000Z</time>
      </trkpt>
      <trkpt lat="46.38657" lon="5.81704">
        <ele>591.40002441406</ele>
        <time>2018-06-09T13:12:05.000Z</time>
      </trkpt>
      <trkpt lat="46.38657" lon="5.81702">
        <ele>590.20001220703</ele>
        <time>2018-06-09T13:12:06.000Z</time>
      </trkpt>
      <trkpt lat="46.38656" lon="5.817">
        <ele>588.79998779297</ele>
        <time>2018-06-09T13:12:07.000Z</time>
      </trkpt>
      <trkpt lat="46.38656" lon="5.81697">
        <ele>587.79998779297</ele>
        <time>2018-06-09T13:12:08.000Z</time>
      </trkpt>
      <trkpt lat="46.38652" lon="5.8169">
        <ele>586.40002441406</ele>
        <time>2018-06-09T13:12:10.000Z</time>
      </trkpt>
      <trkpt lat="46.38647" lon="5.81683">
        <ele>584.79998779297</ele>
        <time>2018-06-09T13:12:12.000Z</time>
      </trkpt>
      <trkpt lat="46.38646" lon="5.81678">
        <ele>582.59997558594</ele>
        <time>2018-06-09T13:12:14.000Z</time>
      </trkpt>
      <trkpt lat="46.38643" lon="5.81678">
        <ele>581</ele>
        <time>2018-06-09T13:12:16.000Z</time>
      </trkpt>
      <trkpt lat="46.38635" lon="5.81677">
        <ele>579.79998779297</ele>
        <time>2018-06-09T13:12:18.000Z</time>
      </trkpt>
      <trkpt lat="46.38632" lon="5.81677">
        <ele>579</ele>
        <time>2018-06-09T13:12:19.000Z</time>
      </trkpt>
      <trkpt lat="46.38626" lon="5.81676">
        <ele>578.20001220703</ele>
        <time>2018-06-09T13:12:20.000Z</time>
      </trkpt>
      <trkpt lat="46.3862" lon="5.81671">
        <ele>576.79998779297</ele>
        <time>2018-06-09T13:12:22.000Z</time>
      </trkpt>
      <trkpt lat="46.38614" lon="5.81661">
        <ele>575.59997558594</ele>
        <time>2018-06-09T13:12:25.000Z</time>
      </trkpt>
      <trkpt lat="46.38612" lon="5.81658">
        <ele>575.59997558594</ele>
        <time>2018-06-09T13:12:26.000Z</time>
      </trkpt>
      <trkpt lat="46.38605" lon="5.8165">
        <ele>575.20001220703</ele>
        <time>2018-06-09T13:12:28.000Z</time>
      </trkpt>
      <trkpt lat="46.386" lon="5.81642">
        <ele>574.59997558594</ele>
        <time>2018-06-09T13:12:30.000Z</time>
      </trkpt>
      <trkpt lat="46.38598" lon="5.8164">
        <ele>574.20001220703</ele>
        <time>2018-06-09T13:12:31.000Z</time>
      </trkpt>
      <trkpt lat="46.38593" lon="5.81637">
        <ele>572.59997558594</ele>
        <time>2018-06-09T13:12:33.000Z</time>
      </trkpt>
      <trkpt lat="46.38587" lon="5.81633">
        <ele>570.59997558594</ele>
        <time>2018-06-09T13:12:35.000Z</time>
      </trkpt>
      <trkpt lat="46.38584" lon="5.8163">
        <ele>569.40002441406</ele>
        <time>2018-06-09T13:12:36.000Z</time>
      </trkpt>
      <trkpt lat="46.38582" lon="5.81626">
        <ele>568.20001220703</ele>
        <time>2018-06-09T13:12:37.000Z</time>
      </trkpt>
      <trkpt lat="46.38579" lon="5.81621">
        <ele>566.79998779297</ele>
        <time>2018-06-09T13:12:38.000Z</time>
      </trkpt>
      <trkpt lat="46.38577" lon="5.81618">
        <ele>566</ele>
        <time>2018-06-09T13:12:39.000Z</time>
      </trkpt>
      <trkpt lat="46.38576" lon="5.81616">
        <ele>565.20001220703</ele>
        <time>2018-06-09T13:12:40.000Z</time>
      </trkpt>
      <trkpt lat="46.38574" lon="5.81617">
        <ele>563.59997558594</ele>
        <time>2018-06-09T13:12:42.000Z</time>
      </trkpt>
      <trkpt lat="46.38569" lon="5.81622">
        <ele>561.59997558594</ele>
        <time>2018-06-09T13:12:44.000Z</time>
      </trkpt>
      <trkpt lat="46.38567" lon="5.81625">
        <ele>560.20001220703</ele>
        <time>2018-06-09T13:12:45.000Z</time>
      </trkpt>
      <trkpt lat="46.38564" lon="5.81629">
        <ele>558.40002441406</ele>
        <time>2018-06-09T13:12:46.000Z</time>
      </trkpt>
      <trkpt lat="46.38561" lon="5.81634">
        <ele>556.59997558594</ele>
        <time>2018-06-09T13:12:47.000Z</time>
      </trkpt>
      <trkpt lat="46.38557" lon="5.8164">
        <ele>555.20001220703</ele>
        <time>2018-06-09T13:12:48.000Z</time>
      </trkpt>
      <trkpt lat="46.38555" lon="5.81645">
        <ele>554.20001220703</ele>
        <time>2018-06-09T13:12:49.000Z</time>
      </trkpt>
      <trkpt lat="46.38554" lon="5.81652">
        <ele>552.20001220703</ele>
        <time>2018-06-09T13:12:51.000Z</time>
      </trkpt>
      <trkpt lat="46.38553" lon="5.81656">
        <ele>551.20001220703</ele>
        <time>2018-06-09T13:12:52.000Z</time>
      </trkpt>
      <trkpt lat="46.38552" lon="5.81658">
        <ele>550.40002441406</ele>
        <time>2018-06-09T13:12:53.000Z</time>
      </trkpt>
      <trkpt lat="46.3855" lon="5.8166">
        <ele>549.79998779297</ele>
        <time>2018-06-09T13:12:54.000Z</time>
      </trkpt>
      <trkpt lat="46.38541" lon="5.81658">
        <ele>548.79998779297</ele>
        <time>2018-06-09T13:12:56.000Z</time>
      </trkpt>
      <trkpt lat="46.38533" lon="5.8165">
        <ele>547</ele>
        <time>2018-06-09T13:12:58.000Z</time>
      </trkpt>
      <trkpt lat="46.38523" lon="5.8164">
        <ele>545.20001220703</ele>
        <time>2018-06-09T13:13:00.000Z</time>
      </trkpt>
      <trkpt lat="46.38516" lon="5.81626">
        <ele>544</ele>
        <time>2018-06-09T13:13:02.000Z</time>
      </trkpt>
      <trkpt lat="46.38502" lon="5.81608">
        <ele>542.79998779297</ele>
        <time>2018-06-09T13:13:05.000Z</time>
      </trkpt>
      <trkpt lat="46.38496" lon="5.81603">
        <ele>542</ele>
        <time>2018-06-09T13:13:06.000Z</time>
      </trkpt>
      <trkpt lat="46.38491" lon="5.81597">
        <ele>541.40002441406</ele>
        <time>2018-06-09T13:13:07.000Z</time>
      </trkpt>
      <trkpt lat="46.38481" lon="5.81583">
        <ele>540.20001220703</ele>
        <time>2018-06-09T13:13:09.000Z</time>
      </trkpt>
      <trkpt lat="46.38475" lon="5.81578">
        <ele>538.79998779297</ele>
        <time>2018-06-09T13:13:10.000Z</time>
      </trkpt>
      <trkpt lat="46.38466" lon="5.81577">
        <ele>537.59997558594</ele>
        <time>2018-06-09T13:13:11.000Z</time>
      </trkpt>
      <trkpt lat="46.38452" lon="5.81569">
        <ele>536.59997558594</ele>
        <time>2018-06-09T13:13:13.000Z</time>
      </trkpt>
      <trkpt lat="46.38445" lon="5.81564">
        <ele>536.40002441406</ele>
        <time>2018-06-09T13:13:14.000Z</time>
      </trkpt>
      <trkpt lat="46.38438" lon="5.81561">
        <ele>536</ele>
        <time>2018-06-09T13:13:15.000Z</time>
      </trkpt>
      <trkpt lat="46.38423" lon="5.81555">
        <ele>535.20001220703</ele>
        <time>2018-06-09T13:13:17.000Z</time>
      </trkpt>
      <trkpt lat="46.38417" lon="5.8155">
        <ele>534.20001220703</ele>
        <time>2018-06-09T13:13:18.000Z</time>
      </trkpt>
      <trkpt lat="46.38409" lon="5.81547">
        <ele>533</ele>
        <time>2018-06-09T13:13:19.000Z</time>
      </trkpt>
      <trkpt lat="46.38394" lon="5.81539">
        <ele>531.40002441406</ele>
        <time>2018-06-09T13:13:21.000Z</time>
      </trkpt>
      <trkpt lat="46.38386" lon="5.81537">
        <ele>530</ele>
        <time>2018-06-09T13:13:22.000Z</time>
      </trkpt>
      <trkpt lat="46.3838" lon="5.81534">
        <ele>528.59997558594</ele>
        <time>2018-06-09T13:13:23.000Z</time>
      </trkpt>
      <trkpt lat="46.38376" lon="5.81534">
        <ele>527.20001220703</ele>
        <time>2018-06-09T13:13:24.000Z</time>
      </trkpt>
      <trkpt lat="46.3837" lon="5.81535">
        <ele>526.20001220703</ele>
        <time>2018-06-09T13:13:25.000Z</time>
      </trkpt>
      <trkpt lat="46.38357" lon="5.8154">
        <ele>525</ele>
        <time>2018-06-09T13:13:27.000Z</time>
      </trkpt>
      <trkpt lat="46.38346" lon="5.81548">
        <ele>524</ele>
        <time>2018-06-09T13:13:29.000Z</time>
      </trkpt>
      <trkpt lat="46.38338" lon="5.81551">
        <ele>522.79998779297</ele>
        <time>2018-06-09T13:13:30.000Z</time>
      </trkpt>
      <trkpt lat="46.38333" lon="5.81553">
        <ele>521.59997558594</ele>
        <time>2018-06-09T13:13:31.000Z</time>
      </trkpt>
      <trkpt lat="46.38328" lon="5.81554">
        <ele>520.59997558594</ele>
        <time>2018-06-09T13:13:32.000Z</time>
      </trkpt>
      <trkpt lat="46.38322" lon="5.81553">
        <ele>519</ele>
        <time>2018-06-09T13:13:33.000Z</time>
      </trkpt>
      <trkpt lat="46.38318" lon="5.8155">
        <ele>517.59997558594</ele>
        <time>2018-06-09T13:13:34.000Z</time>
      </trkpt>
      <trkpt lat="46.38313" lon="5.81549">
        <ele>516.40002441406</ele>
        <time>2018-06-09T13:13:35.000Z</time>
      </trkpt>
      <trkpt lat="46.38301" lon="5.81544">
        <ele>515.20001220703</ele>
        <time>2018-06-09T13:13:37.000Z</time>
      </trkpt>
      <trkpt lat="46.38291" lon="5.81539">
        <ele>513.59997558594</ele>
        <time>2018-06-09T13:13:39.000Z</time>
      </trkpt>
      <trkpt lat="46.38285" lon="5.8154">
        <ele>512</ele>
        <time>2018-06-09T13:13:40.000Z</time>
      </trkpt>
      <trkpt lat="46.38277" lon="5.81535">
        <ele>510.39999389648</ele>
        <time>2018-06-09T13:13:42.000Z</time>
      </trkpt>
      <trkpt lat="46.38266" lon="5.81535">
        <ele>509.20001220703</ele>
        <time>2018-06-09T13:13:44.000Z</time>
      </trkpt>
      <trkpt lat="46.38262" lon="5.81532">
        <ele>509</ele>
        <time>2018-06-09T13:13:46.000Z</time>
      </trkpt>
      <trkpt lat="46.38248" lon="5.81531">
        <ele>508.20001220703</ele>
        <time>2018-06-09T13:13:49.000Z</time>
      </trkpt>
      <trkpt lat="46.38237" lon="5.81528">
        <ele>506.79998779297</ele>
        <time>2018-06-09T13:13:52.000Z</time>
      </trkpt>
      <trkpt lat="46.3823" lon="5.81526">
        <ele>505.60000610352</ele>
        <time>2018-06-09T13:13:54.000Z</time>
      </trkpt>
      <trkpt lat="46.38223" lon="5.81531">
        <ele>504.39999389648</ele>
        <time>2018-06-09T13:13:56.000Z</time>
      </trkpt>
      <trkpt lat="46.38213" lon="5.81537">
        <ele>502.20001220703</ele>
        <time>2018-06-09T13:13:58.000Z</time>
      </trkpt>
      <trkpt lat="46.38208" lon="5.81539">
        <ele>501</ele>
        <time>2018-06-09T13:13:59.000Z</time>
      </trkpt>
      <trkpt lat="46.38204" lon="5.8154">
        <ele>499.79998779297</ele>
        <time>2018-06-09T13:14:00.000Z</time>
      </trkpt>
      <trkpt lat="46.38199" lon="5.8154">
        <ele>498.60000610352</ele>
        <time>2018-06-09T13:14:01.000Z</time>
      </trkpt>
      <trkpt lat="46.38193" lon="5.81539">
        <ele>497.20001220703</ele>
        <time>2018-06-09T13:14:02.000Z</time>
      </trkpt>
      <trkpt lat="46.38186" lon="5.81536">
        <ele>496.20001220703</ele>
        <time>2018-06-09T13:14:03.000Z</time>
      </trkpt>
      <trkpt lat="46.38174" lon="5.81532">
        <ele>494.79998779297</ele>
        <time>2018-06-09T13:14:05.000Z</time>
      </trkpt>
      <trkpt lat="46.3816" lon="5.81512">
        <ele>496</ele>
        <time>2018-06-09T13:14:10.000Z</time>
      </trkpt>
      <trkpt lat="46.38133" lon="5.81497">
        <ele>494.60000610352</ele>
        <time>2018-06-09T13:14:18.000Z</time>
      </trkpt>
      <trkpt lat="46.38128" lon="5.81497">
        <ele>493.20001220703</ele>
        <time>2018-06-09T13:14:19.000Z</time>
      </trkpt>
      <trkpt lat="46.38124" lon="5.81494">
        <ele>491.39999389648</ele>
        <time>2018-06-09T13:14:20.000Z</time>
      </trkpt>
      <trkpt lat="46.38121" lon="5.81492">
        <ele>489.79998779297</ele>
        <time>2018-06-09T13:14:21.000Z</time>
      </trkpt>
      <trkpt lat="46.38115" lon="5.81487">
        <ele>488</ele>
        <time>2018-06-09T13:14:23.000Z</time>
      </trkpt>
      <trkpt lat="46.38105" lon="5.8148">
        <ele>486.20001220703</ele>
        <time>2018-06-09T13:14:25.000Z</time>
      </trkpt>
      <trkpt lat="46.381" lon="5.81474">
        <ele>485</ele>
        <time>2018-06-09T13:14:26.000Z</time>
      </trkpt>
      <trkpt lat="46.38093" lon="5.81469">
        <ele>483.39999389648</ele>
        <time>2018-06-09T13:14:27.000Z</time>
      </trkpt>
      <trkpt lat="46.38087" lon="5.81464">
        <ele>482</ele>
        <time>2018-06-09T13:14:28.000Z</time>
      </trkpt>
      <trkpt lat="46.38084" lon="5.81458">
        <ele>480.60000610352</ele>
        <time>2018-06-09T13:14:29.000Z</time>
      </trkpt>
      <trkpt lat="46.38078" lon="5.81449">
        <ele>478.79998779297</ele>
        <time>2018-06-09T13:14:31.000Z</time>
      </trkpt>
      <trkpt lat="46.38076" lon="5.81447">
        <ele>478.39999389648</ele>
        <time>2018-06-09T13:14:32.000Z</time>
      </trkpt>
      <trkpt lat="46.38074" lon="5.81446">
        <ele>477.60000610352</ele>
        <time>2018-06-09T13:14:33.000Z</time>
      </trkpt>
      <trkpt lat="46.38068" lon="5.81448">
        <ele>476</ele>
        <time>2018-06-09T13:14:35.000Z</time>
      </trkpt>
      <trkpt lat="46.38066" lon="5.81446">
        <ele>475.20001220703</ele>
        <time>2018-06-09T13:14:36.000Z</time>
      </trkpt>
      <trkpt lat="46.38063" lon="5.81444">
        <ele>474.79998779297</ele>
        <time>2018-06-09T13:14:37.000Z</time>
      </trkpt>
      <trkpt lat="46.38061" lon="5.81435">
        <ele>473</ele>
        <time>2018-06-09T13:14:39.000Z</time>
      </trkpt>
      <trkpt lat="46.3806" lon="5.81433">
        <ele>472</ele>
        <time>2018-06-09T13:14:40.000Z</time>
      </trkpt>
      <trkpt lat="46.38058" lon="5.81431">
        <ele>471.20001220703</ele>
        <time>2018-06-09T13:14:41.000Z</time>
      </trkpt>
      <trkpt lat="46.38055" lon="5.8143">
        <ele>470.39999389648</ele>
        <time>2018-06-09T13:14:42.000Z</time>
      </trkpt>
      <trkpt lat="46.38053" lon="5.81428">
        <ele>469.39999389648</ele>
        <time>2018-06-09T13:14:43.000Z</time>
      </trkpt>
      <trkpt lat="46.38051" lon="5.81427">
        <ele>468.39999389648</ele>
        <time>2018-06-09T13:14:44.000Z</time>
      </trkpt>
      <trkpt lat="46.38048" lon="5.81425">
        <ele>466.39999389648</ele>
        <time>2018-06-09T13:14:46.000Z</time>
      </trkpt>
      <trkpt lat="46.38045" lon="5.81425">
        <ele>465.20001220703</ele>
        <time>2018-06-09T13:14:47.000Z</time>
      </trkpt>
      <trkpt lat="46.38041" lon="5.81427">
        <ele>463.79998779297</ele>
        <time>2018-06-09T13:14:48.000Z</time>
      </trkpt>
      <trkpt lat="46.38039" lon="5.81427">
        <ele>462.39999389648</ele>
        <time>2018-06-09T13:14:49.000Z</time>
      </trkpt>
      <trkpt lat="46.38035" lon="5.81428">
        <ele>460.60000610352</ele>
        <time>2018-06-09T13:14:51.000Z</time>
      </trkpt>
      <trkpt lat="46.38033" lon="5.81428">
        <ele>459.20001220703</ele>
        <time>2018-06-09T13:14:53.000Z</time>
      </trkpt>
      <trkpt lat="46.38033" lon="5.81428">
        <ele>458.20001220703</ele>
        <time>2018-06-09T13:14:56.000Z</time>
      </trkpt>
      <trkpt lat="46.38028" lon="5.81419">
        <ele>457.20001220703</ele>
        <time>2018-06-09T13:15:02.000Z</time>
      </trkpt>
      <trkpt lat="46.38027" lon="5.81416">
        <ele>457</ele>
        <time>2018-06-09T13:15:03.000Z</time>
      </trkpt>
      <trkpt lat="46.38022" lon="5.81411">
        <ele>456</ele>
        <time>2018-06-09T13:15:05.000Z</time>
      </trkpt>
      <trkpt lat="46.3802" lon="5.81407">
        <ele>455</ele>
        <time>2018-06-09T13:15:06.000Z</time>
      </trkpt>
      <trkpt lat="46.38013" lon="5.81397">
        <ele>453.20001220703</ele>
        <time>2018-06-09T13:15:08.000Z</time>
      </trkpt>
      <trkpt lat="46.38012" lon="5.81389">
        <ele>452.20001220703</ele>
        <time>2018-06-09T13:15:09.000Z</time>
      </trkpt>
      <trkpt lat="46.38008" lon="5.81383">
        <ele>451</ele>
        <time>2018-06-09T13:15:10.000Z</time>
      </trkpt>
      <trkpt lat="46.38006" lon="5.81377">
        <ele>450</ele>
        <time>2018-06-09T13:15:11.000Z</time>
      </trkpt>
      <trkpt lat="46.38003" lon="5.81373">
        <ele>448.39999389648</ele>
        <time>2018-06-09T13:15:12.000Z</time>
      </trkpt>
      <trkpt lat="46.38001" lon="5.81369">
        <ele>447</ele>
        <time>2018-06-09T13:15:13.000Z</time>
      </trkpt>
      <trkpt lat="46.37999" lon="5.81365">
        <ele>445.39999389648</ele>
        <time>2018-06-09T13:15:14.000Z</time>
      </trkpt>
      <trkpt lat="46.37993" lon="5.81354">
        <ele>443.60000610352</ele>
        <time>2018-06-09T13:15:16.000Z</time>
      </trkpt>
      <trkpt lat="46.37987" lon="5.81347">
        <ele>442</ele>
        <time>2018-06-09T13:15:18.000Z</time>
      </trkpt>
      <trkpt lat="46.37984" lon="5.81344">
        <ele>440.79998779297</ele>
        <time>2018-06-09T13:15:19.000Z</time>
      </trkpt>
      <trkpt lat="46.37982" lon="5.81339">
        <ele>439.60000610352</ele>
        <time>2018-06-09T13:15:20.000Z</time>
      </trkpt>
      <trkpt lat="46.37981" lon="5.81333">
        <ele>438.60000610352</ele>
        <time>2018-06-09T13:15:21.000Z</time>
      </trkpt>
      <trkpt lat="46.3798" lon="5.81326">
        <ele>437.39999389648</ele>
        <time>2018-06-09T13:15:22.000Z</time>
      </trkpt>
      <trkpt lat="46.37974" lon="5.81314">
        <ele>436</ele>
        <time>2018-06-09T13:15:24.000Z</time>
      </trkpt>
      <trkpt lat="46.3797" lon="5.81303">
        <ele>434.79998779297</ele>
        <time>2018-06-09T13:15:26.000Z</time>
      </trkpt>
      <trkpt lat="46.37975" lon="5.81292">
        <ele>433.60000610352</ele>
        <time>2018-06-09T13:15:27.000Z</time>
      </trkpt>
      <trkpt lat="46.37979" lon="5.81283">
        <ele>432</ele>
        <time>2018-06-09T13:15:28.000Z</time>
      </trkpt>
      <trkpt lat="46.37982" lon="5.81274">
        <ele>430.39999389648</ele>
        <time>2018-06-09T13:15:29.000Z</time>
      </trkpt>
      <trkpt lat="46.37986" lon="5.81266">
        <ele>428.79998779297</ele>
        <time>2018-06-09T13:15:30.000Z</time>
      </trkpt>
      <trkpt lat="46.37992" lon="5.81254">
        <ele>427.60000610352</ele>
        <time>2018-06-09T13:15:32.000Z</time>
      </trkpt>
      <trkpt lat="46.37995" lon="5.81247">
        <ele>426.79998779297</ele>
        <time>2018-06-09T13:15:33.000Z</time>
      </trkpt>
      <trkpt lat="46.37997" lon="5.8124">
        <ele>426.39999389648</ele>
        <time>2018-06-09T13:15:34.000Z</time>
      </trkpt>
      <trkpt lat="46.37999" lon="5.81232">
        <ele>426.20001220703</ele>
        <time>2018-06-09T13:15:35.000Z</time>
      </trkpt>
      <trkpt lat="46.38002" lon="5.81213">
        <ele>425.39999389648</ele>
        <time>2018-06-09T13:15:37.000Z</time>
      </trkpt>
      <trkpt lat="46.38002" lon="5.81194">
        <ele>423.79998779297</ele>
        <time>2018-06-09T13:15:39.000Z</time>
      </trkpt>
      <trkpt lat="46.38002" lon="5.81182">
        <ele>422.39999389648</ele>
        <time>2018-06-09T13:15:40.000Z</time>
      </trkpt>
      <trkpt lat="46.38002" lon="5.81171">
        <ele>420.60000610352</ele>
        <time>2018-06-09T13:15:41.000Z</time>
      </trkpt>
      <trkpt lat="46.38002" lon="5.81161">
        <ele>418.79998779297</ele>
        <time>2018-06-09T13:15:42.000Z</time>
      </trkpt>
      <trkpt lat="46.38002" lon="5.81146">
        <ele>417.60000610352</ele>
        <time>2018-06-09T13:15:44.000Z</time>
      </trkpt>
      <trkpt lat="46.38007" lon="5.81119">
        <ele>417.20001220703</ele>
        <time>2018-06-09T13:15:48.000Z</time>
      </trkpt>
      <trkpt lat="46.38008" lon="5.81115">
        <ele>417</ele>
        <time>2018-06-09T13:15:49.000Z</time>
      </trkpt>
      <trkpt lat="46.38007" lon="5.81109">
        <ele>416</ele>
        <time>2018-06-09T13:15:51.000Z</time>
      </trkpt>
      <trkpt lat="46.38005" lon="5.81099">
        <ele>414.39999389648</ele>
        <time>2018-06-09T13:15:53.000Z</time>
      </trkpt>
      <trkpt lat="46.38006" lon="5.81094">
        <ele>413.39999389648</ele>
        <time>2018-06-09T13:15:54.000Z</time>
      </trkpt>
      <trkpt lat="46.38006" lon="5.81091">
        <ele>411.79998779297</ele>
        <time>2018-06-09T13:15:55.000Z</time>
      </trkpt>
      <trkpt lat="46.38006" lon="5.81088">
        <ele>410.39999389648</ele>
        <time>2018-06-09T13:15:56.000Z</time>
      </trkpt>
      <trkpt lat="46.38005" lon="5.81084">
        <ele>409</ele>
        <time>2018-06-09T13:15:57.000Z</time>
      </trkpt>
      <trkpt lat="46.38003" lon="5.8108">
        <ele>407.60000610352</ele>
        <time>2018-06-09T13:15:58.000Z</time>
      </trkpt>
      <trkpt lat="46.38001" lon="5.81076">
        <ele>406.39999389648</ele>
        <time>2018-06-09T13:15:59.000Z</time>
      </trkpt>
      <trkpt lat="46.37999" lon="5.81073">
        <ele>405.20001220703</ele>
        <time>2018-06-09T13:16:00.000Z</time>
      </trkpt>
      <trkpt lat="46.37995" lon="5.81065">
        <ele>403</ele>
        <time>2018-06-09T13:16:02.000Z</time>
      </trkpt>
      <trkpt lat="46.37991" lon="5.81057">
        <ele>401.79998779297</ele>
        <time>2018-06-09T13:16:03.000Z</time>
      </trkpt>
      <trkpt lat="46.37986" lon="5.81057">
        <ele>400.60000610352</ele>
        <time>2018-06-09T13:16:04.000Z</time>
      </trkpt>
      <trkpt lat="46.37983" lon="5.81058">
        <ele>399.60000610352</ele>
        <time>2018-06-09T13:16:05.000Z</time>
      </trkpt>
      <trkpt lat="46.37979" lon="5.81059">
        <ele>398.79998779297</ele>
        <time>2018-06-09T13:16:06.000Z</time>
      </trkpt>
      <trkpt lat="46.37975" lon="5.81066">
        <ele>397.60000610352</ele>
        <time>2018-06-09T13:16:08.000Z</time>
      </trkpt>
      <trkpt lat="46.3797" lon="5.81065">
        <ele>396.39999389648</ele>
        <time>2018-06-09T13:16:10.000Z</time>
      </trkpt>
      <trkpt lat="46.37969" lon="5.81063">
        <ele>396</ele>
        <time>2018-06-09T13:16:11.000Z</time>
      </trkpt>
      <trkpt lat="46.3797" lon="5.81055">
        <ele>395.20001220703</ele>
        <time>2018-06-09T13:16:13.000Z</time>
      </trkpt>
      <trkpt lat="46.3797" lon="5.81041">
        <ele>393.20001220703</ele>
        <time>2018-06-09T13:16:15.000Z</time>
      </trkpt>
      <trkpt lat="46.37972" lon="5.81029">
        <ele>391.79998779297</ele>
        <time>2018-06-09T13:16:16.000Z</time>
      </trkpt>
      <trkpt lat="46.37974" lon="5.81019">
        <ele>390.60000610352</ele>
        <time>2018-06-09T13:16:17.000Z</time>
      </trkpt>
      <trkpt lat="46.37975" lon="5.81012">
        <ele>389.39999389648</ele>
        <time>2018-06-09T13:16:18.000Z</time>
      </trkpt>
      <trkpt lat="46.37977" lon="5.81006">
        <ele>388</ele>
        <time>2018-06-09T13:16:19.000Z</time>
      </trkpt>
      <trkpt lat="46.37977" lon="5.81002">
        <ele>386.60000610352</ele>
        <time>2018-06-09T13:16:20.000Z</time>
      </trkpt>
      <trkpt lat="46.37976" lon="5.80996">
        <ele>385.39999389648</ele>
        <time>2018-06-09T13:16:21.000Z</time>
      </trkpt>
      <trkpt lat="46.37976" lon="5.80989">
        <ele>384.20001220703</ele>
        <time>2018-06-09T13:16:22.000Z</time>
      </trkpt>
      <trkpt lat="46.37975" lon="5.80982">
        <ele>382.60000610352</ele>
        <time>2018-06-09T13:16:23.000Z</time>
      </trkpt>
      <trkpt lat="46.37977" lon="5.80975">
        <ele>381.20001220703</ele>
        <time>2018-06-09T13:16:24.000Z</time>
      </trkpt>
      <trkpt lat="46.37978" lon="5.80971">
        <ele>380</ele>
        <time>2018-06-09T13:16:25.000Z</time>
      </trkpt>
      <trkpt lat="46.37977" lon="5.80967">
        <ele>378.60000610352</ele>
        <time>2018-06-09T13:16:26.000Z</time>
      </trkpt>
      <trkpt lat="46.37977" lon="5.80963">
        <ele>377</ele>
        <time>2018-06-09T13:16:27.000Z</time>
      </trkpt>
      <trkpt lat="46.37976" lon="5.80959">
        <ele>375.39999389648</ele>
        <time>2018-06-09T13:16:28.000Z</time>
      </trkpt>
      <trkpt lat="46.37973" lon="5.80947">
        <ele>374.60000610352</ele>
        <time>2018-06-09T13:16:29.000Z</time>
      </trkpt>
      <trkpt lat="46.37971" lon="5.80937">
        <ele>373.60000610352</ele>
        <time>2018-06-09T13:16:30.000Z</time>
      </trkpt>
      <trkpt lat="46.37968" lon="5.80911">
        <ele>372</ele>
        <time>2018-06-09T13:16:32.000Z</time>
      </trkpt>
      <trkpt lat="46.37979" lon="5.80839">
        <ele>370.79998779297</ele>
        <time>2018-06-09T13:16:42.000Z</time>
      </trkpt>
      <trkpt lat="46.37988" lon="5.80824">
        <ele>372</ele>
        <time>2018-06-09T13:16:49.000Z</time>
      </trkpt>
      <trkpt lat="46.37994" lon="5.80814">
        <ele>373</ele>
        <time>2018-06-09T13:17:00.000Z</time>
      </trkpt>
      <trkpt lat="46.37995" lon="5.80813">
        <ele>374</ele>
        <time>2018-06-09T13:17:09.000Z</time>
      </trkpt>
      <trkpt lat="46.37995" lon="5.80813">
        <ele>374</ele>
        <time>2018-06-09T13:17:17.000Z</time>
      </trkpt>
      <trkpt lat="46.37995" lon="5.80808">
        <ele>374</ele>
        <time>2018-06-09T13:18:53.000Z</time>
      </trkpt>
      <trkpt lat="46.37991" lon="5.80799">
        <ele>374</ele>
        <time>2018-06-09T13:21:14.000Z</time>
      </trkpt>
      <trkpt lat="46.37997" lon="5.80786">
        <ele>374</ele>
        <time>2018-06-09T13:23:26.000Z</time>
      </trkpt>
      <trkpt lat="46.38009" lon="5.80775">
        <ele>374.79998779297</ele>
        <time>2018-06-09T13:23:38.000Z</time>
      </trkpt>
      <trkpt lat="46.3803" lon="5.80747">
        <ele>374.79998779297</ele>
        <time>2018-06-09T13:24:00.000Z</time>
      </trkpt>
      <trkpt lat="46.38033" lon="5.80737">
        <ele>375</ele>
        <time>2018-06-09T13:24:07.000Z</time>
      </trkpt>
      <trkpt lat="46.3804" lon="5.80734">
        <ele>375.20001220703</ele>
        <time>2018-06-09T13:24:10.000Z</time>
      </trkpt>
      <trkpt lat="46.38045" lon="5.80711">
        <ele>376</ele>
        <time>2018-06-09T13:24:18.000Z</time>
      </trkpt>
      <trkpt lat="46.3805" lon="5.80687">
        <ele>377</ele>
        <time>2018-06-09T13:24:27.000Z</time>
      </trkpt>
      <trkpt lat="46.38051" lon="5.80685">
        <ele>377.20001220703</ele>
        <time>2018-06-09T13:24:28.000Z</time>
      </trkpt>
      <trkpt lat="46.38057" lon="5.80672">
        <ele>377.60000610352</ele>
        <time>2018-06-09T13:24:37.000Z</time>
      </trkpt>
      <trkpt lat="46.3806" lon="5.80668">
        <ele>377.60000610352</ele>
        <time>2018-06-09T13:24:40.000Z</time>
      </trkpt>
      <trkpt lat="46.38062" lon="5.80658">
        <ele>377.60000610352</ele>
        <time>2018-06-09T13:24:44.000Z</time>
      </trkpt>
      <trkpt lat="46.38073" lon="5.80619">
        <ele>375.79998779297</ele>
        <time>2018-06-09T13:25:00.000Z</time>
      </trkpt>
      <trkpt lat="46.38072" lon="5.80612">
        <ele>375.60000610352</ele>
        <time>2018-06-09T13:25:01.000Z</time>
      </trkpt>
      <trkpt lat="46.38074" lon="5.80593">
        <ele>374.60000610352</ele>
        <time>2018-06-09T13:25:06.000Z</time>
      </trkpt>
      <trkpt lat="46.38081" lon="5.80575">
        <ele>373.60000610352</ele>
        <time>2018-06-09T13:25:11.000Z</time>
      </trkpt>
      <trkpt lat="46.3811" lon="5.80506">
        <ele>373.20001220703</ele>
        <time>2018-06-09T13:25:36.000Z</time>
      </trkpt>
      <trkpt lat="46.38133" lon="5.80453">
        <ele>374.20001220703</ele>
        <time>2018-06-09T13:25:57.000Z</time>
      </trkpt>
      <trkpt lat="46.38134" lon="5.80448">
        <ele>374.60000610352</ele>
        <time>2018-06-09T13:26:00.000Z</time>
      </trkpt>
      <trkpt lat="46.38139" lon="5.80433">
        <ele>375.60000610352</ele>
        <time>2018-06-09T13:26:09.000Z</time>
      </trkpt>
      <trkpt lat="46.38145" lon="5.80425">
        <ele>376</ele>
        <time>2018-06-09T13:26:17.000Z</time>
      </trkpt>
      <trkpt lat="46.38159" lon="5.80427">
        <ele>376.60000610352</ele>
        <time>2018-06-09T13:26:30.000Z</time>
      </trkpt>
      <trkpt lat="46.3817" lon="5.80429">
        <ele>377</ele>
        <time>2018-06-09T13:26:33.000Z</time>
      </trkpt>
      <trkpt lat="46.3818" lon="5.80424">
        <ele>377.20001220703</ele>
        <time>2018-06-09T13:26:40.000Z</time>
      </trkpt>
      <trkpt lat="46.38186" lon="5.80418">
        <ele>377.60000610352</ele>
        <time>2018-06-09T13:26:44.000Z</time>
      </trkpt>
      <trkpt lat="46.38191" lon="5.80414">
        <ele>378.20001220703</ele>
        <time>2018-06-09T13:26:47.000Z</time>
      </trkpt>
      <trkpt lat="46.38192" lon="5.80409">
        <ele>378.79998779297</ele>
        <time>2018-06-09T13:26:49.000Z</time>
      </trkpt>
      <trkpt lat="46.38199" lon="5.80395">
        <ele>379.79998779297</ele>
        <time>2018-06-09T13:26:55.000Z</time>
      </trkpt>
      <trkpt lat="46.38219" lon="5.80375">
        <ele>380.79998779297</ele>
        <time>2018-06-09T13:27:07.000Z</time>
      </trkpt>
      <trkpt lat="46.38231" lon="5.80368">
        <ele>382</ele>
        <time>2018-06-09T13:27:14.000Z</time>
      </trkpt>
      <trkpt lat="46.3824" lon="5.80357">
        <ele>383</ele>
        <time>2018-06-09T13:27:21.000Z</time>
      </trkpt>
      <trkpt lat="46.38264" lon="5.8033">
        <ele>383</ele>
        <time>2018-06-09T13:27:33.000Z</time>
      </trkpt>
      <trkpt lat="46.38284" lon="5.80327">
        <ele>382</ele>
        <time>2018-06-09T13:27:38.000Z</time>
      </trkpt>
      <trkpt lat="46.38286" lon="5.80324">
        <ele>381.79998779297</ele>
        <time>2018-06-09T13:27:39.000Z</time>
      </trkpt>
      <trkpt lat="46.38293" lon="5.80318">
        <ele>381.39999389648</ele>
        <time>2018-06-09T13:27:41.000Z</time>
      </trkpt>
      <trkpt lat="46.38306" lon="5.80302">
        <ele>380.79998779297</ele>
        <time>2018-06-09T13:27:44.000Z</time>
      </trkpt>
      <trkpt lat="46.38314" lon="5.8029">
        <ele>380.20001220703</ele>
        <time>2018-06-09T13:27:46.000Z</time>
      </trkpt>
      <trkpt lat="46.38323" lon="5.80264">
        <ele>379.79998779297</ele>
        <time>2018-06-09T13:27:49.000Z</time>
      </trkpt>
      <trkpt lat="46.38332" lon="5.8025">
        <ele>379.60000610352</ele>
        <time>2018-06-09T13:27:52.000Z</time>
      </trkpt>
      <trkpt lat="46.38344" lon="5.80196">
        <ele>379</ele>
        <time>2018-06-09T13:28:03.000Z</time>
      </trkpt>
      <trkpt lat="46.3835" lon="5.80158">
        <ele>380.20001220703</ele>
        <time>2018-06-09T13:28:16.000Z</time>
      </trkpt>
      <trkpt lat="46.38351" lon="5.8015">
        <ele>380.20001220703</ele>
        <time>2018-06-09T13:28:19.000Z</time>
      </trkpt>
      <trkpt lat="46.38351" lon="5.80072">
        <ele>380.60000610352</ele>
        <time>2018-06-09T13:28:43.000Z</time>
      </trkpt>
      <trkpt lat="46.38352" lon="5.80062">
        <ele>380.79998779297</ele>
        <time>2018-06-09T13:28:46.000Z</time>
      </trkpt>
      <trkpt lat="46.38353" lon="5.80047">
        <ele>382</ele>
        <time>2018-06-09T13:28:51.000Z</time>
      </trkpt>
      <trkpt lat="46.3836" lon="5.80001">
        <ele>383</ele>
        <time>2018-06-09T13:29:06.000Z</time>
      </trkpt>
      <trkpt lat="46.38363" lon="5.79978">
        <ele>384</ele>
        <time>2018-06-09T13:29:13.000Z</time>
      </trkpt>
      <trkpt lat="46.38365" lon="5.7995">
        <ele>385</ele>
        <time>2018-06-09T13:29:21.000Z</time>
      </trkpt>
      <trkpt lat="46.38367" lon="5.79925">
        <ele>386.20001220703</ele>
        <time>2018-06-09T13:29:28.000Z</time>
      </trkpt>
      <trkpt lat="46.38368" lon="5.79898">
        <ele>387.20001220703</ele>
        <time>2018-06-09T13:29:36.000Z</time>
      </trkpt>
      <trkpt lat="46.38373" lon="5.79877">
        <ele>388.20001220703</ele>
        <time>2018-06-09T13:29:43.000Z</time>
      </trkpt>
      <trkpt lat="46.38366" lon="5.79848">
        <ele>389.39999389648</ele>
        <time>2018-06-09T13:29:52.000Z</time>
      </trkpt>
      <trkpt lat="46.38357" lon="5.79815">
        <ele>390.39999389648</ele>
        <time>2018-06-09T13:30:03.000Z</time>
      </trkpt>
      <trkpt lat="46.3838" lon="5.79775">
        <ele>391.60000610352</ele>
        <time>2018-06-09T13:30:23.000Z</time>
      </trkpt>
      <trkpt lat="46.38382" lon="5.79777">
        <ele>391.60000610352</ele>
        <time>2018-06-09T13:30:24.000Z</time>
      </trkpt>
      <trkpt lat="46.38387" lon="5.79795">
        <ele>392.20001220703</ele>
        <time>2018-06-09T13:30:30.000Z</time>
      </trkpt>
      <trkpt lat="46.38393" lon="5.79819">
        <ele>392.60000610352</ele>
        <time>2018-06-09T13:30:37.000Z</time>
      </trkpt>
      <trkpt lat="46.38403" lon="5.79851">
        <ele>393.60000610352</ele>
        <time>2018-06-09T13:30:48.000Z</time>
      </trkpt>
      <trkpt lat="46.38411" lon="5.79878">
        <ele>394.79998779297</ele>
        <time>2018-06-09T13:30:57.000Z</time>
      </trkpt>
      <trkpt lat="46.38428" lon="5.79952">
        <ele>395.79998779297</ele>
        <time>2018-06-09T13:31:20.000Z</time>
      </trkpt>
      <trkpt lat="46.38429" lon="5.79956">
        <ele>395.79998779297</ele>
        <time>2018-06-09T13:31:21.000Z</time>
      </trkpt>
      <trkpt lat="46.3844" lon="5.80033">
        <ele>396.79998779297</ele>
        <time>2018-06-09T13:31:41.000Z</time>
      </trkpt>
      <trkpt lat="46.38441" lon="5.80036">
        <ele>396.79998779297</ele>
        <time>2018-06-09T13:31:42.000Z</time>
      </trkpt>
      <trkpt lat="46.38443" lon="5.80039">
        <ele>396.79998779297</ele>
        <time>2018-06-09T13:31:44.000Z</time>
      </trkpt>
      <trkpt lat="46.38453" lon="5.80035">
        <ele>397.20001220703</ele>
        <time>2018-06-09T13:32:06.000Z</time>
      </trkpt>
      <trkpt lat="46.38457" lon="5.80033">
        <ele>397.60000610352</ele>
        <time>2018-06-09T13:34:05.000Z</time>
      </trkpt>
      <trkpt lat="46.38444" lon="5.80036">
        <ele>397.60000610352</ele>
        <time>2018-06-09T13:39:07.000Z</time>
      </trkpt>
      <trkpt lat="46.38448" lon="5.80037">
        <ele>397.60000610352</ele>
        <time>2018-06-09T13:40:51.000Z</time>
      </trkpt>
      <trkpt lat="46.38448" lon="5.80037">
        <ele>397.60000610352</ele>
        <time>2018-06-09T13:41:20.000Z</time>
      </trkpt>
      <trkpt lat="46.38446" lon="5.80036">
        <ele>397.60000610352</ele>
        <time>2018-06-09T13:41:22.000Z</time>
      </trkpt>
      <trkpt lat="46.38432" lon="5.80046">
        <ele>397.60000610352</ele>
        <time>2018-06-09T13:45:20.000Z</time>
      </trkpt>
      <trkpt lat="46.38457" lon="5.80043">
        <ele>397.60000610352</ele>
        <time>2018-06-09T13:46:52.000Z</time>
      </trkpt>
      <trkpt lat="46.38446" lon="5.80037">
        <ele>397.39999389648</ele>
        <time>2018-06-09T13:47:02.000Z</time>
      </trkpt>
      <trkpt lat="46.38445" lon="5.80032">
        <ele>397.60000610352</ele>
        <time>2018-06-09T13:47:10.000Z</time>
      </trkpt>
      <trkpt lat="46.38452" lon="5.80031">
        <ele>397.60000610352</ele>
        <time>2018-06-09T13:47:23.000Z</time>
      </trkpt>
      <trkpt lat="46.38455" lon="5.80027">
        <ele>397.60000610352</ele>
        <time>2018-06-09T13:47:26.000Z</time>
      </trkpt>
      <trkpt lat="46.38456" lon="5.80024">
        <ele>397.79998779297</ele>
        <time>2018-06-09T13:47:28.000Z</time>
      </trkpt>
      <trkpt lat="46.38459" lon="5.8002">
        <ele>397.79998779297</ele>
        <time>2018-06-09T13:48:13.000Z</time>
      </trkpt>
      <trkpt lat="46.38458" lon="5.80026">
        <ele>398</ele>
        <time>2018-06-09T13:48:17.000Z</time>
      </trkpt>
      <trkpt lat="46.38459" lon="5.80036">
        <ele>398.20001220703</ele>
        <time>2018-06-09T13:48:24.000Z</time>
      </trkpt>
      <trkpt lat="46.38458" lon="5.80037">
        <ele>398</ele>
        <time>2018-06-09T13:48:25.000Z</time>
      </trkpt>
      <trkpt lat="46.38453" lon="5.8004">
        <ele>397.60000610352</ele>
        <time>2018-06-09T13:48:28.000Z</time>
      </trkpt>
      <trkpt lat="46.38448" lon="5.80042">
        <ele>397.79998779297</ele>
        <time>2018-06-09T13:48:31.000Z</time>
      </trkpt>
      <trkpt lat="46.38444" lon="5.80032">
        <ele>396.79998779297</ele>
        <time>2018-06-09T13:48:45.000Z</time>
      </trkpt>
      <trkpt lat="46.38455" lon="5.8003">
        <ele>396</ele>
        <time>2018-06-09T13:58:25.000Z</time>
      </trkpt>
      <trkpt lat="46.38459" lon="5.80023">
        <ele>396</ele>
        <time>2018-06-09T13:58:39.000Z</time>
      </trkpt>
      <trkpt lat="46.38453" lon="5.8004">
        <ele>396.39999389648</ele>
        <time>2018-06-09T13:59:04.000Z</time>
      </trkpt>
      <trkpt lat="46.38446" lon="5.80036">
        <ele>396.39999389648</ele>
        <time>2018-06-09T13:59:11.000Z</time>
      </trkpt>
      <trkpt lat="46.38445" lon="5.80035">
        <ele>395.60000610352</ele>
        <time>2018-06-09T13:59:15.000Z</time>
      </trkpt>
      <trkpt lat="46.38447" lon="5.80035">
        <ele>396.20001220703</ele>
        <time>2018-06-09T13:59:49.000Z</time>
      </trkpt>
      <trkpt lat="46.38451" lon="5.80036">
        <ele>397.20001220703</ele>
        <time>2018-06-09T14:00:39.000Z</time>
      </trkpt>
      <trkpt lat="46.38448" lon="5.80035">
        <ele>397.60000610352</ele>
        <time>2018-06-09T14:03:04.000Z</time>
      </trkpt>
      <trkpt lat="46.38445" lon="5.80032">
        <ele>397.60000610352</ele>
        <time>2018-06-09T14:04:01.000Z</time>
      </trkpt>
      <trkpt lat="46.38462" lon="5.80035">
        <ele>397.60000610352</ele>
        <time>2018-06-09T14:06:33.000Z</time>
      </trkpt>
      <trkpt lat="46.38467" lon="5.80032">
        <ele>397.79998779297</ele>
        <time>2018-06-09T14:06:36.000Z</time>
      </trkpt>
      <trkpt lat="46.38472" lon="5.80029">
        <ele>397.79998779297</ele>
        <time>2018-06-09T14:06:39.000Z</time>
      </trkpt>
      <trkpt lat="46.38472" lon="5.80025">
        <ele>397.79998779297</ele>
        <time>2018-06-09T14:06:41.000Z</time>
      </trkpt>
      <trkpt lat="46.38477" lon="5.80026">
        <ele>398</ele>
        <time>2018-06-09T14:06:45.000Z</time>
      </trkpt>
      <trkpt lat="46.38481" lon="5.80026">
        <ele>398</ele>
        <time>2018-06-09T14:06:48.000Z</time>
      </trkpt>
      <trkpt lat="46.38482" lon="5.80024">
        <ele>398.20001220703</ele>
        <time>2018-06-09T14:06:50.000Z</time>
      </trkpt>
      <trkpt lat="46.38483" lon="5.8005">
        <ele>398.79998779297</ele>
        <time>2018-06-09T14:10:03.000Z</time>
      </trkpt>
      <trkpt lat="46.38484" lon="5.80052">
        <ele>399</ele>
        <time>2018-06-09T14:10:05.000Z</time>
      </trkpt>
      <trkpt lat="46.3849" lon="5.80052">
        <ele>399</ele>
        <time>2018-06-09T14:10:10.000Z</time>
      </trkpt>
      <trkpt lat="46.38496" lon="5.80051">
        <ele>399.20001220703</ele>
        <time>2018-06-09T14:10:13.000Z</time>
      </trkpt>
      <trkpt lat="46.38501" lon="5.80055">
        <ele>399.39999389648</ele>
        <time>2018-06-09T14:10:16.000Z</time>
      </trkpt>
      <trkpt lat="46.38505" lon="5.8006">
        <ele>399.60000610352</ele>
        <time>2018-06-09T14:10:20.000Z</time>
      </trkpt>
      <trkpt lat="46.38511" lon="5.80067">
        <ele>400.20001220703</ele>
        <time>2018-06-09T14:10:24.000Z</time>
      </trkpt>
      <trkpt lat="46.38514" lon="5.80069">
        <ele>400.20001220703</ele>
        <time>2018-06-09T14:10:26.000Z</time>
      </trkpt>
      <trkpt lat="46.38534" lon="5.80099">
        <ele>401.39999389648</ele>
        <time>2018-06-09T14:10:40.000Z</time>
      </trkpt>
      <trkpt lat="46.38542" lon="5.80128">
        <ele>402</ele>
        <time>2018-06-09T14:10:50.000Z</time>
      </trkpt>
      <trkpt lat="46.38544" lon="5.80135">
        <ele>402.39999389648</ele>
        <time>2018-06-09T14:10:52.000Z</time>
      </trkpt>
      <trkpt lat="46.38546" lon="5.80142">
        <ele>402.79998779297</ele>
        <time>2018-06-09T14:10:55.000Z</time>
      </trkpt>
      <trkpt lat="46.38558" lon="5.80171">
        <ele>403.39999389648</ele>
        <time>2018-06-09T14:11:07.000Z</time>
      </trkpt>
      <trkpt lat="46.38566" lon="5.80181">
        <ele>403.79998779297</ele>
        <time>2018-06-09T14:11:13.000Z</time>
      </trkpt>
      <trkpt lat="46.38571" lon="5.80187">
        <ele>404</ele>
        <time>2018-06-09T14:11:16.000Z</time>
      </trkpt>
      <trkpt lat="46.38582" lon="5.80204">
        <ele>404.60000610352</ele>
        <time>2018-06-09T14:11:26.000Z</time>
      </trkpt>
      <trkpt lat="46.38583" lon="5.80205">
        <ele>404.79998779297</ele>
        <time>2018-06-09T14:11:27.000Z</time>
      </trkpt>
      <trkpt lat="46.38596" lon="5.80214">
        <ele>405.39999389648</ele>
        <time>2018-06-09T14:11:34.000Z</time>
      </trkpt>
      <trkpt lat="46.38599" lon="5.80219">
        <ele>405.79998779297</ele>
        <time>2018-06-09T14:11:37.000Z</time>
      </trkpt>
      <trkpt lat="46.38608" lon="5.80233">
        <ele>406.79998779297</ele>
        <time>2018-06-09T14:11:47.000Z</time>
      </trkpt>
      <trkpt lat="46.38635" lon="5.80245">
        <ele>407.79998779297</ele>
        <time>2018-06-09T14:12:04.000Z</time>
      </trkpt>
      <trkpt lat="46.38653" lon="5.80242">
        <ele>408.60000610352</ele>
        <time>2018-06-09T14:12:17.000Z</time>
      </trkpt>
      <trkpt lat="46.3866" lon="5.80243">
        <ele>408.60000610352</ele>
        <time>2018-06-09T14:12:20.000Z</time>
      </trkpt>
      <trkpt lat="46.38666" lon="5.8024">
        <ele>408.79998779297</ele>
        <time>2018-06-09T14:12:22.000Z</time>
      </trkpt>
      <trkpt lat="46.38672" lon="5.80237">
        <ele>408.79998779297</ele>
        <time>2018-06-09T14:12:24.000Z</time>
      </trkpt>
      <trkpt lat="46.38682" lon="5.80208">
        <ele>409.79998779297</ele>
        <time>2018-06-09T14:12:36.000Z</time>
      </trkpt>
      <trkpt lat="46.38685" lon="5.80206">
        <ele>409.79998779297</ele>
        <time>2018-06-09T14:12:37.000Z</time>
      </trkpt>
      <trkpt lat="46.38694" lon="5.802">
        <ele>410.39999389648</ele>
        <time>2018-06-09T14:12:44.000Z</time>
      </trkpt>
      <trkpt lat="46.38697" lon="5.80191">
        <ele>410.79998779297</ele>
        <time>2018-06-09T14:12:51.000Z</time>
      </trkpt>
      <trkpt lat="46.387" lon="5.80184">
        <ele>411</ele>
        <time>2018-06-09T14:12:56.000Z</time>
      </trkpt>
      <trkpt lat="46.3871" lon="5.80154">
        <ele>411.39999389648</ele>
        <time>2018-06-09T14:13:09.000Z</time>
      </trkpt>
      <trkpt lat="46.38709" lon="5.8014">
        <ele>411.60000610352</ele>
        <time>2018-06-09T14:13:14.000Z</time>
      </trkpt>
      <trkpt lat="46.38708" lon="5.80127">
        <ele>412</ele>
        <time>2018-06-09T14:13:24.000Z</time>
      </trkpt>
      <trkpt lat="46.38712" lon="5.80135">
        <ele>413.20001220703</ele>
        <time>2018-06-09T14:13:49.000Z</time>
      </trkpt>
      <trkpt lat="46.38709" lon="5.80134">
        <ele>414.20001220703</ele>
        <time>2018-06-09T14:13:53.000Z</time>
      </trkpt>
      <trkpt lat="46.38704" lon="5.80132">
        <ele>415.20001220703</ele>
        <time>2018-06-09T14:13:57.000Z</time>
      </trkpt>
      <trkpt lat="46.38704" lon="5.80123">
        <ele>416.39999389648</ele>
        <time>2018-06-09T14:14:02.000Z</time>
      </trkpt>
      <trkpt lat="46.38705" lon="5.80124">
        <ele>417.60000610352</ele>
        <time>2018-06-09T14:14:08.000Z</time>
      </trkpt>
      <trkpt lat="46.38706" lon="5.80123">
        <ele>418.60000610352</ele>
        <time>2018-06-09T14:14:14.000Z</time>
      </trkpt>
      <trkpt lat="46.38703" lon="5.80119">
        <ele>419.79998779297</ele>
        <time>2018-06-09T14:14:19.000Z</time>
      </trkpt>
      <trkpt lat="46.38701" lon="5.80116">
        <ele>420.79998779297</ele>
        <time>2018-06-09T14:14:25.000Z</time>
      </trkpt>
      <trkpt lat="46.38693" lon="5.8011">
        <ele>421.79998779297</ele>
        <time>2018-06-09T14:14:39.000Z</time>
      </trkpt>
      <trkpt lat="46.38685" lon="5.80094">
        <ele>422</ele>
        <time>2018-06-09T14:15:10.000Z</time>
      </trkpt>
      <trkpt lat="46.38678" lon="5.80077">
        <ele>421.60000610352</ele>
        <time>2018-06-09T14:15:19.000Z</time>
      </trkpt>
      <trkpt lat="46.38668" lon="5.80067">
        <ele>420.60000610352</ele>
        <time>2018-06-09T14:15:23.000Z</time>
      </trkpt>
      <trkpt lat="46.38662" lon="5.80059">
        <ele>418.79998779297</ele>
        <time>2018-06-09T14:15:25.000Z</time>
      </trkpt>
      <trkpt lat="46.38654" lon="5.8005">
        <ele>417.79998779297</ele>
        <time>2018-06-09T14:15:27.000Z</time>
      </trkpt>
      <trkpt lat="46.38651" lon="5.80044">
        <ele>417.39999389648</ele>
        <time>2018-06-09T14:15:28.000Z</time>
      </trkpt>
      <trkpt lat="46.3864" lon="5.8003">
        <ele>416.60000610352</ele>
        <time>2018-06-09T14:15:31.000Z</time>
      </trkpt>
      <trkpt lat="46.38614" lon="5.79995">
        <ele>417</ele>
        <time>2018-06-09T14:15:41.000Z</time>
      </trkpt>
      <trkpt lat="46.38608" lon="5.79992">
        <ele>417.60000610352</ele>
        <time>2018-06-09T14:15:43.000Z</time>
      </trkpt>
      <trkpt lat="46.38602" lon="5.79986">
        <ele>418</ele>
        <time>2018-06-09T14:15:45.000Z</time>
      </trkpt>
      <trkpt lat="46.38596" lon="5.79977">
        <ele>418.20001220703</ele>
        <time>2018-06-09T14:15:48.000Z</time>
      </trkpt>
      <trkpt lat="46.3859" lon="5.79971">
        <ele>418.60000610352</ele>
        <time>2018-06-09T14:15:51.000Z</time>
      </trkpt>
      <trkpt lat="46.38574" lon="5.79951">
        <ele>419.79998779297</ele>
        <time>2018-06-09T14:16:00.000Z</time>
      </trkpt>
      <trkpt lat="46.38561" lon="5.7993">
        <ele>420.79998779297</ele>
        <time>2018-06-09T14:16:06.000Z</time>
      </trkpt>
      <trkpt lat="46.3855" lon="5.79915">
        <ele>421.20001220703</ele>
        <time>2018-06-09T14:16:13.000Z</time>
      </trkpt>
      <trkpt lat="46.38533" lon="5.79894">
        <ele>421.79998779297</ele>
        <time>2018-06-09T14:16:21.000Z</time>
      </trkpt>
      <trkpt lat="46.38503" lon="5.79826">
        <ele>422.60000610352</ele>
        <time>2018-06-09T14:16:40.000Z</time>
      </trkpt>
      <trkpt lat="46.38502" lon="5.79823">
        <ele>422.79998779297</ele>
        <time>2018-06-09T14:16:41.000Z</time>
      </trkpt>
      <trkpt lat="46.385" lon="5.79806">
        <ele>424</ele>
        <time>2018-06-09T14:16:46.000Z</time>
      </trkpt>
      <trkpt lat="46.38496" lon="5.79784">
        <ele>424.39999389648</ele>
        <time>2018-06-09T14:16:53.000Z</time>
      </trkpt>
      <trkpt lat="46.38495" lon="5.79776">
        <ele>425</ele>
        <time>2018-06-09T14:16:56.000Z</time>
      </trkpt>
      <trkpt lat="46.38495" lon="5.79764">
        <ele>425.60000610352</ele>
        <time>2018-06-09T14:17:01.000Z</time>
      </trkpt>
      <trkpt lat="46.38495" lon="5.79759">
        <ele>425.79998779297</ele>
        <time>2018-06-09T14:17:03.000Z</time>
      </trkpt>
      <trkpt lat="46.38494" lon="5.79754">
        <ele>426</ele>
        <time>2018-06-09T14:17:05.000Z</time>
      </trkpt>
      <trkpt lat="46.38489" lon="5.79726">
        <ele>427</ele>
        <time>2018-06-09T14:17:17.000Z</time>
      </trkpt>
      <trkpt lat="46.38487" lon="5.79712">
        <ele>428</ele>
        <time>2018-06-09T14:17:24.000Z</time>
      </trkpt>
      <trkpt lat="46.38487" lon="5.7971">
        <ele>428.20001220703</ele>
        <time>2018-06-09T14:17:25.000Z</time>
      </trkpt>
      <trkpt lat="46.38488" lon="5.79707">
        <ele>428.20001220703</ele>
        <time>2018-06-09T14:17:26.000Z</time>
      </trkpt>
      <trkpt lat="46.38488" lon="5.79682">
        <ele>429.39999389648</ele>
        <time>2018-06-09T14:17:36.000Z</time>
      </trkpt>
      <trkpt lat="46.38483" lon="5.79636">
        <ele>430.39999389648</ele>
        <time>2018-06-09T14:17:48.000Z</time>
      </trkpt>
      <trkpt lat="46.38483" lon="5.79624">
        <ele>430.60000610352</ele>
        <time>2018-06-09T14:17:52.000Z</time>
      </trkpt>
      <trkpt lat="46.38485" lon="5.79608">
        <ele>430.79998779297</ele>
        <time>2018-06-09T14:17:58.000Z</time>
      </trkpt>
      <trkpt lat="46.38489" lon="5.79593">
        <ele>431.60000610352</ele>
        <time>2018-06-09T14:18:04.000Z</time>
      </trkpt>
      <trkpt lat="46.38489" lon="5.79588">
        <ele>431.79998779297</ele>
        <time>2018-06-09T14:18:06.000Z</time>
      </trkpt>
      <trkpt lat="46.38488" lon="5.79582">
        <ele>431.79998779297</ele>
        <time>2018-06-09T14:18:08.000Z</time>
      </trkpt>
      <trkpt lat="46.38485" lon="5.79544">
        <ele>432.60000610352</ele>
        <time>2018-06-09T14:18:20.000Z</time>
      </trkpt>
      <trkpt lat="46.38482" lon="5.79529">
        <ele>432.79998779297</ele>
        <time>2018-06-09T14:18:25.000Z</time>
      </trkpt>
      <trkpt lat="46.38482" lon="5.79522">
        <ele>433.20001220703</ele>
        <time>2018-06-09T14:18:27.000Z</time>
      </trkpt>
      <trkpt lat="46.38483" lon="5.79515">
        <ele>433.79998779297</ele>
        <time>2018-06-09T14:18:30.000Z</time>
      </trkpt>
      <trkpt lat="46.38484" lon="5.79504">
        <ele>434.39999389648</ele>
        <time>2018-06-09T14:18:34.000Z</time>
      </trkpt>
      <trkpt lat="46.38482" lon="5.79489">
        <ele>434.39999389648</ele>
        <time>2018-06-09T14:18:39.000Z</time>
      </trkpt>
      <trkpt lat="46.38487" lon="5.79479">
        <ele>434.60000610352</ele>
        <time>2018-06-09T14:18:43.000Z</time>
      </trkpt>
      <trkpt lat="46.38492" lon="5.79473">
        <ele>434.79998779297</ele>
        <time>2018-06-09T14:18:46.000Z</time>
      </trkpt>
      <trkpt lat="46.38493" lon="5.7947">
        <ele>435</ele>
        <time>2018-06-09T14:18:47.000Z</time>
      </trkpt>
      <trkpt lat="46.38497" lon="5.79444">
        <ele>435.79998779297</ele>
        <time>2018-06-09T14:18:57.000Z</time>
      </trkpt>
      <trkpt lat="46.385" lon="5.7944">
        <ele>435.79998779297</ele>
        <time>2018-06-09T14:18:59.000Z</time>
      </trkpt>
      <trkpt lat="46.38511" lon="5.79414">
        <ele>436.79998779297</ele>
        <time>2018-06-09T14:19:08.000Z</time>
      </trkpt>
      <trkpt lat="46.38527" lon="5.79343">
        <ele>438.20001220703</ele>
        <time>2018-06-09T14:19:32.000Z</time>
      </trkpt>
      <trkpt lat="46.38529" lon="5.7933">
        <ele>439.20001220703</ele>
        <time>2018-06-09T14:19:37.000Z</time>
      </trkpt>
      <trkpt lat="46.38531" lon="5.79306">
        <ele>440.20001220703</ele>
        <time>2018-06-09T14:19:45.000Z</time>
      </trkpt>
      <trkpt lat="46.38545" lon="5.7927">
        <ele>441.39999389648</ele>
        <time>2018-06-09T14:19:58.000Z</time>
      </trkpt>
      <trkpt lat="46.38553" lon="5.79231">
        <ele>442.39999389648</ele>
        <time>2018-06-09T14:20:11.000Z</time>
      </trkpt>
      <trkpt lat="46.38553" lon="5.79224">
        <ele>442.60000610352</ele>
        <time>2018-06-09T14:20:13.000Z</time>
      </trkpt>
      <trkpt lat="46.38557" lon="5.79208">
        <ele>443.39999389648</ele>
        <time>2018-06-09T14:20:20.000Z</time>
      </trkpt>
      <trkpt lat="46.38558" lon="5.79204">
        <ele>443.39999389648</ele>
        <time>2018-06-09T14:20:22.000Z</time>
      </trkpt>
      <trkpt lat="46.38566" lon="5.79184">
        <ele>444.39999389648</ele>
        <time>2018-06-09T14:20:31.000Z</time>
      </trkpt>
      <trkpt lat="46.38579" lon="5.79133">
        <ele>445.39999389648</ele>
        <time>2018-06-09T14:20:49.000Z</time>
      </trkpt>
      <trkpt lat="46.38579" lon="5.79128">
        <ele>445.60000610352</ele>
        <time>2018-06-09T14:20:51.000Z</time>
      </trkpt>
      <trkpt lat="46.38578" lon="5.79115">
        <ele>446</ele>
        <time>2018-06-09T14:20:55.000Z</time>
      </trkpt>
      <trkpt lat="46.38577" lon="5.79109">
        <ele>446.20001220703</ele>
        <time>2018-06-09T14:20:57.000Z</time>
      </trkpt>
      <trkpt lat="46.38569" lon="5.79085">
        <ele>446.79998779297</ele>
        <time>2018-06-09T14:21:05.000Z</time>
      </trkpt>
      <trkpt lat="46.38552" lon="5.79051">
        <ele>447.79998779297</ele>
        <time>2018-06-09T14:21:19.000Z</time>
      </trkpt>
      <trkpt lat="46.38518" lon="5.79029">
        <ele>449</ele>
        <time>2018-06-09T14:21:36.000Z</time>
      </trkpt>
      <trkpt lat="46.38508" lon="5.79023">
        <ele>449.79998779297</ele>
        <time>2018-06-09T14:21:42.000Z</time>
      </trkpt>
      <trkpt lat="46.38503" lon="5.79022">
        <ele>450</ele>
        <time>2018-06-09T14:21:45.000Z</time>
      </trkpt>
      <trkpt lat="46.3848" lon="5.79017">
        <ele>451</ele>
        <time>2018-06-09T14:21:56.000Z</time>
      </trkpt>
      <trkpt lat="46.38477" lon="5.79015">
        <ele>451.20001220703</ele>
        <time>2018-06-09T14:21:58.000Z</time>
      </trkpt>
      <trkpt lat="46.38462" lon="5.79011">
        <ele>451.79998779297</ele>
        <time>2018-06-09T14:22:03.000Z</time>
      </trkpt>
      <trkpt lat="46.38455" lon="5.79007">
        <ele>452</ele>
        <time>2018-06-09T14:22:06.000Z</time>
      </trkpt>
      <trkpt lat="46.3844" lon="5.78999">
        <ele>452.79998779297</ele>
        <time>2018-06-09T14:22:13.000Z</time>
      </trkpt>
      <trkpt lat="46.38433" lon="5.78994">
        <ele>453</ele>
        <time>2018-06-09T14:22:16.000Z</time>
      </trkpt>
      <trkpt lat="46.38431" lon="5.78993">
        <ele>453</ele>
        <time>2018-06-09T14:22:17.000Z</time>
      </trkpt>
      <trkpt lat="46.38404" lon="5.78972">
        <ele>454.20001220703</ele>
        <time>2018-06-09T14:22:31.000Z</time>
      </trkpt>
      <trkpt lat="46.38388" lon="5.78959">
        <ele>455.20001220703</ele>
        <time>2018-06-09T14:22:38.000Z</time>
      </trkpt>
      <trkpt lat="46.38368" lon="5.78945">
        <ele>456.20001220703</ele>
        <time>2018-06-09T14:22:48.000Z</time>
      </trkpt>
      <trkpt lat="46.38348" lon="5.78929">
        <ele>457.20001220703</ele>
        <time>2018-06-09T14:22:59.000Z</time>
      </trkpt>
      <trkpt lat="46.38346" lon="5.78928">
        <ele>457.39999389648</ele>
        <time>2018-06-09T14:23:00.000Z</time>
      </trkpt>
      <trkpt lat="46.38321" lon="5.78904">
        <ele>458.60000610352</ele>
        <time>2018-06-09T14:23:13.000Z</time>
      </trkpt>
      <trkpt lat="46.38303" lon="5.78885">
        <ele>459.60000610352</ele>
        <time>2018-06-09T14:23:23.000Z</time>
      </trkpt>
      <trkpt lat="46.38271" lon="5.78846">
        <ele>460.60000610352</ele>
        <time>2018-06-09T14:23:39.000Z</time>
      </trkpt>
      <trkpt lat="46.38257" lon="5.7882">
        <ele>461.79998779297</ele>
        <time>2018-06-09T14:23:51.000Z</time>
      </trkpt>
      <trkpt lat="46.38254" lon="5.78814">
        <ele>462.39999389648</ele>
        <time>2018-06-09T14:23:54.000Z</time>
      </trkpt>
      <trkpt lat="46.38253" lon="5.7881">
        <ele>462.79998779297</ele>
        <time>2018-06-09T14:23:57.000Z</time>
      </trkpt>
      <trkpt lat="46.3825" lon="5.788">
        <ele>463.20001220703</ele>
        <time>2018-06-09T14:24:04.000Z</time>
      </trkpt>
      <trkpt lat="46.38246" lon="5.78795">
        <ele>463.39999389648</ele>
        <time>2018-06-09T14:24:07.000Z</time>
      </trkpt>
      <trkpt lat="46.38243" lon="5.78791">
        <ele>463.79998779297</ele>
        <time>2018-06-09T14:24:10.000Z</time>
      </trkpt>
      <trkpt lat="46.38239" lon="5.78784">
        <ele>464.20001220703</ele>
        <time>2018-06-09T14:24:13.000Z</time>
      </trkpt>
      <trkpt lat="46.38222" lon="5.78761">
        <ele>464.79998779297</ele>
        <time>2018-06-09T14:24:22.000Z</time>
      </trkpt>
      <trkpt lat="46.382" lon="5.78733">
        <ele>465.79998779297</ele>
        <time>2018-06-09T14:24:35.000Z</time>
      </trkpt>
      <trkpt lat="46.38197" lon="5.78729">
        <ele>466</ele>
        <time>2018-06-09T14:24:36.000Z</time>
      </trkpt>
      <trkpt lat="46.38191" lon="5.78723">
        <ele>466.39999389648</ele>
        <time>2018-06-09T14:24:39.000Z</time>
      </trkpt>
      <trkpt lat="46.38184" lon="5.78714">
        <ele>467</ele>
        <time>2018-06-09T14:24:44.000Z</time>
      </trkpt>
      <trkpt lat="46.38171" lon="5.78698">
        <ele>467.79998779297</ele>
        <time>2018-06-09T14:24:54.000Z</time>
      </trkpt>
      <trkpt lat="46.38171" lon="5.78697">
        <ele>468</ele>
        <time>2018-06-09T14:24:56.000Z</time>
      </trkpt>
      <trkpt lat="46.38169" lon="5.78695">
        <ele>468.20001220703</ele>
        <time>2018-06-09T14:24:57.000Z</time>
      </trkpt>
      <trkpt lat="46.38165" lon="5.78691">
        <ele>468.39999389648</ele>
        <time>2018-06-09T14:25:00.000Z</time>
      </trkpt>
      <trkpt lat="46.38157" lon="5.7868">
        <ele>469.20001220703</ele>
        <time>2018-06-09T14:25:05.000Z</time>
      </trkpt>
      <trkpt lat="46.38146" lon="5.7866">
        <ele>469.79998779297</ele>
        <time>2018-06-09T14:25:15.000Z</time>
      </trkpt>
      <trkpt lat="46.38137" lon="5.78648">
        <ele>470.20001220703</ele>
        <time>2018-06-09T14:25:20.000Z</time>
      </trkpt>
      <trkpt lat="46.38135" lon="5.78646">
        <ele>470.20001220703</ele>
        <time>2018-06-09T14:25:21.000Z</time>
      </trkpt>
      <trkpt lat="46.38117" lon="5.78591">
        <ele>471.20001220703</ele>
        <time>2018-06-09T14:25:36.000Z</time>
      </trkpt>
      <trkpt lat="46.38118" lon="5.78567">
        <ele>472</ele>
        <time>2018-06-09T14:25:44.000Z</time>
      </trkpt>
      <trkpt lat="46.3812" lon="5.78563">
        <ele>472.20001220703</ele>
        <time>2018-06-09T14:25:46.000Z</time>
      </trkpt>
      <trkpt lat="46.38118" lon="5.78548">
        <ele>472.79998779297</ele>
        <time>2018-06-09T14:25:51.000Z</time>
      </trkpt>
      <trkpt lat="46.38119" lon="5.78536">
        <ele>473.39999389648</ele>
        <time>2018-06-09T14:25:56.000Z</time>
      </trkpt>
      <trkpt lat="46.38133" lon="5.78512">
        <ele>474.39999389648</ele>
        <time>2018-06-09T14:26:07.000Z</time>
      </trkpt>
      <trkpt lat="46.38143" lon="5.785">
        <ele>475.39999389648</ele>
        <time>2018-06-09T14:26:13.000Z</time>
      </trkpt>
      <trkpt lat="46.38148" lon="5.78483">
        <ele>476.39999389648</ele>
        <time>2018-06-09T14:26:21.000Z</time>
      </trkpt>
      <trkpt lat="46.38148" lon="5.78481">
        <ele>476.39999389648</ele>
        <time>2018-06-09T14:26:22.000Z</time>
      </trkpt>
      <trkpt lat="46.38148" lon="5.78464">
        <ele>477.60000610352</ele>
        <time>2018-06-09T14:26:29.000Z</time>
      </trkpt>
      <trkpt lat="46.38149" lon="5.78451">
        <ele>478.60000610352</ele>
        <time>2018-06-09T14:26:35.000Z</time>
      </trkpt>
      <trkpt lat="46.38154" lon="5.78441">
        <ele>479.60000610352</ele>
        <time>2018-06-09T14:26:41.000Z</time>
      </trkpt>
      <trkpt lat="46.38154" lon="5.78439">
        <ele>479.79998779297</ele>
        <time>2018-06-09T14:26:42.000Z</time>
      </trkpt>
      <trkpt lat="46.38153" lon="5.78434">
        <ele>480.20001220703</ele>
        <time>2018-06-09T14:26:44.000Z</time>
      </trkpt>
      <trkpt lat="46.38156" lon="5.78429">
        <ele>481</ele>
        <time>2018-06-09T14:26:47.000Z</time>
      </trkpt>
      <trkpt lat="46.38158" lon="5.78423">
        <ele>482</ele>
        <time>2018-06-09T14:26:51.000Z</time>
      </trkpt>
      <trkpt lat="46.38161" lon="5.78414">
        <ele>483.20001220703</ele>
        <time>2018-06-09T14:26:56.000Z</time>
      </trkpt>
      <trkpt lat="46.38161" lon="5.7841">
        <ele>483.79998779297</ele>
        <time>2018-06-09T14:26:58.000Z</time>
      </trkpt>
      <trkpt lat="46.38161" lon="5.78405">
        <ele>484.20001220703</ele>
        <time>2018-06-09T14:27:00.000Z</time>
      </trkpt>
      <trkpt lat="46.3816" lon="5.78395">
        <ele>485.39999389648</ele>
        <time>2018-06-09T14:27:05.000Z</time>
      </trkpt>
      <trkpt lat="46.38163" lon="5.78385">
        <ele>486.79998779297</ele>
        <time>2018-06-09T14:27:11.000Z</time>
      </trkpt>
      <trkpt lat="46.38164" lon="5.78381">
        <ele>488</ele>
        <time>2018-06-09T14:27:14.000Z</time>
      </trkpt>
      <trkpt lat="46.38166" lon="5.7837">
        <ele>489</ele>
        <time>2018-06-09T14:27:25.000Z</time>
      </trkpt>
      <trkpt lat="46.38166" lon="5.78365">
        <ele>490</ele>
        <time>2018-06-09T14:27:31.000Z</time>
      </trkpt>
      <trkpt lat="46.38167" lon="5.78363">
        <ele>491.20001220703</ele>
        <time>2018-06-09T14:27:37.000Z</time>
      </trkpt>
      <trkpt lat="46.38163" lon="5.78352">
        <ele>491.60000610352</ele>
        <time>2018-06-09T14:27:59.000Z</time>
      </trkpt>
      <trkpt lat="46.3816" lon="5.78347">
        <ele>491.39999389648</ele>
        <time>2018-06-09T14:28:01.000Z</time>
      </trkpt>
      <trkpt lat="46.3815" lon="5.78328">
        <ele>489.79998779297</ele>
        <time>2018-06-09T14:28:06.000Z</time>
      </trkpt>
      <trkpt lat="46.38124" lon="5.78262">
        <ele>490.79998779297</ele>
        <time>2018-06-09T14:28:29.000Z</time>
      </trkpt>
      <trkpt lat="46.38123" lon="5.7826">
        <ele>490.79998779297</ele>
        <time>2018-06-09T14:28:30.000Z</time>
      </trkpt>
      <trkpt lat="46.38114" lon="5.78249">
        <ele>492</ele>
        <time>2018-06-09T14:28:40.000Z</time>
      </trkpt>
      <trkpt lat="46.38113" lon="5.78248">
        <ele>493</ele>
        <time>2018-06-09T14:28:46.000Z</time>
      </trkpt>
      <trkpt lat="46.38112" lon="5.78248">
        <ele>494.20001220703</ele>
        <time>2018-06-09T14:28:51.000Z</time>
      </trkpt>
      <trkpt lat="46.38095" lon="5.78251">
        <ele>495.20001220703</ele>
        <time>2018-06-09T14:29:07.000Z</time>
      </trkpt>
      <trkpt lat="46.38088" lon="5.78253">
        <ele>496.20001220703</ele>
        <time>2018-06-09T14:29:15.000Z</time>
      </trkpt>
      <trkpt lat="46.38082" lon="5.78254">
        <ele>497.39999389648</ele>
        <time>2018-06-09T14:29:20.000Z</time>
      </trkpt>
      <trkpt lat="46.38076" lon="5.78257">
        <ele>498.60000610352</ele>
        <time>2018-06-09T14:29:28.000Z</time>
      </trkpt>
      <trkpt lat="46.38074" lon="5.7826">
        <ele>499.60000610352</ele>
        <time>2018-06-09T14:29:34.000Z</time>
      </trkpt>
      <trkpt lat="46.38072" lon="5.7826">
        <ele>500.60000610352</ele>
        <time>2018-06-09T14:29:38.000Z</time>
      </trkpt>
      <trkpt lat="46.38071" lon="5.78259">
        <ele>501</ele>
        <time>2018-06-09T14:29:40.000Z</time>
      </trkpt>
      <trkpt lat="46.38065" lon="5.78264">
        <ele>501.20001220703</ele>
        <time>2018-06-09T14:29:43.000Z</time>
      </trkpt>
      <trkpt lat="46.38052" lon="5.78273">
        <ele>500.60000610352</ele>
        <time>2018-06-09T14:30:01.000Z</time>
      </trkpt>
      <trkpt lat="46.38041" lon="5.78277">
        <ele>500.39999389648</ele>
        <time>2018-06-09T14:30:13.000Z</time>
      </trkpt>
      <trkpt lat="46.38037" lon="5.78279">
        <ele>500.39999389648</ele>
        <time>2018-06-09T14:30:15.000Z</time>
      </trkpt>
      <trkpt lat="46.38021" lon="5.78285">
        <ele>499.60000610352</ele>
        <time>2018-06-09T14:30:21.000Z</time>
      </trkpt>
      <trkpt lat="46.38003" lon="5.78292">
        <ele>498.60000610352</ele>
        <time>2018-06-09T14:30:27.000Z</time>
      </trkpt>
      <trkpt lat="46.37981" lon="5.78298">
        <ele>497.39999389648</ele>
        <time>2018-06-09T14:30:33.000Z</time>
      </trkpt>
      <trkpt lat="46.37927" lon="5.78292">
        <ele>496.79998779297</ele>
        <time>2018-06-09T14:30:47.000Z</time>
      </trkpt>
      <trkpt lat="46.37919" lon="5.78283">
        <ele>498.39999389648</ele>
        <time>2018-06-09T14:31:02.000Z</time>
      </trkpt>
      <trkpt lat="46.3791" lon="5.78279">
        <ele>499.39999389648</ele>
        <time>2018-06-09T14:31:08.000Z</time>
      </trkpt>
      <trkpt lat="46.37902" lon="5.78275">
        <ele>500.60000610352</ele>
        <time>2018-06-09T14:31:16.000Z</time>
      </trkpt>
      <trkpt lat="46.37896" lon="5.78276">
        <ele>501.60000610352</ele>
        <time>2018-06-09T14:31:22.000Z</time>
      </trkpt>
      <trkpt lat="46.3789" lon="5.78274">
        <ele>502.60000610352</ele>
        <time>2018-06-09T14:31:29.000Z</time>
      </trkpt>
      <trkpt lat="46.37889" lon="5.78274">
        <ele>502.60000610352</ele>
        <time>2018-06-09T14:31:30.000Z</time>
      </trkpt>
      <trkpt lat="46.37887" lon="5.78274">
        <ele>503.20001220703</ele>
        <time>2018-06-09T14:31:32.000Z</time>
      </trkpt>
      <trkpt lat="46.37885" lon="5.78273">
        <ele>503.79998779297</ele>
        <time>2018-06-09T14:31:34.000Z</time>
      </trkpt>
      <trkpt lat="46.37883" lon="5.7827">
        <ele>504.79998779297</ele>
        <time>2018-06-09T14:31:40.000Z</time>
      </trkpt>
      <trkpt lat="46.37881" lon="5.78266">
        <ele>506</ele>
        <time>2018-06-09T14:31:49.000Z</time>
      </trkpt>
      <trkpt lat="46.37877" lon="5.78265">
        <ele>507</ele>
        <time>2018-06-09T14:31:56.000Z</time>
      </trkpt>
      <trkpt lat="46.37874" lon="5.78263">
        <ele>508.20001220703</ele>
        <time>2018-06-09T14:32:02.000Z</time>
      </trkpt>
      <trkpt lat="46.37873" lon="5.78261">
        <ele>509.20001220703</ele>
        <time>2018-06-09T14:32:08.000Z</time>
      </trkpt>
      <trkpt lat="46.37868" lon="5.78257">
        <ele>510.39999389648</ele>
        <time>2018-06-09T14:32:28.000Z</time>
      </trkpt>
      <trkpt lat="46.3786" lon="5.78252">
        <ele>511.39999389648</ele>
        <time>2018-06-09T14:32:37.000Z</time>
      </trkpt>
      <trkpt lat="46.37859" lon="5.7825">
        <ele>511.60000610352</ele>
        <time>2018-06-09T14:32:39.000Z</time>
      </trkpt>
      <trkpt lat="46.37857" lon="5.7825">
        <ele>512.40002441406</ele>
        <time>2018-06-09T14:32:43.000Z</time>
      </trkpt>
      <trkpt lat="46.37858" lon="5.78249">
        <ele>513.40002441406</ele>
        <time>2018-06-09T14:32:50.000Z</time>
      </trkpt>
      <trkpt lat="46.37855" lon="5.78244">
        <ele>514.59997558594</ele>
        <time>2018-06-09T14:32:57.000Z</time>
      </trkpt>
      <trkpt lat="46.37851" lon="5.78241">
        <ele>515.40002441406</ele>
        <time>2018-06-09T14:33:02.000Z</time>
      </trkpt>
      <trkpt lat="46.3785" lon="5.78239">
        <ele>515.59997558594</ele>
        <time>2018-06-09T14:33:04.000Z</time>
      </trkpt>
      <trkpt lat="46.37849" lon="5.78234">
        <ele>516.79998779297</ele>
        <time>2018-06-09T14:33:11.000Z</time>
      </trkpt>
      <trkpt lat="46.37846" lon="5.78232">
        <ele>517.79998779297</ele>
        <time>2018-06-09T14:33:16.000Z</time>
      </trkpt>
      <trkpt lat="46.37846" lon="5.78231">
        <ele>518.79998779297</ele>
        <time>2018-06-09T14:33:20.000Z</time>
      </trkpt>
      <trkpt lat="46.37844" lon="5.78229">
        <ele>520</ele>
        <time>2018-06-09T14:33:26.000Z</time>
      </trkpt>
      <trkpt lat="46.3784" lon="5.78226">
        <ele>521.20001220703</ele>
        <time>2018-06-09T14:33:31.000Z</time>
      </trkpt>
      <trkpt lat="46.37836" lon="5.7822">
        <ele>522.20001220703</ele>
        <time>2018-06-09T14:33:36.000Z</time>
      </trkpt>
      <trkpt lat="46.37834" lon="5.78215">
        <ele>523.20001220703</ele>
        <time>2018-06-09T14:33:45.000Z</time>
      </trkpt>
      <trkpt lat="46.37836" lon="5.78217">
        <ele>524.20001220703</ele>
        <time>2018-06-09T14:33:54.000Z</time>
      </trkpt>
      <trkpt lat="46.37828" lon="5.78212">
        <ele>524.40002441406</ele>
        <time>2018-06-09T14:34:15.000Z</time>
      </trkpt>
      <trkpt lat="46.37825" lon="5.78207">
        <ele>525.40002441406</ele>
        <time>2018-06-09T14:34:21.000Z</time>
      </trkpt>
      <trkpt lat="46.37821" lon="5.78201">
        <ele>526.40002441406</ele>
        <time>2018-06-09T14:34:28.000Z</time>
      </trkpt>
      <trkpt lat="46.37821" lon="5.78199">
        <ele>527.59997558594</ele>
        <time>2018-06-09T14:34:34.000Z</time>
      </trkpt>
      <trkpt lat="46.37821" lon="5.78188">
        <ele>528.79998779297</ele>
        <time>2018-06-09T14:35:19.000Z</time>
      </trkpt>
      <trkpt lat="46.37823" lon="5.78184">
        <ele>529.79998779297</ele>
        <time>2018-06-09T14:35:24.000Z</time>
      </trkpt>
      <trkpt lat="46.37823" lon="5.7818">
        <ele>531</ele>
        <time>2018-06-09T14:35:31.000Z</time>
      </trkpt>
      <trkpt lat="46.37821" lon="5.78177">
        <ele>531.40002441406</ele>
        <time>2018-06-09T14:35:33.000Z</time>
      </trkpt>
      <trkpt lat="46.37818" lon="5.78176">
        <ele>531.59997558594</ele>
        <time>2018-06-09T14:35:35.000Z</time>
      </trkpt>
      <trkpt lat="46.37813" lon="5.78172">
        <ele>532.20001220703</ele>
        <time>2018-06-09T14:35:40.000Z</time>
      </trkpt>
      <trkpt lat="46.37803" lon="5.78164">
        <ele>533.20001220703</ele>
        <time>2018-06-09T14:35:54.000Z</time>
      </trkpt>
      <trkpt lat="46.37802" lon="5.78162">
        <ele>533.59997558594</ele>
        <time>2018-06-09T14:35:56.000Z</time>
      </trkpt>
      <trkpt lat="46.37801" lon="5.7816">
        <ele>534</ele>
        <time>2018-06-09T14:35:58.000Z</time>
      </trkpt>
      <trkpt lat="46.37801" lon="5.78157">
        <ele>534.20001220703</ele>
        <time>2018-06-09T14:36:00.000Z</time>
      </trkpt>
      <trkpt lat="46.37801" lon="5.78143">
        <ele>535.20001220703</ele>
        <time>2018-06-09T14:36:07.000Z</time>
      </trkpt>
      <trkpt lat="46.37799" lon="5.78133">
        <ele>536.59997558594</ele>
        <time>2018-06-09T14:36:13.000Z</time>
      </trkpt>
      <trkpt lat="46.37796" lon="5.78129">
        <ele>537.20001220703</ele>
        <time>2018-06-09T14:36:17.000Z</time>
      </trkpt>
      <trkpt lat="46.37797" lon="5.78125">
        <ele>537.59997558594</ele>
        <time>2018-06-09T14:36:23.000Z</time>
      </trkpt>
      <trkpt lat="46.37796" lon="5.78118">
        <ele>538.59997558594</ele>
        <time>2018-06-09T14:36:32.000Z</time>
      </trkpt>
      <trkpt lat="46.37793" lon="5.78109">
        <ele>539.59997558594</ele>
        <time>2018-06-09T14:36:42.000Z</time>
      </trkpt>
      <trkpt lat="46.37792" lon="5.78091">
        <ele>540.40002441406</ele>
        <time>2018-06-09T14:36:52.000Z</time>
      </trkpt>
      <trkpt lat="46.37793" lon="5.78084">
        <ele>540.40002441406</ele>
        <time>2018-06-09T14:36:57.000Z</time>
      </trkpt>
      <trkpt lat="46.37799" lon="5.78074">
        <ele>540.40002441406</ele>
        <time>2018-06-09T14:37:04.000Z</time>
      </trkpt>
      <trkpt lat="46.37801" lon="5.78071">
        <ele>540.59997558594</ele>
        <time>2018-06-09T14:37:07.000Z</time>
      </trkpt>
      <trkpt lat="46.37802" lon="5.78068">
        <ele>540.79998779297</ele>
        <time>2018-06-09T14:37:08.000Z</time>
      </trkpt>
      <trkpt lat="46.37802" lon="5.7806">
        <ele>541.79998779297</ele>
        <time>2018-06-09T14:37:16.000Z</time>
      </trkpt>
      <trkpt lat="46.37804" lon="5.78057">
        <ele>541.40002441406</ele>
        <time>2018-06-09T14:40:58.000Z</time>
      </trkpt>
      <trkpt lat="46.37794" lon="5.78053">
        <ele>541.40002441406</ele>
        <time>2018-06-09T14:44:22.000Z</time>
      </trkpt>
      <trkpt lat="46.37794" lon="5.7805">
        <ele>542.40002441406</ele>
        <time>2018-06-09T14:44:25.000Z</time>
      </trkpt>
      <trkpt lat="46.37795" lon="5.78044">
        <ele>543.20001220703</ele>
        <time>2018-06-09T14:44:28.000Z</time>
      </trkpt>
      <trkpt lat="46.37798" lon="5.78032">
        <ele>543.59997558594</ele>
        <time>2018-06-09T14:44:33.000Z</time>
      </trkpt>
      <trkpt lat="46.37802" lon="5.7802">
        <ele>544</ele>
        <time>2018-06-09T14:44:39.000Z</time>
      </trkpt>
      <trkpt lat="46.37803" lon="5.78019">
        <ele>544.20001220703</ele>
        <time>2018-06-09T14:44:40.000Z</time>
      </trkpt>
      <trkpt lat="46.37805" lon="5.78017">
        <ele>544.40002441406</ele>
        <time>2018-06-09T14:44:42.000Z</time>
      </trkpt>
      <trkpt lat="46.37809" lon="5.78016">
        <ele>544.40002441406</ele>
        <time>2018-06-09T14:44:44.000Z</time>
      </trkpt>
      <trkpt lat="46.37811" lon="5.78014">
        <ele>544.59997558594</ele>
        <time>2018-06-09T14:44:46.000Z</time>
      </trkpt>
      <trkpt lat="46.37816" lon="5.78012">
        <ele>544.79998779297</ele>
        <time>2018-06-09T14:44:49.000Z</time>
      </trkpt>
      <trkpt lat="46.37817" lon="5.78011">
        <ele>545</ele>
        <time>2018-06-09T14:44:50.000Z</time>
      </trkpt>
      <trkpt lat="46.37822" lon="5.78008">
        <ele>545</ele>
        <time>2018-06-09T14:44:53.000Z</time>
      </trkpt>
      <trkpt lat="46.37831" lon="5.78004">
        <ele>545.20001220703</ele>
        <time>2018-06-09T14:44:57.000Z</time>
      </trkpt>
      <trkpt lat="46.37842" lon="5.77995">
        <ele>545.40002441406</ele>
        <time>2018-06-09T14:45:04.000Z</time>
      </trkpt>
      <trkpt lat="46.37843" lon="5.77988">
        <ele>545.20001220703</ele>
        <time>2018-06-09T14:45:07.000Z</time>
      </trkpt>
      <trkpt lat="46.37852" lon="5.77979">
        <ele>545.40002441406</ele>
        <time>2018-06-09T14:45:13.000Z</time>
      </trkpt>
      <trkpt lat="46.37858" lon="5.77977">
        <ele>546.40002441406</ele>
        <time>2018-06-09T14:45:16.000Z</time>
      </trkpt>
      <trkpt lat="46.3786" lon="5.77973">
        <ele>546.79998779297</ele>
        <time>2018-06-09T14:45:19.000Z</time>
      </trkpt>
      <trkpt lat="46.37865" lon="5.77967">
        <ele>547.40002441406</ele>
        <time>2018-06-09T14:45:25.000Z</time>
      </trkpt>
      <trkpt lat="46.37868" lon="5.77965">
        <ele>547.59997558594</ele>
        <time>2018-06-09T14:45:27.000Z</time>
      </trkpt>
      <trkpt lat="46.37873" lon="5.77962">
        <ele>547.79998779297</ele>
        <time>2018-06-09T14:45:31.000Z</time>
      </trkpt>
      <trkpt lat="46.37878" lon="5.77961">
        <ele>548</ele>
        <time>2018-06-09T14:45:34.000Z</time>
      </trkpt>
      <trkpt lat="46.379" lon="5.77939">
        <ele>548.40002441406</ele>
        <time>2018-06-09T14:45:48.000Z</time>
      </trkpt>
      <trkpt lat="46.37903" lon="5.77918">
        <ele>549.20001220703</ele>
        <time>2018-06-09T14:45:56.000Z</time>
      </trkpt>
      <trkpt lat="46.37902" lon="5.7791">
        <ele>549.40002441406</ele>
        <time>2018-06-09T14:45:59.000Z</time>
      </trkpt>
      <trkpt lat="46.37901" lon="5.77909">
        <ele>549.59997558594</ele>
        <time>2018-06-09T14:46:00.000Z</time>
      </trkpt>
      <trkpt lat="46.379" lon="5.77908">
        <ele>549.59997558594</ele>
        <time>2018-06-09T14:46:02.000Z</time>
      </trkpt>
      <trkpt lat="46.37897" lon="5.77907">
        <ele>550</ele>
        <time>2018-06-09T14:46:05.000Z</time>
      </trkpt>
      <trkpt lat="46.37892" lon="5.77908">
        <ele>550.59997558594</ele>
        <time>2018-06-09T14:46:08.000Z</time>
      </trkpt>
      <trkpt lat="46.37876" lon="5.77909">
        <ele>551.59997558594</ele>
        <time>2018-06-09T14:46:18.000Z</time>
      </trkpt>
      <trkpt lat="46.37861" lon="5.77908">
        <ele>552.79998779297</ele>
        <time>2018-06-09T14:46:30.000Z</time>
      </trkpt>
      <trkpt lat="46.37856" lon="5.77896">
        <ele>553.79998779297</ele>
        <time>2018-06-09T14:46:39.000Z</time>
      </trkpt>
      <trkpt lat="46.37855" lon="5.77884">
        <ele>554.59997558594</ele>
        <time>2018-06-09T14:46:44.000Z</time>
      </trkpt>
      <trkpt lat="46.37856" lon="5.77879">
        <ele>554.79998779297</ele>
        <time>2018-06-09T14:46:46.000Z</time>
      </trkpt>
      <trkpt lat="46.37855" lon="5.77865">
        <ele>555.40002441406</ele>
        <time>2018-06-09T14:46:53.000Z</time>
      </trkpt>
      <trkpt lat="46.37858" lon="5.7786">
        <ele>556</ele>
        <time>2018-06-09T14:46:56.000Z</time>
      </trkpt>
      <trkpt lat="46.37858" lon="5.77849">
        <ele>556.79998779297</ele>
        <time>2018-06-09T14:47:03.000Z</time>
      </trkpt>
      <trkpt lat="46.37857" lon="5.77845">
        <ele>557</ele>
        <time>2018-06-09T14:47:05.000Z</time>
      </trkpt>
      <trkpt lat="46.37858" lon="5.77826">
        <ele>558</ele>
        <time>2018-06-09T14:47:16.000Z</time>
      </trkpt>
      <trkpt lat="46.37856" lon="5.778">
        <ele>559</ele>
        <time>2018-06-09T14:47:28.000Z</time>
      </trkpt>
      <trkpt lat="46.37853" lon="5.77792">
        <ele>559.20001220703</ele>
        <time>2018-06-09T14:47:31.000Z</time>
      </trkpt>
      <trkpt lat="46.37845" lon="5.77766">
        <ele>560.20001220703</ele>
        <time>2018-06-09T14:47:45.000Z</time>
      </trkpt>
      <trkpt lat="46.37832" lon="5.77754">
        <ele>561.20001220703</ele>
        <time>2018-06-09T14:47:56.000Z</time>
      </trkpt>
      <trkpt lat="46.37813" lon="5.7774">
        <ele>562.20001220703</ele>
        <time>2018-06-09T14:48:11.000Z</time>
      </trkpt>
      <trkpt lat="46.37808" lon="5.77736">
        <ele>562.79998779297</ele>
        <time>2018-06-09T14:48:18.000Z</time>
      </trkpt>
      <trkpt lat="46.37801" lon="5.7773">
        <ele>563.40002441406</ele>
        <time>2018-06-09T14:48:24.000Z</time>
      </trkpt>
      <trkpt lat="46.37789" lon="5.7772">
        <ele>564.59997558594</ele>
        <time>2018-06-09T14:48:34.000Z</time>
      </trkpt>
      <trkpt lat="46.37784" lon="5.77715">
        <ele>565</ele>
        <time>2018-06-09T14:48:38.000Z</time>
      </trkpt>
      <trkpt lat="46.37779" lon="5.77708">
        <ele>565.59997558594</ele>
        <time>2018-06-09T14:48:43.000Z</time>
      </trkpt>
      <trkpt lat="46.37777" lon="5.77703">
        <ele>565.79998779297</ele>
        <time>2018-06-09T14:48:46.000Z</time>
      </trkpt>
      <trkpt lat="46.37775" lon="5.77699">
        <ele>566</ele>
        <time>2018-06-09T14:48:48.000Z</time>
      </trkpt>
      <trkpt lat="46.3777" lon="5.77691">
        <ele>566.59997558594</ele>
        <time>2018-06-09T14:48:52.000Z</time>
      </trkpt>
      <trkpt lat="46.3777" lon="5.7769">
        <ele>566.59997558594</ele>
        <time>2018-06-09T14:48:53.000Z</time>
      </trkpt>
      <trkpt lat="46.37764" lon="5.77671">
        <ele>567.59997558594</ele>
        <time>2018-06-09T14:49:04.000Z</time>
      </trkpt>
      <trkpt lat="46.37761" lon="5.77659">
        <ele>568.59997558594</ele>
        <time>2018-06-09T14:49:12.000Z</time>
      </trkpt>
      <trkpt lat="46.37758" lon="5.77647">
        <ele>569.79998779297</ele>
        <time>2018-06-09T14:49:19.000Z</time>
      </trkpt>
      <trkpt lat="46.37747" lon="5.77627">
        <ele>570.79998779297</ele>
        <time>2018-06-09T14:49:33.000Z</time>
      </trkpt>
      <trkpt lat="46.37738" lon="5.77617">
        <ele>572</ele>
        <time>2018-06-09T14:49:41.000Z</time>
      </trkpt>
      <trkpt lat="46.37734" lon="5.77604">
        <ele>573</ele>
        <time>2018-06-09T14:49:49.000Z</time>
      </trkpt>
      <trkpt lat="46.3773" lon="5.77592">
        <ele>573.40002441406</ele>
        <time>2018-06-09T14:49:55.000Z</time>
      </trkpt>
      <trkpt lat="46.37731" lon="5.77587">
        <ele>574</ele>
        <time>2018-06-09T14:49:58.000Z</time>
      </trkpt>
      <trkpt lat="46.37733" lon="5.77581">
        <ele>574.59997558594</ele>
        <time>2018-06-09T14:50:01.000Z</time>
      </trkpt>
      <trkpt lat="46.37736" lon="5.77574">
        <ele>575</ele>
        <time>2018-06-09T14:50:05.000Z</time>
      </trkpt>
      <trkpt lat="46.37738" lon="5.77569">
        <ele>575.20001220703</ele>
        <time>2018-06-09T14:50:08.000Z</time>
      </trkpt>
      <trkpt lat="46.37742" lon="5.77557">
        <ele>576</ele>
        <time>2018-06-09T14:50:14.000Z</time>
      </trkpt>
      <trkpt lat="46.37743" lon="5.77556">
        <ele>576.20001220703</ele>
        <time>2018-06-09T14:50:15.000Z</time>
      </trkpt>
      <trkpt lat="46.37744" lon="5.77555">
        <ele>576.20001220703</ele>
        <time>2018-06-09T14:50:16.000Z</time>
      </trkpt>
      <trkpt lat="46.37747" lon="5.77549">
        <ele>576.59997558594</ele>
        <time>2018-06-09T14:50:20.000Z</time>
      </trkpt>
      <trkpt lat="46.37749" lon="5.77531">
        <ele>577.20001220703</ele>
        <time>2018-06-09T14:50:28.000Z</time>
      </trkpt>
      <trkpt lat="46.37749" lon="5.77527">
        <ele>577.40002441406</ele>
        <time>2018-06-09T14:50:30.000Z</time>
      </trkpt>
      <trkpt lat="46.3775" lon="5.77515">
        <ele>577.40002441406</ele>
        <time>2018-06-09T14:50:35.000Z</time>
      </trkpt>
      <trkpt lat="46.3775" lon="5.77501">
        <ele>577.79998779297</ele>
        <time>2018-06-09T14:50:41.000Z</time>
      </trkpt>
      <trkpt lat="46.37753" lon="5.77496">
        <ele>578</ele>
        <time>2018-06-09T14:50:44.000Z</time>
      </trkpt>
      <trkpt lat="46.37753" lon="5.77492">
        <ele>578</ele>
        <time>2018-06-09T14:50:46.000Z</time>
      </trkpt>
      <trkpt lat="46.37752" lon="5.77484">
        <ele>578.20001220703</ele>
        <time>2018-06-09T14:50:49.000Z</time>
      </trkpt>
      <trkpt lat="46.37754" lon="5.77478">
        <ele>578.40002441406</ele>
        <time>2018-06-09T14:50:52.000Z</time>
      </trkpt>
      <trkpt lat="46.3776" lon="5.77466">
        <ele>579</ele>
        <time>2018-06-09T14:51:01.000Z</time>
      </trkpt>
      <trkpt lat="46.37761" lon="5.77461">
        <ele>579.20001220703</ele>
        <time>2018-06-09T14:51:04.000Z</time>
      </trkpt>
      <trkpt lat="46.37762" lon="5.77459">
        <ele>579.40002441406</ele>
        <time>2018-06-09T14:51:05.000Z</time>
      </trkpt>
      <trkpt lat="46.37768" lon="5.7745">
        <ele>580.40002441406</ele>
        <time>2018-06-09T14:51:13.000Z</time>
      </trkpt>
      <trkpt lat="46.37769" lon="5.77447">
        <ele>580.79998779297</ele>
        <time>2018-06-09T14:51:15.000Z</time>
      </trkpt>
      <trkpt lat="46.37774" lon="5.77441">
        <ele>581.40002441406</ele>
        <time>2018-06-09T14:51:20.000Z</time>
      </trkpt>
      <trkpt lat="46.37774" lon="5.77439">
        <ele>581.59997558594</ele>
        <time>2018-06-09T14:51:21.000Z</time>
      </trkpt>
      <trkpt lat="46.37779" lon="5.77431">
        <ele>582.59997558594</ele>
        <time>2018-06-09T14:51:28.000Z</time>
      </trkpt>
      <trkpt lat="46.37781" lon="5.7743">
        <ele>582.59997558594</ele>
        <time>2018-06-09T14:51:29.000Z</time>
      </trkpt>
      <trkpt lat="46.37792" lon="5.77419">
        <ele>583.59997558594</ele>
        <time>2018-06-09T14:51:48.000Z</time>
      </trkpt>
      <trkpt lat="46.37798" lon="5.77413">
        <ele>583.79998779297</ele>
        <time>2018-06-09T14:54:35.000Z</time>
      </trkpt>
      <trkpt lat="46.37806" lon="5.77405">
        <ele>583.79998779297</ele>
        <time>2018-06-09T14:54:44.000Z</time>
      </trkpt>
      <trkpt lat="46.37805" lon="5.77401">
        <ele>584</ele>
        <time>2018-06-09T14:54:46.000Z</time>
      </trkpt>
      <trkpt lat="46.37814" lon="5.77385">
        <ele>584.59997558594</ele>
        <time>2018-06-09T14:54:58.000Z</time>
      </trkpt>
      <trkpt lat="46.37815" lon="5.77383">
        <ele>584.59997558594</ele>
        <time>2018-06-09T14:54:59.000Z</time>
      </trkpt>
      <trkpt lat="46.37816" lon="5.7738">
        <ele>585</ele>
        <time>2018-06-09T14:55:01.000Z</time>
      </trkpt>
      <trkpt lat="46.37819" lon="5.77371">
        <ele>585.20001220703</ele>
        <time>2018-06-09T14:55:06.000Z</time>
      </trkpt>
      <trkpt lat="46.3782" lon="5.77357">
        <ele>585.79998779297</ele>
        <time>2018-06-09T14:55:13.000Z</time>
      </trkpt>
      <trkpt lat="46.37821" lon="5.77353">
        <ele>585.79998779297</ele>
        <time>2018-06-09T14:55:15.000Z</time>
      </trkpt>
      <trkpt lat="46.37819" lon="5.77341">
        <ele>586.79998779297</ele>
        <time>2018-06-09T14:55:22.000Z</time>
      </trkpt>
      <trkpt lat="46.37825" lon="5.77335">
        <ele>587.79998779297</ele>
        <time>2018-06-09T14:55:33.000Z</time>
      </trkpt>
      <trkpt lat="46.37831" lon="5.77327">
        <ele>588</ele>
        <time>2018-06-09T14:55:39.000Z</time>
      </trkpt>
      <trkpt lat="46.37835" lon="5.77313">
        <ele>589</ele>
        <time>2018-06-09T14:55:49.000Z</time>
      </trkpt>
      <trkpt lat="46.37835" lon="5.77312">
        <ele>589</ele>
        <time>2018-06-09T14:55:50.000Z</time>
      </trkpt>
      <trkpt lat="46.37837" lon="5.77308">
        <ele>589</ele>
        <time>2018-06-09T14:55:53.000Z</time>
      </trkpt>
      <trkpt lat="46.37838" lon="5.77305">
        <ele>589</ele>
        <time>2018-06-09T14:55:56.000Z</time>
      </trkpt>
      <trkpt lat="46.37837" lon="5.77299">
        <ele>589</ele>
        <time>2018-06-09T14:55:59.000Z</time>
      </trkpt>
      <trkpt lat="46.37835" lon="5.77282">
        <ele>589.40002441406</ele>
        <time>2018-06-09T14:56:10.000Z</time>
      </trkpt>
      <trkpt lat="46.37832" lon="5.77266">
        <ele>590</ele>
        <time>2018-06-09T14:56:18.000Z</time>
      </trkpt>
      <trkpt lat="46.37828" lon="5.77254">
        <ele>590.40002441406</ele>
        <time>2018-06-09T14:56:25.000Z</time>
      </trkpt>
      <trkpt lat="46.37826" lon="5.77246">
        <ele>590.79998779297</ele>
        <time>2018-06-09T14:56:30.000Z</time>
      </trkpt>
      <trkpt lat="46.37826" lon="5.7724">
        <ele>591</ele>
        <time>2018-06-09T14:56:34.000Z</time>
      </trkpt>
      <trkpt lat="46.37824" lon="5.77233">
        <ele>591.59997558594</ele>
        <time>2018-06-09T14:56:42.000Z</time>
      </trkpt>
      <trkpt lat="46.37819" lon="5.77221">
        <ele>591.79998779297</ele>
        <time>2018-06-09T14:56:48.000Z</time>
      </trkpt>
      <trkpt lat="46.37817" lon="5.77215">
        <ele>592</ele>
        <time>2018-06-09T14:56:51.000Z</time>
      </trkpt>
      <trkpt lat="46.37819" lon="5.7721">
        <ele>592.20001220703</ele>
        <time>2018-06-09T14:56:56.000Z</time>
      </trkpt>
      <trkpt lat="46.37816" lon="5.77197">
        <ele>592.59997558594</ele>
        <time>2018-06-09T14:57:02.000Z</time>
      </trkpt>
      <trkpt lat="46.37812" lon="5.77187">
        <ele>593</ele>
        <time>2018-06-09T14:57:07.000Z</time>
      </trkpt>
      <trkpt lat="46.37811" lon="5.77182">
        <ele>593.40002441406</ele>
        <time>2018-06-09T14:57:12.000Z</time>
      </trkpt>
      <trkpt lat="46.37814" lon="5.77167">
        <ele>594.20001220703</ele>
        <time>2018-06-09T14:57:19.000Z</time>
      </trkpt>
      <trkpt lat="46.37816" lon="5.77162">
        <ele>594.79998779297</ele>
        <time>2018-06-09T14:57:22.000Z</time>
      </trkpt>
      <trkpt lat="46.37817" lon="5.77159">
        <ele>595</ele>
        <time>2018-06-09T14:57:24.000Z</time>
      </trkpt>
      <trkpt lat="46.37826" lon="5.77143">
        <ele>595</ele>
        <time>2018-06-09T14:57:34.000Z</time>
      </trkpt>
      <trkpt lat="46.37825" lon="5.77133">
        <ele>594.79998779297</ele>
        <time>2018-06-09T14:57:40.000Z</time>
      </trkpt>
      <trkpt lat="46.37824" lon="5.77133">
        <ele>594.79998779297</ele>
        <time>2018-06-09T14:57:41.000Z</time>
      </trkpt>
      <trkpt lat="46.37821" lon="5.77134">
        <ele>594.79998779297</ele>
        <time>2018-06-09T14:57:44.000Z</time>
      </trkpt>
      <trkpt lat="46.37802" lon="5.77136">
        <ele>595.40002441406</ele>
        <time>2018-06-09T14:58:01.000Z</time>
      </trkpt>
      <trkpt lat="46.37788" lon="5.77136">
        <ele>596</ele>
        <time>2018-06-09T14:58:16.000Z</time>
      </trkpt>
      <trkpt lat="46.37786" lon="5.77136">
        <ele>596</ele>
        <time>2018-06-09T14:58:18.000Z</time>
      </trkpt>
      <trkpt lat="46.3777" lon="5.77131">
        <ele>596.20001220703</ele>
        <time>2018-06-09T14:58:30.000Z</time>
      </trkpt>
      <trkpt lat="46.37769" lon="5.77129">
        <ele>596.40002441406</ele>
        <time>2018-06-09T14:58:32.000Z</time>
      </trkpt>
      <trkpt lat="46.37769" lon="5.77127">
        <ele>596.40002441406</ele>
        <time>2018-06-09T14:58:33.000Z</time>
      </trkpt>
      <trkpt lat="46.37767" lon="5.77115">
        <ele>597.40002441406</ele>
        <time>2018-06-09T14:58:38.000Z</time>
      </trkpt>
      <trkpt lat="46.37773" lon="5.77103">
        <ele>598.59997558594</ele>
        <time>2018-06-09T14:58:46.000Z</time>
      </trkpt>
      <trkpt lat="46.3779" lon="5.77098">
        <ele>599.79998779297</ele>
        <time>2018-06-09T14:58:55.000Z</time>
      </trkpt>
      <trkpt lat="46.37795" lon="5.77094">
        <ele>600.79998779297</ele>
        <time>2018-06-09T14:58:59.000Z</time>
      </trkpt>
      <trkpt lat="46.37812" lon="5.77088">
        <ele>601.40002441406</ele>
        <time>2018-06-09T14:59:12.000Z</time>
      </trkpt>
      <trkpt lat="46.37817" lon="5.77085">
        <ele>601.59997558594</ele>
        <time>2018-06-09T14:59:15.000Z</time>
      </trkpt>
      <trkpt lat="46.3782" lon="5.77084">
        <ele>601.79998779297</ele>
        <time>2018-06-09T14:59:17.000Z</time>
      </trkpt>
      <trkpt lat="46.37823" lon="5.77082">
        <ele>602.20001220703</ele>
        <time>2018-06-09T14:59:19.000Z</time>
      </trkpt>
      <trkpt lat="46.37827" lon="5.77079">
        <ele>602.59997558594</ele>
        <time>2018-06-09T14:59:21.000Z</time>
      </trkpt>
      <trkpt lat="46.37829" lon="5.77077">
        <ele>603</ele>
        <time>2018-06-09T14:59:24.000Z</time>
      </trkpt>
      <trkpt lat="46.37832" lon="5.7707">
        <ele>604</ele>
        <time>2018-06-09T14:59:29.000Z</time>
      </trkpt>
      <trkpt lat="46.3784" lon="5.77064">
        <ele>604.59997558594</ele>
        <time>2018-06-09T14:59:37.000Z</time>
      </trkpt>
      <trkpt lat="46.37848" lon="5.7706">
        <ele>604.40002441406</ele>
        <time>2018-06-09T14:59:42.000Z</time>
      </trkpt>
      <trkpt lat="46.37856" lon="5.7706">
        <ele>604.59997558594</ele>
        <time>2018-06-09T14:59:45.000Z</time>
      </trkpt>
      <trkpt lat="46.3786" lon="5.77063">
        <ele>604.79998779297</ele>
        <time>2018-06-09T14:59:47.000Z</time>
      </trkpt>
      <trkpt lat="46.37868" lon="5.77064">
        <ele>605.20001220703</ele>
        <time>2018-06-09T14:59:52.000Z</time>
      </trkpt>
      <trkpt lat="46.37875" lon="5.77062">
        <ele>606</ele>
        <time>2018-06-09T14:59:58.000Z</time>
      </trkpt>
      <trkpt lat="46.37877" lon="5.7706">
        <ele>606</ele>
        <time>2018-06-09T15:00:00.000Z</time>
      </trkpt>
      <trkpt lat="46.37878" lon="5.77058">
        <ele>606.20001220703</ele>
        <time>2018-06-09T15:00:01.000Z</time>
      </trkpt>
      <trkpt lat="46.37877" lon="5.77045">
        <ele>607.40002441406</ele>
        <time>2018-06-09T15:00:09.000Z</time>
      </trkpt>
      <trkpt lat="46.37874" lon="5.77039">
        <ele>607.40002441406</ele>
        <time>2018-06-09T15:00:16.000Z</time>
      </trkpt>
      <trkpt lat="46.37874" lon="5.77029">
        <ele>608.40002441406</ele>
        <time>2018-06-09T15:00:29.000Z</time>
      </trkpt>
      <trkpt lat="46.37869" lon="5.7702">
        <ele>609.59997558594</ele>
        <time>2018-06-09T15:01:00.000Z</time>
      </trkpt>
      <trkpt lat="46.37867" lon="5.77014">
        <ele>610.20001220703</ele>
        <time>2018-06-09T15:01:05.000Z</time>
      </trkpt>
      <trkpt lat="46.37865" lon="5.77009">
        <ele>610.59997558594</ele>
        <time>2018-06-09T15:01:10.000Z</time>
      </trkpt>
      <trkpt lat="46.37864" lon="5.77007">
        <ele>610.79998779297</ele>
        <time>2018-06-09T15:01:11.000Z</time>
      </trkpt>
      <trkpt lat="46.37861" lon="5.77004">
        <ele>611.20001220703</ele>
        <time>2018-06-09T15:01:13.000Z</time>
      </trkpt>
      <trkpt lat="46.37858" lon="5.76997">
        <ele>611.79998779297</ele>
        <time>2018-06-09T15:01:17.000Z</time>
      </trkpt>
      <trkpt lat="46.37855" lon="5.76993">
        <ele>612.79998779297</ele>
        <time>2018-06-09T15:01:25.000Z</time>
      </trkpt>
      <trkpt lat="46.37855" lon="5.76995">
        <ele>612.79998779297</ele>
        <time>2018-06-09T15:01:33.000Z</time>
      </trkpt>
      <trkpt lat="46.37852" lon="5.76993">
        <ele>612.79998779297</ele>
        <time>2018-06-09T15:01:36.000Z</time>
      </trkpt>
      <trkpt lat="46.37848" lon="5.7699">
        <ele>613.59997558594</ele>
        <time>2018-06-09T15:01:41.000Z</time>
      </trkpt>
      <trkpt lat="46.37846" lon="5.76989">
        <ele>613.79998779297</ele>
        <time>2018-06-09T15:01:43.000Z</time>
      </trkpt>
      <trkpt lat="46.37845" lon="5.76989">
        <ele>613.79998779297</ele>
        <time>2018-06-09T15:01:44.000Z</time>
      </trkpt>
      <trkpt lat="46.37837" lon="5.76986">
        <ele>614.79998779297</ele>
        <time>2018-06-09T15:01:50.000Z</time>
      </trkpt>
      <trkpt lat="46.37819" lon="5.76985">
        <ele>615.79998779297</ele>
        <time>2018-06-09T15:02:01.000Z</time>
      </trkpt>
      <trkpt lat="46.37816" lon="5.76985">
        <ele>615.79998779297</ele>
        <time>2018-06-09T15:02:03.000Z</time>
      </trkpt>
      <trkpt lat="46.37813" lon="5.76986">
        <ele>615.79998779297</ele>
        <time>2018-06-09T15:02:05.000Z</time>
      </trkpt>
      <trkpt lat="46.37803" lon="5.76993">
        <ele>617</ele>
        <time>2018-06-09T15:02:13.000Z</time>
      </trkpt>
      <trkpt lat="46.37797" lon="5.76998">
        <ele>618</ele>
        <time>2018-06-09T15:02:22.000Z</time>
      </trkpt>
      <trkpt lat="46.37796" lon="5.77004">
        <ele>619.20001220703</ele>
        <time>2018-06-09T15:02:32.000Z</time>
      </trkpt>
      <trkpt lat="46.37796" lon="5.77019">
        <ele>618.79998779297</ele>
        <time>2018-06-09T15:02:48.000Z</time>
      </trkpt>
      <trkpt lat="46.37793" lon="5.77021">
        <ele>618.59997558594</ele>
        <time>2018-06-09T15:02:50.000Z</time>
      </trkpt>
      <trkpt lat="46.37789" lon="5.77024">
        <ele>618.59997558594</ele>
        <time>2018-06-09T15:02:53.000Z</time>
      </trkpt>
      <trkpt lat="46.37778" lon="5.77024">
        <ele>619</ele>
        <time>2018-06-09T15:03:00.000Z</time>
      </trkpt>
      <trkpt lat="46.3777" lon="5.77024">
        <ele>619.59997558594</ele>
        <time>2018-06-09T15:03:06.000Z</time>
      </trkpt>
      <trkpt lat="46.37763" lon="5.77025">
        <ele>619.79998779297</ele>
        <time>2018-06-09T15:03:12.000Z</time>
      </trkpt>
      <trkpt lat="46.37758" lon="5.77024">
        <ele>620.20001220703</ele>
        <time>2018-06-09T15:03:17.000Z</time>
      </trkpt>
      <trkpt lat="46.37743" lon="5.7701">
        <ele>621.20001220703</ele>
        <time>2018-06-09T15:04:07.000Z</time>
      </trkpt>
      <trkpt lat="46.37743" lon="5.77009">
        <ele>621.40002441406</ele>
        <time>2018-06-09T15:04:08.000Z</time>
      </trkpt>
      <trkpt lat="46.37744" lon="5.77008">
        <ele>622.20001220703</ele>
        <time>2018-06-09T15:04:12.000Z</time>
      </trkpt>
      <trkpt lat="46.37746" lon="5.77004">
        <ele>623.20001220703</ele>
        <time>2018-06-09T15:04:18.000Z</time>
      </trkpt>
      <trkpt lat="46.37746" lon="5.77001">
        <ele>624.40002441406</ele>
        <time>2018-06-09T15:04:22.000Z</time>
      </trkpt>
      <trkpt lat="46.37746" lon="5.76995">
        <ele>625.40002441406</ele>
        <time>2018-06-09T15:04:30.000Z</time>
      </trkpt>
      <trkpt lat="46.37742" lon="5.76989">
        <ele>626.40002441406</ele>
        <time>2018-06-09T15:04:36.000Z</time>
      </trkpt>
      <trkpt lat="46.37738" lon="5.76984">
        <ele>627</ele>
        <time>2018-06-09T15:04:42.000Z</time>
      </trkpt>
      <trkpt lat="46.37737" lon="5.76982">
        <ele>627.59997558594</ele>
        <time>2018-06-09T15:04:45.000Z</time>
      </trkpt>
      <trkpt lat="46.37737" lon="5.76977">
        <ele>628.59997558594</ele>
        <time>2018-06-09T15:04:52.000Z</time>
      </trkpt>
      <trkpt lat="46.37727" lon="5.7697">
        <ele>629.59997558594</ele>
        <time>2018-06-09T15:05:04.000Z</time>
      </trkpt>
      <trkpt lat="46.37711" lon="5.76971">
        <ele>630.79998779297</ele>
        <time>2018-06-09T15:08:17.000Z</time>
      </trkpt>
      <trkpt lat="46.37708" lon="5.76971">
        <ele>631</ele>
        <time>2018-06-09T15:08:19.000Z</time>
      </trkpt>
      <trkpt lat="46.37707" lon="5.76971">
        <ele>631</ele>
        <time>2018-06-09T15:08:21.000Z</time>
      </trkpt>
      <trkpt lat="46.37693" lon="5.76975">
        <ele>631.59997558594</ele>
        <time>2018-06-09T15:08:33.000Z</time>
      </trkpt>
      <trkpt lat="46.3768" lon="5.76979">
        <ele>631.59997558594</ele>
        <time>2018-06-09T15:08:40.000Z</time>
      </trkpt>
      <trkpt lat="46.37676" lon="5.76978">
        <ele>631.79998779297</ele>
        <time>2018-06-09T15:08:42.000Z</time>
      </trkpt>
      <trkpt lat="46.37675" lon="5.76979">
        <ele>631.79998779297</ele>
        <time>2018-06-09T15:08:43.000Z</time>
      </trkpt>
      <trkpt lat="46.37662" lon="5.76983">
        <ele>632.59997558594</ele>
        <time>2018-06-09T15:08:51.000Z</time>
      </trkpt>
      <trkpt lat="46.37658" lon="5.76984">
        <ele>632.79998779297</ele>
        <time>2018-06-09T15:08:54.000Z</time>
      </trkpt>
      <trkpt lat="46.37652" lon="5.76983">
        <ele>633.20001220703</ele>
        <time>2018-06-09T15:08:59.000Z</time>
      </trkpt>
      <trkpt lat="46.37644" lon="5.76981">
        <ele>633.40002441406</ele>
        <time>2018-06-09T15:09:04.000Z</time>
      </trkpt>
      <trkpt lat="46.37635" lon="5.76977">
        <ele>634</ele>
        <time>2018-06-09T15:09:13.000Z</time>
      </trkpt>
      <trkpt lat="46.37632" lon="5.76975">
        <ele>634</ele>
        <time>2018-06-09T15:09:14.000Z</time>
      </trkpt>
      <trkpt lat="46.3762" lon="5.76969">
        <ele>634.59997558594</ele>
        <time>2018-06-09T15:09:21.000Z</time>
      </trkpt>
      <trkpt lat="46.37617" lon="5.76966">
        <ele>634.79998779297</ele>
        <time>2018-06-09T15:09:23.000Z</time>
      </trkpt>
      <trkpt lat="46.37607" lon="5.7696">
        <ele>635</ele>
        <time>2018-06-09T15:09:29.000Z</time>
      </trkpt>
      <trkpt lat="46.376" lon="5.76955">
        <ele>635.20001220703</ele>
        <time>2018-06-09T15:09:33.000Z</time>
      </trkpt>
      <trkpt lat="46.37595" lon="5.76948">
        <ele>636</ele>
        <time>2018-06-09T15:09:37.000Z</time>
      </trkpt>
      <trkpt lat="46.37588" lon="5.76941">
        <ele>637</ele>
        <time>2018-06-09T15:09:43.000Z</time>
      </trkpt>
      <trkpt lat="46.37585" lon="5.76939">
        <ele>637.20001220703</ele>
        <time>2018-06-09T15:09:45.000Z</time>
      </trkpt>
      <trkpt lat="46.37577" lon="5.76929">
        <ele>637.79998779297</ele>
        <time>2018-06-09T15:09:56.000Z</time>
      </trkpt>
      <trkpt lat="46.37571" lon="5.76924">
        <ele>638.20001220703</ele>
        <time>2018-06-09T15:10:02.000Z</time>
      </trkpt>
      <trkpt lat="46.37566" lon="5.76916">
        <ele>639.40002441406</ele>
        <time>2018-06-09T15:10:10.000Z</time>
      </trkpt>
      <trkpt lat="46.37562" lon="5.76914">
        <ele>639.79998779297</ele>
        <time>2018-06-09T15:10:12.000Z</time>
      </trkpt>
      <trkpt lat="46.37557" lon="5.76911">
        <ele>640.40002441406</ele>
        <time>2018-06-09T15:10:15.000Z</time>
      </trkpt>
      <trkpt lat="46.37554" lon="5.76909">
        <ele>641</ele>
        <time>2018-06-09T15:10:17.000Z</time>
      </trkpt>
      <trkpt lat="46.3755" lon="5.76907">
        <ele>641.40002441406</ele>
        <time>2018-06-09T15:10:20.000Z</time>
      </trkpt>
      <trkpt lat="46.37549" lon="5.76907">
        <ele>641.59997558594</ele>
        <time>2018-06-09T15:10:21.000Z</time>
      </trkpt>
      <trkpt lat="46.37548" lon="5.76909">
        <ele>641.79998779297</ele>
        <time>2018-06-09T15:10:23.000Z</time>
      </trkpt>
      <trkpt lat="46.37546" lon="5.76912">
        <ele>642</ele>
        <time>2018-06-09T15:10:25.000Z</time>
      </trkpt>
      <trkpt lat="46.37536" lon="5.76907">
        <ele>642.59997558594</ele>
        <time>2018-06-09T15:10:35.000Z</time>
      </trkpt>
      <trkpt lat="46.37534" lon="5.76906">
        <ele>642.59997558594</ele>
        <time>2018-06-09T15:10:36.000Z</time>
      </trkpt>
      <trkpt lat="46.37513" lon="5.76885">
        <ele>643.20001220703</ele>
        <time>2018-06-09T15:10:51.000Z</time>
      </trkpt>
      <trkpt lat="46.37511" lon="5.76881">
        <ele>643.20001220703</ele>
        <time>2018-06-09T15:10:53.000Z</time>
      </trkpt>
      <trkpt lat="46.37505" lon="5.76873">
        <ele>643.59997558594</ele>
        <time>2018-06-09T15:10:57.000Z</time>
      </trkpt>
      <trkpt lat="46.37497" lon="5.76861">
        <ele>644.20001220703</ele>
        <time>2018-06-09T15:11:04.000Z</time>
      </trkpt>
      <trkpt lat="46.37497" lon="5.76857">
        <ele>644.40002441406</ele>
        <time>2018-06-09T15:11:06.000Z</time>
      </trkpt>
      <trkpt lat="46.37495" lon="5.76848">
        <ele>644.79998779297</ele>
        <time>2018-06-09T15:11:11.000Z</time>
      </trkpt>
      <trkpt lat="46.37488" lon="5.76832">
        <ele>645.59997558594</ele>
        <time>2018-06-09T15:11:20.000Z</time>
      </trkpt>
      <trkpt lat="46.37487" lon="5.76831">
        <ele>645.79998779297</ele>
        <time>2018-06-09T15:11:21.000Z</time>
      </trkpt>
      <trkpt lat="46.37483" lon="5.76825">
        <ele>646.40002441406</ele>
        <time>2018-06-09T15:11:25.000Z</time>
      </trkpt>
      <trkpt lat="46.37482" lon="5.76822">
        <ele>646.59997558594</ele>
        <time>2018-06-09T15:11:27.000Z</time>
      </trkpt>
      <trkpt lat="46.37481" lon="5.76819">
        <ele>646.79998779297</ele>
        <time>2018-06-09T15:11:29.000Z</time>
      </trkpt>
      <trkpt lat="46.37481" lon="5.76819">
        <ele>646.79998779297</ele>
        <time>2018-06-09T15:11:30.000Z</time>
      </trkpt>
      <trkpt lat="46.37458" lon="5.76773">
        <ele>647.59997558594</ele>
        <time>2018-06-09T15:11:49.000Z</time>
      </trkpt>
      <trkpt lat="46.37455" lon="5.76771">
        <ele>648</ele>
        <time>2018-06-09T15:11:51.000Z</time>
      </trkpt>
      <trkpt lat="46.37435" lon="5.76728">
        <ele>649</ele>
        <time>2018-06-09T15:12:08.000Z</time>
      </trkpt>
      <trkpt lat="46.37425" lon="5.76709">
        <ele>650.20001220703</ele>
        <time>2018-06-09T15:12:17.000Z</time>
      </trkpt>
      <trkpt lat="46.37417" lon="5.76685">
        <ele>650.40002441406</ele>
        <time>2018-06-09T15:12:28.000Z</time>
      </trkpt>
      <trkpt lat="46.37416" lon="5.76683">
        <ele>650.59997558594</ele>
        <time>2018-06-09T15:12:30.000Z</time>
      </trkpt>
      <trkpt lat="46.37417" lon="5.76681">
        <ele>651.20001220703</ele>
        <time>2018-06-09T15:12:32.000Z</time>
      </trkpt>
      <trkpt lat="46.37417" lon="5.7668">
        <ele>651.20001220703</ele>
        <time>2018-06-09T15:12:33.000Z</time>
      </trkpt>
      <trkpt lat="46.37416" lon="5.76671">
        <ele>652</ele>
        <time>2018-06-09T15:12:38.000Z</time>
      </trkpt>
      <trkpt lat="46.37415" lon="5.76669">
        <ele>652.40002441406</ele>
        <time>2018-06-09T15:12:40.000Z</time>
      </trkpt>
      <trkpt lat="46.37415" lon="5.76668">
        <ele>652.59997558594</ele>
        <time>2018-06-09T15:12:41.000Z</time>
      </trkpt>
      <trkpt lat="46.37408" lon="5.76651">
        <ele>653.59997558594</ele>
        <time>2018-06-09T15:12:48.000Z</time>
      </trkpt>
      <trkpt lat="46.37405" lon="5.76641">
        <ele>654.20001220703</ele>
        <time>2018-06-09T15:12:53.000Z</time>
      </trkpt>
      <trkpt lat="46.37402" lon="5.76628">
        <ele>654.59997558594</ele>
        <time>2018-06-09T15:12:59.000Z</time>
      </trkpt>
      <trkpt lat="46.37401" lon="5.76624">
        <ele>654.79998779297</ele>
        <time>2018-06-09T15:13:01.000Z</time>
      </trkpt>
      <trkpt lat="46.37392" lon="5.76602">
        <ele>655.59997558594</ele>
        <time>2018-06-09T15:13:13.000Z</time>
      </trkpt>
      <trkpt lat="46.3738" lon="5.76584">
        <ele>654.40002441406</ele>
        <time>2018-06-09T15:13:21.000Z</time>
      </trkpt>
      <trkpt lat="46.3738" lon="5.76578">
        <ele>653.59997558594</ele>
        <time>2018-06-09T15:13:24.000Z</time>
      </trkpt>
      <trkpt lat="46.37374" lon="5.7657">
        <ele>653</ele>
        <time>2018-06-09T15:13:27.000Z</time>
      </trkpt>
      <trkpt lat="46.37372" lon="5.76565">
        <ele>652.59997558594</ele>
        <time>2018-06-09T15:13:28.000Z</time>
      </trkpt>
      <trkpt lat="46.37371" lon="5.76558">
        <ele>652</ele>
        <time>2018-06-09T15:13:30.000Z</time>
      </trkpt>
      <trkpt lat="46.3737" lon="5.76554">
        <ele>652</ele>
        <time>2018-06-09T15:13:33.000Z</time>
      </trkpt>
      <trkpt lat="46.3737" lon="5.76554">
        <ele>652.20001220703</ele>
        <time>2018-06-09T15:13:34.000Z</time>
      </trkpt>
      <trkpt lat="46.37371" lon="5.76546">
        <ele>653.20001220703</ele>
        <time>2018-06-09T15:13:41.000Z</time>
      </trkpt>
      <trkpt lat="46.37374" lon="5.76542">
        <ele>654.20001220703</ele>
        <time>2018-06-09T15:13:47.000Z</time>
      </trkpt>
      <trkpt lat="46.37375" lon="5.76537">
        <ele>655.20001220703</ele>
        <time>2018-06-09T15:13:51.000Z</time>
      </trkpt>
      <trkpt lat="46.37378" lon="5.76534">
        <ele>656.40002441406</ele>
        <time>2018-06-09T15:13:57.000Z</time>
      </trkpt>
      <trkpt lat="46.37377" lon="5.76522">
        <ele>657</ele>
        <time>2018-06-09T15:14:24.000Z</time>
      </trkpt>
      <trkpt lat="46.37374" lon="5.76518">
        <ele>657.20001220703</ele>
        <time>2018-06-09T15:14:26.000Z</time>
      </trkpt>
      <trkpt lat="46.37372" lon="5.76515">
        <ele>657.40002441406</ele>
        <time>2018-06-09T15:14:28.000Z</time>
      </trkpt>
      <trkpt lat="46.37362" lon="5.76506">
        <ele>658.20001220703</ele>
        <time>2018-06-09T15:14:39.000Z</time>
      </trkpt>
      <trkpt lat="46.37362" lon="5.76504">
        <ele>658.40002441406</ele>
        <time>2018-06-09T15:14:40.000Z</time>
      </trkpt>
      <trkpt lat="46.37361" lon="5.76499">
        <ele>658.40002441406</ele>
        <time>2018-06-09T15:14:42.000Z</time>
      </trkpt>
      <trkpt lat="46.37355" lon="5.76475">
        <ele>659.40002441406</ele>
        <time>2018-06-09T15:14:55.000Z</time>
      </trkpt>
      <trkpt lat="46.37345" lon="5.76441">
        <ele>660.40002441406</ele>
        <time>2018-06-09T15:15:12.000Z</time>
      </trkpt>
      <trkpt lat="46.37343" lon="5.76434">
        <ele>660.59997558594</ele>
        <time>2018-06-09T15:15:15.000Z</time>
      </trkpt>
      <trkpt lat="46.37338" lon="5.76413">
        <ele>661.20001220703</ele>
        <time>2018-06-09T15:15:26.000Z</time>
      </trkpt>
      <trkpt lat="46.37336" lon="5.76401">
        <ele>661.40002441406</ele>
        <time>2018-06-09T15:15:33.000Z</time>
      </trkpt>
      <trkpt lat="46.37337" lon="5.76395">
        <ele>661.79998779297</ele>
        <time>2018-06-09T15:17:11.000Z</time>
      </trkpt>
      <trkpt lat="46.37337" lon="5.76389">
        <ele>662</ele>
        <time>2018-06-09T15:17:13.000Z</time>
      </trkpt>
      <trkpt lat="46.37331" lon="5.76379">
        <ele>662.59997558594</ele>
        <time>2018-06-09T15:17:19.000Z</time>
      </trkpt>
      <trkpt lat="46.37329" lon="5.7637">
        <ele>663</ele>
        <time>2018-06-09T15:17:27.000Z</time>
      </trkpt>
      <trkpt lat="46.37322" lon="5.7637">
        <ele>663.59997558594</ele>
        <time>2018-06-09T15:17:33.000Z</time>
      </trkpt>
      <trkpt lat="46.37316" lon="5.76368">
        <ele>664.59997558594</ele>
        <time>2018-06-09T15:17:40.000Z</time>
      </trkpt>
      <trkpt lat="46.3731" lon="5.76366">
        <ele>665</ele>
        <time>2018-06-09T15:17:44.000Z</time>
      </trkpt>
      <trkpt lat="46.37299" lon="5.76356">
        <ele>665.79998779297</ele>
        <time>2018-06-09T15:17:52.000Z</time>
      </trkpt>
      <trkpt lat="46.37296" lon="5.76353">
        <ele>665.79998779297</ele>
        <time>2018-06-09T15:17:55.000Z</time>
      </trkpt>
      <trkpt lat="46.37285" lon="5.76333">
        <ele>666.79998779297</ele>
        <time>2018-06-09T15:18:08.000Z</time>
      </trkpt>
      <trkpt lat="46.37282" lon="5.76326">
        <ele>667.40002441406</ele>
        <time>2018-06-09T15:18:12.000Z</time>
      </trkpt>
      <trkpt lat="46.37279" lon="5.76319">
        <ele>667.79998779297</ele>
        <time>2018-06-09T15:18:16.000Z</time>
      </trkpt>
      <trkpt lat="46.37276" lon="5.76313">
        <ele>668.20001220703</ele>
        <time>2018-06-09T15:18:19.000Z</time>
      </trkpt>
      <trkpt lat="46.37275" lon="5.76306">
        <ele>668.79998779297</ele>
        <time>2018-06-09T15:18:24.000Z</time>
      </trkpt>
      <trkpt lat="46.37272" lon="5.76299">
        <ele>669</ele>
        <time>2018-06-09T15:18:27.000Z</time>
      </trkpt>
      <trkpt lat="46.37243" lon="5.7627">
        <ele>667.79998779297</ele>
        <time>2018-06-09T15:18:46.000Z</time>
      </trkpt>
      <trkpt lat="46.37216" lon="5.76233">
        <ele>668.20001220703</ele>
        <time>2018-06-09T15:19:01.000Z</time>
      </trkpt>
      <trkpt lat="46.37211" lon="5.76226">
        <ele>669</ele>
        <time>2018-06-09T15:19:05.000Z</time>
      </trkpt>
      <trkpt lat="46.37196" lon="5.76203">
        <ele>670</ele>
        <time>2018-06-09T15:19:19.000Z</time>
      </trkpt>
      <trkpt lat="46.37191" lon="5.7619">
        <ele>671</ele>
        <time>2018-06-09T15:19:33.000Z</time>
      </trkpt>
      <trkpt lat="46.37189" lon="5.76186">
        <ele>671.20001220703</ele>
        <time>2018-06-09T15:19:35.000Z</time>
      </trkpt>
      <trkpt lat="46.37187" lon="5.76183">
        <ele>671.20001220703</ele>
        <time>2018-06-09T15:19:37.000Z</time>
      </trkpt>
      <trkpt lat="46.37186" lon="5.76181">
        <ele>672</ele>
        <time>2018-06-09T15:19:43.000Z</time>
      </trkpt>
      <trkpt lat="46.37182" lon="5.76178">
        <ele>673</ele>
        <time>2018-06-09T15:19:50.000Z</time>
      </trkpt>
      <trkpt lat="46.37178" lon="5.76173">
        <ele>673.79998779297</ele>
        <time>2018-06-09T15:20:00.000Z</time>
      </trkpt>
      <trkpt lat="46.37175" lon="5.76173">
        <ele>673.79998779297</ele>
        <time>2018-06-09T15:20:03.000Z</time>
      </trkpt>
      <trkpt lat="46.37165" lon="5.76165">
        <ele>674.20001220703</ele>
        <time>2018-06-09T15:20:19.000Z</time>
      </trkpt>
      <trkpt lat="46.37165" lon="5.7616">
        <ele>675.20001220703</ele>
        <time>2018-06-09T15:20:26.000Z</time>
      </trkpt>
      <trkpt lat="46.37159" lon="5.76148">
        <ele>676.40002441406</ele>
        <time>2018-06-09T15:20:35.000Z</time>
      </trkpt>
      <trkpt lat="46.37153" lon="5.76137">
        <ele>677.40002441406</ele>
        <time>2018-06-09T15:20:45.000Z</time>
      </trkpt>
      <trkpt lat="46.3715" lon="5.76128">
        <ele>678.40002441406</ele>
        <time>2018-06-09T15:20:58.000Z</time>
      </trkpt>
      <trkpt lat="46.37147" lon="5.76125">
        <ele>679.59997558594</ele>
        <time>2018-06-09T15:21:04.000Z</time>
      </trkpt>
      <trkpt lat="46.37145" lon="5.76119">
        <ele>680</ele>
        <time>2018-06-09T15:21:11.000Z</time>
      </trkpt>
      <trkpt lat="46.37143" lon="5.76117">
        <ele>680</ele>
        <time>2018-06-09T15:21:13.000Z</time>
      </trkpt>
      <trkpt lat="46.37135" lon="5.76111">
        <ele>680.59997558594</ele>
        <time>2018-06-09T15:21:20.000Z</time>
      </trkpt>
      <trkpt lat="46.37123" lon="5.76093">
        <ele>681.59997558594</ele>
        <time>2018-06-09T15:21:35.000Z</time>
      </trkpt>
      <trkpt lat="46.37123" lon="5.76073">
        <ele>682.40002441406</ele>
        <time>2018-06-09T15:21:48.000Z</time>
      </trkpt>
      <trkpt lat="46.37124" lon="5.7607">
        <ele>682.79998779297</ele>
        <time>2018-06-09T15:21:50.000Z</time>
      </trkpt>
      <trkpt lat="46.37125" lon="5.76069">
        <ele>683</ele>
        <time>2018-06-09T15:21:51.000Z</time>
      </trkpt>
      <trkpt lat="46.37125" lon="5.76058">
        <ele>683.59997558594</ele>
        <time>2018-06-09T15:21:57.000Z</time>
      </trkpt>
      <trkpt lat="46.37125" lon="5.76053">
        <ele>684</ele>
        <time>2018-06-09T15:21:59.000Z</time>
      </trkpt>
      <trkpt lat="46.37126" lon="5.76047">
        <ele>684.59997558594</ele>
        <time>2018-06-09T15:22:03.000Z</time>
      </trkpt>
      <trkpt lat="46.37127" lon="5.76045">
        <ele>684.59997558594</ele>
        <time>2018-06-09T15:22:05.000Z</time>
      </trkpt>
      <trkpt lat="46.3713" lon="5.76042">
        <ele>685</ele>
        <time>2018-06-09T15:22:08.000Z</time>
      </trkpt>
      <trkpt lat="46.3713" lon="5.7604">
        <ele>685</ele>
        <time>2018-06-09T15:22:09.000Z</time>
      </trkpt>
      <trkpt lat="46.37132" lon="5.76035">
        <ele>685.40002441406</ele>
        <time>2018-06-09T15:22:12.000Z</time>
      </trkpt>
      <trkpt lat="46.37139" lon="5.76021">
        <ele>686</ele>
        <time>2018-06-09T15:22:21.000Z</time>
      </trkpt>
      <trkpt lat="46.37139" lon="5.76016">
        <ele>686.20001220703</ele>
        <time>2018-06-09T15:22:51.000Z</time>
      </trkpt>
      <trkpt lat="46.37141" lon="5.76011">
        <ele>686.20001220703</ele>
        <time>2018-06-09T15:22:53.000Z</time>
      </trkpt>
      <trkpt lat="46.37148" lon="5.75978">
        <ele>685</ele>
        <time>2018-06-09T15:23:03.000Z</time>
      </trkpt>
      <trkpt lat="46.37152" lon="5.75974">
        <ele>683.79998779297</ele>
        <time>2018-06-09T15:23:06.000Z</time>
      </trkpt>
      <trkpt lat="46.37152" lon="5.75974">
        <ele>683.59997558594</ele>
        <time>2018-06-09T15:23:07.000Z</time>
      </trkpt>
      <trkpt lat="46.37145" lon="5.75971">
        <ele>683</ele>
        <time>2018-06-09T15:23:10.000Z</time>
      </trkpt>
      <trkpt lat="46.37134" lon="5.7597">
        <ele>683.40002441406</ele>
        <time>2018-06-09T15:23:17.000Z</time>
      </trkpt>
      <trkpt lat="46.37125" lon="5.75971">
        <ele>683</ele>
        <time>2018-06-09T15:23:24.000Z</time>
      </trkpt>
      <trkpt lat="46.37123" lon="5.7597">
        <ele>682.79998779297</ele>
        <time>2018-06-09T15:23:25.000Z</time>
      </trkpt>
      <trkpt lat="46.37112" lon="5.75967">
        <ele>681.59997558594</ele>
        <time>2018-06-09T15:23:30.000Z</time>
      </trkpt>
      <trkpt lat="46.37097" lon="5.75964">
        <ele>680.59997558594</ele>
        <time>2018-06-09T15:23:37.000Z</time>
      </trkpt>
      <trkpt lat="46.37093" lon="5.75964">
        <ele>680.20001220703</ele>
        <time>2018-06-09T15:23:39.000Z</time>
      </trkpt>
      <trkpt lat="46.3709" lon="5.7594">
        <ele>679.40002441406</ele>
        <time>2018-06-09T15:23:45.000Z</time>
      </trkpt>
      <trkpt lat="46.37088" lon="5.75929">
        <ele>678.20001220703</ele>
        <time>2018-06-09T15:23:48.000Z</time>
      </trkpt>
      <trkpt lat="46.37086" lon="5.75919">
        <ele>676.79998779297</ele>
        <time>2018-06-09T15:23:50.000Z</time>
      </trkpt>
      <trkpt lat="46.37084" lon="5.75911">
        <ele>675.20001220703</ele>
        <time>2018-06-09T15:23:52.000Z</time>
      </trkpt>
      <trkpt lat="46.37085" lon="5.75896">
        <ele>674</ele>
        <time>2018-06-09T15:23:55.000Z</time>
      </trkpt>
      <trkpt lat="46.37076" lon="5.75888">
        <ele>675.20001220703</ele>
        <time>2018-06-09T15:24:05.000Z</time>
      </trkpt>
      <trkpt lat="46.37072" lon="5.75893">
        <ele>676.40002441406</ele>
        <time>2018-06-09T15:24:12.000Z</time>
      </trkpt>
      <trkpt lat="46.37066" lon="5.75894">
        <ele>677.40002441406</ele>
        <time>2018-06-09T15:24:19.000Z</time>
      </trkpt>
      <trkpt lat="46.37062" lon="5.75896">
        <ele>678.40002441406</ele>
        <time>2018-06-09T15:24:25.000Z</time>
      </trkpt>
      <trkpt lat="46.37059" lon="5.7589">
        <ele>679.40002441406</ele>
        <time>2018-06-09T15:25:02.000Z</time>
      </trkpt>
      <trkpt lat="46.37051" lon="5.7589">
        <ele>680.79998779297</ele>
        <time>2018-06-09T15:25:34.000Z</time>
      </trkpt>
      <trkpt lat="46.37052" lon="5.75887">
        <ele>679.79998779297</ele>
        <time>2018-06-09T15:25:49.000Z</time>
      </trkpt>
      <trkpt lat="46.37055" lon="5.7587">
        <ele>679.40002441406</ele>
        <time>2018-06-09T15:28:02.000Z</time>
      </trkpt>
      <trkpt lat="46.37051" lon="5.75861">
        <ele>688</ele>
        <time>2018-06-09T15:28:30.000Z</time>
      </trkpt>
      <trkpt lat="46.37051" lon="5.75856">
        <ele>689</ele>
        <time>2018-06-09T15:28:41.000Z</time>
      </trkpt>
      <trkpt lat="46.37051" lon="5.75851">
        <ele>690</ele>
        <time>2018-06-09T15:28:49.000Z</time>
      </trkpt>
      <trkpt lat="46.37052" lon="5.75848">
        <ele>691.20001220703</ele>
        <time>2018-06-09T15:28:54.000Z</time>
      </trkpt>
      <trkpt lat="46.37053" lon="5.75845">
        <ele>692.20001220703</ele>
        <time>2018-06-09T15:29:02.000Z</time>
      </trkpt>
      <trkpt lat="46.37052" lon="5.75835">
        <ele>693.40002441406</ele>
        <time>2018-06-09T15:29:11.000Z</time>
      </trkpt>
      <trkpt lat="46.37055" lon="5.75831">
        <ele>694.40002441406</ele>
        <time>2018-06-09T15:29:19.000Z</time>
      </trkpt>
      <trkpt lat="46.37054" lon="5.75827">
        <ele>695.59997558594</ele>
        <time>2018-06-09T15:29:34.000Z</time>
      </trkpt>
      <trkpt lat="46.37052" lon="5.75824">
        <ele>696.59997558594</ele>
        <time>2018-06-09T15:29:42.000Z</time>
      </trkpt>
      <trkpt lat="46.37051" lon="5.75816">
        <ele>697.79998779297</ele>
        <time>2018-06-09T15:29:49.000Z</time>
      </trkpt>
      <trkpt lat="46.37048" lon="5.75807">
        <ele>698.79998779297</ele>
        <time>2018-06-09T15:29:58.000Z</time>
      </trkpt>
      <trkpt lat="46.37042" lon="5.75796">
        <ele>699.79998779297</ele>
        <time>2018-06-09T15:30:06.000Z</time>
      </trkpt>
      <trkpt lat="46.3704" lon="5.75797">
        <ele>700.79998779297</ele>
        <time>2018-06-09T15:30:16.000Z</time>
      </trkpt>
      <trkpt lat="46.37038" lon="5.75798">
        <ele>701.79998779297</ele>
        <time>2018-06-09T15:30:23.000Z</time>
      </trkpt>
      <trkpt lat="46.37037" lon="5.75798">
        <ele>703</ele>
        <time>2018-06-09T15:30:28.000Z</time>
      </trkpt>
      <trkpt lat="46.37034" lon="5.75796">
        <ele>704.20001220703</ele>
        <time>2018-06-09T15:30:39.000Z</time>
      </trkpt>
      <trkpt lat="46.37034" lon="5.75797">
        <ele>705.20001220703</ele>
        <time>2018-06-09T15:31:06.000Z</time>
      </trkpt>
      <trkpt lat="46.37027" lon="5.75799">
        <ele>706.20001220703</ele>
        <time>2018-06-09T15:31:27.000Z</time>
      </trkpt>
      <trkpt lat="46.37028" lon="5.75796">
        <ele>707.20001220703</ele>
        <time>2018-06-09T15:31:34.000Z</time>
      </trkpt>
      <trkpt lat="46.37022" lon="5.75789">
        <ele>708.40002441406</ele>
        <time>2018-06-09T15:31:54.000Z</time>
      </trkpt>
      <trkpt lat="46.37024" lon="5.7579">
        <ele>709.40002441406</ele>
        <time>2018-06-09T15:32:01.000Z</time>
      </trkpt>
      <trkpt lat="46.37023" lon="5.75787">
        <ele>710.40002441406</ele>
        <time>2018-06-09T15:32:11.000Z</time>
      </trkpt>
      <trkpt lat="46.37021" lon="5.75784">
        <ele>711.40002441406</ele>
        <time>2018-06-09T15:32:18.000Z</time>
      </trkpt>
      <trkpt lat="46.37017" lon="5.75784">
        <ele>712.40002441406</ele>
        <time>2018-06-09T15:32:29.000Z</time>
      </trkpt>
      <trkpt lat="46.37017" lon="5.75785">
        <ele>713.59997558594</ele>
        <time>2018-06-09T15:32:35.000Z</time>
      </trkpt>
      <trkpt lat="46.37014" lon="5.75785">
        <ele>714.79998779297</ele>
        <time>2018-06-09T15:32:40.000Z</time>
      </trkpt>
      <trkpt lat="46.37012" lon="5.75787">
        <ele>716</ele>
        <time>2018-06-09T15:32:44.000Z</time>
      </trkpt>
      <trkpt lat="46.3701" lon="5.75791">
        <ele>717.20001220703</ele>
        <time>2018-06-09T15:32:49.000Z</time>
      </trkpt>
      <trkpt lat="46.37009" lon="5.7579">
        <ele>718.20001220703</ele>
        <time>2018-06-09T15:32:54.000Z</time>
      </trkpt>
      <trkpt lat="46.37006" lon="5.7579">
        <ele>719.40002441406</ele>
        <time>2018-06-09T15:32:59.000Z</time>
      </trkpt>
      <trkpt lat="46.36999" lon="5.75786">
        <ele>720.40002441406</ele>
        <time>2018-06-09T15:33:13.000Z</time>
      </trkpt>
      <trkpt lat="46.36995" lon="5.75784">
        <ele>721.59997558594</ele>
        <time>2018-06-09T15:33:19.000Z</time>
      </trkpt>
      <trkpt lat="46.36988" lon="5.75782">
        <ele>722.79998779297</ele>
        <time>2018-06-09T15:33:27.000Z</time>
      </trkpt>
      <trkpt lat="46.36984" lon="5.7578">
        <ele>723.40002441406</ele>
        <time>2018-06-09T15:33:32.000Z</time>
      </trkpt>
      <trkpt lat="46.36982" lon="5.7578">
        <ele>723.79998779297</ele>
        <time>2018-06-09T15:33:35.000Z</time>
      </trkpt>
      <trkpt lat="46.36975" lon="5.75778">
        <ele>724.79998779297</ele>
        <time>2018-06-09T15:33:44.000Z</time>
      </trkpt>
      <trkpt lat="46.36976" lon="5.75784">
        <ele>726</ele>
        <time>2018-06-09T15:33:52.000Z</time>
      </trkpt>
      <trkpt lat="46.36975" lon="5.75788">
        <ele>727.20001220703</ele>
        <time>2018-06-09T15:33:58.000Z</time>
      </trkpt>
      <trkpt lat="46.36972" lon="5.75791">
        <ele>728.20001220703</ele>
        <time>2018-06-09T15:34:04.000Z</time>
      </trkpt>
      <trkpt lat="46.36972" lon="5.75795">
        <ele>729.40002441406</ele>
        <time>2018-06-09T15:34:10.000Z</time>
      </trkpt>
      <trkpt lat="46.36972" lon="5.75799">
        <ele>730.40002441406</ele>
        <time>2018-06-09T15:34:16.000Z</time>
      </trkpt>
      <trkpt lat="46.3697" lon="5.75802">
        <ele>731.40002441406</ele>
        <time>2018-06-09T15:34:33.000Z</time>
      </trkpt>
      <trkpt lat="46.36962" lon="5.75799">
        <ele>732.79998779297</ele>
        <time>2018-06-09T15:34:42.000Z</time>
      </trkpt>
      <trkpt lat="46.3696" lon="5.75797">
        <ele>733.79998779297</ele>
        <time>2018-06-09T15:34:47.000Z</time>
      </trkpt>
      <trkpt lat="46.36959" lon="5.75799">
        <ele>734.79998779297</ele>
        <time>2018-06-09T15:34:55.000Z</time>
      </trkpt>
      <trkpt lat="46.36959" lon="5.75796">
        <ele>735.59997558594</ele>
        <time>2018-06-09T15:45:08.000Z</time>
      </trkpt>
      <trkpt lat="46.36951" lon="5.75793">
        <ele>739.59997558594</ele>
        <time>2018-06-09T15:48:50.000Z</time>
      </trkpt>
      <trkpt lat="46.36947" lon="5.75795">
        <ele>739.40002441406</ele>
        <time>2018-06-09T15:51:05.000Z</time>
      </trkpt>
      <trkpt lat="46.36945" lon="5.75794">
        <ele>739.40002441406</ele>
        <time>2018-06-09T15:51:21.000Z</time>
      </trkpt>
      <trkpt lat="46.36942" lon="5.75791">
        <ele>740</ele>
        <time>2018-06-09T15:51:23.000Z</time>
      </trkpt>
      <trkpt lat="46.36938" lon="5.75788">
        <ele>738.20001220703</ele>
        <time>2018-06-09T15:51:25.000Z</time>
      </trkpt>
      <trkpt lat="46.36936" lon="5.75788">
        <ele>738.79998779297</ele>
        <time>2018-06-09T15:51:26.000Z</time>
      </trkpt>
      <trkpt lat="46.36926" lon="5.75794">
        <ele>737</ele>
        <time>2018-06-09T15:51:32.000Z</time>
      </trkpt>
      <trkpt lat="46.36922" lon="5.75804">
        <ele>735.59997558594</ele>
        <time>2018-06-09T15:51:35.000Z</time>
      </trkpt>
      <trkpt lat="46.36916" lon="5.75814">
        <ele>734.20001220703</ele>
        <time>2018-06-09T15:51:38.000Z</time>
      </trkpt>
      <trkpt lat="46.36911" lon="5.7582">
        <ele>733</ele>
        <time>2018-06-09T15:51:40.000Z</time>
      </trkpt>
      <trkpt lat="46.36902" lon="5.75823">
        <ele>732</ele>
        <time>2018-06-09T15:51:44.000Z</time>
      </trkpt>
      <trkpt lat="46.36897" lon="5.75824">
        <ele>731.59997558594</ele>
        <time>2018-06-09T15:51:46.000Z</time>
      </trkpt>
      <trkpt lat="46.36891" lon="5.75823">
        <ele>730.59997558594</ele>
        <time>2018-06-09T15:51:49.000Z</time>
      </trkpt>
      <trkpt lat="46.36886" lon="5.75822">
        <ele>729.40002441406</ele>
        <time>2018-06-09T15:51:51.000Z</time>
      </trkpt>
      <trkpt lat="46.36881" lon="5.7582">
        <ele>728</ele>
        <time>2018-06-09T15:51:53.000Z</time>
      </trkpt>
      <trkpt lat="46.36877" lon="5.75817">
        <ele>726.40002441406</ele>
        <time>2018-06-09T15:51:55.000Z</time>
      </trkpt>
      <trkpt lat="46.36872" lon="5.75816">
        <ele>724.59997558594</ele>
        <time>2018-06-09T15:51:57.000Z</time>
      </trkpt>
      <trkpt lat="46.36868" lon="5.75815">
        <ele>723.79998779297</ele>
        <time>2018-06-09T15:51:58.000Z</time>
      </trkpt>
      <trkpt lat="46.36864" lon="5.75815">
        <ele>723</ele>
        <time>2018-06-09T15:51:59.000Z</time>
      </trkpt>
      <trkpt lat="46.36858" lon="5.75814">
        <ele>721.59997558594</ele>
        <time>2018-06-09T15:52:01.000Z</time>
      </trkpt>
      <trkpt lat="46.36854" lon="5.75812">
        <ele>720.79998779297</ele>
        <time>2018-06-09T15:52:04.000Z</time>
      </trkpt>
      <trkpt lat="46.3685" lon="5.75811">
        <ele>720.20001220703</ele>
        <time>2018-06-09T15:52:06.000Z</time>
      </trkpt>
      <trkpt lat="46.3684" lon="5.75815">
        <ele>718.79998779297</ele>
        <time>2018-06-09T15:52:09.000Z</time>
      </trkpt>
      <trkpt lat="46.36829" lon="5.75813">
        <ele>717.79998779297</ele>
        <time>2018-06-09T15:52:12.000Z</time>
      </trkpt>
      <trkpt lat="46.36772" lon="5.75802">
        <ele>717.79998779297</ele>
        <time>2018-06-09T15:52:30.000Z</time>
      </trkpt>
      <trkpt lat="46.36757" lon="5.75794">
        <ele>716</ele>
        <time>2018-06-09T15:52:33.000Z</time>
      </trkpt>
      <trkpt lat="46.36739" lon="5.75788">
        <ele>715</ele>
        <time>2018-06-09T15:52:36.000Z</time>
      </trkpt>
      <trkpt lat="46.36727" lon="5.75787">
        <ele>716</ele>
        <time>2018-06-09T15:52:40.000Z</time>
      </trkpt>
      <trkpt lat="46.36719" lon="5.75789">
        <ele>716.20001220703</ele>
        <time>2018-06-09T15:52:42.000Z</time>
      </trkpt>
      <trkpt lat="46.36705" lon="5.75801">
        <ele>714.59997558594</ele>
        <time>2018-06-09T15:52:46.000Z</time>
      </trkpt>
      <trkpt lat="46.36699" lon="5.75809">
        <ele>713</ele>
        <time>2018-06-09T15:52:48.000Z</time>
      </trkpt>
      <trkpt lat="46.36695" lon="5.75815">
        <ele>712</ele>
        <time>2018-06-09T15:52:49.000Z</time>
      </trkpt>
      <trkpt lat="46.36692" lon="5.75821">
        <ele>710.59997558594</ele>
        <time>2018-06-09T15:52:50.000Z</time>
      </trkpt>
      <trkpt lat="46.3669" lon="5.75829">
        <ele>709.40002441406</ele>
        <time>2018-06-09T15:52:51.000Z</time>
      </trkpt>
      <trkpt lat="46.36687" lon="5.75838">
        <ele>707.79998779297</ele>
        <time>2018-06-09T15:52:52.000Z</time>
      </trkpt>
      <trkpt lat="46.36685" lon="5.75847">
        <ele>706.79998779297</ele>
        <time>2018-06-09T15:52:53.000Z</time>
      </trkpt>
      <trkpt lat="46.36682" lon="5.75865">
        <ele>705</ele>
        <time>2018-06-09T15:52:55.000Z</time>
      </trkpt>
      <trkpt lat="46.36675" lon="5.75885">
        <ele>703.40002441406</ele>
        <time>2018-06-09T15:52:57.000Z</time>
      </trkpt>
      <trkpt lat="46.36671" lon="5.7589">
        <ele>702.40002441406</ele>
        <time>2018-06-09T15:52:58.000Z</time>
      </trkpt>
      <trkpt lat="46.36666" lon="5.75894">
        <ele>701</ele>
        <time>2018-06-09T15:52:59.000Z</time>
      </trkpt>
      <trkpt lat="46.36661" lon="5.75898">
        <ele>699.79998779297</ele>
        <time>2018-06-09T15:53:00.000Z</time>
      </trkpt>
      <trkpt lat="46.36657" lon="5.759">
        <ele>698.40002441406</ele>
        <time>2018-06-09T15:53:01.000Z</time>
      </trkpt>
      <trkpt lat="46.36652" lon="5.75901">
        <ele>697.40002441406</ele>
        <time>2018-06-09T15:53:02.000Z</time>
      </trkpt>
      <trkpt lat="46.36645" lon="5.75899">
        <ele>696.20001220703</ele>
        <time>2018-06-09T15:53:03.000Z</time>
      </trkpt>
      <trkpt lat="46.3664" lon="5.75894">
        <ele>695</ele>
        <time>2018-06-09T15:53:04.000Z</time>
      </trkpt>
      <trkpt lat="46.36635" lon="5.75889">
        <ele>693.79998779297</ele>
        <time>2018-06-09T15:53:05.000Z</time>
      </trkpt>
      <trkpt lat="46.3663" lon="5.75884">
        <ele>692.79998779297</ele>
        <time>2018-06-09T15:53:06.000Z</time>
      </trkpt>
      <trkpt lat="46.36624" lon="5.75877">
        <ele>691.40002441406</ele>
        <time>2018-06-09T15:53:07.000Z</time>
      </trkpt>
      <trkpt lat="46.3662" lon="5.75872">
        <ele>689.40002441406</ele>
        <time>2018-06-09T15:53:08.000Z</time>
      </trkpt>
      <trkpt lat="46.36615" lon="5.75865">
        <ele>687.20001220703</ele>
        <time>2018-06-09T15:53:09.000Z</time>
      </trkpt>
      <trkpt lat="46.36609" lon="5.75858">
        <ele>685.20001220703</ele>
        <time>2018-06-09T15:53:10.000Z</time>
      </trkpt>
      <trkpt lat="46.36602" lon="5.7585">
        <ele>683.20001220703</ele>
        <time>2018-06-09T15:53:11.000Z</time>
      </trkpt>
      <trkpt lat="46.36596" lon="5.75841">
        <ele>681.40002441406</ele>
        <time>2018-06-09T15:53:12.000Z</time>
      </trkpt>
      <trkpt lat="46.3659" lon="5.75832">
        <ele>678.79998779297</ele>
        <time>2018-06-09T15:53:13.000Z</time>
      </trkpt>
      <trkpt lat="46.36584" lon="5.75823">
        <ele>676.59997558594</ele>
        <time>2018-06-09T15:53:14.000Z</time>
      </trkpt>
      <trkpt lat="46.36579" lon="5.75814">
        <ele>674.59997558594</ele>
        <time>2018-06-09T15:53:15.000Z</time>
      </trkpt>
      <trkpt lat="46.36578" lon="5.75804">
        <ele>673</ele>
        <time>2018-06-09T15:53:16.000Z</time>
      </trkpt>
      <trkpt lat="46.36578" lon="5.75794">
        <ele>671.20001220703</ele>
        <time>2018-06-09T15:53:17.000Z</time>
      </trkpt>
      <trkpt lat="46.36576" lon="5.75786">
        <ele>669.59997558594</ele>
        <time>2018-06-09T15:53:18.000Z</time>
      </trkpt>
      <trkpt lat="46.36574" lon="5.75781">
        <ele>668.40002441406</ele>
        <time>2018-06-09T15:53:19.000Z</time>
      </trkpt>
      <trkpt lat="46.36571" lon="5.75775">
        <ele>667.20001220703</ele>
        <time>2018-06-09T15:53:20.000Z</time>
      </trkpt>
      <trkpt lat="46.36567" lon="5.75763">
        <ele>663.79998779297</ele>
        <time>2018-06-09T15:53:22.000Z</time>
      </trkpt>
      <trkpt lat="46.36566" lon="5.75756">
        <ele>661.79998779297</ele>
        <time>2018-06-09T15:53:23.000Z</time>
      </trkpt>
      <trkpt lat="46.36564" lon="5.75749">
        <ele>660.40002441406</ele>
        <time>2018-06-09T15:53:24.000Z</time>
      </trkpt>
      <trkpt lat="46.36558" lon="5.75733">
        <ele>659</ele>
        <time>2018-06-09T15:53:26.000Z</time>
      </trkpt>
      <trkpt lat="46.36556" lon="5.75724">
        <ele>658</ele>
        <time>2018-06-09T15:53:27.000Z</time>
      </trkpt>
      <trkpt lat="46.36555" lon="5.75715">
        <ele>656.59997558594</ele>
        <time>2018-06-09T15:53:28.000Z</time>
      </trkpt>
      <trkpt lat="46.36557" lon="5.75707">
        <ele>655</ele>
        <time>2018-06-09T15:53:29.000Z</time>
      </trkpt>
      <trkpt lat="46.36558" lon="5.757">
        <ele>653.59997558594</ele>
        <time>2018-06-09T15:53:30.000Z</time>
      </trkpt>
      <trkpt lat="46.36559" lon="5.75694">
        <ele>652.20001220703</ele>
        <time>2018-06-09T15:53:31.000Z</time>
      </trkpt>
      <trkpt lat="46.36562" lon="5.75689">
        <ele>651</ele>
        <time>2018-06-09T15:53:32.000Z</time>
      </trkpt>
      <trkpt lat="46.36567" lon="5.75677">
        <ele>649.59997558594</ele>
        <time>2018-06-09T15:53:34.000Z</time>
      </trkpt>
      <trkpt lat="46.36571" lon="5.75668">
        <ele>648.40002441406</ele>
        <time>2018-06-09T15:53:36.000Z</time>
      </trkpt>
      <trkpt lat="46.36572" lon="5.75663">
        <ele>646.40002441406</ele>
        <time>2018-06-09T15:53:38.000Z</time>
      </trkpt>
      <trkpt lat="46.36572" lon="5.7566">
        <ele>645.20001220703</ele>
        <time>2018-06-09T15:53:39.000Z</time>
      </trkpt>
      <trkpt lat="46.36571" lon="5.75657">
        <ele>643.79998779297</ele>
        <time>2018-06-09T15:53:40.000Z</time>
      </trkpt>
      <trkpt lat="46.36566" lon="5.75653">
        <ele>642</ele>
        <time>2018-06-09T15:53:42.000Z</time>
      </trkpt>
      <trkpt lat="46.36558" lon="5.75647">
        <ele>639.79998779297</ele>
        <time>2018-06-09T15:53:44.000Z</time>
      </trkpt>
      <trkpt lat="46.36553" lon="5.75645">
        <ele>638.59997558594</ele>
        <time>2018-06-09T15:53:45.000Z</time>
      </trkpt>
      <trkpt lat="46.36548" lon="5.75644">
        <ele>637.59997558594</ele>
        <time>2018-06-09T15:53:46.000Z</time>
      </trkpt>
      <trkpt lat="46.36535" lon="5.75652">
        <ele>635.40002441406</ele>
        <time>2018-06-09T15:53:48.000Z</time>
      </trkpt>
      <trkpt lat="46.36529" lon="5.75658">
        <ele>634.20001220703</ele>
        <time>2018-06-09T15:53:49.000Z</time>
      </trkpt>
      <trkpt lat="46.36516" lon="5.75669">
        <ele>632</ele>
        <time>2018-06-09T15:53:51.000Z</time>
      </trkpt>
      <trkpt lat="46.36511" lon="5.75674">
        <ele>630.40002441406</ele>
        <time>2018-06-09T15:53:52.000Z</time>
      </trkpt>
      <trkpt lat="46.36507" lon="5.75679">
        <ele>628.40002441406</ele>
        <time>2018-06-09T15:53:53.000Z</time>
      </trkpt>
      <trkpt lat="46.36504" lon="5.75685">
        <ele>626.59997558594</ele>
        <time>2018-06-09T15:53:54.000Z</time>
      </trkpt>
      <trkpt lat="46.36501" lon="5.75693">
        <ele>625</ele>
        <time>2018-06-09T15:53:55.000Z</time>
      </trkpt>
      <trkpt lat="46.36497" lon="5.75704">
        <ele>623</ele>
        <time>2018-06-09T15:53:56.000Z</time>
      </trkpt>
      <trkpt lat="46.36493" lon="5.75713">
        <ele>620.79998779297</ele>
        <time>2018-06-09T15:53:57.000Z</time>
      </trkpt>
      <trkpt lat="46.3649" lon="5.75719">
        <ele>619</ele>
        <time>2018-06-09T15:53:58.000Z</time>
      </trkpt>
      <trkpt lat="46.36489" lon="5.75723">
        <ele>617.79998779297</ele>
        <time>2018-06-09T15:53:59.000Z</time>
      </trkpt>
      <trkpt lat="46.36486" lon="5.75731">
        <ele>615.59997558594</ele>
        <time>2018-06-09T15:54:01.000Z</time>
      </trkpt>
      <trkpt lat="46.36482" lon="5.75735">
        <ele>614.40002441406</ele>
        <time>2018-06-09T15:54:02.000Z</time>
      </trkpt>
      <trkpt lat="46.36478" lon="5.7574">
        <ele>613</ele>
        <time>2018-06-09T15:54:03.000Z</time>
      </trkpt>
      <trkpt lat="46.36462" lon="5.75754">
        <ele>611.40002441406</ele>
        <time>2018-06-09T15:54:05.000Z</time>
      </trkpt>
      <trkpt lat="46.36456" lon="5.75758">
        <ele>610.59997558594</ele>
        <time>2018-06-09T15:54:06.000Z</time>
      </trkpt>
      <trkpt lat="46.3645" lon="5.75762">
        <ele>609.20001220703</ele>
        <time>2018-06-09T15:54:07.000Z</time>
      </trkpt>
      <trkpt lat="46.36445" lon="5.75766">
        <ele>608.59997558594</ele>
        <time>2018-06-09T15:54:08.000Z</time>
      </trkpt>
      <trkpt lat="46.36441" lon="5.75772">
        <ele>607.20001220703</ele>
        <time>2018-06-09T15:54:09.000Z</time>
      </trkpt>
      <trkpt lat="46.36437" lon="5.75778">
        <ele>605.40002441406</ele>
        <time>2018-06-09T15:54:10.000Z</time>
      </trkpt>
      <trkpt lat="46.36433" lon="5.75786">
        <ele>603.79998779297</ele>
        <time>2018-06-09T15:54:11.000Z</time>
      </trkpt>
      <trkpt lat="46.3643" lon="5.75795">
        <ele>602.40002441406</ele>
        <time>2018-06-09T15:54:12.000Z</time>
      </trkpt>
      <trkpt lat="46.36428" lon="5.75803">
        <ele>600.79998779297</ele>
        <time>2018-06-09T15:54:13.000Z</time>
      </trkpt>
      <trkpt lat="46.36428" lon="5.7581">
        <ele>599.79998779297</ele>
        <time>2018-06-09T15:54:14.000Z</time>
      </trkpt>
      <trkpt lat="46.36427" lon="5.75821">
        <ele>598.20001220703</ele>
        <time>2018-06-09T15:54:16.000Z</time>
      </trkpt>
      <trkpt lat="46.36428" lon="5.75826">
        <ele>597.79998779297</ele>
        <time>2018-06-09T15:54:17.000Z</time>
      </trkpt>
      <trkpt lat="46.36434" lon="5.75836">
        <ele>596.40002441406</ele>
        <time>2018-06-09T15:54:19.000Z</time>
      </trkpt>
      <trkpt lat="46.36437" lon="5.75842">
        <ele>595.20001220703</ele>
        <time>2018-06-09T15:54:20.000Z</time>
      </trkpt>
      <trkpt lat="46.36437" lon="5.75854">
        <ele>593.79998779297</ele>
        <time>2018-06-09T15:54:21.000Z</time>
      </trkpt>
      <trkpt lat="46.36442" lon="5.75871">
        <ele>592.40002441406</ele>
        <time>2018-06-09T15:54:23.000Z</time>
      </trkpt>
      <trkpt lat="46.3645" lon="5.75888">
        <ele>590.59997558594</ele>
        <time>2018-06-09T15:54:25.000Z</time>
      </trkpt>
      <trkpt lat="46.36457" lon="5.75907">
        <ele>589.20001220703</ele>
        <time>2018-06-09T15:54:27.000Z</time>
      </trkpt>
      <trkpt lat="46.36464" lon="5.75925">
        <ele>588.20001220703</ele>
        <time>2018-06-09T15:54:29.000Z</time>
      </trkpt>
      <trkpt lat="46.36472" lon="5.75939">
        <ele>586.40002441406</ele>
        <time>2018-06-09T15:54:31.000Z</time>
      </trkpt>
      <trkpt lat="46.36475" lon="5.75948">
        <ele>585</ele>
        <time>2018-06-09T15:54:32.000Z</time>
      </trkpt>
      <trkpt lat="46.36477" lon="5.75961">
        <ele>583.59997558594</ele>
        <time>2018-06-09T15:54:33.000Z</time>
      </trkpt>
      <trkpt lat="46.36479" lon="5.75975">
        <ele>582.40002441406</ele>
        <time>2018-06-09T15:54:34.000Z</time>
      </trkpt>
      <trkpt lat="46.36486" lon="5.76">
        <ele>581.40002441406</ele>
        <time>2018-06-09T15:54:36.000Z</time>
      </trkpt>
      <trkpt lat="46.36494" lon="5.76037">
        <ele>580.20001220703</ele>
        <time>2018-06-09T15:54:39.000Z</time>
      </trkpt>
      <trkpt lat="46.36498" lon="5.76058">
        <ele>579.20001220703</ele>
        <time>2018-06-09T15:54:41.000Z</time>
      </trkpt>
      <trkpt lat="46.36498" lon="5.76068">
        <ele>578.59997558594</ele>
        <time>2018-06-09T15:54:42.000Z</time>
      </trkpt>
      <trkpt lat="46.36487" lon="5.76089">
        <ele>577.59997558594</ele>
        <time>2018-06-09T15:54:44.000Z</time>
      </trkpt>
      <trkpt lat="46.36477" lon="5.76101">
        <ele>576.20001220703</ele>
        <time>2018-06-09T15:54:47.000Z</time>
      </trkpt>
      <trkpt lat="46.3647" lon="5.76104">
        <ele>574</ele>
        <time>2018-06-09T15:54:49.000Z</time>
      </trkpt>
      <trkpt lat="46.36468" lon="5.76101">
        <ele>572.20001220703</ele>
        <time>2018-06-09T15:54:50.000Z</time>
      </trkpt>
      <trkpt lat="46.36464" lon="5.76102">
        <ele>570.79998779297</ele>
        <time>2018-06-09T15:54:51.000Z</time>
      </trkpt>
      <trkpt lat="46.36462" lon="5.761">
        <ele>569.59997558594</ele>
        <time>2018-06-09T15:54:52.000Z</time>
      </trkpt>
      <trkpt lat="46.36457" lon="5.76098">
        <ele>568.20001220703</ele>
        <time>2018-06-09T15:54:54.000Z</time>
      </trkpt>
      <trkpt lat="46.3645" lon="5.76098">
        <ele>567</ele>
        <time>2018-06-09T15:54:56.000Z</time>
      </trkpt>
      <trkpt lat="46.36444" lon="5.76094">
        <ele>565.79998779297</ele>
        <time>2018-06-09T15:54:58.000Z</time>
      </trkpt>
      <trkpt lat="46.3644" lon="5.76092">
        <ele>564.40002441406</ele>
        <time>2018-06-09T15:54:59.000Z</time>
      </trkpt>
      <trkpt lat="46.36437" lon="5.76088">
        <ele>562.59997558594</ele>
        <time>2018-06-09T15:55:00.000Z</time>
      </trkpt>
      <trkpt lat="46.36435" lon="5.76085">
        <ele>560.79998779297</ele>
        <time>2018-06-09T15:55:01.000Z</time>
      </trkpt>
      <trkpt lat="46.36432" lon="5.76081">
        <ele>559.40002441406</ele>
        <time>2018-06-09T15:55:02.000Z</time>
      </trkpt>
      <trkpt lat="46.3643" lon="5.76075">
        <ele>558</ele>
        <time>2018-06-09T15:55:03.000Z</time>
      </trkpt>
      <trkpt lat="46.36427" lon="5.76069">
        <ele>557</ele>
        <time>2018-06-09T15:55:04.000Z</time>
      </trkpt>
      <trkpt lat="46.36421" lon="5.76058">
        <ele>555.59997558594</ele>
        <time>2018-06-09T15:55:06.000Z</time>
      </trkpt>
      <trkpt lat="46.36415" lon="5.76048">
        <ele>553.79998779297</ele>
        <time>2018-06-09T15:55:08.000Z</time>
      </trkpt>
      <trkpt lat="46.36411" lon="5.76043">
        <ele>552.59997558594</ele>
        <time>2018-06-09T15:55:09.000Z</time>
      </trkpt>
      <trkpt lat="46.36408" lon="5.76038">
        <ele>551.40002441406</ele>
        <time>2018-06-09T15:55:10.000Z</time>
      </trkpt>
      <trkpt lat="46.36405" lon="5.76033">
        <ele>550</ele>
        <time>2018-06-09T15:55:11.000Z</time>
      </trkpt>
      <trkpt lat="46.36403" lon="5.76028">
        <ele>548.79998779297</ele>
        <time>2018-06-09T15:55:12.000Z</time>
      </trkpt>
      <trkpt lat="46.36398" lon="5.7602">
        <ele>547.20001220703</ele>
        <time>2018-06-09T15:55:14.000Z</time>
      </trkpt>
      <trkpt lat="46.36393" lon="5.76013">
        <ele>545.59997558594</ele>
        <time>2018-06-09T15:55:16.000Z</time>
      </trkpt>
      <trkpt lat="46.3639" lon="5.7601">
        <ele>543.79998779297</ele>
        <time>2018-06-09T15:55:18.000Z</time>
      </trkpt>
      <trkpt lat="46.36382" lon="5.75999">
        <ele>542.40002441406</ele>
        <time>2018-06-09T15:55:20.000Z</time>
      </trkpt>
      <trkpt lat="46.3637" lon="5.75996">
        <ele>540.79998779297</ele>
        <time>2018-06-09T15:55:23.000Z</time>
      </trkpt>
      <trkpt lat="46.36365" lon="5.75997">
        <ele>539.59997558594</ele>
        <time>2018-06-09T15:55:24.000Z</time>
      </trkpt>
      <trkpt lat="46.36354" lon="5.76004">
        <ele>538.20001220703</ele>
        <time>2018-06-09T15:55:26.000Z</time>
      </trkpt>
      <trkpt lat="46.36344" lon="5.76015">
        <ele>537</ele>
        <time>2018-06-09T15:55:29.000Z</time>
      </trkpt>
      <trkpt lat="46.36341" lon="5.7603">
        <ele>535.40002441406</ele>
        <time>2018-06-09T15:55:32.000Z</time>
      </trkpt>
      <trkpt lat="46.36341" lon="5.76039">
        <ele>534</ele>
        <time>2018-06-09T15:55:34.000Z</time>
      </trkpt>
      <trkpt lat="46.36345" lon="5.76049">
        <ele>533.20001220703</ele>
        <time>2018-06-09T15:55:36.000Z</time>
      </trkpt>
      <trkpt lat="46.36349" lon="5.7605">
        <ele>532.20001220703</ele>
        <time>2018-06-09T15:55:37.000Z</time>
      </trkpt>
      <trkpt lat="46.36352" lon="5.76053">
        <ele>531</ele>
        <time>2018-06-09T15:55:38.000Z</time>
      </trkpt>
      <trkpt lat="46.36354" lon="5.7606">
        <ele>529.79998779297</ele>
        <time>2018-06-09T15:55:39.000Z</time>
      </trkpt>
      <trkpt lat="46.36357" lon="5.76063">
        <ele>528.59997558594</ele>
        <time>2018-06-09T15:55:40.000Z</time>
      </trkpt>
      <trkpt lat="46.36364" lon="5.7607">
        <ele>527.20001220703</ele>
        <time>2018-06-09T15:55:42.000Z</time>
      </trkpt>
      <trkpt lat="46.36367" lon="5.76077">
        <ele>526.20001220703</ele>
        <time>2018-06-09T15:55:44.000Z</time>
      </trkpt>
      <trkpt lat="46.36368" lon="5.76083">
        <ele>525.40002441406</ele>
        <time>2018-06-09T15:55:45.000Z</time>
      </trkpt>
      <trkpt lat="46.36368" lon="5.76089">
        <ele>524.20001220703</ele>
        <time>2018-06-09T15:55:46.000Z</time>
      </trkpt>
      <trkpt lat="46.36367" lon="5.76092">
        <ele>522.79998779297</ele>
        <time>2018-06-09T15:55:47.000Z</time>
      </trkpt>
      <trkpt lat="46.36364" lon="5.76096">
        <ele>521.59997558594</ele>
        <time>2018-06-09T15:55:48.000Z</time>
      </trkpt>
      <trkpt lat="46.36363" lon="5.76097">
        <ele>520.59997558594</ele>
        <time>2018-06-09T15:55:49.000Z</time>
      </trkpt>
      <trkpt lat="46.36359" lon="5.76099">
        <ele>518.79998779297</ele>
        <time>2018-06-09T15:55:51.000Z</time>
      </trkpt>
      <trkpt lat="46.36358" lon="5.76104">
        <ele>517.20001220703</ele>
        <time>2018-06-09T15:55:53.000Z</time>
      </trkpt>
      <trkpt lat="46.3636" lon="5.76114">
        <ele>515.59997558594</ele>
        <time>2018-06-09T15:55:55.000Z</time>
      </trkpt>
      <trkpt lat="46.36363" lon="5.76121">
        <ele>514.40002441406</ele>
        <time>2018-06-09T15:55:57.000Z</time>
      </trkpt>
      <trkpt lat="46.36369" lon="5.76129">
        <ele>512.59997558594</ele>
        <time>2018-06-09T15:55:59.000Z</time>
      </trkpt>
      <trkpt lat="46.36372" lon="5.76135">
        <ele>511.60000610352</ele>
        <time>2018-06-09T15:56:00.000Z</time>
      </trkpt>
      <trkpt lat="46.36379" lon="5.76149">
        <ele>509.79998779297</ele>
        <time>2018-06-09T15:56:02.000Z</time>
      </trkpt>
      <trkpt lat="46.36384" lon="5.76158">
        <ele>508</ele>
        <time>2018-06-09T15:56:04.000Z</time>
      </trkpt>
      <trkpt lat="46.36382" lon="5.7617">
        <ele>507.20001220703</ele>
        <time>2018-06-09T15:56:05.000Z</time>
      </trkpt>
      <trkpt lat="46.36383" lon="5.76171">
        <ele>506.20001220703</ele>
        <time>2018-06-09T15:56:06.000Z</time>
      </trkpt>
      <trkpt lat="46.36382" lon="5.76171">
        <ele>504.79998779297</ele>
        <time>2018-06-09T15:56:08.000Z</time>
      </trkpt>
      <trkpt lat="46.36383" lon="5.7617">
        <ele>503.39999389648</ele>
        <time>2018-06-09T15:56:10.000Z</time>
      </trkpt>
      <trkpt lat="46.36378" lon="5.76173">
        <ele>502</ele>
        <time>2018-06-09T15:56:12.000Z</time>
      </trkpt>
      <trkpt lat="46.36378" lon="5.76172">
        <ele>500.60000610352</ele>
        <time>2018-06-09T15:56:14.000Z</time>
      </trkpt>
      <trkpt lat="46.3638" lon="5.76174">
        <ele>499</ele>
        <time>2018-06-09T15:56:16.000Z</time>
      </trkpt>
      <trkpt lat="46.36377" lon="5.76176">
        <ele>497.60000610352</ele>
        <time>2018-06-09T15:56:18.000Z</time>
      </trkpt>
      <trkpt lat="46.36376" lon="5.76175">
        <ele>496</ele>
        <time>2018-06-09T15:56:20.000Z</time>
      </trkpt>
      <trkpt lat="46.36374" lon="5.7618">
        <ele>494.20001220703</ele>
        <time>2018-06-09T15:56:22.000Z</time>
      </trkpt>
      <trkpt lat="46.36373" lon="5.7618">
        <ele>492.79998779297</ele>
        <time>2018-06-09T15:56:24.000Z</time>
      </trkpt>
      <trkpt lat="46.36372" lon="5.76181">
        <ele>491.39999389648</ele>
        <time>2018-06-09T15:56:26.000Z</time>
      </trkpt>
      <trkpt lat="46.36371" lon="5.76186">
        <ele>490.39999389648</ele>
        <time>2018-06-09T15:56:28.000Z</time>
      </trkpt>
      <trkpt lat="46.36368" lon="5.76192">
        <ele>488.79998779297</ele>
        <time>2018-06-09T15:56:30.000Z</time>
      </trkpt>
      <trkpt lat="46.36366" lon="5.76196">
        <ele>486.79998779297</ele>
        <time>2018-06-09T15:56:32.000Z</time>
      </trkpt>
      <trkpt lat="46.36365" lon="5.76197">
        <ele>485.79998779297</ele>
        <time>2018-06-09T15:56:33.000Z</time>
      </trkpt>
      <trkpt lat="46.36361" lon="5.76199">
        <ele>484.39999389648</ele>
        <time>2018-06-09T15:56:35.000Z</time>
      </trkpt>
      <trkpt lat="46.36358" lon="5.76205">
        <ele>482.79998779297</ele>
        <time>2018-06-09T15:56:38.000Z</time>
      </trkpt>
      <trkpt lat="46.36357" lon="5.76205">
        <ele>481.39999389648</ele>
        <time>2018-06-09T15:56:40.000Z</time>
      </trkpt>
      <trkpt lat="46.36354" lon="5.76203">
        <ele>480</ele>
        <time>2018-06-09T15:56:43.000Z</time>
      </trkpt>
      <trkpt lat="46.36351" lon="5.76207">
        <ele>478.39999389648</ele>
        <time>2018-06-09T15:56:45.000Z</time>
      </trkpt>
      <trkpt lat="46.3635" lon="5.76209">
        <ele>476.79998779297</ele>
        <time>2018-06-09T15:56:47.000Z</time>
      </trkpt>
      <trkpt lat="46.36349" lon="5.76212">
        <ele>475.20001220703</ele>
        <time>2018-06-09T15:56:49.000Z</time>
      </trkpt>
      <trkpt lat="46.36347" lon="5.76214">
        <ele>473.79998779297</ele>
        <time>2018-06-09T15:56:51.000Z</time>
      </trkpt>
      <trkpt lat="46.36345" lon="5.76214">
        <ele>472</ele>
        <time>2018-06-09T15:56:53.000Z</time>
      </trkpt>
      <trkpt lat="46.36344" lon="5.76212">
        <ele>470.39999389648</ele>
        <time>2018-06-09T15:56:55.000Z</time>
      </trkpt>
      <trkpt lat="46.36338" lon="5.76211">
        <ele>469</ele>
        <time>2018-06-09T15:56:58.000Z</time>
      </trkpt>
      <trkpt lat="46.36333" lon="5.76213">
        <ele>467.60000610352</ele>
        <time>2018-06-09T15:57:01.000Z</time>
      </trkpt>
      <trkpt lat="46.36327" lon="5.76209">
        <ele>466.39999389648</ele>
        <time>2018-06-09T15:57:05.000Z</time>
      </trkpt>
      <trkpt lat="46.36325" lon="5.76208">
        <ele>465.39999389648</ele>
        <time>2018-06-09T15:57:09.000Z</time>
      </trkpt>
      <trkpt lat="46.36322" lon="5.76207">
        <ele>464.20001220703</ele>
        <time>2018-06-09T15:57:16.000Z</time>
      </trkpt>
      <trkpt lat="46.3632" lon="5.76204">
        <ele>463</ele>
        <time>2018-06-09T15:57:21.000Z</time>
      </trkpt>
      <trkpt lat="46.36318" lon="5.76204">
        <ele>462.60000610352</ele>
        <time>2018-06-09T15:57:23.000Z</time>
      </trkpt>
      <trkpt lat="46.36315" lon="5.76203">
        <ele>461.60000610352</ele>
        <time>2018-06-09T15:57:25.000Z</time>
      </trkpt>
      <trkpt lat="46.36312" lon="5.76202">
        <ele>460</ele>
        <time>2018-06-09T15:57:27.000Z</time>
      </trkpt>
      <trkpt lat="46.36312" lon="5.76201">
        <ele>458.60000610352</ele>
        <time>2018-06-09T15:57:28.000Z</time>
      </trkpt>
      <trkpt lat="46.3631" lon="5.76201">
        <ele>457.20001220703</ele>
        <time>2018-06-09T15:57:29.000Z</time>
      </trkpt>
      <trkpt lat="46.36308" lon="5.76201">
        <ele>456</ele>
        <time>2018-06-09T15:57:30.000Z</time>
      </trkpt>
      <trkpt lat="46.36305" lon="5.76203">
        <ele>454.60000610352</ele>
        <time>2018-06-09T15:57:32.000Z</time>
      </trkpt>
      <trkpt lat="46.36303" lon="5.7621">
        <ele>452.79998779297</ele>
        <time>2018-06-09T15:57:34.000Z</time>
      </trkpt>
      <trkpt lat="46.36303" lon="5.76211">
        <ele>451.60000610352</ele>
        <time>2018-06-09T15:57:35.000Z</time>
      </trkpt>
      <trkpt lat="46.36301" lon="5.76213">
        <ele>450.39999389648</ele>
        <time>2018-06-09T15:57:36.000Z</time>
      </trkpt>
      <trkpt lat="46.36299" lon="5.76216">
        <ele>449</ele>
        <time>2018-06-09T15:57:37.000Z</time>
      </trkpt>
      <trkpt lat="46.36293" lon="5.76221">
        <ele>447.39999389648</ele>
        <time>2018-06-09T15:57:39.000Z</time>
      </trkpt>
      <trkpt lat="46.36289" lon="5.76229">
        <ele>446</ele>
        <time>2018-06-09T15:57:41.000Z</time>
      </trkpt>
      <trkpt lat="46.36282" lon="5.76237">
        <ele>444.20001220703</ele>
        <time>2018-06-09T15:57:43.000Z</time>
      </trkpt>
      <trkpt lat="46.36276" lon="5.76239">
        <ele>442.20001220703</ele>
        <time>2018-06-09T15:57:45.000Z</time>
      </trkpt>
      <trkpt lat="46.36272" lon="5.76237">
        <ele>441.39999389648</ele>
        <time>2018-06-09T15:57:46.000Z</time>
      </trkpt>
      <trkpt lat="46.3627" lon="5.76234">
        <ele>440.20001220703</ele>
        <time>2018-06-09T15:57:47.000Z</time>
      </trkpt>
      <trkpt lat="46.36268" lon="5.76231">
        <ele>439.20001220703</ele>
        <time>2018-06-09T15:57:48.000Z</time>
      </trkpt>
      <trkpt lat="46.36264" lon="5.7623">
        <ele>437.20001220703</ele>
        <time>2018-06-09T15:57:50.000Z</time>
      </trkpt>
      <trkpt lat="46.36261" lon="5.76231">
        <ele>436.20001220703</ele>
        <time>2018-06-09T15:57:51.000Z</time>
      </trkpt>
      <trkpt lat="46.3626" lon="5.76234">
        <ele>435</ele>
        <time>2018-06-09T15:57:52.000Z</time>
      </trkpt>
      <trkpt lat="46.36258" lon="5.7624">
        <ele>433.20001220703</ele>
        <time>2018-06-09T15:57:54.000Z</time>
      </trkpt>
      <trkpt lat="46.36259" lon="5.76247">
        <ele>432</ele>
        <time>2018-06-09T15:57:56.000Z</time>
      </trkpt>
      <trkpt lat="46.36262" lon="5.76263">
        <ele>432.20001220703</ele>
        <time>2018-06-09T15:58:01.000Z</time>
      </trkpt>
      <trkpt lat="46.36276" lon="5.76279">
        <ele>432.79998779297</ele>
        <time>2018-06-09T15:58:07.000Z</time>
      </trkpt>
      <trkpt lat="46.36279" lon="5.7628">
        <ele>433.20001220703</ele>
        <time>2018-06-09T15:58:09.000Z</time>
      </trkpt>
      <trkpt lat="46.36283" lon="5.76286">
        <ele>434.20001220703</ele>
        <time>2018-06-09T15:58:13.000Z</time>
      </trkpt>
      <trkpt lat="46.36288" lon="5.76293">
        <ele>434.79998779297</ele>
        <time>2018-06-09T15:58:18.000Z</time>
      </trkpt>
      <trkpt lat="46.36292" lon="5.76298">
        <ele>435</ele>
        <time>2018-06-09T15:58:21.000Z</time>
      </trkpt>
      <trkpt lat="46.36291" lon="5.76305">
        <ele>435.20001220703</ele>
        <time>2018-06-09T15:58:23.000Z</time>
      </trkpt>
      <trkpt lat="46.36292" lon="5.76308">
        <ele>435.20001220703</ele>
        <time>2018-06-09T15:58:25.000Z</time>
      </trkpt>
      <trkpt lat="46.36291" lon="5.76309">
        <ele>434.60000610352</ele>
        <time>2018-06-09T15:58:27.000Z</time>
      </trkpt>
      <trkpt lat="46.3629" lon="5.7631">
        <ele>433.60000610352</ele>
        <time>2018-06-09T15:58:28.000Z</time>
      </trkpt>
      <trkpt lat="46.36288" lon="5.76312">
        <ele>432.60000610352</ele>
        <time>2018-06-09T15:58:29.000Z</time>
      </trkpt>
      <trkpt lat="46.36287" lon="5.76312">
        <ele>431.20001220703</ele>
        <time>2018-06-09T15:58:30.000Z</time>
      </trkpt>
      <trkpt lat="46.36285" lon="5.76315">
        <ele>430.20001220703</ele>
        <time>2018-06-09T15:58:31.000Z</time>
      </trkpt>
      <trkpt lat="46.36282" lon="5.76318">
        <ele>428.79998779297</ele>
        <time>2018-06-09T15:58:32.000Z</time>
      </trkpt>
      <trkpt lat="46.3628" lon="5.76319">
        <ele>427.39999389648</ele>
        <time>2018-06-09T15:58:33.000Z</time>
      </trkpt>
      <trkpt lat="46.36279" lon="5.76319">
        <ele>426</ele>
        <time>2018-06-09T15:58:34.000Z</time>
      </trkpt>
      <trkpt lat="46.36278" lon="5.76319">
        <ele>424.60000610352</ele>
        <time>2018-06-09T15:58:35.000Z</time>
      </trkpt>
      <trkpt lat="46.36277" lon="5.76319">
        <ele>423.60000610352</ele>
        <time>2018-06-09T15:58:36.000Z</time>
      </trkpt>
      <trkpt lat="46.36275" lon="5.7632">
        <ele>422.60000610352</ele>
        <time>2018-06-09T15:58:37.000Z</time>
      </trkpt>
      <trkpt lat="46.36272" lon="5.76321">
        <ele>421.60000610352</ele>
        <time>2018-06-09T15:58:38.000Z</time>
      </trkpt>
      <trkpt lat="46.3627" lon="5.76322">
        <ele>420.60000610352</ele>
        <time>2018-06-09T15:58:39.000Z</time>
      </trkpt>
      <trkpt lat="46.36269" lon="5.76324">
        <ele>419.60000610352</ele>
        <time>2018-06-09T15:58:40.000Z</time>
      </trkpt>
      <trkpt lat="46.36268" lon="5.76325">
        <ele>418.39999389648</ele>
        <time>2018-06-09T15:58:41.000Z</time>
      </trkpt>
      <trkpt lat="46.36267" lon="5.76328">
        <ele>416.60000610352</ele>
        <time>2018-06-09T15:58:43.000Z</time>
      </trkpt>
      <trkpt lat="46.36265" lon="5.76332">
        <ele>415</ele>
        <time>2018-06-09T15:58:45.000Z</time>
      </trkpt>
      <trkpt lat="46.36263" lon="5.76335">
        <ele>413.79998779297</ele>
        <time>2018-06-09T15:58:48.000Z</time>
      </trkpt>
      <trkpt lat="46.36264" lon="5.76343">
        <ele>412.60000610352</ele>
        <time>2018-06-09T15:58:56.000Z</time>
      </trkpt>
      <trkpt lat="46.36264" lon="5.76346">
        <ele>411.39999389648</ele>
        <time>2018-06-09T15:58:58.000Z</time>
      </trkpt>
      <trkpt lat="46.36264" lon="5.76351">
        <ele>410.39999389648</ele>
        <time>2018-06-09T15:59:00.000Z</time>
      </trkpt>
      <trkpt lat="46.36262" lon="5.76363">
        <ele>409.39999389648</ele>
        <time>2018-06-09T15:59:07.000Z</time>
      </trkpt>
      <trkpt lat="46.36261" lon="5.76365">
        <ele>409.20001220703</ele>
        <time>2018-06-09T15:59:08.000Z</time>
      </trkpt>
      <trkpt lat="46.36258" lon="5.76366">
        <ele>407.79998779297</ele>
        <time>2018-06-09T15:59:10.000Z</time>
      </trkpt>
      <trkpt lat="46.36255" lon="5.76366">
        <ele>406.39999389648</ele>
        <time>2018-06-09T15:59:12.000Z</time>
      </trkpt>
      <trkpt lat="46.36253" lon="5.76366">
        <ele>405.79998779297</ele>
        <time>2018-06-09T15:59:13.000Z</time>
      </trkpt>
      <trkpt lat="46.3625" lon="5.76368">
        <ele>405.20001220703</ele>
        <time>2018-06-09T15:59:14.000Z</time>
      </trkpt>
      <trkpt lat="46.36246" lon="5.76367">
        <ele>403.39999389648</ele>
        <time>2018-06-09T15:59:16.000Z</time>
      </trkpt>
      <trkpt lat="46.36245" lon="5.76367">
        <ele>402.39999389648</ele>
        <time>2018-06-09T15:59:17.000Z</time>
      </trkpt>
      <trkpt lat="46.36242" lon="5.76366">
        <ele>400.60000610352</ele>
        <time>2018-06-09T15:59:19.000Z</time>
      </trkpt>
      <trkpt lat="46.3624" lon="5.76367">
        <ele>399</ele>
        <time>2018-06-09T15:59:21.000Z</time>
      </trkpt>
      <trkpt lat="46.36239" lon="5.76364">
        <ele>397.79998779297</ele>
        <time>2018-06-09T15:59:24.000Z</time>
      </trkpt>
      <trkpt lat="46.36236" lon="5.76359">
        <ele>396.60000610352</ele>
        <time>2018-06-09T15:59:32.000Z</time>
      </trkpt>
      <trkpt lat="46.36231" lon="5.76362">
        <ele>395.20001220703</ele>
        <time>2018-06-09T15:59:35.000Z</time>
      </trkpt>
      <trkpt lat="46.36228" lon="5.76364">
        <ele>394</ele>
        <time>2018-06-09T15:59:37.000Z</time>
      </trkpt>
      <trkpt lat="46.36224" lon="5.76368">
        <ele>392.39999389648</ele>
        <time>2018-06-09T15:59:39.000Z</time>
      </trkpt>
      <trkpt lat="46.36222" lon="5.76369">
        <ele>390.39999389648</ele>
        <time>2018-06-09T15:59:41.000Z</time>
      </trkpt>
      <trkpt lat="46.36219" lon="5.76371">
        <ele>388.60000610352</ele>
        <time>2018-06-09T15:59:43.000Z</time>
      </trkpt>
      <trkpt lat="46.36218" lon="5.76371">
        <ele>387.79998779297</ele>
        <time>2018-06-09T15:59:44.000Z</time>
      </trkpt>
      <trkpt lat="46.36217" lon="5.76372">
        <ele>386.79998779297</ele>
        <time>2018-06-09T15:59:45.000Z</time>
      </trkpt>
      <trkpt lat="46.36215" lon="5.76373">
        <ele>385.79998779297</ele>
        <time>2018-06-09T15:59:46.000Z</time>
      </trkpt>
      <trkpt lat="46.36213" lon="5.76374">
        <ele>384.79998779297</ele>
        <time>2018-06-09T15:59:47.000Z</time>
      </trkpt>
      <trkpt lat="46.36212" lon="5.76374">
        <ele>383.60000610352</ele>
        <time>2018-06-09T15:59:48.000Z</time>
      </trkpt>
      <trkpt lat="46.36211" lon="5.76375">
        <ele>382.60000610352</ele>
        <time>2018-06-09T15:59:49.000Z</time>
      </trkpt>
      <trkpt lat="46.3621" lon="5.76375">
        <ele>381.60000610352</ele>
        <time>2018-06-09T15:59:50.000Z</time>
      </trkpt>
      <trkpt lat="46.36208" lon="5.76375">
        <ele>379.79998779297</ele>
        <time>2018-06-09T15:59:52.000Z</time>
      </trkpt>
      <trkpt lat="46.36207" lon="5.76374">
        <ele>378.79998779297</ele>
        <time>2018-06-09T15:59:53.000Z</time>
      </trkpt>
      <trkpt lat="46.36206" lon="5.76373">
        <ele>377.60000610352</ele>
        <time>2018-06-09T15:59:54.000Z</time>
      </trkpt>
      <trkpt lat="46.36204" lon="5.76371">
        <ele>376.20001220703</ele>
        <time>2018-06-09T15:59:56.000Z</time>
      </trkpt>
      <trkpt lat="46.36199" lon="5.76371">
        <ele>374.79998779297</ele>
        <time>2018-06-09T15:59:58.000Z</time>
      </trkpt>
      <trkpt lat="46.36197" lon="5.76369">
        <ele>374.20001220703</ele>
        <time>2018-06-09T15:59:59.000Z</time>
      </trkpt>
      <trkpt lat="46.36195" lon="5.76367">
        <ele>373.39999389648</ele>
        <time>2018-06-09T16:00:00.000Z</time>
      </trkpt>
      <trkpt lat="46.36191" lon="5.76368">
        <ele>372</ele>
        <time>2018-06-09T16:00:02.000Z</time>
      </trkpt>
      <trkpt lat="46.3619" lon="5.76369">
        <ele>371.39999389648</ele>
        <time>2018-06-09T16:00:03.000Z</time>
      </trkpt>
      <trkpt lat="46.36187" lon="5.76371">
        <ele>370.39999389648</ele>
        <time>2018-06-09T16:00:05.000Z</time>
      </trkpt>
      <trkpt lat="46.36182" lon="5.76374">
        <ele>369.20001220703</ele>
        <time>2018-06-09T16:00:08.000Z</time>
      </trkpt>
      <trkpt lat="46.36172" lon="5.76393">
        <ele>368</ele>
        <time>2018-06-09T16:00:15.000Z</time>
      </trkpt>
      <trkpt lat="46.36171" lon="5.76399">
        <ele>366.79998779297</ele>
        <time>2018-06-09T16:00:19.000Z</time>
      </trkpt>
      <trkpt lat="46.36171" lon="5.764">
        <ele>366</ele>
        <time>2018-06-09T16:00:22.000Z</time>
      </trkpt>
      <trkpt lat="46.3617" lon="5.76401">
        <ele>365.60000610352</ele>
        <time>2018-06-09T16:00:23.000Z</time>
      </trkpt>
      <trkpt lat="46.3617" lon="5.76404">
        <ele>365.20001220703</ele>
        <time>2018-06-09T16:00:24.000Z</time>
      </trkpt>
      <trkpt lat="46.36167" lon="5.76411">
        <ele>363.79998779297</ele>
        <time>2018-06-09T16:00:26.000Z</time>
      </trkpt>
      <trkpt lat="46.36161" lon="5.76417">
        <ele>361.79998779297</ele>
        <time>2018-06-09T16:00:28.000Z</time>
      </trkpt>
      <trkpt lat="46.36157" lon="5.76419">
        <ele>360.60000610352</ele>
        <time>2018-06-09T16:00:29.000Z</time>
      </trkpt>
      <trkpt lat="46.36154" lon="5.76419">
        <ele>359.39999389648</ele>
        <time>2018-06-09T16:00:30.000Z</time>
      </trkpt>
      <trkpt lat="46.36151" lon="5.76421">
        <ele>358.39999389648</ele>
        <time>2018-06-09T16:00:31.000Z</time>
      </trkpt>
      <trkpt lat="46.36149" lon="5.76421">
        <ele>358</ele>
        <time>2018-06-09T16:00:32.000Z</time>
      </trkpt>
      <trkpt lat="46.36145" lon="5.76419">
        <ele>357.60000610352</ele>
        <time>2018-06-09T16:00:34.000Z</time>
      </trkpt>
      <trkpt lat="46.36126" lon="5.76407">
        <ele>358.60000610352</ele>
        <time>2018-06-09T16:02:47.000Z</time>
      </trkpt>
      <trkpt lat="46.36129" lon="5.76408">
        <ele>358.60000610352</ele>
        <time>2018-06-09T16:02:56.000Z</time>
      </trkpt>
      <trkpt lat="46.36118" lon="5.76395">
        <ele>358.79998779297</ele>
        <time>2018-06-09T16:04:13.000Z</time>
      </trkpt>
      <trkpt lat="46.36115" lon="5.76389">
        <ele>359</ele>
        <time>2018-06-09T16:04:16.000Z</time>
      </trkpt>
      <trkpt lat="46.36114" lon="5.76388">
        <ele>358.79998779297</ele>
        <time>2018-06-09T16:04:17.000Z</time>
      </trkpt>
      <trkpt lat="46.36112" lon="5.76388">
        <ele>358.79998779297</ele>
        <time>2018-06-09T16:04:18.000Z</time>
      </trkpt>
      <trkpt lat="46.36102" lon="5.7637">
        <ele>359.20001220703</ele>
        <time>2018-06-09T16:04:42.000Z</time>
      </trkpt>
      <trkpt lat="46.361" lon="5.76368">
        <ele>359.20001220703</ele>
        <time>2018-06-09T16:04:44.000Z</time>
      </trkpt>
      <trkpt lat="46.36098" lon="5.76367">
        <ele>358.79998779297</ele>
        <time>2018-06-09T16:04:46.000Z</time>
      </trkpt>
      <trkpt lat="46.36093" lon="5.76369">
        <ele>358.39999389648</ele>
        <time>2018-06-09T16:04:50.000Z</time>
      </trkpt>
      <trkpt lat="46.36084" lon="5.76373">
        <ele>357.79998779297</ele>
        <time>2018-06-09T16:04:54.000Z</time>
      </trkpt>
      <trkpt lat="46.36065" lon="5.76374">
        <ele>357.79998779297</ele>
        <time>2018-06-09T16:05:04.000Z</time>
      </trkpt>
      <trkpt lat="46.36062" lon="5.76391">
        <ele>357.60000610352</ele>
        <time>2018-06-09T16:05:11.000Z</time>
      </trkpt>
      <trkpt lat="46.36069" lon="5.76406">
        <ele>357.39999389648</ele>
        <time>2018-06-09T16:05:18.000Z</time>
      </trkpt>
      <trkpt lat="46.3607" lon="5.76412">
        <ele>357.20001220703</ele>
        <time>2018-06-09T16:05:21.000Z</time>
      </trkpt>
      <trkpt lat="46.36071" lon="5.76416">
        <ele>357.20001220703</ele>
        <time>2018-06-09T16:05:23.000Z</time>
      </trkpt>
      <trkpt lat="46.36075" lon="5.76435">
        <ele>356.79998779297</ele>
        <time>2018-06-09T16:05:31.000Z</time>
      </trkpt>
      <trkpt lat="46.36066" lon="5.76491">
        <ele>356</ele>
        <time>2018-06-09T16:06:13.000Z</time>
      </trkpt>
      <trkpt lat="46.36069" lon="5.76494">
        <ele>355.79998779297</ele>
        <time>2018-06-09T16:06:15.000Z</time>
      </trkpt>
      <trkpt lat="46.36072" lon="5.76497">
        <ele>355.79998779297</ele>
        <time>2018-06-09T16:06:17.000Z</time>
      </trkpt>
      <trkpt lat="46.36078" lon="5.7652">
        <ele>356</ele>
        <time>2018-06-09T16:06:26.000Z</time>
      </trkpt>
      <trkpt lat="46.36092" lon="5.76596">
        <ele>356</ele>
        <time>2018-06-09T16:06:47.000Z</time>
      </trkpt>
      <trkpt lat="46.36059" lon="5.76622">
        <ele>356.60000610352</ele>
        <time>2018-06-09T16:07:11.000Z</time>
      </trkpt>
      <trkpt lat="46.36055" lon="5.76621">
        <ele>356.79998779297</ele>
        <time>2018-06-09T16:07:13.000Z</time>
      </trkpt>
      <trkpt lat="46.36046" lon="5.76622">
        <ele>357.79998779297</ele>
        <time>2018-06-09T16:07:19.000Z</time>
      </trkpt>
      <trkpt lat="46.3604" lon="5.76625">
        <ele>358.60000610352</ele>
        <time>2018-06-09T16:07:25.000Z</time>
      </trkpt>
      <trkpt lat="46.36036" lon="5.76626">
        <ele>358.60000610352</ele>
        <time>2018-06-09T16:07:27.000Z</time>
      </trkpt>
      <trkpt lat="46.36033" lon="5.76627">
        <ele>358.60000610352</ele>
        <time>2018-06-09T16:07:29.000Z</time>
      </trkpt>
      <trkpt lat="46.36026" lon="5.76627">
        <ele>358.60000610352</ele>
        <time>2018-06-09T16:07:33.000Z</time>
      </trkpt>
      <trkpt lat="46.36021" lon="5.76631">
        <ele>358.79998779297</ele>
        <time>2018-06-09T16:07:35.000Z</time>
      </trkpt>
      <trkpt lat="46.35994" lon="5.76635">
        <ele>359.39999389648</ele>
        <time>2018-06-09T16:07:49.000Z</time>
      </trkpt>
      <trkpt lat="46.3599" lon="5.76631">
        <ele>359.79998779297</ele>
        <time>2018-06-09T16:07:52.000Z</time>
      </trkpt>
      <trkpt lat="46.35988" lon="5.7663">
        <ele>360.20001220703</ele>
        <time>2018-06-09T16:07:54.000Z</time>
      </trkpt>
      <trkpt lat="46.35982" lon="5.76633">
        <ele>361</ele>
        <time>2018-06-09T16:07:58.000Z</time>
      </trkpt>
      <trkpt lat="46.35961" lon="5.7664">
        <ele>361.79998779297</ele>
        <time>2018-06-09T16:08:10.000Z</time>
      </trkpt>
      <trkpt lat="46.35955" lon="5.76641">
        <ele>361.79998779297</ele>
        <time>2018-06-09T16:08:13.000Z</time>
      </trkpt>
      <trkpt lat="46.35943" lon="5.76639">
        <ele>362</ele>
        <time>2018-06-09T16:08:19.000Z</time>
      </trkpt>
      <trkpt lat="46.3593" lon="5.76643">
        <ele>362</ele>
        <time>2018-06-09T16:08:25.000Z</time>
      </trkpt>
      <trkpt lat="46.35908" lon="5.76642">
        <ele>363</ele>
        <time>2018-06-09T16:08:38.000Z</time>
      </trkpt>
      <trkpt lat="46.35871" lon="5.76596">
        <ele>362.39999389648</ele>
        <time>2018-06-09T16:09:01.000Z</time>
      </trkpt>
      <trkpt lat="46.35869" lon="5.7658">
        <ele>362</ele>
        <time>2018-06-09T16:09:04.000Z</time>
      </trkpt>
      <trkpt lat="46.35844" lon="5.76507">
        <ele>362.39999389648</ele>
        <time>2018-06-09T16:09:40.000Z</time>
      </trkpt>
      <trkpt lat="46.35834" lon="5.76432">
        <ele>361.60000610352</ele>
        <time>2018-06-09T16:10:01.000Z</time>
      </trkpt>
      <trkpt lat="46.35827" lon="5.7643">
        <ele>361</ele>
        <time>2018-06-09T16:10:04.000Z</time>
      </trkpt>
      <trkpt lat="46.35825" lon="5.76431">
        <ele>360.79998779297</ele>
        <time>2018-06-09T16:10:05.000Z</time>
      </trkpt>
      <trkpt lat="46.35819" lon="5.76449">
        <ele>359.79998779297</ele>
        <time>2018-06-09T16:10:08.000Z</time>
      </trkpt>
      <trkpt lat="46.35818" lon="5.76456">
        <ele>359.39999389648</ele>
        <time>2018-06-09T16:10:09.000Z</time>
      </trkpt>
      <trkpt lat="46.35815" lon="5.7647">
        <ele>358.60000610352</ele>
        <time>2018-06-09T16:10:11.000Z</time>
      </trkpt>
      <trkpt lat="46.35811" lon="5.76487">
        <ele>357.60000610352</ele>
        <time>2018-06-09T16:10:13.000Z</time>
      </trkpt>
      <trkpt lat="46.35806" lon="5.76503">
        <ele>356.60000610352</ele>
        <time>2018-06-09T16:10:15.000Z</time>
      </trkpt>
      <trkpt lat="46.35799" lon="5.76517">
        <ele>355.79998779297</ele>
        <time>2018-06-09T16:10:17.000Z</time>
      </trkpt>
      <trkpt lat="46.35791" lon="5.76527">
        <ele>355.39999389648</ele>
        <time>2018-06-09T16:10:19.000Z</time>
      </trkpt>
      <trkpt lat="46.35778" lon="5.76539">
        <ele>355.20001220703</ele>
        <time>2018-06-09T16:10:22.000Z</time>
      </trkpt>
      <trkpt lat="46.35766" lon="5.76544">
        <ele>355.39999389648</ele>
        <time>2018-06-09T16:10:24.000Z</time>
      </trkpt>
      <trkpt lat="46.35757" lon="5.76541">
        <ele>355.79998779297</ele>
        <time>2018-06-09T16:10:26.000Z</time>
      </trkpt>
      <trkpt lat="46.35742" lon="5.76522">
        <ele>356.60000610352</ele>
        <time>2018-06-09T16:10:31.000Z</time>
      </trkpt>
      <trkpt lat="46.35732" lon="5.76489">
        <ele>357.60000610352</ele>
        <time>2018-06-09T16:10:39.000Z</time>
      </trkpt>
      <trkpt lat="46.35711" lon="5.76439">
        <ele>358.79998779297</ele>
        <time>2018-06-09T16:10:53.000Z</time>
      </trkpt>
      <trkpt lat="46.35707" lon="5.76429">
        <ele>359.20001220703</ele>
        <time>2018-06-09T16:10:56.000Z</time>
      </trkpt>
      <trkpt lat="46.35698" lon="5.76413">
        <ele>359.79998779297</ele>
        <time>2018-06-09T16:11:02.000Z</time>
      </trkpt>
      <trkpt lat="46.35684" lon="5.76363">
        <ele>360.79998779297</ele>
        <time>2018-06-09T16:11:20.000Z</time>
      </trkpt>
      <trkpt lat="46.35671" lon="5.76319">
        <ele>362</ele>
        <time>2018-06-09T16:11:34.000Z</time>
      </trkpt>
      <trkpt lat="46.35651" lon="5.76264">
        <ele>363</ele>
        <time>2018-06-09T16:11:52.000Z</time>
      </trkpt>
      <trkpt lat="46.3563" lon="5.76257">
        <ele>363.60000610352</ele>
        <time>2018-06-09T16:12:01.000Z</time>
      </trkpt>
      <trkpt lat="46.35598" lon="5.76206">
        <ele>362.39999389648</ele>
        <time>2018-06-09T16:12:17.000Z</time>
      </trkpt>
      <trkpt lat="46.35593" lon="5.76196">
        <ele>362</ele>
        <time>2018-06-09T16:12:20.000Z</time>
      </trkpt>
      <trkpt lat="46.35585" lon="5.7618">
        <ele>360.79998779297</ele>
        <time>2018-06-09T16:12:24.000Z</time>
      </trkpt>
      <trkpt lat="46.35565" lon="5.76159">
        <ele>360.39999389648</ele>
        <time>2018-06-09T16:12:33.000Z</time>
      </trkpt>
      <trkpt lat="46.35539" lon="5.76129">
        <ele>359.79998779297</ele>
        <time>2018-06-09T16:12:46.000Z</time>
      </trkpt>
      <trkpt lat="46.35529" lon="5.76114">
        <ele>358.79998779297</ele>
        <time>2018-06-09T16:12:52.000Z</time>
      </trkpt>
      <trkpt lat="46.35516" lon="5.76096">
        <ele>357.60000610352</ele>
        <time>2018-06-09T16:12:58.000Z</time>
      </trkpt>
      <trkpt lat="46.35511" lon="5.76081">
        <ele>356.79998779297</ele>
        <time>2018-06-09T16:13:00.000Z</time>
      </trkpt>
      <trkpt lat="46.35508" lon="5.76073">
        <ele>356.39999389648</ele>
        <time>2018-06-09T16:13:01.000Z</time>
      </trkpt>
      <trkpt lat="46.35501" lon="5.76051">
        <ele>355.60000610352</ele>
        <time>2018-06-09T16:13:04.000Z</time>
      </trkpt>
      <trkpt lat="46.355" lon="5.76044">
        <ele>355.20001220703</ele>
        <time>2018-06-09T16:13:05.000Z</time>
      </trkpt>
      <trkpt lat="46.35495" lon="5.7602">
        <ele>354.39999389648</ele>
        <time>2018-06-09T16:13:11.000Z</time>
      </trkpt>
      <trkpt lat="46.35492" lon="5.76012">
        <ele>354.20001220703</ele>
        <time>2018-06-09T16:13:13.000Z</time>
      </trkpt>
      <trkpt lat="46.35491" lon="5.76009">
        <ele>354.20001220703</ele>
        <time>2018-06-09T16:13:14.000Z</time>
      </trkpt>
      <trkpt lat="46.35439" lon="5.7599">
        <ele>353.60000610352</ele>
        <time>2018-06-09T16:13:33.000Z</time>
      </trkpt>
      <trkpt lat="46.35401" lon="5.75961">
        <ele>353.60000610352</ele>
        <time>2018-06-09T16:13:48.000Z</time>
      </trkpt>
      <trkpt lat="46.35354" lon="5.75989">
        <ele>354.79998779297</ele>
        <time>2018-06-09T16:14:06.000Z</time>
      </trkpt>
      <trkpt lat="46.35347" lon="5.75984">
        <ele>355.39999389648</ele>
        <time>2018-06-09T16:14:09.000Z</time>
      </trkpt>
      <trkpt lat="46.35337" lon="5.75967">
        <ele>356</ele>
        <time>2018-06-09T16:14:14.000Z</time>
      </trkpt>
      <trkpt lat="46.35361" lon="5.75956">
        <ele>355.79998779297</ele>
        <time>2018-06-09T16:14:46.000Z</time>
      </trkpt>
      <trkpt lat="46.35352" lon="5.75952">
        <ele>355.39999389648</ele>
        <time>2018-06-09T16:14:56.000Z</time>
      </trkpt>
      <trkpt lat="46.3535" lon="5.75951">
        <ele>355.39999389648</ele>
        <time>2018-06-09T16:14:58.000Z</time>
      </trkpt>
      <trkpt lat="46.35347" lon="5.7595">
        <ele>355.60000610352</ele>
        <time>2018-06-09T16:15:01.000Z</time>
      </trkpt>
    </trkseg>
  </trk>
</gpx>